# Wetter Temperatur Luftdruck Luftfeuchtigkeit Sichtweite Windgeschwindigkeit Windrichtung Zeit
1 Clouds 12 1021 52 0 2.07 43 21:36 02.04.2020
2 Clouds 12 1021 49 0 0.62 35 21:18 02.04.2020
3 Clouds 12 1022 50 0 1.57 42 20:44 02.04.2020
4 Clouds 12 1022 50 0 1.57 42 20:23 02.04.2020
5 Clouds 12 1022 50 0 1.57 42 19:55 02.04.2020
6 Clouds 12 1022 50 0 1.57 42 19:37 02.04.2020
7 Clouds 12 1022 50 0 1.57 42 19:19 02.04.2020
8 Clouds 12 1022 50 0 1.57 42 18:42 02.04.2020
9 Clouds 12 1022 50 0 1.57 42 18:21 02.04.2020
10 Clouds 12 1022 52 0 1.89 50 17:57 02.04.2020
11 Clouds 12 1022 52 0 1.89 50 17:39 02.04.2020
12 Clouds 9 1021 76 10000 2.1 310 17:20 02.04.2020
13 Clouds 9 1021 76 10000 2.1 310 16:57 02.04.2020
14 Clouds 9 1021 76 10000 2.1 310 16:39 02.04.2020
15 Clouds 9 1021 76 10000 2.1 310 16:21 02.04.2020
16 Clouds 8 1021 81 10000 1.5 320 15:55 02.04.2020
17 Clouds 8 1021 81 10000 1.5 320 15:37 02.04.2020
18 Clear 11 1020 62 10000 3.6 350 15:18 02.04.2020
19 Clear 11 1020 62 10000 3.6 350 14:40 02.04.2020
20 Clear 11 1020 62 10000 3.6 350 14:21 02.04.2020
21 Clear 12 1020 58 10000 6.2 360 13:59 02.04.2020
22 Clear 12 1020 58 10000 6.2 360 13:39 02.04.2020
23 Clear 12 1020 58 10000 6.2 360 13:21 02.04.2020
24 Clear 13 1019 58 10000 6.7 350 12:57 02.04.2020
25 Clear 13 1019 58 10000 6.7 350 12:57 02.04.2020
26 Clear 13 1019 58 10000 6.7 350 12:38 02.04.2020
27 Clear 13 1019 58 10000 6.7 350 12:19 02.04.2020
28 Clear 13 1019 58 10000 6.7 350 12:19 02.04.2020
29 Clear 15 1019 54 10000 6.7 330 11:57 02.04.2020
30 Clear 15 1019 54 10000 6.7 330 11:57 02.04.2020
31 Clear 15 1019 54 10000 6.7 330 11:38 02.04.2020
32 Clear 15 1019 54 10000 6.7 330 11:19 02.04.2020
33 Clear 16 1018 51 10000 4.1 300 10:55 02.04.2020
34 Clear 16 1018 51 10000 4.1 300 10:37 02.04.2020
35 Clear 16 1018 51 10000 4.1 300 10:37 02.04.2020
36 Clear 16 1018 51 10000 4.1 300 10:19 02.04.2020
37 Clear 17 1019 45 10000 5.1 310 09:43 02.04.2020
38 Clear 17 1019 45 10000 5.1 310 09:25 02.04.2020
39 Clear 17 1019 45 10000 5.7 310 08:59 02.04.2020
40 Clear 17 1019 45 10000 5.7 310 08:41 02.04.2020
41 Clear 17 1019 45 10000 5.7 310 08:22 02.04.2020
42 Clear 17 1019 42 10000 6.2 310 07:45 02.04.2020
43 Clear 17 1019 42 10000 6.2 310 07:20 02.04.2020
44 Clouds 17 1020 45 10000 5.7 310 06:58 02.04.2020
45 Clouds 17 1020 45 10000 5.7 310 06:21 02.04.2020
46 Clouds 17 1021 48 10000 5.7 330 05:45 02.04.2020
47 Clouds 15 1021 48 10000 4.6 330 04:33 02.04.2020
48 Clouds 12 1019 71 10000 3.1 350 01:35 02.04.2020
49 Clouds 10 1018 76 10000 5.7 360 00:48 02.04.2020
50 Clouds 10 1018 76 10000 5.7 360 00:26 02.04.2020
51 Clouds 10 1018 81 10000 5.7 350 23:54 01.04.2020
52 Clouds 10 1018 81 10000 5.7 350 23:36 01.04.2020
53 Clouds 10 1018 81 10000 5.7 350 23:18 01.04.2020
54 Clouds 9 1015 81 0 6.86 14 22:40 01.04.2020
55 Clouds 9 1015 81 0 6.86 14 22:21 01.04.2020
56 Clouds 9 1015 81 0 6.86 14 21:55 01.04.2020
57 Clouds 9 1015 81 0 6.86 14 21:36 01.04.2020
58 Clear 9 1015 81 0 6.41 320 21:18 01.04.2020
59 Clear 9 1015 81 0 6.41 320 20:54 01.04.2020
60 Clear 9 1015 81 0 6.41 320 20:36 01.04.2020
61 Clear 9 1015 81 0 6.41 320 20:18 01.04.2020
62 Clear 9 1015 81 0 6.41 320 19:41 01.04.2020
63 Clear 9 1015 81 0 6.41 320 19:21 01.04.2020
64 Clear 9 1015 81 0 6.41 320 18:46 01.04.2020
65 Clear 9 1015 81 0 6.41 320 18:46 01.04.2020
66 Clear 9 1015 81 0 6.41 320 18:26 01.04.2020
67 Clear 9 1015 81 0 5.67 312 17:59 01.04.2020
68 Clear 9 1015 81 0 5.67 312 17:39 01.04.2020
69 Clear 9 1014 93 10000 1 0 17:20 01.04.2020
70 Clear 9 1014 93 10000 1 0 16:59 01.04.2020
71 Clear 9 1014 93 10000 1 0 16:40 01.04.2020
72 Clear 9 1014 93 10000 1 0 16:22 01.04.2020
73 Clear 9 1014 93 10000 0.5 0 15:58 01.04.2020
74 Clear 9 1014 93 10000 0.5 0 15:38 01.04.2020
75 Clouds 9 1015 81 10000 3.95 328 15:20 01.04.2020
76 Clouds 9 1015 81 10000 3.95 328 14:56 01.04.2020
77 Clouds 9 1015 81 10000 3.95 328 14:38 01.04.2020
78 Clouds 9 1015 81 10000 3.95 328 14:19 01.04.2020
79 Clouds 11 1014 81 10000 1.5 50 13:57 01.04.2020
80 Clouds 11 1014 81 10000 1.5 50 13:37 01.04.2020
81 Clouds 11 1014 81 10000 1.5 50 13:18 01.04.2020
82 Clouds 11 1013 76 10000 2.1 360 12:54 01.04.2020
83 Clouds 11 1013 76 10000 2.1 360 12:36 01.04.2020
84 Clouds 11 1013 76 10000 2.1 360 12:18 01.04.2020
85 Clouds 13 1012 71 10000 5.1 340 11:40 01.04.2020
86 Clouds 13 1012 71 10000 5.1 340 11:21 01.04.2020
87 Clouds 13 1011 71 10000 8.7 360 10:56 01.04.2020
88 Clouds 13 1011 71 10000 8.7 360 10:37 01.04.2020
89 Clouds 13 1011 71 10000 8.7 360 10:18 01.04.2020
90 Clouds 13 1011 76 10000 9.8 350 09:40 01.04.2020
91 Clouds 13 1011 76 10000 9.8 350 09:22 01.04.2020
92 Clouds 12 1010 87 10000 9.8 340 08:59 01.04.2020
93 Clouds 12 1010 87 10000 9.8 340 08:40 01.04.2020
94 Clouds 12 1010 87 10000 9.8 340 08:40 01.04.2020
95 Clouds 12 1010 87 10000 9.8 340 08:18 01.04.2020
96 Clouds 13 1009 82 10000 7.7 360 07:42 01.04.2020
97 Clouds 12 1009 82 10000 7.7 360 07:20 01.04.2020
98 Rain 12 1009 81 10000 8.2 360 06:47 01.04.2020
99 Rain 12 1009 81 10000 8.2 360 06:22 01.04.2020
100 Rain 12 1009 81 10000 10.3 340 05:53 01.04.2020
101 Rain 12 1009 93 4500 9.3 340 04:30 01.04.2020
102 Rain 12 1008 87 7000 9.8 360 03:28 01.04.2020
103 Rain 13 1007 93 8000 11.8 340 02:49 01.04.2020
104 Rain 14 1007 100 6000 4.1 340 01:54 01.04.2020
105 Rain 14 1007 100 6000 4.1 340 01:29 01.04.2020
106 Rain 14 1007 100 6000 5.7 320 00:58 01.04.2020
107 Rain 14 1007 100 6000 5.7 320 00:40 01.04.2020
108 Rain 14 1007 100 6000 4.6 320 00:18 01.04.2020
109 Rain 14 1006 100 10000 4.6 320 23:41 31.03.2020
110 Rain 14 1007 100 6000 1.5 300 23:22 31.03.2020
111 Rain 14 1012 100 0 0.45 310 22:42 31.03.2020
112 Rain 14 1012 100 0 0.45 310 22:23 31.03.2020
113 Rain 14 1012 100 0 0.45 310 21:59 31.03.2020
114 Rain 14 1012 100 0 0.45 310 21:59 31.03.2020
115 Rain 14 1012 100 0 0.45 310 21:40 31.03.2020
116 Rain 14 1012 100 0 0.45 310 21:22 31.03.2020
117 Rain 14 1012 100 0 0.45 310 20:58 31.03.2020
118 Rain 14 1012 100 0 0.45 310 20:38 31.03.2020
119 Rain 14 1012 100 0 0.45 310 20:20 31.03.2020
120 Rain 14 1012 100 0 0.45 310 19:58 31.03.2020
121 Rain 14 1012 100 0 0.45 310 19:39 31.03.2020
122 Rain 14 1012 100 0 0.45 310 19:21 31.03.2020
123 Rain 14 1013 100 0 0.45 310 18:46 31.03.2020
124 Rain 14 1012 100 0 0.45 310 18:21 31.03.2020
125 Rain 14 1013 100 0 0.45 310 17:58 31.03.2020
126 Rain 14 1013 100 0 0.45 310 17:40 31.03.2020
127 Rain 14 1013 100 0 0.45 310 17:40 31.03.2020
128 Clouds 14 1012 100 10000 1 340 17:21 31.03.2020
129 Clouds 14 1012 100 10000 1 340 17:21 31.03.2020
130 Clouds 14 1012 100 10000 1 340 16:57 31.03.2020
131 Clouds 14 1012 100 10000 1 340 16:37 31.03.2020
132 Clouds 14 1012 100 10000 1 340 16:18 31.03.2020
133 Clouds 14 1013 100 7000 0.5 310 15:56 31.03.2020
134 Clouds 14 1013 100 7000 0.5 310 15:37 31.03.2020
135 Clouds 14 1013 100 7000 0.5 310 15:18 31.03.2020
136 Rain 14 1012 100 7000 1 330 14:43 31.03.2020
137 Rain 14 1012 100 7000 1 330 14:24 31.03.2020
138 Rain 14 1013 93 7000 1 310 13:59 31.03.2020
139 Rain 14 1013 93 7000 1 310 13:41 31.03.2020
140 Rain 15 1012 93 8000 0.5 0 13:19 31.03.2020
141 Rain 15 1012 87 10000 0.5 300 12:46 31.03.2020
142 Rain 15 1012 87 10000 0.5 300 12:21 31.03.2020
143 Rain 15 1012 87 10000 1 150 11:59 31.03.2020
144 Rain 15 1012 87 10000 1 150 11:38 31.03.2020
145 Rain 15 1012 87 10000 1 150 11:19 31.03.2020
146 Rain 16 1012 82 10000 0.5 0 10:55 31.03.2020
147 Rain 16 1012 82 10000 0.5 0 10:55 31.03.2020
148 Rain 16 1012 82 10000 0.5 0 10:37 31.03.2020
149 Rain 16 1012 82 10000 0.5 0 10:19 31.03.2020
150 Rain 16 1012 82 10000 1 0 09:44 31.03.2020
151 Rain 16 1012 82 10000 1 0 09:25 31.03.2020
152 Clouds 16 1013 77 10000 1 0 08:59 31.03.2020
153 Clouds 16 1013 77 10000 1 0 08:40 31.03.2020
154 Clouds 16 1013 77 10000 1 0 08:20 31.03.2020
155 Rain 16 1013 77 10000 1 0 07:57 31.03.2020
156 Rain 16 1013 77 10000 1 0 07:38 31.03.2020
157 Rain 16 1013 77 10000 1 0 07:20 31.03.2020
158 Clouds 16 1014 77 10000 0.5 0 06:53 31.03.2020
159 Clouds 16 1014 77 10000 0.5 0 06:35 31.03.2020
160 Clouds 16 1015 77 10000 2.6 150 05:41 31.03.2020
161 Clouds 15 1015 82 10000 1.5 220 04:33 31.03.2020
162 Clouds 13 1016 87 10000 1.5 110 02:30 31.03.2020
163 Clouds 13 1015 87 10000 2.1 140 01:46 31.03.2020
164 Clouds 12 1015 93 10000 2.6 150 00:52 31.03.2020
165 Clouds 12 1015 93 10000 2.6 150 00:25 31.03.2020
166 Clouds 11 1016 100 10000 0.5 0 23:59 30.03.2020
167 Clouds 11 1016 100 10000 0.5 0 23:38 30.03.2020
168 Clouds 11 1016 100 10000 0.5 0 23:19 30.03.2020
169 Rain 12 1016 87 0 2.24 130 22:56 30.03.2020
170 Rain 12 1016 87 0 2.24 130 22:37 30.03.2020
171 Rain 12 1017 87 0 2.24 130 22:18 30.03.2020
172 Rain 12 1017 87 0 2.24 130 21:55 30.03.2020
173 Rain 12 1017 87 0 2.24 130 21:37 30.03.2020
174 Rain 12 1017 87 0 2.24 130 21:18 30.03.2020
175 Rain 12 1017 87 0 2.24 130 20:42 30.03.2020
176 Rain 12 1017 87 0 2.24 130 20:24 30.03.2020
177 Rain 12 1017 87 0 2.24 130 20:24 30.03.2020
178 Rain 12 1017 87 0 2.24 130 19:59 30.03.2020
179 Rain 12 1017 87 0 2.24 130 19:40 30.03.2020
180 Rain 12 1017 87 0 2.24 130 19:21 30.03.2020
181 Rain 12 1017 87 0 2.24 130 18:57 30.03.2020
182 Rain 12 1017 87 0 2.24 130 18:38 30.03.2020
183 Rain 12 1017 87 0 2.24 130 18:20 30.03.2020
184 Rain 12 1017 87 0 2.24 130 17:57 30.03.2020
185 Rain 12 1017 87 0 2.24 130 17:38 30.03.2020
186 Clouds 12 1018 81 10000 3.1 40 17:18 30.03.2020
187 Clouds 12 1018 81 10000 3.1 40 16:55 30.03.2020
188 Clouds 12 1018 81 10000 3.1 40 16:36 30.03.2020
189 Clouds 12 1018 81 10000 3.1 40 16:18 30.03.2020
190 Clouds 12 1018 81 10000 2.6 30 15:42 30.03.2020
191 Clouds 12 1017 87 10000 2.6 130 15:22 30.03.2020
192 Clouds 12 1017 87 10000 2.6 130 14:59 30.03.2020
193 Clouds 12 1017 87 10000 2.6 130 14:39 30.03.2020
194 Clouds 12 1017 87 10000 2.6 130 14:19 30.03.2020
195 Clouds 12 1017 87 10000 2.6 130 14:19 30.03.2020
196 Clouds 12 1017 93 10000 1.5 120 13:59 30.03.2020
197 Clouds 12 1017 93 10000 1.5 120 13:40 30.03.2020
198 Clouds 12 1017 93 10000 1.5 120 13:20 30.03.2020
199 Rain 12 1017 87 10000 0.5 0 12:54 30.03.2020
200 Rain 12 1017 87 10000 0.5 0 12:36 30.03.2020
201 Rain 12 1017 87 10000 0.5 0 12:18 30.03.2020
202 Rain 12 1016 87 10000 1 0 11:42 30.03.2020
203 Rain 12 1016 87 10000 1 0 11:22 30.03.2020
204 Rain 12 1016 87 10000 1 0 11:22 30.03.2020
205 Rain 12 1016 87 10000 1 0 10:57 30.03.2020
206 Rain 12 1016 87 10000 1 0 10:38 30.03.2020
207 Rain 12 1016 87 10000 1 0 10:20 30.03.2020
208 Rain 12 1017 87 10000 1.5 210 09:41 30.03.2020
209 Rain 12 1017 87 10000 1.5 210 09:20 30.03.2020
210 Rain 12 1017 87 10000 1 0 08:58 30.03.2020
211 Rain 12 1017 87 10000 1 0 08:38 30.03.2020
212 Rain 12 1017 87 10000 1 0 08:20 30.03.2020
213 Rain 12 1017 87 10000 3.1 150 07:44 30.03.2020
214 Rain 12 1017 87 10000 3.1 150 07:23 30.03.2020
215 Rain 12 1018 87 10000 1.5 110 06:47 30.03.2020
216 Rain 12 1018 87 10000 1.5 110 06:25 30.03.2020
217 Rain 12 1018 81 10000 6.2 140 05:44 30.03.2020
218 Rain 12 1019 76 10000 2.1 130 04:31 30.03.2020
219 Rain 12 1019 71 10000 1.5 120 03:57 30.03.2020
220 Rain 12 1018 71 10000 3.6 150 02:45 30.03.2020
221 Rain 11 1018 71 10000 0.5 0 01:57 30.03.2020
222 Clouds 11 1017 76 10000 1.5 200 00:59 30.03.2020
223 Clouds 11 1017 76 10000 1.5 200 00:28 30.03.2020
224 Clouds 11 1018 76 10000 2.6 340 23:56 29.03.2020
225 Clouds 11 1018 76 10000 2.6 340 23:37 29.03.2020
226 Clouds 10 1018 76 10000 4.6 20 23:19 29.03.2020
227 Clouds 12 1018 70 0 3.48 48 22:40 29.03.2020
228 Clouds 12 1017 66 0 5.36 360 22:20 29.03.2020
229 Clouds 12 1017 66 0 5.36 360 21:59 29.03.2020
230 Clouds 12 1017 66 0 5.36 360 21:38 29.03.2020
231 Clouds 12 1017 66 0 5.36 360 21:20 29.03.2020
232 Clouds 12 1017 66 0 5.36 360 20:55 29.03.2020
233 Clouds 12 1017 66 0 5.36 360 20:37 29.03.2020
234 Clouds 12 1017 66 0 5.36 360 20:19 29.03.2020
235 Clouds 12 1017 66 0 5.36 360 19:56 29.03.2020
236 Clouds 12 1017 66 0 5.36 360 19:38 29.03.2020
237 Clouds 12 1017 66 0 5.36 360 19:38 29.03.2020
238 Clouds 12 1017 66 0 5.36 360 19:19 29.03.2020
239 Clouds 12 1017 66 0 5.36 360 18:57 29.03.2020
240 Clouds 12 1017 66 0 5.36 360 18:38 29.03.2020
241 Clouds 12 1017 66 0 5.36 360 18:18 29.03.2020
242 Clouds 12 1017 66 0 5.36 360 17:55 29.03.2020
243 Clouds 12 1017 66 0 5.36 360 17:36 29.03.2020
244 Clouds 11 1018 71 10000 4.1 360 17:18 29.03.2020
245 Clouds 11 1018 71 10000 4.1 360 16:55 29.03.2020
246 Clouds 11 1018 71 10000 4.1 360 16:36 29.03.2020
247 Clouds 11 1018 71 10000 4.1 360 16:36 29.03.2020
248 Clouds 11 1018 71 10000 4.1 360 16:36 29.03.2020
249 Clouds 11 1018 71 10000 4.1 360 16:18 29.03.2020
250 Clouds 11 1018 71 10000 2.6 360 15:41 29.03.2020
251 Clouds 12 1017 66 10000 5.7 360 15:22 29.03.2020
252 Clouds 12 1017 66 10000 5.7 360 14:57 29.03.2020
253 Clouds 12 1017 66 10000 5.7 360 14:38 29.03.2020
254 Clouds 12 1017 66 10000 5.7 360 14:19 29.03.2020
255 Clouds 12 1016 62 10000 8.7 360 13:56 29.03.2020
256 Clouds 12 1016 62 10000 8.7 360 13:37 29.03.2020
257 Clouds 12 1016 62 10000 8.7 360 13:19 29.03.2020
258 Clouds 12 1016 62 10000 8.7 360 12:55 29.03.2020
259 Clouds 12 1016 62 10000 8.7 360 12:37 29.03.2020
260 Clouds 12 1016 62 10000 8.7 360 12:18 29.03.2020
261 Clouds 12 1016 62 10000 8.7 360 12:18 29.03.2020
262 Clouds 13 1016 66 10000 9.3 350 11:39 29.03.2020
263 Clouds 13 1016 66 10000 9.3 350 11:21 29.03.2020
264 Clouds 13 1016 67 10000 9.3 340 10:55 29.03.2020
265 Clouds 13 1016 67 10000 9.3 340 10:37 29.03.2020
266 Clouds 14 1016 67 10000 9.3 340 10:18 29.03.2020
267 Clouds 15 1015 59 10000 8.7 340 09:39 29.03.2020
268 Clouds 16 1015 59 10000 8.7 340 09:19 29.03.2020
269 Clouds 17 1015 48 10000 6.7 310 08:52 29.03.2020
270 Clouds 17 1015 48 10000 6.7 310 08:28 29.03.2020
271 Clouds 17 1016 48 10000 5.7 320 07:56 29.03.2020
272 Clouds 17 1016 48 10000 5.7 320 07:38 29.03.2020
273 Clouds 16 1016 48 10000 5.7 320 07:19 29.03.2020
274 Clouds 15 1017 51 10000 8.2 360 04:59 29.03.2020
275 Clouds 14 1018 54 10000 6.7 10 03:42 29.03.2020
276 Clouds 14 1018 54 10000 6.7 10 03:24 29.03.2020
277 Clouds 13 1018 54 10000 6.2 50 01:50 29.03.2020
278 Clouds 13 1018 54 10000 6.2 50 01:23 29.03.2020
279 Clouds 12 1017 62 10000 4.1 20 00:53 29.03.2020
280 Clouds 12 1017 62 10000 4.1 20 00:29 29.03.2020
281 Clouds 10 1018 76 10000 3.1 50 23:42 28.03.2020
282 Clouds 10 1018 76 10000 3.1 50 23:23 28.03.2020
283 Clouds 10 1018 76 10000 6.2 360 22:57 28.03.2020
284 Clouds 10 1018 76 10000 6.2 360 22:37 28.03.2020
285 Clouds 10 1018 76 10000 6.2 360 22:18 28.03.2020
286 Clouds 11 1014 81 0 5.81 360 21:41 28.03.2020
287 Clouds 11 1014 81 0 5.81 360 21:23 28.03.2020
288 Clouds 11 1014 81 0 5.81 360 20:58 28.03.2020
289 Clouds 11 1014 81 0 5.81 360 20:39 28.03.2020
290 Clouds 11 1014 81 0 5.81 360 20:21 28.03.2020
291 Clouds 11 1014 81 0 5.81 360 19:56 28.03.2020
292 Clouds 11 1014 81 0 5.81 360 19:56 28.03.2020
293 Clouds 11 1014 81 0 5.81 360 19:37 28.03.2020
294 Clouds 11 1014 81 0 5.81 360 19:37 28.03.2020
295 Clouds 11 1014 81 0 5.81 360 19:18 28.03.2020
296 Clouds 11 1014 81 0 5.81 360 18:47 28.03.2020
297 Clouds 11 1014 81 0 5.81 360 18:23 28.03.2020
298 Clouds 11 1014 81 0 5.81 360 17:58 28.03.2020
299 Clouds 11 1014 81 0 5.81 360 17:38 28.03.2020
300 Rain 11 1014 81 0 5.81 360 17:19 28.03.2020
301 Rain 11 1014 81 0 5.81 360 16:42 28.03.2020
302 Rain 10 1016 87 10000 5.1 10 16:20 28.03.2020
303 Rain 10 1016 87 10000 5.1 10 16:20 28.03.2020
304 Rain 10 1016 87 10000 5.1 10 15:56 28.03.2020
305 Rain 10 1016 87 10000 5.1 10 15:37 28.03.2020
306 Rain 10 1016 87 10000 5.1 10 15:18 28.03.2020
307 Rain 10 1015 87 10000 5.1 30 14:42 28.03.2020
308 Rain 11 1014 81 10000 6.2 360 14:22 28.03.2020
309 Rain 11 1014 81 10000 6.2 360 13:55 28.03.2020
310 Rain 11 1014 81 10000 6.2 360 13:36 28.03.2020
311 Rain 11 1014 81 10000 6.2 360 13:18 28.03.2020
312 Rain 11 1014 87 10000 7.7 350 12:37 28.03.2020
313 Rain 11 1014 87 10000 7.7 350 12:19 28.03.2020
314 Rain 11 1013 87 10000 8.2 350 11:42 28.03.2020
315 Rain 11 1013 87 10000 8.2 350 11:21 28.03.2020
316 Rain 11 1013 93 10000 7.2 350 10:43 28.03.2020
317 Rain 11 1013 93 10000 7.2 350 10:24 28.03.2020
318 Rain 12 1013 87 9000 7.7 350 09:59 28.03.2020
319 Rain 12 1013 87 9000 7.7 350 09:39 28.03.2020
320 Rain 12 1013 87 9000 7.7 350 09:21 28.03.2020
321 Rain 12 1012 93 10000 8.2 350 08:42 28.03.2020
322 Rain 12 1012 93 10000 8.2 350 08:24 28.03.2020
323 Rain 12 1012 87 9000 7.2 350 07:52 28.03.2020
324 Rain 12 1012 87 9000 7.2 350 07:34 28.03.2020
325 Rain 12 1012 93 10000 7.7 350 06:45 28.03.2020
326 Rain 12 1012 93 10000 7.7 350 06:20 28.03.2020
327 Rain 13 1014 93 10000 8.2 330 05:24 28.03.2020
328 Rain 13 1014 87 10000 6.2 360 04:48 28.03.2020
329 Rain 13 1014 87 10000 6.2 360 04:28 28.03.2020
330 Rain 14 1015 87 10000 5.7 360 02:46 28.03.2020
331 Rain 14 1015 87 10000 6.7 350 01:46 28.03.2020
332 Rain 14 1015 87 10000 6.7 350 01:20 28.03.2020
333 Rain 14 1014 87 10000 6.7 360 00:47 28.03.2020
334 Rain 14 1014 87 10000 6.7 360 00:20 28.03.2020
335 Clouds 14 1014 93 10000 4.6 340 23:43 27.03.2020
336 Clouds 14 1014 93 10000 4.6 340 23:23 27.03.2020
337 Clouds 14 1014 93 10000 4.6 310 22:56 27.03.2020
338 Rain 14 1014 93 10000 3.1 30 22:38 27.03.2020
339 Rain 14 1014 93 10000 3.1 30 22:20 27.03.2020
340 Clouds 15 1014 93 0 2.68 320 21:55 27.03.2020
341 Clouds 15 1014 93 0 2.68 320 21:37 27.03.2020
342 Clouds 15 1014 93 0 2.68 320 21:19 27.03.2020
343 Clouds 15 1014 93 0 2.68 320 20:42 27.03.2020
344 Clouds 13 1015 80 0 1.47 346 20:21 27.03.2020
345 Clouds 14 1014 79 0 3.44 302 19:59 27.03.2020
346 Clouds 14 1014 79 0 3.44 302 19:40 27.03.2020
347 Clouds 14 1014 79 0 3.44 302 19:21 27.03.2020
348 Clouds 14 1014 79 0 3.44 302 18:56 27.03.2020
349 Clouds 14 1014 79 0 3.44 302 18:38 27.03.2020
350 Clouds 15 1014 93 0 2.68 320 18:19 27.03.2020
351 Clouds 15 1014 93 0 2.68 320 17:40 27.03.2020
352 Clouds 15 1014 93 0 2.68 320 17:20 27.03.2020
353 Clouds 15 1014 93 0 2.68 320 16:45 27.03.2020
354 Clouds 15 1014 93 10000 6.2 280 16:27 27.03.2020
355 Clouds 15 1014 93 10000 6.2 280 15:57 27.03.2020
356 Clouds 15 1014 93 10000 6.2 280 15:39 27.03.2020
357 Clouds 15 1014 93 0 2.68 320 15:21 27.03.2020
358 Clouds 15 1014 93 0 2.68 320 14:45 27.03.2020
359 Clouds 15 1014 93 10000 3.1 320 14:24 27.03.2020
360 Clouds 15 1014 93 10000 3.1 320 13:56 27.03.2020
361 Clouds 15 1014 93 10000 3.1 320 13:37 27.03.2020
362 Clouds 15 1014 93 10000 3.1 320 13:18 27.03.2020
363 Clouds 15 1013 93 10000 4.6 320 12:43 27.03.2020
364 Clouds 15 1013 93 10000 4.6 320 12:19 27.03.2020
365 Clouds 15 1013 100 10000 5.1 340 11:57 27.03.2020
366 Clouds 15 1012 100 10000 4.1 360 11:39 27.03.2020
367 Clouds 15 1012 100 10000 4.1 360 11:21 27.03.2020
368 Clouds 15 1013 100 9000 4.6 350 10:42 27.03.2020
369 Clouds 16 1012 93 9000 5.1 310 10:23 27.03.2020
370 Rain 17 1011 93 10000 3.6 280 09:59 27.03.2020
371 Rain 17 1011 93 10000 3.6 280 09:41 27.03.2020
372 Rain 17 1011 93 10000 3.6 280 09:23 27.03.2020
373 Clouds 17 1011 100 10000 3.6 270 08:59 27.03.2020
374 Clouds 17 1011 100 10000 3.6 270 08:40 27.03.2020
375 Clouds 17 1011 100 10000 3.6 270 08:22 27.03.2020
376 Rain 18 1011 100 3000 2.6 0 07:57 27.03.2020
377 Rain 18 1011 100 3000 2.6 0 07:57 27.03.2020
378 Rain 18 1011 100 3000 2.6 0 07:38 27.03.2020
379 Rain 19 1010 93 3500 1.5 0 07:20 27.03.2020
380 Rain 20 1010 88 8000 3.6 0 06:39 27.03.2020
381 Rain 20 1011 88 8000 4.1 0 05:45 27.03.2020
382 Rain 19 1013 93 3000 2.6 0 03:26 27.03.2020
383 Rain 20 1013 88 4000 6.7 180 01:55 27.03.2020
384 Rain 19 1012 88 10000 8.2 170 00:58 27.03.2020
385 Rain 19 1012 88 10000 8.2 170 00:38 27.03.2020
386 Rain 19 1012 88 10000 8.2 170 00:18 27.03.2020
387 Rain 19 1012 88 10000 8.2 170 00:18 27.03.2020
388 Rain 19 1012 88 6000 8.7 160 23:36 26.03.2020
389 Rain 19 1012 88 6000 8.7 160 23:18 26.03.2020
390 Rain 19 1012 88 8000 10.8 170 22:54 26.03.2020
391 Rain 19 1012 88 8000 10.8 170 22:36 26.03.2020
392 Rain 19 1012 88 8000 10.8 170 22:18 26.03.2020
393 Rain 18 1014 92 0 7.73 185 21:39 26.03.2020
394 Rain 18 1014 92 0 7.73 185 21:21 26.03.2020
395 Rain 18 1014 92 0 7.73 185 20:58 26.03.2020
396 Rain 18 1014 92 0 7.73 185 20:39 26.03.2020
397 Rain 18 1014 92 0 7.73 185 20:20 26.03.2020
398 Rain 18 1014 91 0 8 181 19:57 26.03.2020
399 Rain 18 1014 91 0 8 181 19:57 26.03.2020
400 Rain 18 1014 91 0 8 181 19:39 26.03.2020
401 Rain 17 1018 93 0 5.81 120 19:20 26.03.2020
402 Rain 17 1018 93 0 5.81 120 19:20 26.03.2020
403 Rain 17 1018 93 0 5.81 120 18:58 26.03.2020
404 Rain 17 1018 93 0 5.81 120 18:58 26.03.2020
405 Rain 17 1018 93 0 5.81 120 18:39 26.03.2020
406 Rain 17 1018 93 0 5.81 120 18:21 26.03.2020
407 Rain 17 1018 93 0 5.81 120 17:43 26.03.2020
408 Rain 18 1017 88 0 8.28 170 17:19 26.03.2020
409 Rain 18 1017 88 0 8.28 170 16:47 26.03.2020
410 Rain 18 1017 88 0 8.28 170 16:28 26.03.2020
411 Rain 18 1017 88 0 8.28 170 15:59 26.03.2020
412 Rain 18 1017 88 0 8.28 170 15:41 26.03.2020
413 Rain 18 1017 88 0 8.28 170 15:22 26.03.2020
414 Rain 18 1017 88 0 8.28 170 14:58 26.03.2020
415 Rain 18 1017 88 0 8.28 170 14:39 26.03.2020
416 Rain 17 1017 93 7000 6.2 120 14:19 26.03.2020
417 Rain 17 1017 93 7000 6.2 120 13:44 26.03.2020
418 Rain 17 1017 93 7000 6.2 120 13:24 26.03.2020
419 Rain 17 1017 93 7000 6.2 120 12:57 26.03.2020
420 Rain 17 1017 93 5000 4.6 120 12:38 26.03.2020
421 Rain 16 1016 100 5000 5.1 120 12:19 26.03.2020
422 Rain 16 1016 100 5000 5.1 120 11:45 26.03.2020
423 Rain 16 1016 100 5000 5.1 120 11:45 26.03.2020
424 Rain 16 1016 100 5000 5.1 120 11:21 26.03.2020
425 Rain 15 1017 100 4500 4.1 140 10:56 26.03.2020
426 Rain 15 1017 100 5000 4.6 140 10:37 26.03.2020
427 Rain 15 1017 100 5000 4.6 140 10:18 26.03.2020
428 Rain 15 1017 100 5000 5.7 140 09:43 26.03.2020
429 Rain 16 1017 93 5000 4.6 140 09:19 26.03.2020
430 Rain 16 1017 93 5000 4.6 140 09:19 26.03.2020
431 Rain 16 1017 100 5000 5.1 120 08:54 26.03.2020
432 Rain 16 1017 100 5000 5.1 120 08:36 26.03.2020
433 Rain 16 1017 100 5000 5.1 120 08:18 26.03.2020
434 Rain 15 1018 100 3000 4.1 150 07:41 26.03.2020
435 Rain 15 1018 100 3000 4.1 150 07:20 26.03.2020
436 Rain 14 1018 100 3000 6.2 160 06:47 26.03.2020
437 Rain 15 1019 93 4500 5.1 160 05:52 26.03.2020
438 Clouds 15 1019 87 10000 8.2 140 03:58 26.03.2020
439 Clouds 15 1019 87 10000 8.2 140 03:35 26.03.2020
440 Clouds 14 1020 93 10000 6.7 160 02:53 26.03.2020
441 Clouds 14 1019 93 9000 7.7 140 01:50 26.03.2020
442 Clouds 14 1020 87 9000 5.1 150 00:45 26.03.2020
443 Rain 14 1020 87 7000 3.1 150 23:47 25.03.2020
444 Rain 14 1020 87 7000 3.1 150 23:28 25.03.2020
445 Rain 14 1020 87 10000 6.2 160 22:58 25.03.2020
446 Rain 14 1020 87 10000 6.2 160 22:38 25.03.2020
447 Rain 15 1020 87 10000 6.2 160 22:19 25.03.2020
448 Clouds 15 1020 72 0 2.24 120 21:55 25.03.2020
449 Clouds 15 1020 72 0 2.24 120 21:37 25.03.2020
450 Clouds 15 1020 72 0 2.24 120 21:18 25.03.2020
451 Clouds 15 1020 72 0 2.24 120 20:40 25.03.2020
452 Clouds 15 1021 72 0 2.24 120 20:20 25.03.2020
453 Clouds 15 1021 72 0 2.24 120 19:58 25.03.2020
454 Clouds 15 1021 72 0 2.24 120 19:39 25.03.2020
455 Clouds 15 1021 72 0 2.24 120 19:21 25.03.2020
456 Clouds 15 1020 72 0 2.24 120 18:54 25.03.2020
457 Clouds 15 1020 72 0 2.24 120 18:36 25.03.2020
458 Clouds 15 1020 72 0 2.24 120 18:18 25.03.2020
459 Clouds 15 1020 72 0 2.24 120 17:41 25.03.2020
460 Clouds 15 1020 72 0 2.24 120 17:22 25.03.2020
461 Clouds 15 1020 72 0 2.24 120 16:59 25.03.2020
462 Clouds 15 1020 72 0 2.24 120 16:39 25.03.2020
463 Clouds 15 1020 72 0 2.24 120 16:21 25.03.2020
464 Clouds 15 1020 72 0 2.24 120 16:21 25.03.2020
465 Clouds 15 1020 72 0 2.24 120 15:43 25.03.2020
466 Clouds 15 1020 72 0 2.24 120 15:21 25.03.2020
467 Clouds 15 1020 72 0 2.24 120 14:59 25.03.2020
468 Clouds 15 1020 72 0 2.24 120 14:40 25.03.2020
469 Clouds 15 1020 72 10000 2.6 120 14:20 25.03.2020
470 Clouds 15 1020 72 10000 2.6 120 13:45 25.03.2020
471 Clouds 15 1020 72 10000 2.6 120 13:24 25.03.2020
472 Clouds 15 1020 82 10000 2.1 150 12:40 25.03.2020
473 Clouds 15 1020 82 10000 2.1 150 12:21 25.03.2020
474 Clouds 16 1019 72 10000 0.5 300 11:59 25.03.2020
475 Clouds 16 1019 72 10000 0.5 300 11:41 25.03.2020
476 Clouds 16 1019 72 10000 0.5 300 11:21 25.03.2020
477 Clouds 18 1019 59 10000 2.1 270 10:58 25.03.2020
478 Clouds 18 1019 59 10000 2.1 270 10:40 25.03.2020
479 Clouds 18 1019 59 10000 2.1 270 10:18 25.03.2020
480 Clouds 19 1019 52 10000 3.6 270 09:56 25.03.2020
481 Clouds 19 1019 52 10000 3.6 270 09:38 25.03.2020
482 Clouds 19 1019 52 10000 3.6 270 09:19 25.03.2020
483 Clouds 19 1019 52 10000 4.1 280 08:41 25.03.2020
484 Clouds 19 1019 52 10000 4.1 280 08:23 25.03.2020
485 Clouds 20 1019 52 10000 4.6 280 07:56 25.03.2020
486 Clouds 20 1019 52 10000 4.6 280 07:37 25.03.2020
487 Clouds 20 1019 52 10000 4.6 280 07:18 25.03.2020
488 Clouds 19 1020 48 10000 3.6 280 06:41 25.03.2020
489 Clouds 19 1020 48 10000 3.6 280 06:23 25.03.2020
490 Clouds 19 1021 42 10000 2.6 280 05:47 25.03.2020
491 Clouds 19 1021 42 10000 2.1 0 04:42 25.03.2020
492 Clouds 16 1021 44 10000 2.1 350 03:57 25.03.2020
493 Clouds 16 1021 44 10000 2.1 350 03:32 25.03.2020
494 Clear 12 1021 62 10000 2.6 140 01:40 25.03.2020
495 Clear 11 1022 57 10000 2.6 140 00:50 25.03.2020
496 Clear 11 1022 57 10000 2.6 140 00:27 25.03.2020
497 Clear 9 1021 70 10000 1.5 120 23:55 24.03.2020
498 Clear 9 1021 70 10000 1.5 120 23:28 24.03.2020
499 Clear 8 1021 65 10000 1.5 130 22:58 24.03.2020
500 Clear 8 1021 65 0 1.34 130 22:38 24.03.2020
501 Clear 8 1021 65 0 1.34 130 22:38 24.03.2020
502 Clear 8 1021 65 0 1.34 130 22:20 24.03.2020
503 Clear 12 1021 53 0 3.09 95 21:58 24.03.2020
504 Clear 12 1021 53 0 3.09 95 21:40 24.03.2020
505 Clear 12 1021 53 0 3.09 95 21:19 24.03.2020
506 Clear 12 1021 53 0 3.09 95 20:58 24.03.2020
507 Clear 12 1021 53 0 3.09 95 20:39 24.03.2020
508 Clear 12 1021 53 0 3.09 95 20:21 24.03.2020
509 Clear 12 1020 53 0 3.09 88 19:47 24.03.2020
510 Clear 12 1020 53 0 3.09 88 19:22 24.03.2020
511 Clear 12 1020 53 0 3.09 88 18:57 24.03.2020
512 Clear 12 1020 53 0 3.09 88 18:38 24.03.2020
513 Clear 12 1020 53 0 3.09 88 18:20 24.03.2020
514 Clear 12 1020 53 0 3.09 88 17:56 24.03.2020
515 Clear 12 1020 53 0 3.09 88 17:38 24.03.2020
516 Clear 13 1021 51 0 3.9 75 17:19 24.03.2020
517 Clear 14 1021 56 0 4.87 78 16:56 24.03.2020
518 Clear 14 1021 56 0 4.87 78 16:37 24.03.2020
519 Clear 12 1020 57 10000 2.6 360 16:19 24.03.2020
520 Clear 11 1020 57 10000 2.6 360 15:42 24.03.2020
521 Clear 11 1020 57 10000 2.6 360 15:23 24.03.2020
522 Clear 12 1020 56 10000 2.1 30 14:44 24.03.2020
523 Clear 13 1019 50 10000 6.7 340 14:22 24.03.2020
524 Clear 13 1019 50 10000 6.7 340 13:58 24.03.2020
525 Clear 13 1019 50 10000 6.7 340 13:40 24.03.2020
526 Clear 13 1019 50 10000 6.7 340 13:21 24.03.2020
527 Clear 14 1019 47 10000 7.7 340 12:42 24.03.2020
528 Clear 14 1019 47 10000 7.7 340 12:24 24.03.2020
529 Clear 15 1018 51 10000 6.7 350 11:41 24.03.2020
530 Clear 14 1018 51 10000 6.7 350 11:21 24.03.2020
531 Clouds 15 1017 55 10000 3.1 280 10:59 24.03.2020
532 Clouds 15 1017 55 10000 3.1 280 10:40 24.03.2020
533 Clouds 15 1017 55 10000 3.1 280 10:40 24.03.2020
534 Clouds 15 1017 55 10000 3.1 280 10:18 24.03.2020
535 Clouds 15 1017 55 10000 3.1 280 10:18 24.03.2020
536 Clouds 15 1017 55 10000 3.1 280 10:18 24.03.2020
537 Clouds 18 1017 48 10000 2.6 270 09:44 24.03.2020
538 Clouds 18 1017 48 10000 2.6 270 09:25 24.03.2020
539 Clouds 19 1017 34 10000 2.1 220 08:57 24.03.2020
540 Clouds 19 1017 34 10000 2.1 220 08:37 24.03.2020
541 Clouds 19 1017 34 10000 2.1 220 08:18 24.03.2020
542 Clouds 19 1017 34 10000 2.1 220 07:44 24.03.2020
543 Clouds 19 1017 34 10000 2.1 220 07:22 24.03.2020
544 Clouds 19 1017 34 10000 2.1 220 07:22 24.03.2020
545 Clouds 18 1017 42 10000 2.1 260 06:38 24.03.2020
546 Clouds 18 1017 42 10000 2.1 260 06:18 24.03.2020
547 Clouds 16 1018 55 10000 1 0 04:51 24.03.2020
548 Clouds 16 1019 59 10000 3.6 160 03:22 24.03.2020
549 Clouds 15 1019 67 10000 2.6 160 02:41 24.03.2020
550 Clear 10 1018 76 10000 2.1 130 00:54 24.03.2020
551 Clear 10 1018 76 10000 2.1 130 00:27 24.03.2020
552 Clear 8 1017 87 10000 3.6 140 23:56 23.03.2020
553 Clear 8 1017 87 10000 3.6 140 23:37 23.03.2020
554 Clear 8 1017 87 10000 3.6 140 23:19 23.03.2020
555 Clear 8 1017 87 10000 3.6 140 22:44 23.03.2020
556 Clear 7 1017 87 10000 2.6 40 22:23 23.03.2020
557 Clear 11 1017 71 0 3.01 337 21:55 23.03.2020
558 Clear 11 1017 71 0 3.01 337 21:37 23.03.2020
559 Clear 11 1017 71 0 3.01 337 21:18 23.03.2020
560 Clear 11 1017 71 0 3.01 337 20:42 23.03.2020
561 Clear 11 1017 71 0 3.01 337 20:24 23.03.2020
562 Clear 11 1017 71 0 4.69 329 19:56 23.03.2020
563 Clear 11 1017 71 0 4.69 329 19:37 23.03.2020
564 Clear 11 1017 71 0 4.69 329 19:19 23.03.2020
565 Clear 11 1017 71 0 4.69 329 18:44 23.03.2020
566 Clear 11 1017 71 0 4.69 329 18:25 23.03.2020
567 Clear 11 1017 71 0 4.69 329 17:59 23.03.2020
568 Clear 11 1017 71 0 4.69 329 17:41 23.03.2020
569 Clear 11 1017 71 0 4.21 330 17:19 23.03.2020
570 Clear 11 1017 71 0 4.21 330 16:44 23.03.2020
571 Clouds 10 1016 76 10000 1 20 16:25 23.03.2020
572 Clouds 10 1016 76 10000 1 20 15:58 23.03.2020
573 Clouds 10 1016 76 10000 1 20 15:39 23.03.2020
574 Clouds 10 1016 76 10000 1 20 15:18 23.03.2020
575 Clear 11 1017 66 10000 1 270 14:37 23.03.2020
576 Clear 11 1017 66 10000 1 270 14:37 23.03.2020
577 Clouds 11 1017 66 10000 1 270 14:19 23.03.2020
578 Clouds 11 1017 71 10000 1 0 13:57 23.03.2020
579 Clouds 11 1017 71 10000 1 0 13:38 23.03.2020
580 Clouds 11 1017 71 10000 1 0 13:20 23.03.2020
581 Clouds 13 1016 66 10000 4.6 300 12:43 23.03.2020
582 Clouds 13 1016 66 10000 4.6 300 12:23 23.03.2020
583 Clouds 13 1016 54 10000 5.7 300 11:56 23.03.2020
584 Clouds 13 1016 54 10000 5.7 300 11:37 23.03.2020
585 Clouds 13 1016 54 10000 5.7 300 11:37 23.03.2020
586 Clouds 13 1016 54 10000 5.7 300 11:18 23.03.2020
587 Clouds 15 1015 48 10000 5.7 310 10:42 23.03.2020
588 Clouds 15 1015 48 10000 5.7 310 10:23 23.03.2020
589 Clouds 16 1015 42 10000 7.2 310 09:59 23.03.2020
590 Clouds 17 1015 42 10000 7.2 310 09:41 23.03.2020
591 Clouds 17 1015 42 10000 7.2 310 09:19 23.03.2020
592 Clouds 19 1014 24 10000 3.6 320 08:38 23.03.2020
593 Clear 19 1014 24 10000 3.6 320 08:20 23.03.2020
594 Clear 19 1014 24 10000 6.2 350 07:51 23.03.2020
595 Clear 19 1014 24 10000 6.2 350 07:33 23.03.2020
596 Clear 20 1015 22 10000 7.2 350 06:55 23.03.2020
597 Clear 20 1015 22 10000 7.2 350 06:34 23.03.2020
598 Clouds 19 1015 34 10000 7.7 330 05:44 23.03.2020
599 Clouds 17 1016 42 10000 7.2 340 03:54 23.03.2020
600 Clouds 16 1016 48 10000 5.7 340 02:45 23.03.2020
601 Clouds 15 1016 54 10000 7.2 360 01:50 23.03.2020
602 Clouds 13 1016 82 10000 5.7 340 00:47 23.03.2020
603 Clouds 13 1016 82 10000 5.7 340 00:27 23.03.2020
604 Clouds 12 1015 87 10000 2.6 320 23:42 22.03.2020
605 Clouds 12 1015 87 10000 2.6 320 23:24 22.03.2020
606 Clouds 11 1015 87 10000 3.1 340 22:42 22.03.2020
607 Clouds 11 1015 87 10000 3.1 340 22:21 22.03.2020
608 Clouds 13 1014 78 0 6.74 344 21:41 22.03.2020
609 Clouds 13 1014 78 0 6.74 344 21:23 22.03.2020
610 Clouds 13 1014 78 0 6.74 344 20:59 22.03.2020
611 Clouds 13 1014 78 0 6.74 344 20:40 22.03.2020
612 Clouds 14 1015 77 0 5.64 4 20:22 22.03.2020
613 Clouds 15 1013 81 0 5.14 337 19:56 22.03.2020
614 Clouds 15 1013 81 0 5.14 337 19:38 22.03.2020
615 Clouds 15 1013 81 0 5.14 337 19:19 22.03.2020
616 Clouds 15 1013 81 0 5.14 337 18:57 22.03.2020
617 Clouds 15 1013 81 0 5.14 337 18:39 22.03.2020
618 Clouds 15 1013 81 0 5.14 337 18:19 22.03.2020
619 Clouds 15 1013 81 0 5.14 337 17:56 22.03.2020
620 Clouds 15 1013 81 0 5.14 337 17:37 22.03.2020
621 Clouds 16 1013 91 0 2.95 340 17:19 22.03.2020
622 Clouds 16 1013 91 0 2.95 340 16:55 22.03.2020
623 Clouds 16 1013 91 0 2.95 340 16:37 22.03.2020
624 Clouds 14 1012 87 10000 2.1 310 16:19 22.03.2020
625 Clouds 14 1012 87 10000 2.1 310 16:19 22.03.2020
626 Clouds 14 1012 87 10000 2.1 310 15:39 22.03.2020
627 Clouds 14 1012 87 10000 2.1 310 15:19 22.03.2020
628 Clouds 14 1012 87 10000 4.1 290 14:46 22.03.2020
629 Clouds 14 1012 87 10000 4.1 290 14:18 22.03.2020
630 Clouds 14 1012 87 10000 2.1 310 13:42 22.03.2020
631 Clouds 14 1012 87 10000 2.1 310 13:20 22.03.2020
632 Clouds 14 1011 87 10000 4.6 320 12:47 22.03.2020
633 Clouds 14 1011 87 10000 4.6 320 12:23 22.03.2020
634 Clouds 14 1011 87 10000 4.6 320 12:23 22.03.2020
635 Clouds 14 1011 87 10000 4.6 320 12:23 22.03.2020
636 Clouds 16 1010 82 10000 3.1 320 11:59 22.03.2020
637 Clouds 16 1010 82 10000 3.1 320 11:41 22.03.2020
638 Clouds 16 1010 82 10000 3.1 320 11:23 22.03.2020
639 Clouds 17 1010 82 10000 5.7 320 10:57 22.03.2020
640 Clouds 17 1010 82 10000 5.7 320 10:39 22.03.2020
641 Clouds 17 1010 82 10000 5.7 320 10:20 22.03.2020
642 Clouds 19 1009 77 10000 1.5 280 09:42 22.03.2020
643 Clouds 19 1009 77 10000 1.5 280 09:22 22.03.2020
644 Clouds 19 1009 77 10000 1.5 280 08:44 22.03.2020
645 Clouds 19 1009 77 10000 1.5 280 08:24 22.03.2020
646 Clouds 18 1009 77 10000 2.6 360 07:52 22.03.2020
647 Clouds 18 1009 77 10000 2.6 360 07:26 22.03.2020
648 Clouds 18 1010 77 10000 3.1 300 06:35 22.03.2020
649 Clouds 18 1011 77 10000 2.1 170 05:35 22.03.2020
650 Clouds 17 1012 88 10000 1 0 03:30 22.03.2020
651 Rain 15 1012 87 10000 3.1 130 01:27 22.03.2020
652 Rain 15 1012 87 10000 3.6 150 00:48 22.03.2020
653 Rain 15 1012 87 10000 3.6 150 00:28 22.03.2020
654 Clouds 15 1012 87 10000 6.2 140 23:43 21.03.2020
655 Clouds 15 1012 87 10000 6.2 140 23:19 21.03.2020
656 Clouds 15 1012 87 10000 4.6 130 22:55 21.03.2020
657 Clouds 15 1012 87 10000 4.6 130 22:37 21.03.2020
658 Clouds 15 1012 77 10000 2.6 360 22:18 21.03.2020
659 Clouds 16 1015 77 0 3.58 120 21:42 21.03.2020
660 Clouds 16 1015 77 0 3.58 120 21:23 21.03.2020
661 Clouds 16 1015 77 0 3.58 120 20:59 21.03.2020
662 Clouds 16 1015 77 0 3.58 120 20:41 21.03.2020
663 Clouds 16 1015 77 0 3.58 120 20:19 21.03.2020
664 Clouds 16 1015 77 0 3.58 120 19:44 21.03.2020
665 Clouds 16 1015 77 0 3.58 120 19:25 21.03.2020
666 Clouds 16 1015 77 0 3.58 120 18:57 21.03.2020
667 Clouds 16 1015 77 0 3.58 120 18:38 21.03.2020
668 Clouds 16 1015 77 0 3.58 120 18:20 21.03.2020
669 Clouds 16 1015 77 0 3.58 120 18:20 21.03.2020
670 Clouds 16 1015 77 0 3.58 120 17:55 21.03.2020
671 Clouds 16 1015 77 0 3.58 120 17:37 21.03.2020
672 Clouds 16 1015 77 0 3.58 120 17:18 21.03.2020
673 Clouds 16 1015 77 0 3.58 120 16:41 21.03.2020
674 Clouds 16 1015 82 10000 4.6 170 16:19 21.03.2020
675 Clouds 16 1015 82 10000 4.6 170 15:55 21.03.2020
676 Clouds 16 1015 82 10000 4.6 170 15:37 21.03.2020
677 Clouds 16 1015 82 10000 4.6 170 15:18 21.03.2020
678 Clouds 16 1015 77 10000 3.6 190 14:54 21.03.2020
679 Clouds 16 1015 77 10000 3.6 190 14:36 21.03.2020
680 Clouds 16 1015 77 10000 3.6 190 14:18 21.03.2020
681 Clouds 16 1015 77 10000 3.6 120 13:56 21.03.2020
682 Clouds 16 1015 77 10000 3.6 120 13:38 21.03.2020
683 Clouds 16 1015 77 10000 3.6 120 13:19 21.03.2020
684 Clouds 15 1014 77 10000 3.1 120 12:39 21.03.2020
685 Clouds 15 1014 77 10000 3.1 120 12:19 21.03.2020
686 Clouds 15 1014 77 10000 4.1 140 11:58 21.03.2020
687 Clouds 15 1014 77 10000 4.1 140 11:38 21.03.2020
688 Clouds 15 1014 77 10000 4.1 140 11:19 21.03.2020
689 Clouds 18 1015 52 10000 3.1 190 10:57 21.03.2020
690 Clouds 18 1015 52 10000 3.1 190 10:38 21.03.2020
691 Clouds 18 1015 52 10000 3.1 190 10:20 21.03.2020
692 Clouds 18 1015 52 10000 2.6 210 09:56 21.03.2020
693 Clouds 18 1015 52 10000 2.6 210 09:37 21.03.2020
694 Clouds 18 1015 52 10000 2.6 210 09:19 21.03.2020
695 Clouds 18 1015 52 10000 2.6 210 09:19 21.03.2020
696 Clouds 20 1015 45 10000 2.6 0 08:44 21.03.2020
697 Clouds 20 1015 45 10000 2.6 0 08:44 21.03.2020
698 Clouds 20 1015 45 10000 2.6 0 08:25 21.03.2020
699 Clear 20 1015 52 10000 3.1 0 07:47 21.03.2020
700 Clear 20 1015 52 10000 3.1 0 07:28 21.03.2020
701 Clear 20 1016 49 10000 3.1 210 06:48 21.03.2020
702 Clear 20 1016 49 10000 3.1 210 06:28 21.03.2020
703 Clear 19 1016 49 10000 1.5 250 05:48 21.03.2020
704 Clear 19 1016 49 10000 1.5 250 05:18 21.03.2020
705 Clouds 16 1018 52 10000 5.1 130 03:26 21.03.2020
706 Clouds 14 1018 62 10000 5.7 130 02:34 21.03.2020
707 Clouds 12 1018 71 10000 7.2 130 01:38 21.03.2020
708 Clouds 12 1018 71 10000 7.2 130 01:18 21.03.2020
709 Clouds 11 1018 71 10000 4.6 120 00:38 21.03.2020
710 Clouds 8 1017 81 10000 4.6 130 23:58 20.03.2020
711 Clouds 8 1017 81 10000 4.6 130 23:40 20.03.2020
712 Clouds 8 1017 81 10000 4.6 130 23:18 20.03.2020
713 Clouds 8 1017 76 10000 4.6 130 22:41 20.03.2020
714 Clouds 7 1017 76 10000 4.6 130 22:22 20.03.2020
715 Clear 9 1017 66 0 1.34 90 21:56 20.03.2020
716 Clear 9 1017 66 0 1.34 90 21:38 20.03.2020
717 Clear 9 1017 66 0 1.34 90 21:18 20.03.2020
718 Clear 9 1017 66 0 1.34 90 20:56 20.03.2020
719 Clear 9 1017 66 0 1.34 90 20:38 20.03.2020
720 Clear 9 1017 66 0 1.34 90 20:18 20.03.2020
721 Clear 9 1017 66 0 1.34 90 19:44 20.03.2020
722 Clear 9 1017 66 0 1.34 90 19:19 20.03.2020
723 Clear 9 1017 66 0 1.34 90 18:55 20.03.2020
724 Clear 9 1017 66 0 1.34 90 18:37 20.03.2020
725 Clear 9 1017 66 0 1.34 90 18:19 20.03.2020
726 Clear 9 1017 66 0 1.34 90 17:39 20.03.2020
727 Clear 9 1017 66 0 1.34 90 17:21 20.03.2020
728 Clear 9 1017 66 0 1.34 90 17:21 20.03.2020
729 Clear 9 1017 66 0 1.34 90 16:58 20.03.2020
730 Clear 9 1017 66 0 1.34 90 16:39 20.03.2020
731 Clear 9 1017 70 10000 1 0 16:18 20.03.2020
732 Clear 8 1017 70 10000 1 0 15:42 20.03.2020
733 Clear 8 1017 70 10000 1 0 15:21 20.03.2020
734 Clear 9 1017 70 10000 1.5 300 14:55 20.03.2020
735 Clear 9 1017 70 10000 1.5 300 14:37 20.03.2020
736 Clear 9 1017 70 10000 1.5 300 14:18 20.03.2020
737 Clear 9 1017 66 10000 1.5 90 13:42 20.03.2020
738 Clear 9 1017 66 10000 1.5 90 13:19 20.03.2020
739 Clear 10 1017 57 10000 0.5 0 12:40 20.03.2020
740 Clear 10 1017 57 10000 0.5 0 12:22 20.03.2020
741 Clear 11 1016 50 10000 3.1 310 11:57 20.03.2020
742 Clear 11 1016 50 10000 3.1 310 11:38 20.03.2020
743 Clear 11 1016 50 10000 3.1 310 11:19 20.03.2020
744 Clear 13 1016 43 10000 4.1 300 10:41 20.03.2020
745 Clear 13 1016 43 10000 4.1 300 10:21 20.03.2020
746 Clear 14 1015 41 10000 4.1 290 09:56 20.03.2020
747 Clear 14 1015 41 10000 4.1 290 09:56 20.03.2020
748 Clear 14 1015 41 10000 4.1 290 09:37 20.03.2020
749 Clear 14 1015 41 10000 4.1 290 09:18 20.03.2020
750 Clear 15 1015 41 10000 6.7 330 08:42 20.03.2020
751 Clear 15 1015 41 10000 6.7 330 08:22 20.03.2020
752 Clear 15 1015 38 10000 5.7 340 07:49 20.03.2020
753 Clear 15 1015 38 10000 5.7 340 07:30 20.03.2020
754 Clear 15 1016 38 10000 5.7 350 06:58 20.03.2020
755 Clear 15 1016 38 10000 5.7 350 06:40 20.03.2020
756 Clear 14 1017 41 10000 4.6 340 04:51 20.03.2020
757 Clear 12 1017 46 10000 3.1 30 03:21 20.03.2020
758 Clear 11 1017 50 10000 0.5 0 01:57 20.03.2020
759 Clear 10 1017 53 10000 2.6 130 00:51 20.03.2020
760 Clear 10 1017 53 10000 2.6 130 00:29 20.03.2020
761 Clouds 8 1016 61 10000 0.5 0 23:47 19.03.2020
762 Clouds 8 1016 61 10000 0.5 0 23:28 19.03.2020
763 Clear 7 1016 56 10000 1.5 0 22:56 19.03.2020
764 Clear 7 1016 56 10000 1.5 0 22:56 19.03.2020
765 Clear 7 1016 56 10000 1.5 0 22:38 19.03.2020
766 Clear 7 1016 56 10000 1.5 0 22:19 19.03.2020
767 Clear 11 1017 52 0 8.32 342 21:42 19.03.2020
768 Clear 11 1017 52 0 8.32 342 21:20 19.03.2020
769 Clear 11 1017 52 0 8.32 342 20:59 19.03.2020
770 Clear 11 1017 52 0 8.32 342 20:41 19.03.2020
771 Clear 11 1017 52 0 8.32 342 20:22 19.03.2020
772 Clouds 11 1017 51 0 9.21 329 19:55 19.03.2020
773 Clouds 11 1017 51 0 9.21 329 19:37 19.03.2020
774 Clouds 11 1017 51 0 9.21 329 19:19 19.03.2020
775 Clouds 11 1017 51 0 9.21 329 18:42 19.03.2020
776 Clouds 11 1017 51 0 9.21 329 18:22 19.03.2020
777 Clouds 11 1017 51 0 9.21 329 17:58 19.03.2020
778 Clouds 11 1017 51 0 9.21 329 17:40 19.03.2020
779 Clouds 12 1016 52 0 9.88 334 17:19 19.03.2020
780 Clouds 12 1016 52 0 9.88 334 16:43 19.03.2020
781 Clouds 10 1014 52 10000 6.7 300 16:23 19.03.2020
782 Clouds 10 1014 52 10000 6.7 300 15:45 19.03.2020
783 Clouds 10 1014 52 10000 6.7 300 15:27 19.03.2020
784 Clouds 11 1013 50 10000 6.7 300 14:55 19.03.2020
785 Clouds 11 1013 50 10000 6.7 300 14:37 19.03.2020
786 Clouds 11 1013 50 10000 6.7 300 14:19 19.03.2020
787 Clouds 12 1012 46 10000 9.3 300 13:39 19.03.2020
788 Clouds 12 1012 46 10000 9.3 300 13:19 19.03.2020
789 Clouds 13 1011 47 10000 9.8 300 12:55 19.03.2020
790 Clouds 13 1011 47 10000 9.8 300 12:37 19.03.2020
791 Clouds 13 1011 47 10000 9.8 300 12:18 19.03.2020
792 Clouds 14 1010 54 10000 9.8 300 11:41 19.03.2020
793 Clouds 14 1010 54 10000 9.8 300 11:23 19.03.2020
794 Clouds 15 1008 72 10000 4.6 260 10:44 19.03.2020
795 Clouds 16 1008 72 10000 4.6 260 10:22 19.03.2020
796 Clouds 17 1007 72 10000 6.2 260 09:59 19.03.2020
797 Clouds 17 1007 72 10000 6.2 260 09:40 19.03.2020
798 Clouds 18 1007 72 10000 6.2 260 09:22 19.03.2020
799 Clouds 18 1007 72 10000 3.6 0 08:48 19.03.2020
800 Clouds 18 1007 72 10000 3.6 0 08:23 19.03.2020
801 Clouds 18 1007 72 10000 3.6 0 07:49 19.03.2020
802 Clouds 18 1007 72 10000 3.6 0 07:31 19.03.2020
803 Clouds 18 1008 72 10000 3.1 0 06:55 19.03.2020
804 Clouds 18 1008 72 10000 3.1 0 06:18 19.03.2020
805 Clouds 19 1009 72 10000 2.6 0 05:24 19.03.2020
806 Clouds 18 1010 68 10000 2.1 220 04:46 19.03.2020
807 Clouds 18 1010 68 10000 4.6 130 03:44 19.03.2020
808 Clouds 14 1011 93 10000 2.1 130 01:45 19.03.2020
809 Clouds 12 1011 100 10000 2.6 140 00:39 19.03.2020
810 Clouds 11 1011 93 10000 4.6 140 00:18 19.03.2020
811 Clouds 11 1011 93 10000 4.6 140 23:41 18.03.2020
812 Clouds 11 1011 93 10000 4.6 140 23:21 18.03.2020
813 Clouds 11 1012 93 10000 4.1 140 22:42 18.03.2020
814 Clouds 11 1012 93 10000 4.1 140 22:22 18.03.2020
815 Clear 13 1015 87 0 1.34 150 21:55 18.03.2020
816 Clear 13 1015 87 0 1.34 150 21:37 18.03.2020
817 Clear 13 1015 87 0 1.34 150 21:19 18.03.2020
818 Clear 13 1015 87 0 1.34 150 20:54 18.03.2020
819 Clear 13 1015 87 0 1.34 150 20:36 18.03.2020
820 Clear 13 1015 87 0 1.34 150 20:18 18.03.2020
821 Clear 13 1015 87 0 1.34 150 19:40 18.03.2020
822 Clear 13 1015 87 0 1.34 150 19:21 18.03.2020
823 Clear 13 1015 87 0 1.34 150 18:56 18.03.2020
824 Clear 13 1015 87 0 1.34 150 18:38 18.03.2020
825 Clear 13 1015 87 0 1.34 150 18:19 18.03.2020
826 Clear 13 1015 87 0 1.34 150 17:54 18.03.2020
827 Clear 13 1015 87 0 1.34 150 17:36 18.03.2020
828 Clear 13 1015 87 0 1.34 150 17:18 18.03.2020
829 Clear 13 1015 87 0 1.34 150 16:42 18.03.2020
830 Clouds 13 1015 93 10000 1.5 140 16:20 18.03.2020
831 Clouds 13 1015 93 10000 1.5 140 15:56 18.03.2020
832 Clouds 13 1015 93 10000 1.5 140 15:37 18.03.2020
833 Clouds 13 1015 93 10000 1.5 140 15:19 18.03.2020
834 Clouds 13 1015 87 10000 3.6 200 14:42 18.03.2020
835 Clouds 13 1015 87 10000 3.6 200 14:21 18.03.2020
836 Clouds 13 1015 87 10000 1.5 150 13:41 18.03.2020
837 Clouds 13 1015 87 10000 1.5 150 13:19 18.03.2020
838 Clouds 14 1015 87 10000 1.5 150 12:44 18.03.2020
839 Clouds 14 1015 87 10000 1.5 150 12:21 18.03.2020
840 Clouds 15 1015 77 10000 1 0 11:59 18.03.2020
841 Clouds 15 1015 77 10000 1 0 11:37 18.03.2020
842 Clouds 15 1015 77 10000 1 0 11:37 18.03.2020
843 Clouds 15 1015 77 10000 1 0 11:18 18.03.2020
844 Clouds 16 1015 72 10000 1.5 0 10:56 18.03.2020
845 Clouds 16 1015 72 10000 1.5 0 10:56 18.03.2020
846 Clouds 16 1015 72 10000 1.5 0 10:36 18.03.2020
847 Clouds 16 1015 72 10000 1.5 0 10:18 18.03.2020
848 Clouds 17 1015 63 10000 1.5 0 09:42 18.03.2020
849 Clouds 17 1015 63 10000 1.5 0 09:23 18.03.2020
850 Clouds 17 1015 67 10000 3.1 280 08:54 18.03.2020
851 Clouds 17 1015 67 10000 3.1 280 08:36 18.03.2020
852 Clouds 17 1015 67 10000 3.1 280 08:18 18.03.2020
853 Clouds 17 1015 63 10000 4.1 270 07:39 18.03.2020
854 Clouds 17 1015 63 10000 4.1 270 07:21 18.03.2020
855 Clouds 17 1015 63 10000 4.1 270 06:42 18.03.2020
856 Clouds 17 1016 55 10000 2.6 240 05:43 18.03.2020
857 Clouds 16 1017 59 10000 1.5 0 04:58 18.03.2020
858 Clouds 15 1017 63 10000 2.6 150 03:21 18.03.2020
859 Clouds 14 1018 67 10000 3.1 150 02:37 18.03.2020
860 Clouds 14 1018 67 10000 3.1 150 02:37 18.03.2020
861 Clouds 14 1018 67 10000 3.1 150 02:37 18.03.2020
862 Clouds 12 1017 81 10000 2.1 150 01:43 18.03.2020
863 Clouds 11 1017 87 10000 1 0 01:19 18.03.2020
864 Clouds 9 1017 93 10000 1.5 110 00:21 18.03.2020
865 Clouds 8 1017 93 10000 1.5 110 23:42 17.03.2020
866 Clouds 8 1017 93 10000 4.1 150 23:21 17.03.2020
867 Clouds 8 1017 93 10000 4.1 150 22:46 17.03.2020
868 Clouds 8 1017 93 10000 4.1 150 22:28 17.03.2020
869 Clouds 11 1018 87 0 0.89 140 21:46 17.03.2020
870 Clouds 11 1018 87 0 0.89 140 21:25 17.03.2020
871 Clouds 11 1018 87 0 0.89 140 20:58 17.03.2020
872 Clouds 11 1018 87 0 0.89 140 20:38 17.03.2020
873 Clouds 11 1018 87 0 0.89 140 20:19 17.03.2020
874 Clouds 11 1018 87 0 0.89 140 19:42 17.03.2020
875 Clouds 11 1018 87 0 0.89 140 19:21 17.03.2020
876 Clouds 11 1018 87 0 0.89 140 18:58 17.03.2020
877 Clouds 11 1018 87 0 0.89 140 18:39 17.03.2020
878 Clouds 11 1018 87 0 0.89 140 18:21 17.03.2020
879 Clouds 11 1018 87 0 0.89 140 17:56 17.03.2020
880 Clouds 11 1018 87 0 0.89 140 17:38 17.03.2020
881 Clouds 11 1018 87 0 0.89 140 17:18 17.03.2020
882 Clouds 11 1018 87 0 0.89 140 16:42 17.03.2020
883 Clouds 11 1017 87 10000 3.1 180 16:19 17.03.2020
884 Clouds 11 1017 87 10000 3.1 180 16:19 17.03.2020
885 Clouds 11 1017 87 10000 3.1 180 15:45 17.03.2020
886 Clouds 11 1017 87 10000 3.1 180 15:23 17.03.2020
887 Clouds 11 1017 87 10000 3.6 200 14:47 17.03.2020
888 Clouds 11 1017 87 10000 3.6 200 14:26 17.03.2020
889 Clouds 11 1018 87 10000 1 140 13:58 17.03.2020
890 Clouds 11 1018 87 10000 1 140 13:40 17.03.2020
891 Clouds 11 1018 87 10000 1 140 13:21 17.03.2020
892 Clouds 13 1018 76 10000 1 0 12:44 17.03.2020
893 Clouds 13 1018 76 10000 1 0 12:24 17.03.2020
894 Clouds 13 1017 71 10000 1.5 180 11:56 17.03.2020
895 Clouds 13 1017 71 10000 1.5 180 11:37 17.03.2020
896 Clouds 13 1017 71 10000 1.5 180 11:19 17.03.2020
897 Clouds 14 1017 62 10000 4.6 210 10:54 17.03.2020
898 Clouds 14 1017 62 10000 4.6 210 10:36 17.03.2020
899 Clouds 14 1017 62 10000 4.6 210 10:18 17.03.2020
900 Clouds 15 1018 58 10000 3.1 210 09:44 17.03.2020
901 Clouds 15 1018 58 10000 3.1 210 09:20 17.03.2020
902 Clouds 15 1018 54 10000 2.1 0 08:51 17.03.2020
903 Clouds 15 1018 54 10000 2.1 0 08:24 17.03.2020
904 Clouds 14 1018 58 10000 3.1 210 07:58 17.03.2020
905 Clouds 14 1018 58 10000 3.1 210 07:40 17.03.2020
906 Clouds 14 1018 58 10000 3.1 210 07:19 17.03.2020
907 Clouds 14 1019 54 10000 2.6 230 06:41 17.03.2020
908 Clouds 14 1019 54 10000 3.1 0 06:19 17.03.2020
909 Clouds 14 1019 54 10000 3.1 0 06:19 17.03.2020
910 Clouds 14 1020 54 10000 2.1 0 04:51 17.03.2020
911 Clouds 12 1021 58 10000 3.6 130 03:19 17.03.2020
912 Clouds 9 1021 57 10000 3.6 130 01:49 17.03.2020
913 Clouds 9 1021 57 10000 3.6 130 01:28 17.03.2020
914 Clouds 7 1021 75 10000 4.1 130 00:48 17.03.2020
915 Clouds 6 1021 81 10000 3.6 140 23:51 16.03.2020
916 Clouds 5 1021 81 10000 3.6 140 23:32 16.03.2020
917 Clouds 5 1021 87 10000 3.1 140 22:45 16.03.2020
918 Clouds 5 1021 87 10000 3.1 140 22:26 16.03.2020
919 Clouds 8 1022 61 0 1.34 30 21:59 16.03.2020
920 Clouds 8 1022 61 0 1.34 30 21:41 16.03.2020
921 Clouds 8 1022 61 0 1.34 30 21:23 16.03.2020
922 Clouds 8 1022 61 0 1.34 30 20:57 16.03.2020
923 Clouds 8 1022 61 0 1.34 30 20:38 16.03.2020
924 Clouds 10 1021 55 0 2.05 324 20:19 16.03.2020
925 Clouds 9 1022 55 0 1.79 348 19:42 16.03.2020
926 Clouds 9 1022 55 0 1.79 348 19:22 16.03.2020
927 Clouds 9 1022 55 0 1.79 348 18:56 16.03.2020
928 Clouds 9 1022 55 0 1.79 348 18:37 16.03.2020
929 Clouds 9 1022 55 0 1.79 348 18:18 16.03.2020
930 Clouds 9 1022 55 0 1.79 348 17:42 16.03.2020
931 Clouds 9 1022 55 0 1.79 348 17:22 16.03.2020
932 Clouds 9 1023 57 0 3.52 335 16:46 16.03.2020
933 Clouds 4 1022 86 10000 2.1 40 16:28 16.03.2020
934 Clouds 4 1022 86 10000 2.1 40 15:56 16.03.2020
935 Clouds 4 1022 86 10000 2.1 40 15:37 16.03.2020
936 Clouds 4 1022 86 10000 2.1 40 15:18 16.03.2020
937 Clouds 5 1022 86 10000 2.1 300 14:42 16.03.2020
938 Clouds 7 1022 86 10000 2.1 300 14:19 16.03.2020
939 Clouds 7 1022 61 10000 1.5 30 13:42 16.03.2020
940 Clouds 7 1022 61 10000 1.5 30 13:23 16.03.2020
941 Clouds 8 1022 57 10000 2.6 360 12:46 16.03.2020
942 Clouds 8 1022 57 10000 2.6 360 12:26 16.03.2020
943 Clouds 8 1022 53 10000 3.6 360 11:58 16.03.2020
944 Clouds 8 1022 53 10000 3.6 360 11:39 16.03.2020
945 Clouds 10 1022 53 10000 3.6 360 11:18 16.03.2020
946 Clouds 10 1021 53 10000 7.2 340 10:41 16.03.2020
947 Clouds 10 1021 53 10000 7.2 340 10:19 16.03.2020
948 Clouds 11 1020 40 10000 5.7 320 09:44 16.03.2020
949 Clouds 11 1020 40 10000 5.7 320 09:24 16.03.2020
950 Clouds 12 1020 40 10000 6.7 320 08:54 16.03.2020
951 Clouds 12 1020 40 10000 6.7 320 08:25 16.03.2020
952 Clouds 12 1019 40 10000 4.6 340 07:50 16.03.2020
953 Clouds 12 1019 40 10000 4.6 340 07:27 16.03.2020
954 Clouds 11 1019 48 10000 8.7 360 06:54 16.03.2020
955 Clouds 11 1019 48 10000 8.7 360 06:25 16.03.2020
956 Clouds 12 1020 48 10000 5.7 330 05:42 16.03.2020
957 Rain 8 1021 61 10000 2.1 330 02:44 16.03.2020
958 Clouds 6 1021 70 10000 1.5 330 01:20 16.03.2020
959 Rain 6 1020 70 10000 5.1 330 00:39 16.03.2020
960 Rain 6 1020 70 10000 5.1 330 00:39 16.03.2020
961 Clouds 6 1019 48 10000 6.7 340 23:47 15.03.2020
962 Clouds 6 1019 48 10000 6.7 340 23:20 15.03.2020
963 Clouds 5 1019 48 10000 7.2 350 22:43 15.03.2020
964 Clouds 5 1019 48 10000 7.2 350 22:23 15.03.2020
965 Clouds 5 1019 48 10000 7.2 350 22:23 15.03.2020
966 Snow 7 1019 58 0 11.22 350 21:58 15.03.2020
967 Snow 7 1019 58 0 11.22 350 21:38 15.03.2020
968 Snow 7 1019 58 0 11.22 350 21:18 15.03.2020
969 Snow 7 1019 58 0 11.22 350 20:42 15.03.2020
970 Snow 7 1019 58 0 11.22 350 20:21 15.03.2020
971 Clouds 7 1016 76 0 14.82 313 19:58 15.03.2020
972 Clouds 7 1016 76 0 14.82 313 19:39 15.03.2020
973 Clouds 7 1016 76 0 14.82 313 19:20 15.03.2020
974 Clouds 7 1016 76 0 14.82 313 18:56 15.03.2020
975 Clouds 7 1016 76 0 14.82 313 18:37 15.03.2020
976 Clouds 7 1016 76 0 14.82 313 18:19 15.03.2020
977 Clouds 7 1016 76 0 14.82 313 17:41 15.03.2020
978 Clouds 7 1016 76 0 14.82 313 17:21 15.03.2020
979 Rain 11 1015 65 0 16.46 296 16:58 15.03.2020
980 Rain 11 1015 65 0 16.46 296 16:40 15.03.2020
981 Clouds 9 1012 65 10000 7.2 300 16:21 15.03.2020
982 Clouds 9 1012 65 10000 7.2 300 15:48 15.03.2020
983 Clouds 9 1012 65 10000 7.2 300 15:30 15.03.2020
984 Clouds 10 1011 46 10000 8.2 290 14:58 15.03.2020
985 Clouds 10 1011 46 10000 8.2 290 14:38 15.03.2020
986 Clouds 10 1011 46 10000 8.2 290 14:19 15.03.2020
987 Rain 11 1012 50 10000 15.4 300 13:55 15.03.2020
988 Rain 11 1012 50 10000 15.4 300 13:55 15.03.2020
989 Rain 11 1012 50 10000 15.4 300 13:37 15.03.2020
990 Rain 11 1012 50 10000 15.4 300 13:18 15.03.2020
991 Rain 11 1012 50 10000 15.4 300 13:18 15.03.2020
992 Rain 11 1012 50 10000 15.4 300 13:18 15.03.2020
993 Clouds 12 1011 37 10000 9.3 290 12:40 15.03.2020
994 Clouds 12 1011 37 10000 9.3 290 12:21 15.03.2020
995 Clouds 12 1011 46 10000 7.2 280 11:43 15.03.2020
996 Clouds 12 1011 46 10000 7.2 280 11:24 15.03.2020
997 Clouds 13 1010 52 10000 9.8 290 10:58 15.03.2020
998 Clouds 13 1010 52 10000 9.8 290 10:39 15.03.2020
999 Clouds 13 1010 52 10000 9.8 290 10:21 15.03.2020
1000 Clouds 13 1010 47 10000 8.2 260 09:44 15.03.2020
1001 Clouds 13 1010 47 10000 8.2 260 09:25 15.03.2020
1002 Clouds 13 1010 33 10000 6.7 280 08:59 15.03.2020
1003 Clouds 13 1010 33 10000 6.7 280 08:40 15.03.2020
1004 Clouds 13 1010 33 10000 6.7 280 08:18 15.03.2020
1005 Clouds 14 1011 33 10000 6.2 290 07:44 15.03.2020
1006 Clouds 14 1011 33 10000 6.2 290 07:18 15.03.2020
1007 Clouds 15 1011 30 10000 7.2 280 06:36 15.03.2020
1008 Clouds 15 1012 28 10000 5.7 290 05:46 15.03.2020
1009 Clouds 14 1013 33 10000 7.7 310 04:50 15.03.2020
1010 Clouds 14 1013 33 10000 7.7 310 04:32 15.03.2020
1011 Clouds 14 1013 35 10000 8.2 310 03:59 15.03.2020
1012 Clouds 12 1014 46 10000 7.7 310 02:48 15.03.2020
1013 Clouds 10 1014 71 9000 5.7 260 01:56 15.03.2020
1014 Rain 8 1014 81 10000 2.6 260 00:51 15.03.2020
1015 Rain 8 1014 81 10000 2.6 260 00:51 15.03.2020
1016 Rain 8 1014 81 10000 2.6 260 00:28 15.03.2020
1017 Clouds 7 1013 65 10000 1.5 90 23:58 14.03.2020
1018 Clouds 7 1013 65 10000 1.5 90 23:37 14.03.2020
1019 Clouds 7 1013 65 10000 1.5 90 23:18 14.03.2020
1020 Clouds 7 1013 61 10000 5.1 10 22:44 14.03.2020
1021 Clouds 6 1013 61 10000 5.1 10 22:26 14.03.2020
1022 Rain 8 1014 45 0 1.34 40 21:57 14.03.2020
1023 Rain 8 1014 45 0 1.34 40 21:37 14.03.2020
1024 Rain 8 1014 45 0 1.34 40 21:18 14.03.2020
1025 Rain 8 1014 45 0 1.34 40 20:59 14.03.2020
1026 Rain 8 1014 45 0 1.34 40 20:40 14.03.2020
1027 Clouds 10 1014 52 0 9.85 315 20:19 14.03.2020
1028 Clouds 10 1014 52 0 9.85 315 19:56 14.03.2020
1029 Clouds 10 1014 52 0 9.85 315 19:38 14.03.2020
1030 Clouds 10 1014 52 0 9.85 315 19:19 14.03.2020
1031 Clouds 10 1014 52 0 9.85 315 18:37 14.03.2020
1032 Clouds 10 1014 52 0 9.85 315 18:19 14.03.2020
1033 Clouds 10 1014 52 0 9.85 315 17:39 14.03.2020
1034 Clear 10 1016 42 0 5.62 338 17:20 14.03.2020
1035 Clear 10 1016 42 0 5.62 338 16:41 14.03.2020
1036 Clouds 7 1014 42 10000 3.6 260 16:23 14.03.2020
1037 Clouds 7 1014 42 10000 3.6 260 16:23 14.03.2020
1038 Clouds 7 1014 42 10000 3.6 260 15:58 14.03.2020
1039 Clouds 7 1014 42 10000 3.6 260 15:27 14.03.2020
1040 Clouds 6 1014 60 10000 3.1 260 14:58 14.03.2020
1041 Clouds 6 1014 60 10000 3.1 260 14:37 14.03.2020
1042 Clouds 7 1014 60 10000 3.1 260 14:18 14.03.2020
1043 Clouds 7 1014 45 10000 1.5 40 13:42 14.03.2020
1044 Clouds 7 1014 45 10000 1.5 40 13:24 14.03.2020
1045 Clouds 7 1013 45 10000 5.7 340 12:57 14.03.2020
1046 Clouds 7 1013 45 10000 5.7 340 12:38 14.03.2020
1047 Clouds 7 1013 45 10000 5.7 340 12:19 14.03.2020
1048 Clouds 8 1013 45 10000 8.2 320 11:42 14.03.2020
1049 Clouds 8 1013 45 10000 8.2 320 11:24 14.03.2020
1050 Clouds 9 1013 45 10000 7.7 310 10:46 14.03.2020
1051 Clouds 9 1013 45 10000 7.7 310 10:27 14.03.2020
1052 Clouds 10 1012 43 10000 8.2 310 09:58 14.03.2020
1053 Clouds 10 1012 43 10000 8.2 310 09:40 14.03.2020
1054 Clouds 10 1012 43 10000 8.2 310 09:20 14.03.2020
1055 Clouds 11 1012 32 10000 9.3 310 08:45 14.03.2020
1056 Clouds 11 1012 32 10000 9.3 310 08:45 14.03.2020
1057 Clouds 11 1012 32 10000 9.3 310 08:23 14.03.2020
1058 Clouds 13 1011 32 10000 7.7 310 07:39 14.03.2020
1059 Clouds 13 1011 32 10000 7.7 310 07:39 14.03.2020
1060 Clouds 13 1011 32 10000 7.7 310 07:20 14.03.2020
1061 Clouds 13 1011 37 10000 6.7 300 06:41 14.03.2020
1062 Clouds 14 1012 41 10000 8.2 310 05:56 14.03.2020
1063 Clouds 14 1013 47 10000 8.7 310 04:51 14.03.2020
1064 Clouds 14 1013 54 10000 7.7 330 03:25 14.03.2020
1065 Clouds 12 1013 71 10000 4.1 300 02:35 14.03.2020
1066 Clouds 11 1013 66 10000 1.5 0 01:27 14.03.2020
1067 Clouds 10 1013 76 10000 1 0 00:20 14.03.2020
1068 Clouds 10 1013 71 10000 1.5 270 23:32 13.03.2020
1069 Clouds 9 1014 81 10000 4.1 320 22:57 13.03.2020
1070 Clouds 9 1014 81 10000 4.1 320 22:38 13.03.2020
1071 Clouds 9 1014 81 10000 4.1 320 22:19 13.03.2020
1072 Rain 11 1014 77 0 12.01 317 21:39 13.03.2020
1073 Rain 11 1014 77 0 12.01 317 21:18 13.03.2020
1074 Rain 11 1014 77 0 12.01 317 20:41 13.03.2020
1075 Rain 11 1015 79 0 12.72 313 20:22 13.03.2020
1076 Rain 12 1015 73 0 6.22 334 19:49 13.03.2020
1077 Rain 12 1015 73 0 6.22 334 19:31 13.03.2020
1078 Rain 12 1015 73 0 6.22 334 18:55 13.03.2020
1079 Rain 12 1015 73 0 6.22 334 18:36 13.03.2020
1080 Rain 12 1016 87 0 1.34 160 18:18 13.03.2020
1081 Rain 12 1016 87 0 1.34 160 17:41 13.03.2020
1082 Rain 12 1016 87 0 1.34 160 17:21 13.03.2020
1083 Clouds 12 1016 87 0 1.34 160 16:55 13.03.2020
1084 Clouds 12 1016 87 0 1.34 160 16:36 13.03.2020
1085 Clouds 11 1016 87 10000 2.1 330 16:18 13.03.2020
1086 Clouds 11 1016 87 10000 2.1 330 15:41 13.03.2020
1087 Clouds 11 1016 87 10000 2.1 330 15:21 13.03.2020
1088 Clouds 11 1016 87 10000 2.1 330 14:44 13.03.2020
1089 Clouds 11 1016 87 10000 2.1 330 14:44 13.03.2020
1090 Clouds 12 1016 87 10000 2.1 330 14:23 13.03.2020
1091 Clouds 12 1016 87 10000 1.5 160 13:58 13.03.2020
1092 Clouds 12 1016 87 10000 1.5 160 13:40 13.03.2020
1093 Clouds 12 1016 87 10000 1.5 160 13:20 13.03.2020
1094 Clouds 12 1016 81 10000 1 0 12:55 13.03.2020
1095 Clouds 12 1016 81 10000 1 0 12:37 13.03.2020
1096 Clouds 12 1016 81 10000 2.6 320 12:18 13.03.2020
1097 Clouds 12 1016 81 10000 2.6 320 11:43 13.03.2020
1098 Clouds 12 1016 81 10000 2.6 320 11:25 13.03.2020
1099 Clouds 13 1016 76 10000 1.5 10 10:57 13.03.2020
1100 Clouds 13 1016 76 10000 1.5 10 10:39 13.03.2020
1101 Clouds 13 1016 76 10000 1.5 10 10:21 13.03.2020
1102 Clouds 13 1016 71 10000 0.5 0 09:44 13.03.2020
1103 Clouds 13 1016 71 10000 0.5 0 09:25 13.03.2020
1104 Clouds 14 1017 67 10000 2.1 300 08:47 13.03.2020
1105 Clouds 14 1017 67 10000 2.1 300 08:23 13.03.2020
1106 Clouds 14 1017 62 10000 2.6 320 07:58 13.03.2020
1107 Clouds 14 1017 62 10000 2.6 320 07:38 13.03.2020
1108 Clouds 14 1017 62 10000 2.6 320 07:18 13.03.2020
1109 Clouds 15 1017 54 10000 2.6 280 06:43 13.03.2020
1110 Clouds 13 1018 76 10000 3.1 340 05:56 13.03.2020
1111 Clouds 13 1018 76 10000 3.1 340 05:37 13.03.2020
1112 Clouds 13 1020 71 10000 3.1 160 04:38 13.03.2020
1113 Clouds 12 1021 71 10000 0.5 0 03:43 13.03.2020
1114 Clouds 9 1021 76 10000 1 0 01:47 13.03.2020
1115 Clouds 9 1021 76 10000 1 0 01:19 13.03.2020
1116 Clouds 9 1021 76 10000 4.6 140 00:54 13.03.2020
1117 Clouds 9 1021 76 10000 4.6 140 00:28 13.03.2020
1118 Clouds 8 1020 81 10000 5.7 150 23:59 12.03.2020
1119 Clouds 8 1020 81 10000 5.7 150 23:28 12.03.2020
1120 Clouds 8 1021 76 10000 4.1 130 22:57 12.03.2020
1121 Clouds 8 1021 76 10000 4.1 130 22:39 12.03.2020
1122 Clouds 8 1021 76 10000 4.1 130 22:21 12.03.2020
1123 Clouds 12 1021 59 0 1.67 82 21:45 12.03.2020
1124 Clouds 12 1021 59 0 1.67 82 21:27 12.03.2020
1125 Clouds 12 1021 59 0 1.67 82 20:57 12.03.2020
1126 Clouds 12 1021 59 0 1.67 82 20:38 12.03.2020
1127 Clouds 10 1022 76 0 3.58 130 20:19 12.03.2020
1128 Clouds 10 1022 76 0 3.58 130 19:41 12.03.2020
1129 Clouds 10 1022 76 0 3.58 130 19:20 12.03.2020
1130 Clouds 10 1022 76 0 3.58 130 18:44 12.03.2020
1131 Clouds 10 1022 76 0 3.58 130 18:24 12.03.2020
1132 Clouds 10 1022 76 0 3.58 130 17:57 12.03.2020
1133 Clouds 10 1022 76 0 3.58 130 17:38 12.03.2020
1134 Clouds 10 1022 76 0 3.58 130 17:19 12.03.2020
1135 Clouds 10 1022 76 0 3.58 130 16:55 12.03.2020
1136 Clouds 10 1022 76 0 3.58 130 16:37 12.03.2020
1137 Clouds 11 1022 66 10000 4.1 200 16:18 12.03.2020
1138 Clouds 11 1022 66 10000 4.1 200 15:44 12.03.2020
1139 Clouds 11 1022 66 10000 4.1 200 15:26 12.03.2020
1140 Clouds 10 1022 76 10000 2.1 170 14:40 12.03.2020
1141 Clouds 10 1022 76 10000 2.1 170 14:21 12.03.2020
1142 Clouds 10 1022 76 10000 3.6 130 13:56 12.03.2020
1143 Clouds 10 1022 76 10000 3.6 130 13:36 12.03.2020
1144 Clouds 10 1022 76 10000 3.6 130 13:18 12.03.2020
1145 Clouds 11 1022 71 10000 2.01 209 12:41 12.03.2020
1146 Clouds 11 1022 71 10000 2.01 209 12:21 12.03.2020
1147 Clouds 12 1022 58 10000 1 0 11:56 12.03.2020
1148 Clouds 12 1022 58 10000 1 0 11:37 12.03.2020
1149 Clouds 12 1022 58 10000 1 0 11:19 12.03.2020
1150 Clouds 12 1021 54 10000 2.1 0 10:58 12.03.2020
1151 Clouds 12 1021 54 10000 2.1 0 10:40 12.03.2020
1152 Clouds 13 1021 54 10000 2.1 0 10:22 12.03.2020
1153 Clouds 13 1021 58 10000 3.6 260 09:45 12.03.2020
1154 Clouds 13 1021 58 10000 3.6 260 09:25 12.03.2020
1155 Clouds 14 1021 54 10000 3.1 260 08:43 12.03.2020
1156 Clouds 14 1021 54 10000 3.1 260 08:20 12.03.2020
1157 Clouds 15 1021 44 10000 3.1 250 07:53 12.03.2020
1158 Clouds 15 1021 44 10000 3.1 250 07:24 12.03.2020
1159 Clouds 13 1021 44 10000 2.6 290 06:59 12.03.2020
1160 Clouds 13 1022 44 10000 2.6 0 05:48 12.03.2020
1161 Clouds 13 1022 44 10000 2.6 0 05:25 12.03.2020
1162 Clouds 9 1024 71 10000 2.1 170 02:41 12.03.2020
1163 Clouds 7 1023 75 10000 3.6 130 01:31 12.03.2020
1164 Clouds 6 1023 75 10000 4.6 140 00:45 12.03.2020
1165 Clouds 6 1023 75 10000 4.6 140 00:26 12.03.2020
1166 Clouds 3 1022 80 10000 2.1 130 23:47 11.03.2020
1167 Clouds 3 1022 80 10000 2.1 130 23:24 11.03.2020
1168 Clouds 4 1023 80 10000 3.6 130 22:48 11.03.2020
1169 Clouds 4 1023 80 10000 3.6 130 22:30 11.03.2020
1170 Clouds 10 1023 50 0 2.5 7 21:59 11.03.2020
1171 Clouds 10 1023 50 0 2.5 7 21:59 11.03.2020
1172 Clouds 10 1023 50 0 2.5 7 21:41 11.03.2020
1173 Clouds 10 1023 50 0 2.5 7 21:22 11.03.2020
1174 Clouds 10 1023 50 0 2.5 7 20:58 11.03.2020
1175 Clouds 10 1023 50 0 2.5 7 20:39 11.03.2020
1176 Clouds 10 1021 49 0 2.83 351 20:19 11.03.2020
1177 Clear 10 1022 45 0 2.02 24 19:44 11.03.2020
1178 Clear 10 1022 45 0 2.02 24 19:25 11.03.2020
1179 Clear 10 1022 45 0 2.02 24 18:59 11.03.2020
1180 Clear 10 1022 45 0 2.02 24 18:40 11.03.2020
1181 Clear 10 1022 45 0 2.02 24 18:40 11.03.2020
1182 Clear 10 1022 45 0 2.02 24 18:21 11.03.2020
1183 Clear 10 1022 45 0 2.02 24 17:57 11.03.2020
1184 Clear 10 1022 45 0 2.02 24 17:57 11.03.2020
1185 Clear 10 1022 45 0 2.02 24 17:39 11.03.2020
1186 Clouds 10 1022 51 0 5.33 359 17:20 11.03.2020
1187 Clouds 10 1022 51 0 5.33 359 16:46 11.03.2020
1188 Clouds 7 1021 65 10000 1 180 16:23 11.03.2020
1189 Clouds 7 1021 65 10000 1 180 15:46 11.03.2020
1190 Clouds 7 1021 65 10000 1 180 15:25 11.03.2020
1191 Clouds 6 1020 70 10000 1.5 40 14:59 11.03.2020
1192 Clouds 6 1020 70 10000 1.5 40 14:41 11.03.2020
1193 Clouds 7 1020 70 10000 1.5 40 14:22 11.03.2020
1194 Clear 8 1020 49 10000 2.1 50 13:45 11.03.2020
1195 Clear 8 1020 49 10000 2.1 50 13:27 11.03.2020
1196 Clouds 9 1019 54 10000 4.6 340 12:58 11.03.2020
1197 Clouds 9 1019 54 10000 4.6 340 12:40 11.03.2020
1198 Clouds 9 1019 54 10000 4.6 340 12:19 11.03.2020
1199 Clouds 9 1019 49 10000 5.7 310 11:42 11.03.2020
1200 Clouds 9 1019 49 10000 5.7 310 11:24 11.03.2020
1201 Clouds 10 1018 53 10000 6.7 310 10:59 11.03.2020
1202 Clouds 10 1018 53 10000 6.7 310 10:41 11.03.2020
1203 Clouds 10 1018 53 10000 6.7 310 10:18 11.03.2020
1204 Clouds 11 1017 50 10000 8.2 310 09:43 11.03.2020
1205 Clouds 11 1017 50 10000 8.2 310 09:43 11.03.2020
1206 Clouds 11 1017 50 10000 8.2 310 09:24 11.03.2020
1207 Clouds 12 1017 46 10000 7.7 310 08:45 11.03.2020
1208 Clouds 12 1017 46 10000 7.7 310 08:27 11.03.2020
1209 Clouds 13 1016 43 10000 7.2 310 07:58 11.03.2020
1210 Clouds 13 1016 43 10000 7.2 310 07:38 11.03.2020
1211 Clouds 13 1016 43 10000 7.2 310 07:18 11.03.2020
1212 Clouds 13 1016 43 10000 7.7 310 06:37 11.03.2020
1213 Clouds 13 1016 47 10000 7.7 320 05:34 11.03.2020
1214 Clouds 12 1016 50 10000 7.2 330 03:59 11.03.2020
1215 Clouds 10 1016 53 10000 6.7 320 01:59 11.03.2020
1216 Clouds 10 1016 53 10000 6.7 320 01:26 11.03.2020
1217 Clouds 9 1016 64 10000 7.7 310 00:45 11.03.2020
1218 Clouds 9 1015 64 10000 8.7 310 23:56 10.03.2020
1219 Clouds 9 1015 64 10000 8.7 310 23:55 10.03.2020
1220 Clouds 9 1015 64 10000 8.7 310 23:55 10.03.2020
1221 Clouds 9 1015 64 10000 8.7 310 23:55 10.03.2020
1222 Clouds 9 1015 64 10000 8.7 310 23:37 10.03.2020
1223 Clouds 9 1015 65 10000 8.7 310 23:18 10.03.2020
1224 Clouds 9 1015 57 10000 9.3 310 22:38 10.03.2020
1225 Clouds 9 1015 57 10000 9.3 310 22:19 10.03.2020
1226 Clouds 10 1014 65 0 11.01 320 21:56 10.03.2020
1227 Clouds 10 1014 65 0 11.01 320 21:38 10.03.2020
1228 Clouds 10 1014 65 0 11.01 320 21:19 10.03.2020
1229 Clouds 10 1014 65 0 11.01 320 20:56 10.03.2020
1230 Clouds 10 1014 65 0 11.01 320 20:38 10.03.2020
1231 Clouds 11 1013 65 0 12.27 311 20:18 10.03.2020
1232 Clouds 11 1013 65 0 12.27 311 19:43 10.03.2020
1233 Clouds 11 1013 65 0 12.27 311 19:24 10.03.2020
1234 Clouds 11 1013 65 0 12.27 311 18:58 10.03.2020
1235 Clouds 11 1013 65 0 12.27 311 18:58 10.03.2020
1236 Clouds 11 1013 65 0 12.27 311 18:40 10.03.2020
1237 Clouds 11 1013 65 0 12.27 311 18:21 10.03.2020
1238 Clouds 11 1013 65 0 12.27 311 17:56 10.03.2020
1239 Clouds 11 1013 65 0 12.27 311 17:37 10.03.2020
1240 Rain 11 1009 76 0 8.49 310 17:18 10.03.2020
1241 Rain 11 1009 76 0 8.49 310 16:38 10.03.2020
1242 Clouds 11 1009 76 10000 7.7 280 16:18 10.03.2020
1243 Clouds 11 1009 76 10000 7.7 280 15:43 10.03.2020
1244 Clouds 11 1009 76 10000 7.7 280 15:20 10.03.2020
1245 Clouds 10 1009 87 10000 8.7 280 14:59 10.03.2020
1246 Clouds 10 1009 87 10000 8.7 280 14:40 10.03.2020
1247 Clouds 10 1009 87 10000 8.7 280 14:19 10.03.2020
1248 Clouds 10 1009 87 10000 8.7 280 14:19 10.03.2020
1249 Clouds 11 1009 76 10000 8.7 310 13:45 10.03.2020
1250 Clouds 11 1009 76 10000 8.7 310 13:26 10.03.2020
1251 Clouds 11 1007 76 10000 9.3 310 12:56 10.03.2020
1252 Clouds 11 1007 76 10000 9.3 310 12:37 10.03.2020
1253 Clouds 11 1007 76 10000 9.3 310 12:37 10.03.2020
1254 Clouds 11 1007 76 10000 9.3 310 12:18 10.03.2020
1255 Clouds 11 1006 76 10000 8.7 300 11:42 10.03.2020
1256 Clouds 11 1006 76 10000 8.7 300 11:24 10.03.2020
1257 -273 0 0 0 0 0 10:57 10.03.2020
1258 Clouds 11 1006 76 10000 7.7 300 10:57 10.03.2020
1259 Clouds 11 1006 76 10000 7.7 300 10:39 10.03.2020
1260 Clouds 12 1006 76 10000 7.7 300 10:19 10.03.2020
1261 Clouds 12 1004 81 10000 8.2 290 09:45 10.03.2020
1262 Clouds 12 1004 81 10000 8.2 290 09:21 10.03.2020
1263 -273 0 0 0 0 0 09:21 10.03.2020
1264 Rain 12 1003 93 9000 6.2 310 08:58 10.03.2020
1265 Rain 12 1003 93 9000 6.2 310 08:40 10.03.2020
1266 Rain 12 1003 93 9000 6.2 310 08:20 10.03.2020
1267 Rain 13 1002 93 10000 6.7 310 07:42 10.03.2020
1268 Rain 13 1002 93 10000 6.7 310 07:23 10.03.2020
1269 Clouds 15 1001 87 10000 8.7 310 06:38 10.03.2020
1270 Rain 15 1002 87 10000 6.7 310 05:55 10.03.2020
1271 Rain 15 1002 87 10000 6.7 310 05:36 10.03.2020
1272 Clouds 16 1001 82 10000 6.7 300 04:31 10.03.2020
1273 Clouds 15 1000 93 10000 5.1 300 03:19 10.03.2020
1274 Rain 13 1000 100 4000 7.7 320 01:36 10.03.2020
1275 Rain 13 999 100 5000 4.6 330 00:51 10.03.2020
1276 Rain 14 998 100 4000 2.1 250 00:29 10.03.2020
1277 Rain 14 998 100 2000 1.5 150 23:43 09.03.2020
1278 Rain 13 998 100 2000 1.5 150 23:22 09.03.2020
1279 Rain 13 999 100 2000 2.6 160 22:57 09.03.2020
1280 Rain 12 998 100 2000 2.1 60 22:38 09.03.2020
1281 Rain 12 998 100 2000 2.1 60 22:19 09.03.2020
1282 Rain 12 1006 93 0 3.58 170 21:44 09.03.2020
1283 Rain 12 1006 93 0 3.58 170 21:22 09.03.2020
1284 Rain 12 1006 93 0 3.58 170 20:58 09.03.2020
1285 Rain 12 1006 93 0 3.58 170 20:40 09.03.2020
1286 Rain 12 1006 93 0 3.58 170 20:40 09.03.2020
1287 -273 0 0 0 0 0 20:21 09.03.2020
1288 Rain 12 1006 93 0 3.58 170 19:46 09.03.2020
1289 Rain 12 1006 93 0 3.58 170 19:26 09.03.2020
1290 Rain 12 1006 93 0 3.58 170 18:59 09.03.2020
1291 Rain 12 1006 93 0 3.58 170 18:40 09.03.2020
1292 Rain 12 1006 93 0 3.58 170 18:40 09.03.2020
1293 Rain 12 1006 93 0 3.58 170 18:21 09.03.2020
1294 Rain 12 1006 93 0 3.58 170 17:59 09.03.2020
1295 Rain 12 1006 93 0 3.58 170 17:39 09.03.2020
1296 Rain 12 1006 93 0 3.58 170 17:20 09.03.2020
1297 Rain 12 1006 93 0 3.58 170 16:59 09.03.2020
1298 Rain 12 1006 93 0 3.58 170 16:41 09.03.2020
1299 Rain 12 1004 93 10000 4.6 40 16:22 09.03.2020
1300 Rain 12 1004 93 10000 4.6 40 15:58 09.03.2020
1301 Rain 12 1004 93 10000 4.6 40 15:39 09.03.2020
1302 Rain 12 1004 93 10000 4.6 40 15:21 09.03.2020
1303 Rain 12 1005 93 10000 4.6 30 14:57 09.03.2020
1304 Rain 12 1005 93 10000 4.6 30 14:38 09.03.2020
1305 Rain 12 1005 93 10000 4.6 30 14:19 09.03.2020
1306 Rain 12 1006 93 10000 3.6 170 13:57 09.03.2020
1307 Rain 12 1006 93 10000 3.6 170 13:38 09.03.2020
1308 Rain 12 1006 93 10000 3.6 170 13:18 09.03.2020
1309 Rain 13 1007 87 10000 3.6 80 12:43 09.03.2020
1310 Rain 13 1007 87 10000 3.6 80 12:22 09.03.2020
1311 Rain 12 1008 87 10000 6.7 160 11:55 09.03.2020
1312 Rain 12 1008 87 10000 6.7 160 11:37 09.03.2020
1313 Rain 12 1008 87 10000 6.7 160 11:19 09.03.2020
1314 Rain 12 1010 87 8000 5.7 140 10:55 09.03.2020
1315 Rain 12 1010 87 8000 5.7 140 10:36 09.03.2020
1316 Rain 12 1010 87 8000 5.7 140 10:18 09.03.2020
1317 Rain 12 1010 87 10000 5.1 160 09:39 09.03.2020
1318 Rain 12 1010 87 10000 5.1 160 09:39 09.03.2020
1319 Rain 12 1010 87 10000 5.1 160 09:21 09.03.2020
1320 Rain 12 1010 87 10000 5.7 150 08:44 09.03.2020
1321 Rain 12 1010 87 10000 5.7 150 08:26 09.03.2020
1322 Clouds 13 1011 76 10000 6.7 140 07:42 09.03.2020
1323 Clouds 13 1011 76 10000 6.7 140 07:22 09.03.2020
1324 Clouds 13 1012 76 10000 6.2 150 06:46 09.03.2020
1325 Clouds 13 1012 76 10000 6.2 150 06:26 09.03.2020
1326 Clouds 13 1013 82 10000 5.1 150 05:57 09.03.2020
1327 Clouds 13 1013 82 10000 5.1 150 05:39 09.03.2020
1328 Clouds 13 1014 82 10000 5.1 160 04:43 09.03.2020
1329 Clouds 13 1014 82 10000 5.1 160 04:22 09.03.2020
1330 Clouds 13 1015 76 10000 3.6 160 03:21 09.03.2020
1331 Clouds 10 1015 81 10000 7.7 140 01:49 09.03.2020
1332 Clouds 9 1015 87 10000 8.2 140 00:39 09.03.2020
1333 Clouds 9 1015 87 10000 8.2 140 00:21 09.03.2020
1334 Clouds 8 1015 87 10000 5.1 140 23:52 08.03.2020
1335 Clouds 8 1015 87 10000 5.1 140 23:25 08.03.2020
1336 Clouds 8 1016 87 10000 5.7 140 22:58 08.03.2020
1337 Clouds 8 1016 87 10000 5.7 140 22:38 08.03.2020
1338 Clouds 7 1016 87 10000 5.7 140 22:20 08.03.2020
1339 Clouds 13 1016 77 0 4.24 96 21:54 08.03.2020
1340 Clouds 13 1016 77 0 4.24 96 21:36 08.03.2020
1341 Clouds 13 1016 77 0 4.24 96 21:18 08.03.2020
1342 Clouds 13 1016 77 0 4.24 96 20:39 08.03.2020
1343 Clouds 13 1016 77 0 4.24 96 20:21 08.03.2020
1344 Clouds 13 1016 78 0 5.39 98 20:21 08.03.2020
1345 Clouds 12 1016 74 0 2.74 88 19:56 08.03.2020
1346 Clouds 12 1016 74 0 2.74 88 19:37 08.03.2020
1347 Clouds 12 1016 74 0 2.74 88 19:18 08.03.2020
1348 Clouds 12 1016 74 0 2.74 88 18:42 08.03.2020
1349 Clouds 12 1016 74 0 2.74 88 18:24 08.03.2020
1350 Clouds 12 1016 74 0 2.74 88 17:56 08.03.2020
1351 Clouds 12 1016 74 0 2.74 88 17:38 08.03.2020
1352 Clouds 13 1017 72 0 3.28 79 17:18 08.03.2020
1353 Clouds 13 1017 72 0 3.28 79 16:45 08.03.2020
1354 Clouds 10 1016 81 10000 4.1 20 16:27 08.03.2020
1355 Clouds 10 1016 81 10000 4.1 20 15:56 08.03.2020
1356 Clouds 10 1016 81 10000 4.1 20 15:56 08.03.2020
1357 Clouds 10 1016 81 10000 4.1 20 15:38 08.03.2020
1358 Clouds 10 1016 81 10000 4.1 20 15:19 08.03.2020
1359 Clouds 9 1017 87 10000 3.6 20 14:40 08.03.2020
1360 Clouds 10 1017 87 10000 3.6 20 14:21 08.03.2020
1361 Clouds 10 1017 87 10000 3.6 20 14:21 08.03.2020
1362 Clouds 10 1017 87 10000 3.6 20 14:21 08.03.2020
1363 Clouds 11 1016 66 10000 4.1 20 13:57 08.03.2020
1364 Clouds 11 1016 66 10000 4.1 20 13:38 08.03.2020
1365 Clouds 11 1016 66 10000 4.1 20 13:19 08.03.2020
1366 Clouds 11 1016 71 10000 7.2 350 12:39 08.03.2020
1367 Clouds 11 1016 71 10000 7.2 350 12:20 08.03.2020
1368 Clouds 12 1015 76 10000 7.7 340 11:44 08.03.2020
1369 Clouds 13 1014 67 10000 7.7 340 11:25 08.03.2020
1370 Clouds 14 1014 67 10000 7.7 340 10:59 08.03.2020
1371 Clouds 14 1014 67 10000 7.7 340 10:59 08.03.2020
1372 Clouds 14 1014 67 10000 7.7 340 10:41 08.03.2020
1373 Clouds 14 1014 67 10000 7.7 340 10:22 08.03.2020
1374 Clouds 15 1014 67 10000 8.2 340 09:40 08.03.2020
1375 Clouds 15 1014 67 10000 8.2 340 09:22 08.03.2020
1376 Clouds 17 1014 48 10000 5.7 10 08:49 08.03.2020
1377 Clouds 17 1014 48 10000 5.7 10 08:49 08.03.2020
1378 Clouds 17 1014 48 10000 5.7 10 08:24 08.03.2020
1379 Clouds 17 1013 48 10000 8.2 360 07:50 08.03.2020
1380 Clouds 17 1013 48 10000 8.2 360 07:28 08.03.2020
1381 Clouds 17 1014 48 10000 6.7 10 06:51 08.03.2020
1382 Clouds 17 1014 48 10000 6.7 10 06:33 08.03.2020
1383 Clouds 16 1015 55 10000 6.7 10 05:49 08.03.2020
1384 Clouds 15 1016 62 10000 6.2 340 04:24 08.03.2020
1385 Clouds 14 1017 67 10000 5.1 340 02:59 08.03.2020
1386 Clouds 13 1016 76 10000 6.2 340 01:38 08.03.2020
1387 Clouds 12 1016 81 10000 4.6 350 01:19 08.03.2020
1388 Clouds 12 1016 81 10000 4.6 350 00:41 08.03.2020
1389 Clouds 11 1015 87 10000 3.1 360 23:59 07.03.2020
1390 Clouds 11 1015 87 10000 3.1 360 23:41 07.03.2020
1391 Clouds 11 1015 87 10000 3.1 360 23:19 07.03.2020
1392 Clouds 10 1015 87 10000 4.1 350 22:38 07.03.2020
1393 Clouds 10 1015 87 10000 4.1 350 22:19 07.03.2020
1394 Clouds 10 1012 99 0 4.47 320 21:45 07.03.2020
1395 Clouds 10 1012 99 0 4.47 320 21:24 07.03.2020
1396 Clouds 10 1012 99 0 4.47 320 20:41 07.03.2020
1397 Clouds 10 1012 99 0 4.47 320 20:22 07.03.2020
1398 Clouds 10 1012 99 0 4.47 320 19:55 07.03.2020
1399 Clouds 10 1012 99 0 4.47 320 19:36 07.03.2020
1400 Clouds 10 1012 99 0 4.47 320 19:18 07.03.2020
1401 Clouds 10 1012 99 0 4.47 320 18:40 07.03.2020
1402 Clouds 10 1012 99 0 4.47 320 18:21 07.03.2020
1403 Clouds 10 1012 99 0 4.47 320 17:42 07.03.2020
1404 Rain 10 1012 99 0 4.47 320 17:20 07.03.2020
1405 Rain 10 1013 100 8000 2.1 290 16:59 07.03.2020
1406 Rain 10 1013 100 8000 2.1 290 16:40 07.03.2020
1407 Rain 10 1013 100 8000 2.1 290 16:22 07.03.2020
1408 Rain 10 1013 100 8000 2.1 290 15:57 07.03.2020
1409 Rain 10 1012 100 4000 2.1 320 15:37 07.03.2020
1410 Rain 10 1012 100 4000 2.1 320 15:19 07.03.2020
1411 Rain 10 1013 100 4000 4.6 320 14:45 07.03.2020
1412 Rain 10 1013 100 4000 4.6 320 14:24 07.03.2020
1413 Rain 10 1013 100 3500 2.1 320 13:57 07.03.2020
1414 Rain 10 1012 100 3500 4.1 320 13:38 07.03.2020
1415 Rain 10 1012 100 3500 4.1 320 13:18 07.03.2020
1416 Rain 10 1011 100 4500 4.19 87 12:40 07.03.2020
1417 Rain 10 1011 100 4500 4.19 87 12:20 07.03.2020
1418 Rain 10 1012 100 3500 2.6 300 11:57 07.03.2020
1419 Rain 10 1011 100 3500 2.1 270 11:38 07.03.2020
1420 Rain 10 1011 100 3500 2.1 270 11:19 07.03.2020
1421 Rain 10 1011 100 4500 3.1 150 10:40 07.03.2020
1422 Rain 10 1011 100 4500 3.1 150 10:20 07.03.2020
1423 Rain 10 1012 100 4500 2.1 160 09:56 07.03.2020
1424 Rain 10 1012 93 4000 1 0 09:37 07.03.2020
1425 Rain 10 1012 93 4000 1 0 09:18 07.03.2020
1426 Rain 10 1013 93 3000 0.5 0 08:43 07.03.2020
1427 Rain 10 1012 93 4000 0.5 0 08:20 07.03.2020
1428 Rain 10 1013 93 4000 2.1 360 07:48 07.03.2020
1429 Rain 10 1013 93 0 4.92 360 07:22 07.03.2020
1430 Rain 10 1015 81 0 3.82 89 06:54 07.03.2020
1431 Rain 10 1015 81 0 3.82 89 06:29 07.03.2020
1432 Rain 10 1015 81 0 3.82 89 06:29 07.03.2020
1433 Rain 10 1015 81 0 3.82 89 05:46 07.03.2020
1434 Rain 10 1017 76 8000 2.1 350 04:34 07.03.2020
1435 Clouds 10 1018 76 0 4.18 95 02:46 07.03.2020
1436 Clouds 10 1018 71 10000 1.5 60 02:23 07.03.2020
1437 Clouds 9 1018 71 10000 1.5 60 01:23 07.03.2020
1438 Clouds 8 1018 76 10000 2.6 100 00:37 07.03.2020
1439 Clouds 8 1018 76 10000 2.6 100 00:18 07.03.2020
1440 Clouds 8 1018 76 10000 5.1 150 23:41 06.03.2020
1441 Clouds 8 1018 76 10000 5.1 150 23:23 06.03.2020
1442 Clouds 7 1019 81 10000 5.7 140 22:46 06.03.2020
1443 Clouds 7 1019 81 10000 5.7 140 22:20 06.03.2020
1444 Clouds 7 1021 75 0 1.79 260 21:49 06.03.2020
1445 Clouds 7 1021 75 0 1.79 260 21:21 06.03.2020
1446 Clouds 7 1021 75 0 1.79 260 20:46 06.03.2020
1447 Clouds 7 1021 75 0 1.79 260 20:23 06.03.2020
1448 Clouds 7 1021 75 0 1.79 260 19:59 06.03.2020
1449 Clouds 7 1021 75 0 1.79 260 19:41 06.03.2020
1450 Clouds 7 1021 75 0 1.79 260 19:22 06.03.2020
1451 Clouds 7 1021 75 0 1.79 260 18:42 06.03.2020
1452 Clouds 7 1021 75 0 1.79 260 18:21 06.03.2020
1453 Clouds 7 1021 75 0 1.79 260 17:57 06.03.2020
1454 Clouds 7 1021 75 0 1.79 260 17:39 06.03.2020
1455 Clouds 7 1021 75 0 1.79 260 17:39 06.03.2020
1456 Clouds 7 1021 75 0 1.79 260 17:20 06.03.2020
1457 Clouds 7 1021 75 0 1.79 260 16:54 06.03.2020
1458 Clouds 7 1021 75 0 1.79 260 16:36 06.03.2020
1459 Clouds 6 1021 80 10000 1.5 340 16:18 06.03.2020
1460 Clouds 6 1021 80 10000 1.5 340 15:42 06.03.2020
1461 Clouds 6 1021 80 10000 1.5 340 15:22 06.03.2020
1462 Clouds 6 1021 80 10000 3.1 340 14:41 06.03.2020
1463 Clouds 6 1021 80 10000 3.1 340 14:22 06.03.2020
1464 Clouds 7 1021 75 10000 2.1 260 13:55 06.03.2020
1465 Clouds 7 1021 75 10000 2.1 260 13:37 06.03.2020
1466 Clouds 7 1021 75 10000 2.1 260 13:18 06.03.2020
1467 Clouds 7 1020 70 10000 1 150 12:40 06.03.2020
1468 Clouds 7 1020 70 10000 1 150 12:21 06.03.2020
1469 Clouds 9 1020 52 10000 3.1 340 11:59 06.03.2020
1470 Clouds 10 1020 52 10000 3.1 340 11:41 06.03.2020
1471 Clouds 10 1020 52 10000 3.1 340 11:20 06.03.2020
1472 Clouds 11 1020 52 10000 3.6 330 10:42 06.03.2020
1473 Clouds 11 1020 52 10000 3.6 330 10:21 06.03.2020
1474 Clouds 12 1020 46 10000 2.6 320 09:59 06.03.2020
1475 Clouds 12 1020 46 10000 2.6 320 09:40 06.03.2020
1476 Clouds 12 1020 46 10000 2.6 320 09:40 06.03.2020
1477 Clouds 12 1020 46 10000 2.6 320 09:22 06.03.2020
1478 Clouds 12 1020 52 10000 2.6 320 08:48 06.03.2020
1479 Clouds 12 1020 46 10000 2.6 320 08:30 06.03.2020
1480 Clear 13 1020 37 10000 3.6 310 07:59 06.03.2020
1481 Clear 13 1020 37 10000 3.6 310 07:40 06.03.2020
1482 Clear 13 1020 37 10000 3.6 310 07:20 06.03.2020
1483 Clouds 12 1021 52 10000 2.6 300 06:42 06.03.2020
1484 Clear 11 1021 52 10000 2.1 0 05:59 06.03.2020
1485 Clear 11 1021 52 10000 2.1 0 05:36 06.03.2020
1486 Clear 11 1022 52 10000 2.6 280 04:59 06.03.2020
1487 Clear 8 1023 52 10000 2.1 10 03:58 06.03.2020
1488 Clear 5 1024 60 10000 1 0 01:42 06.03.2020
1489 Clear 5 1024 60 10000 1 0 01:24 06.03.2020
1490 Clouds 3 1023 80 10000 2.6 130 00:47 06.03.2020
1491 Clouds 3 1023 80 10000 2.6 130 00:20 06.03.2020
1492 Clear 0 1023 86 10000 2.6 120 23:43 05.03.2020
1493 Clear 0 1023 86 10000 2.6 120 23:24 05.03.2020
1494 Clear 0 1023 80 10000 2.1 110 22:41 05.03.2020
1495 Clear 0 1023 80 10000 2.1 110 22:23 05.03.2020
1496 Clear 8 1023 56 0 4.23 39 21:58 05.03.2020
1497 Clear 8 1023 56 0 4.23 39 21:39 05.03.2020
1498 Clear 8 1023 56 0 4.23 39 21:21 05.03.2020
1499 Clear 8 1023 56 0 4.23 39 20:59 05.03.2020
1500 Clear 8 1023 56 0 4.23 39 20:41 05.03.2020
1501 Clear 8 1023 55 0 3.55 47 20:20 05.03.2020
1502 Clear 8 1023 55 0 3.55 47 19:58 05.03.2020
1503 Clear 8 1023 55 0 3.55 47 19:39 05.03.2020
1504 Clear 8 1023 55 0 3.55 47 19:19 05.03.2020
1505 Clear 8 1023 55 0 3.55 47 18:57 05.03.2020
1506 Clear 8 1023 55 0 3.55 47 18:37 05.03.2020
1507 Clear 8 1023 55 0 3.55 47 18:37 05.03.2020
1508 Clear 8 1023 55 0 3.55 47 18:18 05.03.2020
1509 Clear 8 1023 55 0 3.55 47 17:43 05.03.2020
1510 Clear 8 1023 55 0 3.55 47 17:24 05.03.2020
1511 Clear 9 1024 52 0 4.52 35 16:59 05.03.2020
1512 Clear 9 1024 52 0 4.52 35 16:41 05.03.2020
1513 Clear 4 1023 52 10000 2.6 310 16:21 05.03.2020
1514 Clear 4 1023 52 10000 2.6 310 15:45 05.03.2020
1515 Clear 4 1023 52 10000 2.6 310 15:24 05.03.2020
1516 Clear 5 1023 52 10000 1 300 14:59 05.03.2020
1517 Clear 4 1023 52 10000 1 300 14:41 05.03.2020
1518 Clear 5 1023 52 10000 1 300 14:22 05.03.2020
1519 Clear 5 1023 56 10000 3.6 10 13:57 05.03.2020
1520 Clear 5 1023 56 10000 3.6 10 13:38 05.03.2020
1521 Clear 5 1023 56 10000 3.6 10 13:20 05.03.2020
1522 Clear 5 1022 56 10000 5.1 10 12:42 05.03.2020
1523 Clear 5 1022 56 10000 5.1 10 12:21 05.03.2020
1524 Clear 7 1022 49 10000 5.7 20 11:57 05.03.2020
1525 Clear 7 1022 49 10000 5.7 20 11:37 05.03.2020
1526 Clear 7 1022 49 10000 5.7 20 11:37 05.03.2020
1527 Clear 7 1022 49 10000 5.7 20 11:19 05.03.2020
1528 Clear 9 1021 45 10000 6.7 350 10:57 05.03.2020
1529 Clear 9 1021 45 10000 6.7 350 10:39 05.03.2020
1530 Clear 9 1021 45 10000 6.7 350 10:21 05.03.2020
1531 Clear 10 1021 43 10000 7.2 330 09:47 05.03.2020
1532 Clear 10 1021 43 10000 7.2 330 09:28 05.03.2020
1533 Clear 10 1021 43 10000 7.2 330 09:28 05.03.2020
1534 Clouds 10 1021 37 10000 5.7 310 08:59 05.03.2020
1535 Clouds 10 1021 37 10000 5.7 310 08:41 05.03.2020
1536 Clouds 10 1021 37 10000 5.7 310 08:21 05.03.2020
1537 Clouds 11 1021 37 10000 5.7 310 07:41 05.03.2020
1538 Clouds 11 1021 37 10000 5.7 310 07:19 05.03.2020
1539 Clouds 11 1021 40 10000 5.7 310 06:44 05.03.2020
1540 Clouds 11 1021 40 10000 5.7 310 06:19 05.03.2020
1541 Clouds 10 1022 39 10000 5.7 300 05:33 05.03.2020
1542 Clouds 10 1023 43 10000 6.2 340 04:23 05.03.2020
1543 Clouds 9 1023 45 10000 6.2 350 03:58 05.03.2020
1544 Clouds 8 1023 49 10000 5.1 360 02:32 05.03.2020
1545 Clouds 7 1023 48 10000 5.1 20 01:26 05.03.2020
1546 Clouds 5 1023 56 10000 7.7 330 00:44 05.03.2020
1547 Clouds 5 1022 60 10000 7.2 330 23:57 04.03.2020
1548 Clouds 5 1022 60 10000 7.2 330 23:39 04.03.2020
1549 Clouds 5 1022 60 10000 7.2 330 23:20 04.03.2020
1550 Clouds 4 1022 60 10000 8.2 330 22:55 04.03.2020
1551 Clouds 4 1022 60 10000 8.2 330 22:36 04.03.2020
1552 Clouds 4 1022 60 10000 8.2 330 22:18 04.03.2020
1553 Clouds 7 1023 62 0 9.97 342 21:41 04.03.2020
1554 Clouds 7 1023 62 0 9.97 342 21:21 04.03.2020
1555 Clouds 7 1023 62 0 9.97 342 20:58 04.03.2020
1556 Clouds 7 1023 62 0 9.97 342 20:58 04.03.2020
1557 Clouds 7 1023 62 0 9.97 342 20:39 04.03.2020
1558 Clouds 7 1023 62 0 9.97 342 20:21 04.03.2020
1559 Clouds 7 1022 66 0 12.23 331 19:43 04.03.2020
1560 Clouds 7 1022 66 0 12.23 331 19:24 04.03.2020
1561 Clouds 7 1022 66 0 12.23 331 18:59 04.03.2020
1562 Clouds 7 1022 66 0 12.23 331 18:41 04.03.2020
1563 Clouds 7 1022 66 0 12.23 331 18:22 04.03.2020
1564 Clouds 7 1022 66 0 12.23 331 17:57 04.03.2020
1565 Clouds 7 1022 66 0 12.23 331 17:38 04.03.2020
1566 Clouds 10 1019 43 0 10.28 310 17:20 04.03.2020
1567 Clouds 10 1019 43 0 10.28 310 16:44 04.03.2020
1568 Clouds 9 1020 63 10000 8.2 290 16:26 04.03.2020
1569 Clouds 8 1020 63 10000 8.2 290 15:59 04.03.2020
1570 Clouds 8 1020 63 10000 8.2 290 15:41 04.03.2020
1571 Clouds 8 1020 63 10000 8.2 290 15:23 04.03.2020
1572 Clouds 9 1019 49 10000 6.7 280 14:56 04.03.2020
1573 Clouds 9 1019 49 10000 6.7 280 14:37 04.03.2020
1574 Clouds 10 1019 49 10000 6.7 280 14:19 04.03.2020
1575 Clouds 10 1019 43 10000 10.3 310 13:56 04.03.2020
1576 Clouds 10 1019 43 10000 10.3 310 13:38 04.03.2020
1577 Clouds 10 1019 43 10000 10.3 310 13:19 04.03.2020
1578 Clouds 10 1019 39 10000 9.3 310 12:45 04.03.2020
1579 Clouds 10 1019 39 10000 9.3 310 12:27 04.03.2020
1580 Clouds 10 1019 53 10000 8.2 310 11:59 04.03.2020
1581 Clouds 10 1019 53 10000 8.2 310 11:41 04.03.2020
1582 Clouds 10 1019 53 10000 8.2 310 11:22 04.03.2020
1583 Clouds 11 1018 50 10000 7.2 310 10:56 04.03.2020
1584 Clouds 11 1018 50 10000 7.2 310 10:38 04.03.2020
1585 Clouds 11 1018 50 10000 7.2 310 10:18 04.03.2020
1586 Clouds 12 1018 46 10000 7.2 310 09:42 04.03.2020
1587 Clouds 12 1018 46 10000 7.2 310 09:20 04.03.2020
1588 Clouds 12 1018 58 10000 6.2 310 08:44 04.03.2020
1589 Clouds 12 1018 58 10000 6.2 310 08:25 04.03.2020
1590 Clouds 12 1018 66 10000 7.7 330 07:52 04.03.2020
1591 Clouds 12 1018 66 10000 7.7 330 07:33 04.03.2020
1592 Rain 12 1018 71 10000 8.2 310 06:54 04.03.2020
1593 Rain 12 1018 71 10000 8.2 310 06:27 04.03.2020
1594 Rain 12 1018 76 10000 2.6 330 05:59 04.03.2020
1595 Rain 12 1018 76 10000 2.6 330 05:41 04.03.2020
1596 Clouds 12 1019 76 10000 1 0 04:19 04.03.2020
1597 Clouds 12 1019 76 10000 1 0 03:38 04.03.2020
1598 Clouds 11 1020 93 10000 1 0 02:59 04.03.2020
1599 Clouds 11 1020 93 10000 1 0 02:32 04.03.2020
1600 Rain 11 1020 93 10000 2.6 130 01:58 04.03.2020
1601 Rain 11 1020 93 10000 2.6 130 01:38 04.03.2020
1602 Rain 11 1019 93 10000 3.6 150 00:42 04.03.2020
1603 Rain 11 1019 93 10000 3.6 150 00:24 04.03.2020
1604 Rain 10 1019 100 10000 0.5 0 23:45 03.03.2020
1605 Rain 10 1019 100 10000 0.5 0 23:27 03.03.2020
1606 Rain 10 1019 93 10000 1 270 22:56 03.03.2020
1607 Rain 10 1019 93 10000 1 270 22:38 03.03.2020
1608 Rain 10 1019 93 10000 1 270 22:19 03.03.2020
1609 Clouds 12 1019 62 0 0.89 200 21:56 03.03.2020
1610 Clouds 12 1019 62 0 0.89 200 21:36 03.03.2020
1611 Clouds 12 1019 62 0 0.89 200 21:18 03.03.2020
1612 Clouds 12 1019 62 0 0.89 200 21:18 03.03.2020
1613 Clouds 12 1019 62 0 0.89 200 20:40 03.03.2020
1614 Rain 12 1019 62 0 0.89 200 20:19 03.03.2020
1615 Rain 12 1019 62 0 0.89 200 20:19 03.03.2020
1616 Rain 12 1019 62 0 0.89 200 19:57 03.03.2020
1617 Rain 12 1019 62 0 0.89 200 19:37 03.03.2020
1618 Rain 12 1019 62 0 0.89 200 19:19 03.03.2020
1619 Rain 12 1019 62 0 0.89 200 18:57 03.03.2020
1620 Rain 12 1019 62 0 0.89 200 18:39 03.03.2020
1621 Clouds 12 1019 62 0 0.89 200 18:19 03.03.2020
1622 Clouds 12 1019 62 0 0.89 200 18:19 03.03.2020
1623 Clouds 12 1019 62 0 0.89 200 17:55 03.03.2020
1624 Rain 12 1019 62 0 0.89 200 17:37 03.03.2020
1625 Clouds 12 1019 62 0 0.89 200 17:18 03.03.2020
1626 Clouds 12 1019 62 0 0.89 200 16:55 03.03.2020
1627 Clouds 12 1019 62 0 0.89 200 16:36 03.03.2020
1628 Clouds 11 1019 87 10000 1 0 16:18 03.03.2020
1629 Clouds 11 1019 87 10000 1 0 16:18 03.03.2020
1630 Clouds 11 1019 87 10000 1 0 15:43 03.03.2020
1631 Clouds 11 1019 87 10000 1 0 15:21 03.03.2020
1632 Clouds 11 1019 87 10000 1 0 15:21 03.03.2020
1633 Clouds 12 1019 76 10000 1.5 330 14:55 03.03.2020
1634 Clouds 12 1019 76 10000 1.5 330 14:36 03.03.2020
1635 Clouds 12 1019 76 10000 1.5 330 14:18 03.03.2020
1636 Clouds 12 1019 62 10000 1 200 13:42 03.03.2020
1637 Clouds 12 1019 62 10000 1 200 13:24 03.03.2020
1638 Clouds 13 1020 58 10000 2.6 140 12:55 03.03.2020
1639 Clouds 13 1020 58 10000 2.6 140 12:37 03.03.2020
1640 Clouds 13 1020 58 10000 2.6 140 12:18 03.03.2020
1641 Clouds 13 1020 58 10000 1 0 11:39 03.03.2020
1642 Clouds 13 1020 58 10000 1 0 11:20 03.03.2020
1643 Clouds 13 1020 58 10000 2.1 150 10:57 03.03.2020
1644 Clouds 13 1020 58 10000 2.1 150 10:39 03.03.2020
1645 Clouds 13 1020 58 10000 2.1 150 10:20 03.03.2020
1646 Clouds 14 1019 58 10000 2.6 150 09:59 03.03.2020
1647 Clouds 14 1019 58 10000 2.6 150 09:40 03.03.2020
1648 Clouds 14 1019 58 10000 2.6 150 09:19 03.03.2020
1649 Clouds 13 1020 54 10000 1.5 170 08:41 03.03.2020
1650 Clouds 13 1020 54 10000 1.5 170 08:22 03.03.2020
1651 Clouds 14 1020 47 10000 1.5 230 07:45 03.03.2020
1652 Clouds 14 1020 47 10000 1.5 230 07:24 03.03.2020
1653 Clouds 13 1021 50 10000 2.6 270 06:55 03.03.2020
1654 Clouds 13 1021 50 10000 2.6 270 06:27 03.03.2020
1655 Clouds 13 1021 47 10000 1 0 05:49 03.03.2020
1656 Clouds 13 1021 47 10000 1 0 05:31 03.03.2020
1657 Clouds 12 1022 46 10000 1 0 04:44 03.03.2020
1658 Clouds 10 1023 53 10000 2.1 160 02:24 03.03.2020
1659 Clouds 9 1023 61 10000 2.1 130 01:20 03.03.2020
1660 Clouds 7 1023 75 10000 3.1 120 00:38 03.03.2020
1661 Clouds 7 1023 75 10000 3.1 120 00:19 03.03.2020
1662 Clouds 7 1023 61 10000 3.1 190 23:42 02.03.2020
1663 Clouds 7 1023 61 10000 3.1 190 23:23 02.03.2020
1664 Clouds 7 1022 75 10000 2.1 150 22:56 02.03.2020
1665 Clouds 7 1022 75 10000 2.1 150 22:37 02.03.2020
1666 Clouds 7 1022 75 10000 2.1 150 22:19 02.03.2020
1667 Clouds 9 1022 61 0 4.92 360 21:42 02.03.2020
1668 Clouds 9 1022 61 0 4.92 360 21:24 02.03.2020
1669 Clouds 9 1022 61 0 4.92 360 20:59 02.03.2020
1670 Clouds 9 1022 61 0 4.92 360 20:41 02.03.2020
1671 Clouds 9 1022 61 0 4.92 360 20:21 02.03.2020
1672 Clear 9 1022 61 0 4.92 360 19:57 02.03.2020
1673 Clear 9 1022 61 0 4.92 360 19:39 02.03.2020
1674 Clear 9 1022 61 0 4.92 360 19:20 02.03.2020
1675 Clear 9 1022 61 0 4.92 360 18:55 02.03.2020
1676 Clear 9 1022 61 0 4.92 360 18:55 02.03.2020
1677 Clear 9 1022 61 0 4.92 360 18:37 02.03.2020
1678 Clear 9 1022 61 0 4.92 360 18:18 02.03.2020
1679 Clear 9 1022 61 0 4.92 360 17:55 02.03.2020
1680 Clear 9 1022 61 0 4.92 360 17:37 02.03.2020
1681 Clear 9 1022 61 0 4.92 360 17:18 02.03.2020
1682 Clear 9 1022 61 0 4.92 360 16:41 02.03.2020
1683 Clear 8 1023 70 10000 4.1 30 16:22 02.03.2020
1684 Clear 8 1023 70 10000 4.1 30 15:45 02.03.2020
1685 Clear 8 1023 70 10000 4.1 30 15:22 02.03.2020
1686 Clear 9 1023 65 10000 4.6 30 14:57 02.03.2020
1687 Clear 8 1023 65 10000 4.6 30 14:37 02.03.2020
1688 Clear 9 1023 65 10000 4.6 30 14:19 02.03.2020
1689 Clear 9 1022 61 10000 5.1 360 13:44 02.03.2020
1690 Clear 9 1022 61 10000 5.1 360 13:20 02.03.2020
1691 Clear 9 1021 61 10000 7.2 360 12:57 02.03.2020
1692 Clear 9 1021 61 10000 7.2 360 12:57 02.03.2020
1693 Clear 9 1021 61 10000 7.2 360 12:39 02.03.2020
1694 Clear 9 1021 61 10000 7.2 360 12:18 02.03.2020
1695 Clouds 10 1020 57 10000 7.2 360 11:38 02.03.2020
1696 Clouds 10 1020 57 10000 7.2 360 11:19 02.03.2020
1697 Clouds 11 1020 54 10000 7.2 350 10:55 02.03.2020
1698 Clouds 11 1020 54 10000 7.2 350 10:36 02.03.2020
1699 Clouds 11 1020 54 10000 7.2 350 10:18 02.03.2020
1700 Clouds 12 1019 54 10000 8.2 340 09:45 02.03.2020
1701 Clouds 13 1019 54 10000 8.2 340 09:26 02.03.2020
1702 Clouds 14 1018 47 10000 6.2 310 08:47 02.03.2020
1703 Clouds 14 1018 47 10000 6.2 310 08:22 02.03.2020
1704 Clouds 14 1018 44 10000 6.7 310 07:44 02.03.2020
1705 Clouds 14 1018 44 10000 6.7 310 07:20 02.03.2020
1706 Clouds 14 1019 44 10000 7.7 310 06:49 02.03.2020
1707 Clouds 14 1019 47 10000 6.7 310 05:57 02.03.2020
1708 Clouds 13 1020 58 10000 6.7 310 04:56 02.03.2020
1709 Clouds 13 1020 62 10000 6.2 310 03:25 02.03.2020
1710 Clouds 13 1020 66 10000 7.7 310 02:49 02.03.2020
1711 Clouds 11 1019 76 10000 7.2 310 01:54 02.03.2020
1712 Clouds 11 1019 76 10000 7.2 310 01:33 02.03.2020
1713 Clouds 11 1018 81 10000 4.6 320 00:24 02.03.2020
1714 Clouds 11 1018 81 10000 5.1 300 23:59 01.03.2020
1715 Clouds 11 1018 81 10000 5.1 300 23:41 01.03.2020
1716 Clouds 11 1018 81 10000 5.1 300 23:20 01.03.2020
1717 Clouds 11 1018 87 10000 4.6 310 22:43 01.03.2020
1718 Clouds 11 1018 87 10000 4.6 310 22:21 01.03.2020
1719 Clouds 11 1018 87 10000 4.6 310 22:21 01.03.2020
1720 Clouds 10 1015 99 0 6.29 346 21:57 01.03.2020
1721 Clouds 10 1015 99 0 6.29 346 21:57 01.03.2020
1722 Clouds 10 1015 99 0 6.29 346 21:38 01.03.2020
1723 Clouds 10 1015 99 0 6.29 346 21:19 01.03.2020
1724 Clouds 10 1015 99 0 6.29 346 20:44 01.03.2020
1725 Clouds 10 1015 99 0 8.01 343 20:25 01.03.2020
1726 Clouds 10 1015 99 0 4.87 337 19:57 01.03.2020
1727 Clouds 10 1015 99 0 4.87 337 19:39 01.03.2020
1728 Clouds 10 1015 99 0 4.87 337 19:21 01.03.2020
1729 Clouds 10 1015 99 0 4.87 337 18:41 01.03.2020
1730 Clouds 10 1015 99 0 4.87 337 18:20 01.03.2020
1731 Clouds 10 1015 99 0 4.87 337 17:58 01.03.2020
1732 Clouds 10 1015 99 0 4.87 337 17:40 01.03.2020
1733 Clouds 10 1015 99 0 4.87 337 17:21 01.03.2020
1734 Rain 10 1015 99 0 4.53 354 16:58 01.03.2020
1735 Rain 10 1015 99 0 4.53 354 16:39 01.03.2020
1736 Rain 10 1015 99 0 4.53 354 16:39 01.03.2020
1737 Clouds 10 1016 100 8000 2.6 310 16:19 01.03.2020
1738 Clouds 10 1016 100 8000 2.6 310 15:58 01.03.2020
1739 Clouds 10 1016 100 8000 2.6 310 15:40 01.03.2020
1740 Clouds 10 1016 100 8000 2.6 310 15:20 01.03.2020
1741 Clouds 10 1016 93 8000 0.5 0 14:57 01.03.2020
1742 Clouds 10 1016 93 8000 0.5 0 14:39 01.03.2020
1743 Clouds 10 1016 93 8000 0.5 0 14:20 01.03.2020
1744 Clouds 10 1015 100 10000 0.5 0 13:56 01.03.2020
1745 Clouds 10 1015 100 10000 0.5 0 13:37 01.03.2020
1746 Clouds 10 1015 100 10000 0.5 0 13:19 01.03.2020
1747 Rain 10 1015 100 10000 0.5 0 12:43 01.03.2020
1748 Rain 10 1015 100 10000 0.5 0 12:21 01.03.2020
1749 Rain 10 1015 93 10000 1.5 180 11:58 01.03.2020
1750 Rain 10 1015 93 10000 1.5 180 11:39 01.03.2020
1751 Rain 10 1015 93 10000 1.5 180 11:18 01.03.2020
1752 Rain 11 1014 93 10000 0.5 0 10:55 01.03.2020
1753 Rain 11 1014 93 10000 0.5 0 10:36 01.03.2020
1754 Rain 11 1014 93 10000 0.5 0 10:18 01.03.2020
1755 Rain 11 1014 87 10000 1 0 09:41 01.03.2020
1756 Rain 11 1014 87 10000 1 0 09:22 01.03.2020
1757 Rain 11 1014 87 10000 1.5 310 08:46 01.03.2020
1758 Rain 11 1014 87 10000 1.5 310 08:26 01.03.2020
1759 Rain 11 1014 87 10000 0.5 0 07:45 01.03.2020
1760 Rain 11 1014 87 10000 0.5 0 07:27 01.03.2020
1761 Rain 11 1014 87 10000 1 260 06:58 01.03.2020
1762 Rain 11 1014 87 10000 1 260 06:40 01.03.2020
1763 Clouds 12 1016 76 10000 1 0 04:40 01.03.2020
1764 Rain 10 1016 87 10000 2.1 230 02:58 01.03.2020
1765 Rain 10 1016 87 10000 2.1 230 02:18 01.03.2020
1766 Rain 10 1016 87 10000 1.5 150 01:34 01.03.2020
1767 Rain 10 1016 87 10000 1.5 140 00:48 01.03.2020
1768 Rain 10 1016 87 10000 1.5 140 00:25 01.03.2020
1769 Clouds 10 1015 93 10000 1 0 23:54 29.02.2020
1770 Clouds 10 1015 93 10000 1 0 23:35 29.02.2020
1771 Clouds 9 1015 100 10000 1.5 170 22:46 29.02.2020
1772 Clouds 9 1015 100 10000 1.5 170 22:26 29.02.2020
1773 Clouds 11 1014 93 0 4.62 44 21:47 29.02.2020
1774 Clouds 11 1014 93 0 4.62 44 21:27 29.02.2020
1775 Clouds 11 1014 93 0 4.62 44 20:59 29.02.2020
1776 Clouds 11 1014 93 0 4.62 44 20:40 29.02.2020
1777 Clouds 11 1014 93 0 3.64 47 20:20 29.02.2020
1778 Clouds 11 1015 93 0 3.93 47 19:45 29.02.2020
1779 Clouds 11 1015 93 0 3.93 47 19:22 29.02.2020
1780 Clouds 11 1015 93 0 3.93 47 18:59 29.02.2020
1781 Clouds 11 1015 93 0 3.93 47 18:39 29.02.2020
1782 Clouds 11 1014 93 0 3.93 47 18:19 29.02.2020
1783 Clouds 11 1015 93 0 3.93 47 17:55 29.02.2020
1784 Clouds 11 1015 93 0 3.93 47 17:37 29.02.2020
1785 Clouds 11 1015 93 0 3.78 43 17:18 29.02.2020
1786 Clouds 11 1015 93 0 3.78 43 16:43 29.02.2020
1787 Clouds 10 1016 100 6000 2.1 350 16:19 29.02.2020
1788 Clouds 9 1016 100 6000 2.1 350 15:54 29.02.2020
1789 Clouds 9 1016 100 6000 2.1 350 15:36 29.02.2020
1790 Clouds 9 1016 100 6000 2.1 350 15:18 29.02.2020
1791 Clouds 10 1016 100 6000 2.6 320 14:39 29.02.2020
1792 Clouds 10 1016 100 6000 2.6 320 14:21 29.02.2020
1793 Rain 11 1015 93 10000 1 0 13:44 29.02.2020
1794 Rain 11 1015 93 10000 1 0 13:26 29.02.2020
1795 Rain 11 1015 93 10000 2.6 190 12:55 29.02.2020
1796 Rain 11 1014 93 10000 1 170 12:36 29.02.2020
1797 Rain 11 1014 93 10000 1 170 12:18 29.02.2020
1798 Rain 11 1014 93 10000 1 0 11:44 29.02.2020
1799 Rain 11 1014 93 10000 1 0 11:25 29.02.2020
1800 Rain 11 1014 93 10000 1.5 10 10:50 29.02.2020
1801 Rain 11 1014 93 10000 1.5 10 10:29 29.02.2020
1802 Rain 11 1013 93 10000 3.1 340 09:52 29.02.2020
1803 Rain 11 1013 93 10000 3.1 340 09:27 29.02.2020
1804 Rain 11 1014 93 9000 3.6 330 08:58 29.02.2020
1805 Rain 11 1014 93 9000 3.6 330 08:38 29.02.2020
1806 Rain 11 1014 93 9000 3.6 330 08:19 29.02.2020
1807 Rain 11 1014 100 9000 1.5 290 07:45 29.02.2020
1808 Rain 11 1013 93 8000 0.5 0 07:19 29.02.2020
1809 Rain 11 1013 100 8000 0.5 0 06:53 29.02.2020
1810 Rain 11 1013 93 8000 1 320 06:27 29.02.2020
1811 Rain 11 1014 93 6000 1 0 05:49 29.02.2020
1812 Rain 10 1013 93 3500 1 0 05:21 29.02.2020
1813 Rain 10 1014 100 3500 1 0 03:44 29.02.2020
1814 Rain 10 1014 100 4500 1 180 03:23 29.02.2020
1815 Rain 10 1014 100 8000 2.1 330 02:42 29.02.2020
1816 Rain 10 1014 100 10000 0.5 280 01:31 29.02.2020
1817 Clouds 10 1013 100 10000 1.5 350 00:38 29.02.2020
1818 Rain 9 1014 100 10000 2.6 113 23:58 28.02.2020
1819 Rain 9 1013 100 10000 1 0 23:37 28.02.2020
1820 Rain 9 1013 100 10000 1 0 23:19 28.02.2020
1821 Rain 9 1014 100 10000 0.5 0 22:41 28.02.2020
1822 Rain 9 1014 100 10000 0.5 0 22:19 28.02.2020
1823 Rain 9 1018 93 0 1.79 130 21:42 28.02.2020
1824 Rain 9 1018 93 0 1.79 130 21:21 28.02.2020
1825 Rain 9 1018 93 0 1.79 130 21:21 28.02.2020
1826 Rain 9 1018 93 0 1.79 130 20:56 28.02.2020
1827 Rain 9 1018 93 0 1.79 130 20:37 28.02.2020
1828 Rain 9 1018 93 0 1.79 130 20:19 28.02.2020
1829 Rain 9 1018 93 0 1.79 130 20:19 28.02.2020
1830 Rain 9 1018 93 0 1.79 130 19:56 28.02.2020
1831 Rain 9 1018 93 0 1.79 130 19:37 28.02.2020
1832 Rain 9 1019 93 0 1.79 130 19:18 28.02.2020
1833 Rain 9 1018 93 0 1.79 130 18:44 28.02.2020
1834 Rain 9 1018 93 0 1.79 130 18:23 28.02.2020
1835 Rain 9 1018 93 0 1.79 130 17:41 28.02.2020
1836 Rain 9 1018 93 0 1.79 130 17:23 28.02.2020
1837 Rain 9 1018 93 0 1.79 130 17:23 28.02.2020
1838 Rain 9 1018 93 0 1.79 130 16:56 28.02.2020
1839 Rain 9 1018 93 0 1.79 130 16:37 28.02.2020
1840 Rain 8 1019 100 8000 4.1 40 16:18 28.02.2020
1841 Rain 8 1019 100 8000 4.1 40 15:42 28.02.2020
1842 Rain 8 1019 100 8000 4.1 40 15:20 28.02.2020
1843 Rain 8 1019 93 5000 2.1 130 14:59 28.02.2020
1844 Rain 8 1019 93 5000 2.1 130 14:41 28.02.2020
1845 Rain 8 1019 93 5000 2.1 130 14:19 28.02.2020
1846 Rain 8 1019 100 4500 1 0 13:57 28.02.2020
1847 Rain 8 1019 87 6000 4.1 110 13:39 28.02.2020
1848 Rain 8 1019 87 6000 4.1 110 13:19 28.02.2020
1849 Rain 8 1019 100 5000 2.1 100 12:41 28.02.2020
1850 Rain 8 1019 93 5000 4.1 120 12:23 28.02.2020
1851 Rain 8 1020 93 8000 4.1 40 11:43 28.02.2020
1852 Rain 8 1019 93 6000 5.1 160 11:24 28.02.2020
1853 Rain 8 1020 93 5000 3.6 150 10:59 28.02.2020
1854 Rain 8 1019 87 6000 5.1 140 10:40 28.02.2020
1855 Rain 8 1019 87 6000 5.1 140 10:20 28.02.2020
1856 Rain 8 1019 81 10000 4.6 150 09:47 28.02.2020
1857 Rain 8 1019 81 10000 4.6 150 09:21 28.02.2020
1858 Rain 9 1020 70 10000 3.1 130 08:57 28.02.2020
1859 Rain 9 1020 70 10000 3.1 130 08:37 28.02.2020
1860 Rain 9 1020 70 10000 3.1 130 08:18 28.02.2020
1861 Rain 9 1020 66 10000 4.1 160 07:40 28.02.2020
1862 Rain 9 1020 66 10000 4.1 160 07:20 28.02.2020
1863 Clouds 10 1021 61 10000 5.7 140 06:45 28.02.2020
1864 Clouds 10 1021 61 10000 5.7 140 06:19 28.02.2020
1865 Clouds 9 1023 57 10000 3.1 30 04:35 28.02.2020
1866 Clouds 8 1023 57 10000 4.6 140 03:50 28.02.2020
1867 Clouds 7 1023 52 10000 0.5 0 02:46 28.02.2020
1868 Clouds 7 1023 52 10000 0.5 0 02:25 28.02.2020
1869 Clouds 5 1024 70 10000 2.6 130 00:48 28.02.2020
1870 Clouds 5 1024 70 10000 2.6 130 00:26 28.02.2020
1871 Clouds 5 1024 75 10000 2.6 150 23:42 27.02.2020
1872 Clouds 5 1024 75 10000 2.6 150 23:19 27.02.2020
1873 Clouds 4 1024 64 10000 1.5 100 22:43 27.02.2020
1874 Clouds 4 1024 64 10000 1.5 100 22:25 27.02.2020
1875 Clouds 7 1026 52 0 2.68 20 21:57 27.02.2020
1876 Clouds 7 1026 52 0 2.68 20 21:39 27.02.2020
1877 Clouds 7 1026 52 0 2.68 20 21:19 27.02.2020
1878 Clouds 7 1026 52 0 2.68 20 20:56 27.02.2020
1879 Clouds 7 1026 52 0 2.68 20 20:38 27.02.2020
1880 Clouds 7 1026 52 0 2.68 20 20:19 27.02.2020
1881 Clouds 7 1026 52 0 2.68 20 19:42 27.02.2020
1882 Clouds 7 1026 52 0 2.68 20 19:24 27.02.2020
1883 Clouds 7 1026 52 0 2.68 20 18:58 27.02.2020
1884 Clouds 7 1026 52 0 2.68 20 18:40 27.02.2020
1885 Clouds 7 1026 52 0 2.68 20 18:21 27.02.2020
1886 Clouds 7 1026 52 0 2.68 20 17:57 27.02.2020
1887 Clouds 7 1026 52 0 2.68 20 17:38 27.02.2020
1888 Clear 7 1026 52 0 2.68 20 17:19 27.02.2020
1889 Clear 7 1026 52 0 2.68 20 16:55 27.02.2020
1890 Clear 7 1026 52 0 2.68 20 16:36 27.02.2020
1891 Clear 6 1028 62 10000 2.6 10 16:18 27.02.2020
1892 -273 0 0 0 0 0 15:54 27.02.2020
1893 Clear 5 1028 62 10000 2.6 10 15:36 27.02.2020
1894 Clear 5 1028 62 10000 2.6 10 15:18 27.02.2020
1895 Clear 6 1028 62 10000 2.6 20 14:40 27.02.2020
1896 Clear 7 1028 62 10000 2.6 20 14:21 27.02.2020
1897 Clouds 7 1026 52 10000 3.1 20 13:56 27.02.2020
1898 Clouds 7 1026 52 10000 3.1 20 13:37 27.02.2020
1899 Clouds 7 1026 52 10000 3.1 20 13:19 27.02.2020
1900 Clouds 7 1026 57 10000 5.1 10 12:44 27.02.2020
1901 Clouds 7 1026 57 10000 5.1 10 12:20 27.02.2020
1902 Clouds 8 1026 49 10000 4.1 30 11:46 27.02.2020
1903 Clouds 8 1026 49 10000 4.1 30 11:23 27.02.2020
1904 Clouds 10 1025 46 10000 6.2 50 10:56 27.02.2020
1905 Clouds 10 1025 46 10000 6.2 50 10:37 27.02.2020
1906 Clouds 10 1025 46 10000 6.2 50 10:19 27.02.2020
1907 Clouds 11 1025 57 10000 6.7 10 09:41 27.02.2020
1908 Clouds 11 1025 57 10000 6.7 10 09:23 27.02.2020
1909 Clouds 12 1025 46 10000 5.7 360 08:44 27.02.2020
1910 Clouds 12 1025 46 10000 5.7 360 08:26 27.02.2020
1911 Clouds 11 1024 50 10000 6.7 40 07:59 27.02.2020
1912 Clouds 11 1024 50 10000 6.7 40 07:39 27.02.2020
1913 Clouds 11 1024 50 10000 6.7 40 07:19 27.02.2020
1914 Clouds 12 1024 46 10000 5.7 40 06:20 27.02.2020
1915 Clouds 12 1025 54 10000 5.1 70 04:24 27.02.2020
1916 Clouds 11 1025 54 10000 5.7 30 02:58 27.02.2020
1917 Clouds 9 1024 81 10000 5.1 340 00:59 27.02.2020
1918 Clouds 9 1024 81 10000 5.1 340 00:37 27.02.2020
1919 Clouds 8 1024 100 10000 5.1 30 23:41 26.02.2020
1920 Clouds 8 1022 93 10000 0.5 0 23:20 26.02.2020
1921 Clouds 8 1023 100 10000 0.5 0 22:59 26.02.2020
1922 Clouds 8 1023 100 10000 0.5 0 22:40 26.02.2020
1923 Clouds 8 1023 100 10000 0.5 0 22:22 26.02.2020
1924 Clear 11 1021 81 0 4.02 340 21:58 26.02.2020
1925 Clear 11 1021 81 0 4.02 340 21:38 26.02.2020
1926 Clear 11 1021 81 0 4.02 340 21:19 26.02.2020
1927 Clear 11 1021 81 0 4.02 340 21:19 26.02.2020
1928 Clear 11 1021 81 0 4.02 340 20:55 26.02.2020
1929 Clear 11 1021 81 0 4.02 340 20:37 26.02.2020
1930 Clouds 11 1019 81 0 4.02 340 20:18 26.02.2020
1931 Clouds 11 1021 81 0 4.02 340 19:47 26.02.2020
1932 Clouds 11 1021 81 0 4.02 340 19:21 26.02.2020
1933 Clouds 11 1021 81 0 4.02 340 18:59 26.02.2020
1934 Clouds 11 1021 81 0 4.02 340 18:41 26.02.2020
1935 Clouds 11 1021 81 0 4.02 340 18:22 26.02.2020
1936 Clouds 11 1021 81 0 4.02 340 17:56 26.02.2020
1937 Clouds 11 1021 81 0 4.02 340 17:37 26.02.2020
1938 Clouds 11 1021 81 0 4.02 340 17:18 26.02.2020
1939 Clouds 11 1021 81 0 4.02 340 16:43 26.02.2020
1940 Clouds 10 1022 87 10000 2.1 330 16:22 26.02.2020
1941 Clouds 10 1022 87 10000 2.1 330 15:56 26.02.2020
1942 Clouds 9 1022 87 10000 2.1 330 15:37 26.02.2020
1943 Clouds 9 1022 87 10000 2.1 330 15:18 26.02.2020
1944 Clouds 10 1022 76 10000 2.1 40 14:42 26.02.2020
1945 Clouds 10 1022 76 10000 2.1 40 14:22 26.02.2020
1946 Clouds 10 1022 76 10000 2.1 40 14:22 26.02.2020
1947 Clouds 11 1021 81 10000 4.1 340 13:43 26.02.2020
1948 Clouds 11 1021 81 10000 4.1 340 13:22 26.02.2020
1949 Clouds 12 1021 76 10000 6.2 340 12:42 26.02.2020
1950 Clouds 12 1021 76 10000 6.2 340 12:42 26.02.2020
1951 Clouds 12 1021 76 10000 6.2 340 12:23 26.02.2020
1952 Clouds 12 1020 71 10000 5.1 350 11:59 26.02.2020
1953 Clouds 12 1020 71 10000 5.1 350 11:41 26.02.2020
1954 Clouds 12 1020 71 10000 5.1 350 11:22 26.02.2020
1955 Clouds 12 1020 71 10000 5.1 350 11:22 26.02.2020
1956 Clouds 13 1019 71 10000 6.2 340 10:44 26.02.2020
1957 Clouds 13 1019 71 10000 6.2 340 10:24 26.02.2020
1958 Clouds 14 1018 67 10000 7.2 340 09:59 26.02.2020
1959 Clouds 14 1018 67 10000 7.2 340 09:41 26.02.2020
1960 Clouds 14 1018 67 10000 7.2 340 09:21 26.02.2020
1961 Clouds 15 1018 63 10000 6.2 340 08:54 26.02.2020
1962 Clouds 15 1018 63 10000 6.2 340 08:36 26.02.2020
1963 Clouds 15 1018 63 10000 6.2 340 08:18 26.02.2020
1964 Clouds 15 1018 63 10000 6.2 340 08:18 26.02.2020
1965 Clouds 17 1017 59 10000 7.7 350 07:41 26.02.2020
1966 Clouds 17 1017 59 10000 7.7 350 07:21 26.02.2020
1967 Clouds 16 1017 63 10000 6.7 330 06:48 26.02.2020
1968 Clouds 16 1017 63 10000 6.7 330 06:27 26.02.2020
1969 Clouds 17 1018 63 10000 6.2 330 05:48 26.02.2020
1970 Clouds 17 1018 63 10000 6.2 330 05:19 26.02.2020
1971 Clouds 16 1018 72 10000 4.6 360 03:45 26.02.2020
1972 Clouds 15 1018 77 10000 5.7 330 02:18 26.02.2020
1973 Clouds 13 1018 82 10000 6.2 340 01:34 26.02.2020
1974 Clouds 13 1017 87 10000 5.7 350 00:46 26.02.2020
1975 Clouds 13 1017 87 10000 5.7 350 00:46 26.02.2020
1976 Clouds 13 1017 87 10000 5.7 350 00:21 26.02.2020
1977 Clouds 13 1016 87 10000 5.7 340 23:42 25.02.2020
1978 Clouds 13 1016 87 10000 5.7 340 23:24 25.02.2020
1979 Clouds 12 1016 93 10000 4.6 320 22:57 25.02.2020
1980 Clouds 12 1016 93 10000 4.6 320 22:39 25.02.2020
1981 Clouds 12 1016 93 10000 4.6 320 22:19 25.02.2020
1982 Clouds 15 1015 91 0 4.31 33 21:38 25.02.2020
1983 Clouds 15 1015 91 0 4.31 33 21:20 25.02.2020
1984 Clouds 15 1015 91 0 4.31 33 20:57 25.02.2020
1985 Clouds 15 1015 91 0 4.31 33 20:39 25.02.2020
1986 Rain 18 1014 88 0 2.24 250 20:20 25.02.2020
1987 Rain 18 1014 88 0 2.24 250 19:56 25.02.2020
1988 Rain 18 1014 88 0 2.24 250 19:38 25.02.2020
1989 Rain 18 1014 88 0 2.24 250 19:19 25.02.2020
1990 Rain 18 1014 88 0 2.24 250 18:41 25.02.2020
1991 Rain 18 1014 88 0 2.24 250 18:21 25.02.2020
1992 Rain 18 1014 88 0 2.24 250 17:56 25.02.2020
1993 Rain 18 1014 88 0 2.24 250 17:37 25.02.2020
1994 Rain 18 1014 88 0 2.24 250 17:19 25.02.2020
1995 Rain 18 1014 88 0 2.24 250 17:19 25.02.2020
1996 Rain 18 1014 88 0 2.24 250 16:57 25.02.2020
1997 Rain 17 1014 93 7000 4.1 260 16:38 25.02.2020
1998 Rain 17 1014 93 7000 4.1 260 16:20 25.02.2020
1999 Rain 17 1014 93 7000 4.1 260 15:55 25.02.2020
2000 Rain 17 1014 93 7000 4.1 260 15:36 25.02.2020
2001 Rain 17 1014 93 7000 4.1 260 15:18 25.02.2020
2002 Rain 17 1013 93 8000 3.1 190 14:40 25.02.2020
2003 Rain 17 1013 93 8000 3.1 190 14:19 25.02.2020
2004 Rain 17 1014 88 9000 2.6 250 13:59 25.02.2020
2005 Rain 17 1014 88 9000 2.6 250 13:41 25.02.2020
2006 Rain 17 1014 88 9000 2.6 250 13:21 25.02.2020
2007 Rain 17 1013 88 10000 2.1 0 12:59 25.02.2020
2008 Rain 17 1013 88 10000 2.1 0 12:39 25.02.2020
2009 Rain 17 1013 88 10000 2.1 0 12:20 25.02.2020
2010 Rain 17 1013 88 10000 3.6 250 11:56 25.02.2020
2011 Rain 17 1013 88 10000 3.6 250 11:37 25.02.2020
2012 Rain 18 1013 88 10000 3.6 250 11:18 25.02.2020
2013 Rain 18 1013 82 10000 3.1 0 10:42 25.02.2020
2014 Rain 18 1013 82 10000 3.1 0 10:23 25.02.2020
2015 Rain 17 1014 93 6000 3.1 0 09:56 25.02.2020
2016 Rain 17 1013 93 8000 1 0 09:38 25.02.2020
2017 Rain 17 1013 93 8000 1 0 09:18 25.02.2020
2018 Rain 17 1014 88 5000 3.6 180 08:42 25.02.2020
2019 Rain 18 1014 82 4000 4.1 180 08:23 25.02.2020
2020 Clouds 18 1014 72 10000 4.6 200 07:49 25.02.2020
2021 Clouds 18 1014 72 10000 4.6 200 07:23 25.02.2020
2022 Clouds 19 1015 64 10000 4.6 190 06:55 25.02.2020
2023 Clouds 17 1016 67 10000 6.2 130 05:51 25.02.2020
2024 Clouds 16 1018 48 10000 6.7 130 03:56 25.02.2020
2025 Clouds 13 1019 54 10000 8.2 140 02:32 25.02.2020
2026 Clouds 9 1020 66 10000 5.7 140 00:57 25.02.2020
2027 Clouds 9 1020 66 10000 5.7 140 00:31 25.02.2020
2028 Clouds 8 1020 76 10000 6.2 130 23:47 24.02.2020
2029 Clouds 8 1020 76 10000 6.2 130 23:28 24.02.2020
2030 Clouds 8 1020 76 10000 5.7 140 22:56 24.02.2020
2031 Clouds 8 1020 76 10000 5.7 140 22:36 24.02.2020
2032 Clouds 8 1020 76 10000 5.7 140 22:18 24.02.2020
2033 Clouds 11 1024 71 0 1.79 170 21:54 24.02.2020
2034 Clouds 11 1024 71 0 1.79 170 21:54 24.02.2020
2035 Clouds 11 1024 71 0 1.79 170 21:36 24.02.2020
2036 Clouds 11 1024 71 0 1.79 170 21:18 24.02.2020
2037 Clouds 11 1024 71 0 1.79 170 20:41 24.02.2020
2038 Clouds 11 1024 71 0 1.79 170 20:20 24.02.2020
2039 Clouds 11 1024 71 0 1.79 170 19:59 24.02.2020
2040 Clouds 11 1024 71 0 1.79 170 19:40 24.02.2020
2041 Clouds 11 1024 71 0 1.79 170 19:22 24.02.2020
2042 Clouds 11 1024 71 0 1.79 170 18:56 24.02.2020
2043 Clouds 11 1024 71 0 1.79 170 18:38 24.02.2020
2044 Clouds 11 1024 71 0 1.79 170 18:38 24.02.2020
2045 Clouds 11 1024 71 0 1.79 170 18:19 24.02.2020
2046 Clouds 11 1024 71 0 1.79 170 18:19 24.02.2020
2047 Clouds 11 1024 71 0 1.79 170 17:42 24.02.2020
2048 Clouds 11 1024 71 0 1.79 170 17:21 24.02.2020
2049 Clouds 11 1024 71 0 1.79 170 16:59 24.02.2020
2050 Clouds 11 1024 71 0 1.79 170 16:40 24.02.2020
2051 Clouds 11 1024 71 10000 1.5 70 16:21 24.02.2020
2052 Clouds 11 1024 71 10000 1.5 70 15:59 24.02.2020
2053 Clouds 11 1024 71 10000 1.5 70 15:40 24.02.2020
2054 Clouds 11 1024 71 10000 1.5 70 15:21 24.02.2020
2055 Clouds 11 1024 71 10000 2.6 130 14:58 24.02.2020
2056 Clouds 11 1024 71 10000 2.6 130 14:39 24.02.2020
2057 Clouds 11 1024 71 10000 2.6 130 14:19 24.02.2020
2058 Clouds 11 1024 71 10000 2.1 170 13:56 24.02.2020
2059 Clouds 11 1024 71 10000 2.1 170 13:37 24.02.2020
2060 Clouds 11 1024 71 10000 2.1 170 13:19 24.02.2020
2061 Clouds 12 1024 62 10000 1.5 290 12:54 24.02.2020
2062 Clouds 12 1024 62 10000 1.5 290 12:36 24.02.2020
2063 Clouds 12 1024 62 10000 1.5 290 12:18 24.02.2020
2064 Clouds 12 1023 66 10000 1.5 150 11:41 24.02.2020
2065 Clouds 12 1023 66 10000 1.5 150 11:41 24.02.2020
2066 Clouds 12 1023 66 10000 1.5 150 11:23 24.02.2020
2067 Clouds 13 1023 50 10000 1.5 280 10:44 24.02.2020
2068 Clouds 13 1023 50 10000 1.5 280 10:24 24.02.2020
2069 Clouds 14 1023 41 10000 1.5 10 09:41 24.02.2020
2070 Clouds 14 1023 41 10000 1.5 10 09:19 24.02.2020
2071 Clouds 14 1024 47 10000 2.1 0 08:55 24.02.2020
2072 Clouds 14 1024 47 10000 2.1 0 08:30 24.02.2020
2073 Clouds 14 1024 41 10000 2.6 290 07:59 24.02.2020
2074 Clouds 14 1024 41 10000 2.6 290 07:40 24.02.2020
2075 Clouds 14 1024 41 10000 2.6 290 07:22 24.02.2020
2076 Clouds 14 1024 33 10000 2.6 280 06:33 24.02.2020
2077 Clouds 13 1025 50 10000 1 0 05:52 24.02.2020
2078 Clouds 13 1025 50 10000 1 0 05:27 24.02.2020
2079 Clouds 10 1027 62 10000 2.1 160 03:18 24.02.2020
2080 Clouds 9 1027 76 10000 2.1 160 02:45 24.02.2020
2081 Clear 6 1028 75 10000 0.5 0 01:41 24.02.2020
2082 Clear 4 1028 75 10000 1.5 100 00:51 24.02.2020
2083 Clear 4 1028 75 10000 1.5 100 00:21 24.02.2020
2084 Clouds 4 1027 86 10000 5.1 140 23:58 23.02.2020
2085 Clouds 4 1027 86 10000 5.1 140 23:58 23.02.2020
2086 Clouds 4 1027 86 10000 5.1 140 23:38 23.02.2020
2087 Clouds 4 1027 86 10000 5.1 140 23:18 23.02.2020
2088 Clear 3 1027 80 10000 3.1 140 22:43 23.02.2020
2089 Clear 3 1027 80 10000 3.1 140 22:22 23.02.2020
2090 -273 0 0 0 0 0 21:55 23.02.2020
2091 Clear 6 1028 70 0 1.34 10 21:37 23.02.2020
2092 Clear 6 1028 70 0 1.34 10 21:18 23.02.2020
2093 Clear 6 1028 70 0 1.34 10 21:18 23.02.2020
2094 Clear 6 1028 70 0 1.34 10 20:55 23.02.2020
2095 Clear 6 1028 70 0 1.34 10 20:37 23.02.2020
2096 Clear 6 1028 70 0 1.34 10 20:37 23.02.2020
2097 Clear 6 1028 70 0 1.34 10 20:18 23.02.2020
2098 Clear 6 1028 70 0 1.34 10 19:42 23.02.2020
2099 Clear 6 1028 70 0 1.34 10 19:20 23.02.2020
2100 Clear 6 1028 70 0 1.34 10 19:00 23.02.2020
2101 Clear 6 1028 70 0 1.34 10 18:41 23.02.2020
2102 Clear 6 1028 70 0 1.34 10 18:21 23.02.2020
2103 Clear 6 1028 70 0 1.34 10 17:58 23.02.2020
2104 Clear 6 1028 70 0 1.34 10 17:58 23.02.2020
2105 Clear 6 1028 70 0 1.34 10 17:40 23.02.2020
2106 Clear 6 1028 70 0 1.34 10 17:21 23.02.2020
2107 Clear 6 1028 70 0 1.34 10 16:56 23.02.2020
2108 Clear 6 1028 70 0 1.34 10 16:37 23.02.2020
2109 Clear 5 1028 75 10000 2.1 330 16:18 23.02.2020
2110 Clear 5 1028 75 10000 2.1 330 15:54 23.02.2020
2111 Clear 5 1028 75 10000 2.1 330 15:36 23.02.2020
2112 Clear 5 1028 75 10000 2.1 330 15:18 23.02.2020
2113 Clear 5 1028 75 10000 2.6 320 14:41 23.02.2020
2114 Clear 5 1028 75 10000 2.6 320 14:23 23.02.2020
2115 Clear 6 1028 70 10000 1.5 10 13:59 23.02.2020
2116 Clear 6 1028 70 10000 1.5 10 13:41 23.02.2020
2117 Clear 6 1028 70 10000 1.5 10 13:22 23.02.2020
2118 Clear 6 1028 70 10000 1.5 10 13:22 23.02.2020
2119 Clear 8 1027 65 10000 4.1 320 12:59 23.02.2020
2120 Clear 8 1027 65 10000 4.1 320 12:38 23.02.2020
2121 Clear 8 1027 65 10000 4.1 320 12:19 23.02.2020
2122 Clouds 8 1027 61 10000 4.1 320 11:38 23.02.2020
2123 Clouds 8 1027 61 10000 4.1 320 11:20 23.02.2020
2124 Clouds 10 1027 53 10000 5.1 320 10:56 23.02.2020
2125 Clouds 10 1027 53 10000 5.1 320 10:38 23.02.2020
2126 Clouds 10 1027 53 10000 5.1 320 10:20 23.02.2020
2127 Clouds 12 1026 46 10000 5.7 320 09:54 23.02.2020
2128 Clouds 12 1026 46 10000 5.7 320 09:36 23.02.2020
2129 Clouds 12 1026 46 10000 5.7 320 09:36 23.02.2020
2130 Clouds 12 1026 46 10000 5.7 320 09:18 23.02.2020
2131 Clouds 12 1026 50 10000 6.2 330 08:42 23.02.2020
2132 Clouds 12 1026 50 10000 6.2 330 08:23 23.02.2020
2133 Clouds 13 1027 43 10000 4.6 340 07:41 23.02.2020
2134 Clouds 13 1027 43 10000 4.6 340 07:18 23.02.2020
2135 Clouds 12 1027 37 10000 3.6 300 06:19 23.02.2020
2136 Clouds 11 1029 50 10000 4.6 280 04:49 23.02.2020
2137 Clouds 10 1030 53 10000 3.6 290 03:50 23.02.2020
2138 Clouds 10 1030 53 10000 4.1 330 02:38 23.02.2020
2139 Clouds 9 1030 57 10000 5.1 340 01:27 23.02.2020
2140 Clouds 8 1029 65 10000 4.6 340 00:55 23.02.2020
2141 Clouds 8 1029 65 10000 4.6 340 00:36 23.02.2020
2142 Clouds 8 1029 65 10000 4.6 340 00:18 23.02.2020
2143 Clouds 6 1028 65 10000 4.6 330 23:41 22.02.2020
2144 Clouds 6 1028 65 10000 4.6 330 23:19 22.02.2020
2145 Clouds 6 1029 65 10000 5.7 340 22:44 22.02.2020
2146 Clouds 6 1029 65 10000 5.7 340 22:19 22.02.2020
2147 Clear 11 1027 53 0 4.02 300 21:43 22.02.2020
2148 Clear 11 1027 53 0 4.02 300 21:24 22.02.2020
2149 Clear 11 1027 53 0 4.02 300 20:54 22.02.2020
2150 Clear 11 1027 53 0 4.02 300 20:36 22.02.2020
2151 Clouds 11 1027 53 0 4.02 300 20:18 22.02.2020
2152 Clouds 11 1027 53 0 4.02 300 19:42 22.02.2020
2153 Clouds 11 1027 53 0 4.02 300 19:21 22.02.2020
2154 Clouds 11 1027 53 0 4.02 300 18:41 22.02.2020
2155 Clouds 11 1027 53 0 4.02 300 18:22 22.02.2020
2156 Clouds 11 1027 53 0 4.02 300 17:58 22.02.2020
2157 Clouds 11 1027 53 0 4.02 300 17:58 22.02.2020
2158 Clouds 11 1027 53 0 4.02 300 17:40 22.02.2020
2159 Clouds 11 1027 53 0 4.02 300 17:22 22.02.2020
2160 Clouds 11 1027 53 0 4.02 300 16:58 22.02.2020
2161 Clouds 11 1027 53 0 4.02 300 16:39 22.02.2020
2162 Clouds 10 1027 57 10000 4.6 280 16:20 22.02.2020
2163 Clouds 10 1027 57 10000 4.6 280 15:45 22.02.2020
2164 Clouds 10 1027 57 10000 4.6 280 15:45 22.02.2020
2165 Clouds 10 1027 57 10000 4.6 280 15:26 22.02.2020
2166 Clouds 10 1027 57 10000 7.2 280 14:56 22.02.2020
2167 Clouds 10 1027 57 10000 7.2 280 14:38 22.02.2020
2168 Clouds 10 1027 57 10000 7.2 280 14:19 22.02.2020
2169 Clouds 11 1027 53 10000 4.1 300 13:41 22.02.2020
2170 Clouds 11 1027 53 10000 4.1 300 13:19 22.02.2020
2171 Clouds 11 1027 50 10000 8.2 300 12:47 22.02.2020
2172 Clouds 11 1027 50 10000 8.2 300 12:24 22.02.2020
2173 Clouds 12 1026 46 10000 6.7 290 11:56 22.02.2020
2174 Clouds 12 1026 46 10000 6.7 290 11:36 22.02.2020
2175 Clouds 12 1026 46 10000 6.7 290 11:18 22.02.2020
2176 Clouds 12 1026 46 10000 6.2 300 10:40 22.02.2020
2177 Clouds 12 1026 46 10000 6.2 300 10:20 22.02.2020
2178 Clouds 13 1026 51 10000 7.2 310 09:58 22.02.2020
2179 Clouds 13 1026 51 10000 7.2 310 09:39 22.02.2020
2180 Clouds 13 1026 51 10000 7.2 310 09:20 22.02.2020
2181 Clouds 13 1025 47 10000 7.2 310 08:48 22.02.2020
2182 Clouds 13 1025 47 10000 7.2 310 08:28 22.02.2020
2183 Clouds 14 1025 35 10000 9.3 310 07:49 22.02.2020
2184 Clouds 14 1025 35 10000 9.3 310 07:20 22.02.2020
2185 Clouds 14 1025 48 10000 8.7 310 06:48 22.02.2020
2186 Clouds 14 1025 48 10000 8.7 310 06:29 22.02.2020
2187 Clouds 15 1026 47 10000 9.3 310 04:33 22.02.2020
2188 Clouds 14 1026 71 10000 6.7 310 03:22 22.02.2020
2189 Clouds 14 1025 76 10000 4.1 300 02:29 22.02.2020
2190 Rain 13 1025 87 10000 7.2 310 01:45 22.02.2020
2191 Rain 13 1025 87 10000 7.2 310 01:45 22.02.2020
2192 Rain 13 1025 87 10000 7.2 310 01:25 22.02.2020
2193 Rain 13 1024 87 9000 1.5 0 00:45 22.02.2020
2194 Rain 13 1024 87 9000 1.5 0 00:26 22.02.2020
2195 Rain 13 1024 93 10000 2.6 280 23:45 21.02.2020
2196 Rain 13 1024 93 10000 2.6 280 23:22 21.02.2020
2197 Rain 14 1023 87 10000 2.1 270 22:54 21.02.2020
2198 Rain 14 1023 87 10000 2.1 270 22:36 21.02.2020
2199 Rain 14 1023 87 10000 2.1 270 22:18 21.02.2020
2200 Rain 13 1028 66 0 1.34 160 21:41 21.02.2020
2201 Rain 13 1028 66 0 1.34 160 21:23 21.02.2020
2202 Rain 13 1028 66 0 1.34 160 20:48 21.02.2020
2203 Rain 13 1028 66 0 1.34 160 20:29 21.02.2020
2204 Rain 13 1028 66 0 1.34 160 19:42 21.02.2020
2205 Rain 13 1028 66 0 1.34 160 19:24 21.02.2020
2206 Rain 13 1028 66 0 1.34 160 18:56 21.02.2020
2207 Rain 13 1028 66 0 1.34 160 18:38 21.02.2020
2208 Rain 13 1028 66 0 1.34 160 18:19 21.02.2020
2209 Rain 13 1028 66 0 1.34 160 17:40 21.02.2020
2210 Clouds 13 1028 66 0 1.34 160 17:21 21.02.2020
2211 Clouds 13 1028 66 0 1.34 160 17:21 21.02.2020
2212 Clouds 13 1028 66 0 1.34 160 16:57 21.02.2020
2213 Clouds 13 1028 66 0 1.34 160 16:39 21.02.2020
2214 Clouds 12 1026 71 10000 2.1 110 16:20 21.02.2020
2215 Clouds 12 1026 71 10000 2.1 110 15:45 21.02.2020
2216 Clouds 12 1026 71 10000 2.1 110 15:19 21.02.2020
2217 Clouds 12 1027 71 10000 1 0 14:57 21.02.2020
2218 Clouds 12 1027 71 10000 1 0 14:39 21.02.2020
2219 Clouds 12 1027 71 10000 1 0 14:19 21.02.2020
2220 Clouds 12 1028 66 10000 1.5 160 13:42 21.02.2020
2221 Clouds 12 1028 66 10000 1.5 160 13:23 21.02.2020
2222 Clouds 12 1027 71 10000 3.6 150 12:54 21.02.2020
2223 Clouds 12 1027 71 10000 3.6 150 12:36 21.02.2020
2224 Clouds 12 1027 71 10000 3.6 150 12:18 21.02.2020
2225 Clouds 13 1028 71 10000 2.6 150 11:40 21.02.2020
2226 Clouds 13 1028 71 10000 2.6 150 11:21 21.02.2020
2227 Clouds 14 1028 62 10000 3.6 150 10:56 21.02.2020
2228 Clouds 14 1028 62 10000 3.6 150 10:56 21.02.2020
2229 Clouds 14 1028 62 10000 3.6 150 10:38 21.02.2020
2230 Clouds 14 1028 62 10000 3.6 150 10:38 21.02.2020
2231 Clouds 14 1028 62 10000 3.6 150 10:19 21.02.2020
2232 Clouds 16 1029 44 10000 5.1 140 09:43 21.02.2020
2233 Clouds 16 1029 44 10000 5.1 140 09:25 21.02.2020
2234 Clouds 16 1029 42 10000 6.2 140 08:58 21.02.2020
2235 Clouds 16 1029 42 10000 6.2 140 08:40 21.02.2020
2236 Clouds 16 1029 42 10000 6.2 140 08:21 21.02.2020
2237 Clouds 16 1030 36 10000 7.2 160 07:58 21.02.2020
2238 Clouds 16 1030 36 10000 7.2 160 07:40 21.02.2020
2239 Clouds 16 1030 36 10000 7.2 160 07:18 21.02.2020
2240 Clouds 16 1030 48 10000 3.1 170 06:43 21.02.2020
2241 Clouds 16 1030 48 10000 3.1 170 06:24 21.02.2020
2242 Clouds 15 1031 48 10000 5.1 150 05:42 21.02.2020
2243 Clouds 13 1032 50 10000 2.6 160 04:32 21.02.2020
2244 Clouds 12 1033 54 10000 2.6 100 03:57 21.02.2020
2245 Clouds 12 1033 54 10000 2.6 100 03:22 21.02.2020
2246 Clear 8 1033 70 10000 5.1 140 01:50 21.02.2020
2247 Clear 8 1033 70 10000 5.1 140 01:23 21.02.2020
2248 Clear 6 1033 81 10000 4.1 130 00:40 21.02.2020
2249 Clear 6 1033 81 10000 4.1 130 00:20 21.02.2020
2250 Clouds 4 1033 86 10000 4.1 130 23:43 20.02.2020
2251 Clouds 4 1033 86 10000 4.1 130 23:22 20.02.2020
2252 Clear 4 1033 86 10000 2.6 120 22:42 20.02.2020
2253 Clear 4 1033 86 10000 2.6 120 22:24 20.02.2020
2254 Clear 10 1032 61 0 2.24 20 21:58 20.02.2020
2255 Clear 10 1032 61 0 2.24 20 21:40 20.02.2020
2256 Clear 10 1032 61 0 2.24 20 21:20 20.02.2020
2257 Clear 10 1032 61 0 2.24 20 20:57 20.02.2020
2258 Clear 10 1032 61 0 2.24 20 20:39 20.02.2020
2259 Clear 10 1032 61 0 2.24 20 20:20 20.02.2020
2260 Clear 10 1032 61 0 2.24 20 19:59 20.02.2020
2261 Clear 10 1032 61 0 2.24 20 19:41 20.02.2020
2262 Clear 10 1032 61 0 2.24 20 19:23 20.02.2020
2263 Clear 10 1032 61 0 2.24 20 18:58 20.02.2020
2264 Clear 10 1032 61 0 2.24 20 18:37 20.02.2020
2265 Clear 10 1032 61 0 2.24 20 18:19 20.02.2020
2266 Clear 10 1032 61 0 2.24 20 17:40 20.02.2020
2267 Clear 10 1032 61 0 2.24 20 17:20 20.02.2020
2268 Clear 10 1032 61 0 2.24 20 16:58 20.02.2020
2269 Clear 10 1032 61 0 2.24 20 16:39 20.02.2020
2270 Clear 8 1033 75 10000 3.6 10 16:19 20.02.2020
2271 Clear 8 1033 75 10000 3.6 10 15:56 20.02.2020
2272 Clear 8 1033 75 10000 3.6 10 15:37 20.02.2020
2273 Clear 8 1033 75 10000 3.6 10 15:19 20.02.2020
2274 Clear 8 1033 75 10000 2.6 350 14:44 20.02.2020
2275 Clear 9 1033 75 10000 2.6 350 14:25 20.02.2020
2276 Clear 9 1032 61 10000 2.6 20 13:59 20.02.2020
2277 Clear 9 1032 61 10000 2.6 20 13:41 20.02.2020
2278 Clear 9 1032 61 10000 2.6 20 13:19 20.02.2020
2279 Clear 9 1032 66 10000 5.1 350 12:43 20.02.2020
2280 Clear 9 1032 66 10000 5.1 350 12:21 20.02.2020
2281 Clear 10 1031 62 10000 5.7 360 11:59 20.02.2020
2282 Clear 10 1031 62 10000 5.7 360 11:41 20.02.2020
2283 Clear 10 1031 62 10000 5.7 360 11:22 20.02.2020
2284 Clouds 12 1030 54 10000 6.2 360 10:57 20.02.2020
2285 Clouds 12 1030 54 10000 6.2 360 10:38 20.02.2020
2286 Clouds 12 1030 54 10000 6.2 360 10:19 20.02.2020
2287 Clouds 14 1030 50 10000 7.2 340 09:42 20.02.2020
2288 Clouds 14 1030 50 10000 7.2 340 09:23 20.02.2020
2289 Clouds 15 1029 44 10000 6.7 330 08:44 20.02.2020
2290 Clouds 15 1029 44 10000 6.7 330 08:25 20.02.2020
2291 Clouds 15 1029 44 10000 6.2 330 07:56 20.02.2020
2292 Clouds 15 1029 44 10000 6.2 330 07:38 20.02.2020
2293 Clouds 15 1029 44 10000 6.2 330 07:19 20.02.2020
2294 Clouds 14 1029 50 10000 2.6 250 06:43 20.02.2020
2295 Clouds 14 1029 50 10000 2.6 250 06:19 20.02.2020
2296 Clouds 12 1029 62 10000 3.6 160 05:42 20.02.2020
2297 Clouds 12 1030 58 10000 2.1 0 04:49 20.02.2020
2298 Clouds 11 1031 66 10000 2.6 270 03:47 20.02.2020
2299 Clouds 9 1031 70 10000 1 0 02:48 20.02.2020
2300 Clouds 8 1030 87 10000 2.1 130 01:33 20.02.2020
2301 Clouds 6 1030 93 10000 1.5 140 00:47 20.02.2020
2302 Clouds 6 1030 93 10000 1.5 140 00:25 20.02.2020
2303 Clouds 6 1029 93 10000 1.5 130 23:48 19.02.2020
2304 Clouds 6 1029 93 10000 1.5 130 23:19 19.02.2020
2305 Clouds 6 1029 87 10000 2.1 100 22:43 19.02.2020
2306 Clouds 6 1029 87 10000 2.1 100 22:25 19.02.2020
2307 Clouds 7 1028 81 0 3.86 349 21:59 19.02.2020
2308 Clouds 7 1028 81 0 3.86 349 21:40 19.02.2020
2309 Clouds 7 1028 81 0 3.86 349 21:19 19.02.2020
2310 Clouds 7 1028 81 0 3.86 349 20:57 19.02.2020
2311 Clouds 7 1028 81 0 3.86 349 20:57 19.02.2020
2312 Clouds 7 1028 81 0 3.86 349 20:38 19.02.2020
2313 Clouds 7 1028 81 0 3.86 349 20:38 19.02.2020
2314 Clouds 7 1028 81 0 1.72 282 20:19 19.02.2020
2315 Clouds 7 1028 81 0 1.42 288 19:57 19.02.2020
2316 Clouds 7 1028 81 0 1.42 288 19:38 19.02.2020
2317 Clouds 7 1028 81 0 1.42 288 19:19 19.02.2020
2318 Clouds 7 1028 81 0 1.42 288 18:57 19.02.2020
2319 Clouds 7 1028 81 0 1.42 288 18:39 19.02.2020
2320 Clouds 7 1028 81 0 1.42 288 18:21 19.02.2020
2321 Clouds 7 1028 81 0 1.42 288 17:44 19.02.2020
2322 Clouds 7 1028 81 0 0.76 352 17:20 19.02.2020
2323 Clouds 7 1028 81 0 0.76 352 16:57 19.02.2020
2324 Clouds 7 1028 81 0 0.76 352 16:38 19.02.2020
2325 Clouds 6 1028 86 10000 2.6 360 16:18 19.02.2020
2326 Clouds 6 1028 86 10000 2.6 360 15:43 19.02.2020
2327 Clouds 6 1028 86 10000 2.6 360 15:25 19.02.2020
2328 Clouds 7 1028 81 10000 2.1 40 14:58 19.02.2020
2329 Clouds 7 1028 81 10000 2.1 40 14:40 19.02.2020
2330 Clouds 7 1028 81 10000 2.1 40 14:21 19.02.2020
2331 Clouds 7 1028 81 10000 0.5 0 13:42 19.02.2020
2332 Clouds 7 1028 81 10000 0.5 0 13:22 19.02.2020
2333 Clouds 8 1028 70 10000 1 0 12:55 19.02.2020
2334 Clouds 8 1028 70 10000 1 0 12:37 19.02.2020
2335 Clouds 8 1028 70 10000 1 0 12:18 19.02.2020
2336 Clouds 9 1028 61 10000 2.6 260 11:38 19.02.2020
2337 Clouds 9 1028 61 10000 2.6 260 11:20 19.02.2020
2338 Clouds 9 1027 61 10000 3.1 260 10:58 19.02.2020
2339 Clouds 9 1027 61 10000 3.1 260 10:38 19.02.2020
2340 Clouds 9 1027 61 10000 3.1 260 10:20 19.02.2020
2341 Clouds 10 1027 57 10000 3.6 260 09:58 19.02.2020
2342 Clouds 10 1027 57 10000 3.6 260 09:38 19.02.2020
2343 Clouds 11 1027 57 10000 3.6 260 09:19 19.02.2020
2344 Clouds 11 1026 57 10000 2.1 280 08:45 19.02.2020
2345 Clouds 11 1026 57 10000 2.1 280 08:24 19.02.2020
2346 Clouds 11 1026 54 10000 1 0 07:44 19.02.2020
2347 Clouds 11 1026 54 10000 1 0 07:26 19.02.2020
2348 Clouds 11 1027 53 10000 3.1 10 06:57 19.02.2020
2349 Clouds 11 1027 53 10000 3.1 10 06:31 19.02.2020
2350 Clouds 9 1028 53 10000 2.1 20 04:25 19.02.2020
2351 Clouds 6 1029 81 10000 6.2 140 02:58 19.02.2020
2352 Clouds 6 1029 81 10000 6.2 140 02:32 19.02.2020
2353 Clouds 4 1029 86 10000 5.1 140 01:25 19.02.2020
2354 Clouds 3 1028 93 10000 5.1 140 00:51 19.02.2020
2355 Clouds 2 1028 93 10000 5.1 140 00:32 19.02.2020
2356 Clouds 2 1028 86 10000 5.1 140 23:56 18.02.2020
2357 Clouds 2 1028 86 10000 5.1 140 23:37 18.02.2020
2358 Clouds 2 1028 86 10000 5.1 140 23:19 18.02.2020
2359 Clouds 1 1028 58 10000 3.1 140 22:43 18.02.2020
2360 Clouds 1 1028 58 10000 3.1 140 22:20 18.02.2020
2361 Clouds 4 1026 69 0 1.79 80 21:58 18.02.2020
2362 Clouds 4 1026 69 0 1.79 80 21:38 18.02.2020
2363 Clouds 4 1026 69 0 1.79 80 21:19 18.02.2020
2364 Clouds 4 1026 69 0 1.79 80 20:58 18.02.2020
2365 Clouds 4 1026 69 0 1.79 80 20:38 18.02.2020
2366 Clear 4 1026 69 0 1.79 80 20:20 18.02.2020
2367 Clear 4 1026 69 0 1.79 80 19:55 18.02.2020
2368 Clear 4 1026 69 0 1.79 80 19:36 18.02.2020
2369 Clear 4 1026 69 0 1.79 80 19:18 18.02.2020
2370 Clear 4 1026 69 0 1.79 80 18:41 18.02.2020
2371 Clear 4 1026 69 0 1.79 80 18:20 18.02.2020
2372 Clear 4 1026 69 0 1.79 80 17:56 18.02.2020
2373 Clear 4 1026 69 0 1.79 80 17:38 18.02.2020
2374 Clear 4 1026 69 0 1.79 80 17:18 18.02.2020
2375 Clear 4 1026 69 0 1.79 80 16:39 18.02.2020
2376 Clear 3 1027 80 10000 1.5 40 16:20 18.02.2020
2377 Clear 3 1027 80 10000 1.5 40 15:41 18.02.2020
2378 Clear 3 1027 80 10000 1.5 40 15:20 18.02.2020
2379 Clear 3 1027 86 10000 2.1 10 14:57 18.02.2020
2380 Clear 3 1027 86 10000 2.1 10 14:39 18.02.2020
2381 Clouds 3 1027 86 10000 2.1 10 14:20 18.02.2020
2382 Clouds 3 1026 69 10000 2.1 80 13:42 18.02.2020
2383 Clouds 3 1026 69 10000 2.1 80 13:23 18.02.2020
2384 Clouds 4 1026 54 10000 2.6 60 12:59 18.02.2020
2385 Clouds 4 1026 54 10000 2.6 60 12:41 18.02.2020
2386 Clouds 4 1026 54 10000 2.6 60 12:22 18.02.2020
2387 Clouds 6 1026 56 10000 3.1 290 11:46 18.02.2020
2388 Clouds 6 1026 56 10000 3.1 290 11:26 18.02.2020
2389 Clouds 5 1025 56 10000 4.6 310 10:58 18.02.2020
2390 Clouds 5 1025 56 10000 4.6 310 10:39 18.02.2020
2391 Clouds 5 1025 56 10000 4.6 310 10:18 18.02.2020
2392 Clouds 6 1025 52 10000 4.6 310 09:56 18.02.2020
2393 Clouds 7 1025 52 10000 4.6 310 09:37 18.02.2020
2394 Clouds 7 1025 52 10000 4.6 310 09:19 18.02.2020
2395 Clouds 8 1025 49 10000 5.7 300 08:43 18.02.2020
2396 Clouds 8 1025 49 10000 5.7 300 08:21 18.02.2020
2397 Clouds 8 1024 45 10000 6.2 310 07:57 18.02.2020
2398 Clouds 8 1024 45 10000 6.2 310 07:34 18.02.2020
2399 Clouds 8 1024 49 10000 6.7 310 06:57 18.02.2020
2400 Clouds 8 1024 49 10000 6.7 310 06:39 18.02.2020
2401 Clouds 8 1024 49 10000 6.7 310 06:20 18.02.2020
2402 Clouds 7 1024 56 10000 7.7 330 05:34 18.02.2020
2403 Clouds 6 1025 60 10000 7.7 320 04:28 18.02.2020
2404 Clouds 6 1025 56 10000 6.7 330 03:31 18.02.2020
2405 Rain 4 1025 64 10000 6.2 330 01:59 18.02.2020
2406 Clouds 4 1023 64 10000 7.2 330 00:56 18.02.2020
2407 Clouds 4 1023 64 10000 7.2 330 00:22 18.02.2020
2408 Clouds 3 1022 69 10000 7.2 330 23:56 17.02.2020
2409 Clouds 3 1022 69 10000 7.2 330 23:37 17.02.2020
2410 Clouds 3 1022 69 10000 7.2 330 23:18 17.02.2020
2411 Snow 3 1022 69 10000 7.2 330 22:41 17.02.2020
2412 Snow 3 1022 69 10000 7.2 330 22:21 17.02.2020
2413 Snow 4 1018 64 0 9.39 300 21:58 17.02.2020
2414 Snow 4 1018 64 0 9.39 300 21:38 17.02.2020
2415 Snow 4 1018 64 0 9.39 300 21:38 17.02.2020
2416 Snow 4 1018 64 0 9.39 300 21:18 17.02.2020
2417 Snow 4 1018 64 0 9.39 300 20:41 17.02.2020
2418 Snow 4 1017 64 0 9.39 300 20:21 17.02.2020
2419 Snow 4 1017 64 0 9.39 300 20:21 17.02.2020
2420 Snow 4 1018 64 0 9.39 300 19:58 17.02.2020
2421 Snow 4 1018 64 0 9.39 300 19:38 17.02.2020
2422 Snow 4 1018 64 0 9.39 300 19:20 17.02.2020
2423 Snow 4 1018 64 0 9.39 300 19:20 17.02.2020
2424 Snow 4 1018 64 0 9.39 300 18:38 17.02.2020
2425 Snow 4 1018 64 0 9.39 300 18:38 17.02.2020
2426 Snow 4 1017 64 0 9.39 300 18:19 17.02.2020
2427 Snow 4 1017 64 0 9.39 300 17:58 17.02.2020
2428 Snow 4 1018 64 0 9.39 300 17:37 17.02.2020
2429 Snow 4 1017 64 0 9.39 300 17:19 17.02.2020
2430 Snow 4 1017 64 0 9.39 300 17:19 17.02.2020
2431 Snow 3 1019 80 8000 7.7 280 16:55 17.02.2020
2432 Snow 3 1019 80 8000 7.7 280 16:36 17.02.2020
2433 Snow 3 1019 80 8000 7.7 280 16:36 17.02.2020
2434 Snow 3 1019 80 8000 7.7 280 16:18 17.02.2020
2435 Snow 2 1019 80 8000 7.7 280 15:44 17.02.2020
2436 Snow 2 1019 80 3000 9.3 280 15:26 17.02.2020
2437 Clouds 2 1019 80 10000 7.7 290 14:55 17.02.2020
2438 Snow 2 1018 86 8000 11.8 300 14:37 17.02.2020
2439 Snow 3 1018 86 8000 11.8 300 14:19 17.02.2020
2440 Snow 3 1018 86 8000 11.8 300 14:19 17.02.2020
2441 Rain 3 1018 74 10000 7.7 300 13:40 17.02.2020
2442 Snow 3 1018 64 10000 9.8 300 13:20 17.02.2020
2443 Snow 2 1018 93 6000 9.8 310 12:56 17.02.2020
2444 Snow 2 1018 93 4500 7.7 310 12:38 17.02.2020
2445 Snow 2 1018 93 4500 7.7 310 12:19 17.02.2020
2446 Snow 2 1018 70 3500 12.9 310 11:45 17.02.2020
2447 Snow 2 1017 70 7000 7.7 300 11:26 17.02.2020
2448 Clouds 2 1017 68 4000 9.3 310 10:57 17.02.2020
2449 Clouds 2 1017 68 6000 9.3 310 10:39 17.02.2020
2450 Clouds 3 1017 68 6000 9.3 310 10:20 17.02.2020
2451 Clouds 3 1017 68 5000 8.7 300 09:56 17.02.2020
2452 Clouds 4 1016 68 8000 9.3 280 09:37 17.02.2020
2453 Clouds 4 1016 68 8000 9.3 280 09:18 17.02.2020
2454 Snow 4 1016 68 10000 9.3 300 08:42 17.02.2020
2455 Clouds 5 1016 65 10000 10.3 310 08:23 17.02.2020
2456 Rain 4 1016 83 10000 6.7 300 07:57 17.02.2020
2457 Rain 4 1016 83 10000 6.7 300 07:27 17.02.2020
2458 Rain 4 1016 83 10000 7.7 270 06:56 17.02.2020
2459 Snow 3 1016 86 10000 7.2 300 06:37 17.02.2020
2460 Snow 3 1016 86 10000 7.2 300 06:18 17.02.2020
2461 Rain 4 1017 80 10000 7.7 310 05:39 17.02.2020
2462 Rain 4 1017 80 10000 9.8 290 03:55 17.02.2020
2463 Rain 4 1017 80 10000 9.3 310 02:37 17.02.2020
2464 Rain 4 1016 86 10000 7.7 310 00:59 17.02.2020
2465 Rain 4 1016 86 10000 7.7 310 00:25 17.02.2020
2466 Rain 5 1016 75 10000 7.2 300 23:56 16.02.2020
2467 Rain 5 1016 75 10000 7.2 300 23:36 16.02.2020
2468 Rain 5 1016 75 10000 7.2 300 23:18 16.02.2020
2469 Rain 4 1016 86 10000 5.7 290 22:54 16.02.2020
2470 Rain 4 1016 86 10000 5.7 290 22:36 16.02.2020
2471 Rain 5 1016 86 10000 5.7 290 22:18 16.02.2020
2472 Rain 7 1016 56 0 8.05 310 21:42 16.02.2020
2473 Rain 7 1016 56 0 8.05 310 21:24 16.02.2020
2474 Rain 7 1016 56 0 8.05 310 20:58 16.02.2020
2475 Rain 7 1016 56 0 8.05 310 20:40 16.02.2020
2476 Rain 7 1016 56 0 8.05 310 20:40 16.02.2020
2477 Rain 7 1016 56 0 8.05 310 20:40 16.02.2020
2478 Rain 7 1016 56 0 8.05 310 20:40 16.02.2020
2479 Rain 7 1016 56 0 8.05 310 20:40 16.02.2020
2480 Rain 7 1015 56 0 8.05 310 20:22 16.02.2020
2481 Rain 7 1016 56 0 8.05 310 19:59 16.02.2020
2482 Rain 7 1016 56 0 8.05 310 19:40 16.02.2020
2483 Rain 7 1016 56 0 8.05 310 19:19 16.02.2020
2484 Rain 7 1016 56 0 8.05 310 18:45 16.02.2020
2485 Rain 7 1016 56 0 8.05 310 18:27 16.02.2020
2486 Rain 7 1016 56 0 8.05 310 17:59 16.02.2020
2487 Rain 7 1016 56 0 8.05 310 17:40 16.02.2020
2488 Rain 7 1016 56 0 8.05 310 17:20 16.02.2020
2489 Rain 7 1016 56 0 8.05 310 16:56 16.02.2020
2490 Rain 7 1016 56 0 8.05 310 16:38 16.02.2020
2491 Clouds 6 1015 78 10000 6.7 280 16:19 16.02.2020
2492 Clouds 6 1015 78 10000 6.7 280 15:41 16.02.2020
2493 Clouds 6 1015 78 10000 6.7 280 15:23 16.02.2020
2494 Clouds 6 1016 78 10000 6.7 290 14:57 16.02.2020
2495 Clouds 6 1016 78 10000 6.7 290 14:38 16.02.2020
2496 Clouds 7 1016 77 10000 6.7 290 14:19 16.02.2020
2497 Rain 7 1016 56 10000 8.2 310 13:45 16.02.2020
2498 Rain 7 1016 56 10000 8.2 310 13:23 16.02.2020
2499 Clouds 7 1016 70 10000 8.7 310 12:41 16.02.2020
2500 Clouds 7 1016 70 10000 8.7 310 12:20 16.02.2020
2501 Clouds 7 1015 75 10000 6.7 300 11:57 16.02.2020
2502 Clouds 7 1015 75 10000 6.7 300 11:37 16.02.2020
2503 Clouds 7 1015 75 10000 6.7 300 11:18 16.02.2020
2504 Rain 8 1014 70 10000 7.7 300 10:56 16.02.2020
2505 Rain 8 1014 70 10000 7.7 300 10:37 16.02.2020
2506 Rain 8 1014 70 10000 7.7 300 10:37 16.02.2020
2507 Rain 8 1014 70 10000 7.7 300 10:37 16.02.2020
2508 Rain 8 1014 70 10000 7.7 300 10:18 16.02.2020
2509 Clouds 8 1013 65 10000 6.7 300 09:39 16.02.2020
2510 Clouds 8 1013 65 10000 6.7 300 09:39 16.02.2020
2511 Clouds 8 1013 65 10000 6.7 300 09:21 16.02.2020
2512 Clouds 8 1013 70 10000 8.2 300 08:58 16.02.2020
2513 Clouds 8 1013 70 10000 8.2 300 08:40 16.02.2020
2514 Clouds 8 1013 70 10000 8.2 300 08:19 16.02.2020
2515 Clouds 8 1013 70 10000 8.2 300 08:19 16.02.2020
2516 Rain 8 1012 75 10000 8.2 310 07:43 16.02.2020
2517 Rain 8 1012 75 10000 8.2 310 07:23 16.02.2020
2518 Clouds 9 1013 76 10000 7.7 300 06:32 16.02.2020
2519 Clouds 10 1012 81 10000 7.2 300 04:37 16.02.2020
2520 Rain 10 1012 87 9000 8.7 310 03:23 16.02.2020
2521 Rain 11 1012 93 10000 6.7 320 02:24 16.02.2020
2522 Rain 12 1011 93 4500 8.2 310 01:40 16.02.2020
2523 Rain 12 1011 93 4500 8.2 310 01:21 16.02.2020
2524 Rain 13 1010 93 4000 8.7 310 00:51 16.02.2020
2525 Rain 15 1009 87 4000 7.7 300 00:28 16.02.2020
2526 Rain 16 1008 93 10000 2.1 0 23:44 15.02.2020
2527 Rain 16 1008 93 10000 2.1 0 23:25 15.02.2020
2528 Rain 16 1009 93 7000 2.1 210 22:59 15.02.2020
2529 Rain 15 1008 100 3500 5.7 150 22:40 15.02.2020
2530 Rain 14 1008 100 3500 5.7 150 22:21 15.02.2020
2531 Rain 14 1014 93 0 4.92 150 21:56 15.02.2020
2532 Rain 14 1014 93 0 4.92 150 21:37 15.02.2020
2533 Rain 14 1015 93 0 4.92 150 21:19 15.02.2020
2534 Rain 14 1014 93 0 4.92 150 20:39 15.02.2020
2535 Rain 14 1014 93 0 4.92 150 20:39 15.02.2020
2536 Rain 14 1015 93 0 4.92 150 20:21 15.02.2020
2537 Rain 14 1015 93 0 4.92 150 19:44 15.02.2020
2538 Rain 14 1015 93 0 4.92 150 19:22 15.02.2020
2539 Rain 14 1014 93 0 4.92 150 18:43 15.02.2020
2540 Rain 14 1015 93 0 4.92 150 18:23 15.02.2020
2541 Rain 14 1014 93 0 4.92 150 17:58 15.02.2020
2542 Rain 14 1014 93 0 4.92 150 17:38 15.02.2020
2543 Rain 14 1015 93 0 4.92 150 17:19 15.02.2020
2544 Rain 14 1014 93 0 4.92 150 16:43 15.02.2020
2545 Rain 14 1013 93 2000 2.1 250 16:24 15.02.2020
2546 Rain 14 1013 93 2000 2.1 250 15:58 15.02.2020
2547 Rain 14 1013 93 2000 2.1 250 15:58 15.02.2020
2548 Rain 14 1013 93 2000 2.1 250 15:40 15.02.2020
2549 Rain 14 1013 93 2000 2.1 250 15:21 15.02.2020
2550 Mist 14 1014 93 4000 1.5 350 14:44 15.02.2020
2551 Mist 14 1014 93 4000 1.5 350 14:19 15.02.2020
2552 Clouds 14 1014 93 8000 5.1 150 13:54 15.02.2020
2553 Clouds 14 1014 93 8000 5.1 150 13:36 15.02.2020
2554 Clouds 14 1014 93 8000 5.1 150 13:18 15.02.2020
2555 Rain 14 1014 100 7000 2.1 160 12:42 15.02.2020
2556 Rain 14 1014 100 7000 2.1 160 12:22 15.02.2020
2557 Rain 15 1015 93 4000 1 0 11:49 15.02.2020
2558 Rain 15 1015 93 4000 1 0 11:30 15.02.2020
2559 Rain 15 1015 87 8000 2.1 340 10:52 15.02.2020
2560 Rain 15 1015 87 8000 2.1 340 10:30 15.02.2020
2561 Rain 15 1015 87 8000 2.1 340 10:30 15.02.2020
2562 Rain 15 1015 82 10000 2.1 310 10:00 15.02.2020
2563 Rain 15 1015 82 10000 2.1 310 09:41 15.02.2020
2564 Rain 15 1015 82 10000 2.1 310 09:23 15.02.2020
2565 Clouds 15 1015 82 10000 2.1 330 08:44 15.02.2020
2566 Clouds 15 1015 82 10000 2.1 330 08:25 15.02.2020
2567 Clouds 16 1015 77 10000 1 0 07:56 15.02.2020
2568 Clouds 16 1015 77 10000 1 0 07:56 15.02.2020
2569 Clouds 16 1015 77 10000 1 0 07:34 15.02.2020
2570 Clouds 15 1016 77 10000 2.1 160 06:59 15.02.2020
2571 Clouds 15 1016 77 10000 2.1 160 06:36 15.02.2020
2572 Clouds 15 1017 82 10000 2.1 240 05:46 15.02.2020
2573 Rain 14 1019 87 9000 5.1 360 04:46 15.02.2020
2574 Rain 13 1019 82 10000 6.2 150 03:43 15.02.2020
2575 Rain 12 1019 87 10000 6.7 150 02:52 15.02.2020
2576 Rain 12 1019 87 10000 6.7 150 02:23 15.02.2020
2577 Rain 12 1021 87 10000 3.1 130 01:40 15.02.2020
2578 Rain 12 1020 93 10000 4.1 130 00:42 15.02.2020
2579 Rain 12 1020 93 10000 4.1 130 00:21 15.02.2020
2580 Rain 12 1021 93 10000 1 0 23:42 14.02.2020
2581 Rain 12 1021 93 10000 1 0 23:20 14.02.2020
2582 Clouds 11 1021 93 10000 1 200 22:44 14.02.2020
2583 Clouds 11 1021 93 10000 1 200 22:24 14.02.2020
2584 Clouds 12 1020 93 0 2.24 230 21:54 14.02.2020
2585 Clouds 12 1020 93 0 2.24 230 21:36 14.02.2020
2586 Clouds 12 1020 93 0 2.24 230 21:18 14.02.2020
2587 Clouds 12 1020 93 0 2.24 230 20:42 14.02.2020
2588 Clouds 12 1020 93 0 2.24 230 20:19 14.02.2020
2589 Clouds 12 1020 93 0 2.24 230 19:55 14.02.2020
2590 Clouds 12 1020 93 0 2.24 230 19:37 14.02.2020
2591 Clouds 12 1020 93 0 2.24 230 19:18 14.02.2020
2592 Clouds 12 1020 93 0 2.24 230 18:55 14.02.2020
2593 Clouds 12 1020 93 0 2.24 230 18:36 14.02.2020
2594 Clouds 12 1020 93 0 2.24 230 18:18 14.02.2020
2595 Clouds 12 1020 93 0 2.24 230 17:40 14.02.2020
2596 Clouds 12 1020 93 0 2.24 230 17:19 14.02.2020
2597 Clouds 12 1020 93 0 2.24 230 16:43 14.02.2020
2598 Clouds 11 1020 87 10000 1.5 300 16:25 14.02.2020
2599 Clouds 11 1020 87 10000 1.5 300 15:59 14.02.2020
2600 Clouds 11 1020 87 10000 1.5 300 15:41 14.02.2020
2601 Clouds 11 1020 87 10000 1.5 300 15:22 14.02.2020
2602 Clouds 11 1020 87 10000 1.5 330 14:59 14.02.2020
2603 Clouds 11 1020 87 10000 1.5 330 14:41 14.02.2020
2604 Clouds 11 1020 87 10000 1.5 330 14:22 14.02.2020
2605 Clouds 12 1020 93 10000 2.6 230 13:58 14.02.2020
2606 Clouds 12 1020 93 10000 2.6 230 13:39 14.02.2020
2607 Clouds 12 1020 93 10000 2.6 230 13:20 14.02.2020
2608 Clouds 13 1019 87 10000 0.5 0 12:57 14.02.2020
2609 Clouds 13 1019 87 10000 0.5 0 12:38 14.02.2020
2610 Clouds 13 1019 87 10000 0.5 0 12:38 14.02.2020
2611 Clouds 13 1019 87 10000 0.5 0 12:20 14.02.2020
2612 Clouds 13 1019 82 10000 1 160 11:56 14.02.2020
2613 Clouds 13 1019 82 10000 1 160 11:56 14.02.2020
2614 Clouds 13 1019 82 10000 1 160 11:37 14.02.2020
2615 Clouds 13 1019 82 10000 1 160 11:19 14.02.2020
2616 Clouds 14 1018 82 10000 0.5 0 10:41 14.02.2020
2617 Clouds 14 1018 82 10000 0.5 0 10:22 14.02.2020
2618 Clouds 16 1018 72 10000 3.1 340 09:55 14.02.2020
2619 Clouds 16 1018 72 10000 3.1 340 09:36 14.02.2020
2620 Clouds 16 1018 72 10000 3.1 340 09:18 14.02.2020
2621 Clouds 17 1018 63 10000 2.6 340 08:40 14.02.2020
2622 Clouds 17 1018 63 10000 2.6 340 08:21 14.02.2020
2623 Clouds 17 1018 63 10000 2.6 340 08:21 14.02.2020
2624 Clouds 17 1017 55 10000 3.1 280 07:50 14.02.2020
2625 Clouds 17 1017 55 10000 3.1 280 07:30 14.02.2020
2626 Clouds 16 1017 55 10000 3.6 340 06:41 14.02.2020
2627 Clouds 16 1017 55 10000 3.6 340 06:41 14.02.2020
2628 Clouds 16 1017 55 10000 3.6 340 06:21 14.02.2020
2629 Clouds 16 1017 55 10000 3.6 340 06:21 14.02.2020
2630 Clouds 16 1018 63 10000 1.5 30 05:38 14.02.2020
2631 Rain 14 1018 76 10000 4.1 360 03:50 14.02.2020
2632 Clouds 12 1018 87 10000 4.6 130 02:58 14.02.2020
2633 Clouds 11 1018 87 10000 7.2 140 01:57 14.02.2020
2634 Clouds 10 1018 100 10000 2.6 160 00:52 14.02.2020
2635 Clouds 10 1018 100 10000 2.6 160 00:31 14.02.2020
2636 Rain 10 1018 93 10000 0.5 0 23:57 13.02.2020
2637 Rain 10 1018 93 10000 0.5 0 23:38 13.02.2020
2638 Rain 10 1018 93 10000 0.5 0 23:18 13.02.2020
2639 Rain 10 1019 100 7000 1.5 20 22:40 13.02.2020
2640 Rain 10 1019 100 7000 1.5 20 22:19 13.02.2020
2641 Rain 10 1019 93 0 3.45 8 21:58 13.02.2020
2642 Rain 10 1019 93 0 3.45 8 21:40 13.02.2020
2643 Rain 10 1019 93 0 3.45 8 21:20 13.02.2020
2644 Rain 10 1019 93 0 3.45 8 20:42 13.02.2020
2645 Rain 10 1019 93 0 4.8 25 20:22 13.02.2020
2646 Clouds 10 1019 93 0 2.21 85 19:57 13.02.2020
2647 Clouds 10 1019 93 0 2.21 85 19:39 13.02.2020
2648 Clouds 10 1019 93 0 2.21 85 19:39 13.02.2020
2649 Clouds 10 1019 93 0 2.21 85 19:20 13.02.2020
2650 Clouds 10 1019 93 0 2.21 85 18:57 13.02.2020
2651 Clouds 10 1019 93 0 2.21 85 18:39 13.02.2020
2652 Clouds 10 1019 93 0 2.21 85 18:20 13.02.2020
2653 Clouds 10 1019 93 0 2.21 85 17:57 13.02.2020
2654 Clouds 10 1019 93 0 2.21 85 17:37 13.02.2020
2655 Clouds 10 1019 93 0 2.18 55 17:18 13.02.2020
2656 Clouds 10 1019 93 0 2.18 55 16:42 13.02.2020
2657 Clouds 10 1018 100 10000 1 360 16:21 13.02.2020
2658 Clouds 10 1018 100 10000 1 360 15:57 13.02.2020
2659 Clouds 10 1018 100 10000 1 360 15:39 13.02.2020
2660 Clouds 10 1018 100 10000 1 360 15:39 13.02.2020
2661 Clouds 10 1018 100 10000 1 360 15:19 13.02.2020
2662 Clouds 10 1019 93 10000 1 190 14:59 13.02.2020
2663 -273 0 0 0 0 0 14:39 13.02.2020
2664 Clouds 10 1019 93 10000 1 190 14:21 13.02.2020
2665 Clear 10 1019 93 10000 0.5 0 13:48 13.02.2020
2666 Clear 10 1019 93 10000 0.5 0 13:19 13.02.2020
2667 Clouds 11 1019 87 10000 1 0 12:58 13.02.2020
2668 Clouds 11 1019 87 10000 1 0 12:40 13.02.2020
2669 Clouds 11 1019 87 10000 1 0 12:22 13.02.2020
2670 Clouds 12 1019 81 10000 1 0 11:55 13.02.2020
2671 Clouds 12 1019 81 10000 1 0 11:37 13.02.2020
2672 Clear 13 1019 81 10000 1 0 11:18 13.02.2020
2673 Clear 14 1018 67 10000 1.5 320 10:41 13.02.2020
2674 Clear 14 1018 67 10000 1.5 320 10:22 13.02.2020
2675 Clouds 16 1018 63 10000 2.6 320 09:44 13.02.2020
2676 Clouds 16 1018 63 10000 2.6 320 09:23 13.02.2020
2677 Clouds 16 1018 63 10000 4.1 340 08:46 13.02.2020
2678 Clouds 16 1018 63 10000 4.1 340 08:20 13.02.2020
2679 Clouds 16 1017 63 10000 4.6 340 07:43 13.02.2020
2680 Clouds 16 1017 63 10000 4.6 340 07:23 13.02.2020
2681 Clouds 16 1018 63 10000 3.6 360 06:53 13.02.2020
2682 Clouds 16 1018 63 10000 3.6 360 06:33 13.02.2020
2683 Clouds 15 1019 72 10000 4.1 350 05:50 13.02.2020
2684 Clouds 15 1019 67 10000 3.1 340 04:45 13.02.2020
2685 Clouds 15 1019 67 10000 3.1 340 04:18 13.02.2020
2686 Clouds 15 1020 67 10000 1.5 0 03:30 13.02.2020
2687 Clouds 13 1020 87 10000 1.5 150 02:56 13.02.2020
2688 Clouds 13 1020 87 10000 1.5 150 02:20 13.02.2020
2689 Clouds 12 1020 93 10000 2.1 150 01:41 13.02.2020
2690 Clouds 12 1019 87 10000 0.5 310 00:45 13.02.2020
2691 Clouds 12 1019 87 10000 0.5 310 00:26 13.02.2020
2692 Clouds 12 1019 87 10000 2.1 230 23:42 12.02.2020
2693 Clouds 12 1019 87 10000 2.1 230 23:23 12.02.2020
2694 Clouds 11 1019 93 10000 2.1 310 22:56 12.02.2020
2695 Clouds 11 1019 93 10000 2.1 310 22:38 12.02.2020
2696 Clouds 11 1019 93 10000 2.1 310 22:20 12.02.2020
2697 Clouds 16 1016 93 0 6.08 274 21:55 12.02.2020
2698 Clouds 16 1016 93 0 6.08 274 21:36 12.02.2020
2699 Clouds 16 1016 93 0 6.08 274 21:18 12.02.2020
2700 Clouds 16 1016 93 0 6.08 274 20:42 12.02.2020
2701 Clouds 16 1016 93 0 4.83 284 20:23 12.02.2020
2702 Clouds 16 1016 93 0 6.06 266 19:57 12.02.2020
2703 Clouds 16 1016 93 0 6.56 268 19:38 12.02.2020
2704 Clouds 16 1016 93 0 6.56 268 19:19 12.02.2020
2705 Clouds 16 1016 93 0 6.56 268 18:47 12.02.2020
2706 Clouds 16 1016 93 0 6.06 266 18:20 12.02.2020
2707 Clouds 16 1016 93 0 6.06 266 17:58 12.02.2020
2708 Clouds 16 1016 93 0 6.06 266 17:37 12.02.2020
2709 Rain 16 1016 93 0 5.37 276 17:19 12.02.2020
2710 Rain 16 1016 93 0 5.97 275 16:40 12.02.2020
2711 Mist 15 1015 100 4000 1 0 16:20 12.02.2020
2712 Mist 15 1015 100 4000 1 0 15:58 12.02.2020
2713 Mist 15 1015 100 4000 1 0 15:58 12.02.2020
2714 Mist 14 1015 100 4000 1 0 15:37 12.02.2020
2715 Mist 14 1015 100 4000 1 0 15:18 12.02.2020
2716 Rain 14 1016 100 6000 2.1 270 14:42 12.02.2020
2717 Rain 15 1016 100 6000 2.1 270 14:21 12.02.2020
2718 Rain 15 1016 93 10000 1.5 0 13:58 12.02.2020
2719 Rain 15 1016 93 10000 1.5 0 13:40 12.02.2020
2720 Rain 15 1016 93 10000 1.5 0 13:21 12.02.2020
2721 Rain 16 1015 88 10000 1 0 12:58 12.02.2020
2722 Rain 16 1015 88 10000 1 0 12:38 12.02.2020
2723 Rain 16 1015 88 10000 1 0 12:19 12.02.2020
2724 Rain 16 1015 93 7000 2.1 0 11:58 12.02.2020
2725 Rain 16 1015 93 7000 2.1 0 11:39 12.02.2020
2726 Rain 16 1015 93 7000 2.1 0 11:20 12.02.2020
2727 Rain 16 1015 93 4000 2.1 0 10:55 12.02.2020
2728 Rain 15 1014 88 4500 6.2 190 10:37 12.02.2020
2729 Rain 15 1014 88 4500 6.2 190 10:19 12.02.2020
2730 Rain 14 1015 100 9000 8.2 150 09:42 12.02.2020
2731 Rain 14 1015 100 9000 8.2 150 09:42 12.02.2020
2732 Rain 14 1015 100 9000 8.2 150 09:23 12.02.2020
2733 Rain 13 1016 93 6000 6.7 120 08:58 12.02.2020
2734 Rain 13 1016 93 6000 6.7 120 08:58 12.02.2020
2735 Rain 13 1016 93 6000 6.7 120 08:58 12.02.2020
2736 Rain 13 1016 100 6000 7.2 130 08:38 12.02.2020
2737 Rain 13 1016 100 6000 7.2 130 08:38 12.02.2020
2738 Rain 13 1016 100 6000 7.2 130 08:19 12.02.2020
2739 Rain 13 1016 100 6000 7.2 130 08:19 12.02.2020
2740 Rain 13 1016 100 5000 6.2 110 07:44 12.02.2020
2741 Rain 13 1017 93 10000 7.2 120 07:23 12.02.2020
2742 Rain 13 1018 93 4000 8.7 140 06:57 12.02.2020
2743 Rain 13 1018 93 4000 8.7 140 06:57 12.02.2020
2744 Rain 12 1018 93 4000 8.7 140 06:24 12.02.2020
2745 Rain 13 1019 93 4500 8.2 130 05:39 12.02.2020
2746 Rain 12 1020 93 4500 8.2 130 04:58 12.02.2020
2747 Rain 12 1020 93 6000 6.7 130 04:40 12.02.2020
2748 Rain 12 1021 87 7000 7.2 130 03:37 12.02.2020
2749 Rain 12 1021 87 7000 7.2 130 03:19 12.02.2020
2750 Rain 11 1022 93 7000 8.2 130 02:30 12.02.2020
2751 Rain 11 1022 87 6000 6.7 120 01:58 12.02.2020
2752 Rain 10 1024 87 4500 2.6 30 00:46 12.02.2020
2753 Rain 10 1022 87 7000 6.2 120 00:26 12.02.2020
2754 Rain 10 1023 87 7000 6.7 130 23:57 11.02.2020
2755 Rain 10 1023 87 7000 6.7 130 23:57 11.02.2020
2756 Rain 10 1023 87 7000 6.7 130 23:39 11.02.2020
2757 Rain 10 1023 87 7000 6.7 130 23:20 11.02.2020
2758 Rain 10 1023 76 8000 7.2 150 22:55 11.02.2020
2759 Rain 10 1023 76 8000 7.2 150 22:37 11.02.2020
2760 Rain 10 1023 76 8000 7.2 150 22:18 11.02.2020
2761 Clouds 11 1027 62 0 2.68 160 21:55 11.02.2020
2762 Clouds 11 1027 62 0 2.68 160 21:37 11.02.2020
2763 Clouds 11 1027 62 0 2.68 160 21:18 11.02.2020
2764 Clouds 11 1027 62 0 2.68 160 21:18 11.02.2020
2765 Clouds 11 1027 62 0 2.68 160 21:18 11.02.2020
2766 Clouds 11 1027 62 0 2.68 160 20:54 11.02.2020
2767 Clouds 11 1027 62 0 2.68 160 20:36 11.02.2020
2768 Clouds 11 1027 62 0 2.68 160 20:18 11.02.2020
2769 Clouds 11 1027 62 0 2.68 160 19:42 11.02.2020
2770 Clouds 11 1027 62 0 2.68 160 19:23 11.02.2020
2771 Clouds 11 1027 62 0 2.68 160 18:56 11.02.2020
2772 Clouds 11 1027 62 0 2.68 160 18:37 11.02.2020
2773 Clouds 11 1027 62 0 2.68 160 18:19 11.02.2020
2774 Clouds 11 1027 62 0 2.68 160 17:55 11.02.2020
2775 Clouds 11 1027 62 0 2.68 160 17:36 11.02.2020
2776 Clouds 11 1027 62 0 2.68 160 17:18 11.02.2020
2777 Clouds 11 1027 62 0 2.68 160 16:55 11.02.2020
2778 Clouds 11 1027 62 0 2.68 160 16:36 11.02.2020
2779 Clouds 10 1027 87 8000 1 60 16:18 11.02.2020
2780 Clouds 9 1027 87 8000 1 60 15:43 11.02.2020
2781 Clouds 9 1027 87 8000 1 60 15:23 11.02.2020
2782 Clouds 10 1027 70 8000 1 80 14:44 11.02.2020
2783 Clouds 10 1027 70 8000 1 80 14:20 11.02.2020
2784 Clouds 10 1027 62 10000 3.1 160 13:58 11.02.2020
2785 Clouds 10 1027 62 10000 3.1 160 13:39 11.02.2020
2786 Clouds 10 1027 62 10000 3.1 160 13:20 11.02.2020
2787 Clouds 10 1027 57 10000 2.6 140 12:57 11.02.2020
2788 Clouds 10 1027 57 10000 2.6 140 12:38 11.02.2020
2789 Clouds 10 1027 57 10000 2.6 140 12:19 11.02.2020
2790 Clouds 11 1027 54 10000 2.1 110 11:41 11.02.2020
2791 Clouds 11 1027 54 10000 2.1 110 11:20 11.02.2020
2792 Clouds 11 1027 54 10000 2.1 110 11:20 11.02.2020
2793 Clouds 12 1027 50 10000 0.5 160 10:55 11.02.2020
2794 Clouds 12 1027 50 10000 0.5 160 10:36 11.02.2020
2795 Clouds 12 1027 50 10000 0.5 160 10:18 11.02.2020
2796 Clouds 12 1027 54 10000 1 90 09:44 11.02.2020
2797 Clouds 12 1027 54 10000 1 90 09:23 11.02.2020
2798 Clouds 13 1027 35 10000 1.5 240 08:57 11.02.2020
2799 -273 0 0 0 0 0 08:39 11.02.2020
2800 Clouds 13 1027 35 10000 1.5 240 08:20 11.02.2020
2801 Clouds 13 1027 32 10000 1 0 07:45 11.02.2020
2802 Clouds 13 1027 32 10000 1 0 07:25 11.02.2020
2803 Clouds 13 1027 28 10000 1.5 190 06:43 11.02.2020
2804 Clouds 13 1027 28 10000 1.5 190 06:21 11.02.2020
2805 Clouds 12 1028 43 10000 4.1 160 05:47 11.02.2020
2806 Clouds 12 1028 43 10000 4.1 160 05:22 11.02.2020
2807 Clouds 12 1028 50 8000 5.7 160 04:36 11.02.2020
2808 Mist 8 1029 76 5000 3.6 150 02:44 11.02.2020
2809 Mist 8 1029 76 5000 3.6 150 02:23 11.02.2020
2810 Mist 6 1029 81 5000 2.1 130 01:35 11.02.2020
2811 Mist 4 1028 87 5000 3.1 140 00:38 11.02.2020
2812 Mist 4 1028 80 5000 3.1 110 23:53 10.02.2020
2813 Mist 4 1028 80 5000 3.1 110 23:33 10.02.2020
2814 Mist 4 1028 80 5000 3.1 110 23:33 10.02.2020
2815 Mist 4 1028 93 5000 4.1 140 22:58 10.02.2020
2816 Mist 4 1028 93 5000 4.1 140 22:39 10.02.2020
2817 Mist 4 1028 93 5000 4.1 140 22:20 10.02.2020
2818 Clear 7 1025 75 0 2.24 110 21:43 10.02.2020
2819 Clear 7 1025 75 0 2.24 110 21:25 10.02.2020
2820 Clear 7 1025 75 0 2.24 110 20:58 10.02.2020
2821 Clear 7 1025 75 0 2.24 110 20:38 10.02.2020
2822 Clouds 7 1025 75 0 2.24 110 20:20 10.02.2020
2823 Clouds 7 1025 75 0 2.24 110 19:58 10.02.2020
2824 Clouds 7 1025 75 0 2.24 110 19:38 10.02.2020
2825 Clouds 7 1025 75 0 2.24 110 19:19 10.02.2020
2826 Clouds 7 1025 75 0 2.24 110 18:58 10.02.2020
2827 Clouds 7 1025 75 0 2.24 110 18:39 10.02.2020
2828 Clouds 7 1025 75 0 2.24 110 18:20 10.02.2020
2829 Clouds 7 1025 75 0 2.24 110 17:56 10.02.2020
2830 Clouds 7 1025 75 0 2.24 110 17:37 10.02.2020
2831 Clouds 7 1025 75 0 2.24 110 17:19 10.02.2020
2832 Clouds 7 1025 75 0 2.24 110 17:19 10.02.2020
2833 Clouds 7 1025 75 0 2.24 110 16:58 10.02.2020
2834 Clouds 7 1025 75 0 2.24 110 16:38 10.02.2020
2835 Mist 6 1026 86 5000 2.1 40 16:19 10.02.2020
2836 Mist 6 1026 86 5000 2.1 40 15:43 10.02.2020
2837 Mist 6 1026 86 5000 2.1 40 15:23 10.02.2020
2838 Clouds 6 1025 87 6000 2.6 40 14:59 10.02.2020
2839 Clouds 6 1025 87 6000 2.6 40 14:41 10.02.2020
2840 Clouds 7 1025 87 6000 2.6 40 14:19 10.02.2020
2841 Clouds 7 1025 75 6000 2.6 110 13:56 10.02.2020
2842 Clouds 7 1025 75 6000 2.6 110 13:56 10.02.2020
2843 Clouds 7 1025 75 6000 2.6 110 13:38 10.02.2020
2844 Clouds 8 1025 75 6000 2.6 110 13:18 10.02.2020
2845 Clouds 8 1025 75 6000 2.6 110 13:18 10.02.2020
2846 Clouds 9 1024 61 7000 1.5 90 12:44 10.02.2020
2847 Clouds 9 1024 61 7000 1.5 90 12:25 10.02.2020
2848 Clouds 8 1024 66 6000 3.1 320 11:55 10.02.2020
2849 Clouds 8 1024 66 6000 3.1 320 11:37 10.02.2020
2850 Clouds 8 1024 66 6000 3.1 320 11:19 10.02.2020
2851 Clouds 10 1023 53 7000 5.1 310 10:45 10.02.2020
2852 Clouds 10 1023 53 7000 5.1 310 10:26 10.02.2020
2853 Clouds 12 1023 50 8000 5.1 310 09:45 10.02.2020
2854 Clouds 12 1023 50 8000 5.1 310 09:25 10.02.2020
2855 Clouds 12 1022 46 10000 6.2 310 08:45 10.02.2020
2856 Clouds 12 1022 46 10000 6.2 310 08:22 10.02.2020
2857 Clouds 13 1022 63 10000 7.7 310 07:59 10.02.2020
2858 Clouds 13 1022 63 10000 7.7 310 07:38 10.02.2020
2859 Clouds 13 1022 47 10000 8.2 330 06:59 10.02.2020
2860 Clouds 13 1023 43 10000 8.7 320 05:42 10.02.2020
2861 Clouds 12 1023 50 10000 7.7 320 04:26 10.02.2020
2862 Clouds 11 1024 53 10000 7.2 330 03:31 10.02.2020
2863 Clouds 9 1023 57 10000 5.7 350 02:53 10.02.2020
2864 Clouds 9 1023 57 10000 7.2 320 01:36 10.02.2020
2865 Clouds 7 1023 61 10000 6.7 310 00:48 10.02.2020
2866 Clouds 7 1023 61 10000 6.7 310 00:28 10.02.2020
2867 Clouds 6 1022 61 10000 7.2 330 23:45 09.02.2020
2868 Clouds 6 1022 61 10000 7.2 330 23:45 09.02.2020
2869 Clouds 6 1022 61 10000 7.2 330 23:26 09.02.2020
2870 Clouds 5 1022 70 10000 4.6 320 22:58 09.02.2020
2871 Clouds 5 1022 70 10000 4.6 320 22:38 09.02.2020
2872 Clouds 5 1022 70 10000 4.6 320 22:19 09.02.2020
2873 Clear 7 1022 56 0 1.34 20 21:41 09.02.2020
2874 Clear 7 1020 56 0 1.34 20 21:22 09.02.2020
2875 Clear 7 1022 56 0 1.34 20 20:46 09.02.2020
2876 Clear 7 1020 56 0 1.34 20 20:23 09.02.2020
2877 Clouds 7 1022 56 0 1.34 20 19:57 09.02.2020
2878 Clouds 7 1022 56 0 1.34 20 19:57 09.02.2020
2879 Clouds 7 1022 56 0 1.34 20 19:38 09.02.2020
2880 Clouds 7 1020 56 0 1.34 20 19:20 09.02.2020
2881 Clouds 7 1022 56 0 1.34 20 18:42 09.02.2020
2882 Clouds 7 1020 56 0 1.34 20 18:23 09.02.2020
2883 Clouds 7 1022 56 0 1.34 20 17:59 09.02.2020
2884 Clouds 7 1022 56 0 1.34 20 17:39 09.02.2020
2885 Rain 7 1020 56 0 1.34 20 17:21 09.02.2020
2886 Rain 7 1020 56 0 1.34 20 17:21 09.02.2020
2887 Rain 7 1022 56 0 1.34 20 16:41 09.02.2020
2888 Clouds 6 1022 80 10000 1.5 100 16:22 09.02.2020
2889 Clouds 6 1022 80 10000 1.5 100 15:59 09.02.2020
2890 Clouds 6 1022 80 10000 1.5 100 15:59 09.02.2020
2891 Clouds 5 1022 80 10000 1.5 100 15:41 09.02.2020
2892 Clouds 5 1022 80 10000 1.5 100 15:21 09.02.2020
2893 Clouds 5 1022 67 10000 1.5 20 14:57 09.02.2020
2894 Clouds 5 1022 67 10000 1.5 20 14:38 09.02.2020
2895 Clouds 5 1022 69 10000 1.5 20 14:20 09.02.2020
2896 Clouds 6 1022 56 10000 1.5 20 13:43 09.02.2020
2897 Clouds 6 1022 56 10000 1.5 20 13:25 09.02.2020
2898 Clouds 6 1022 56 10000 3.6 300 12:56 09.02.2020
2899 Clouds 6 1022 56 10000 3.6 300 12:37 09.02.2020
2900 Clouds 6 1022 56 10000 3.6 300 12:37 09.02.2020
2901 Clouds 6 1022 56 10000 3.6 300 12:18 09.02.2020
2902 Clouds 6 1022 56 10000 3.6 300 12:18 09.02.2020
2903 Clouds 7 1022 56 10000 4.6 310 11:41 09.02.2020
2904 Clouds 7 1022 56 10000 4.6 310 11:20 09.02.2020
2905 Clouds 7 1022 52 10000 5.1 290 10:57 09.02.2020
2906 Clouds 7 1022 52 10000 5.1 290 10:38 09.02.2020
2907 Clouds 7 1022 52 10000 5.1 290 10:20 09.02.2020
2908 Clouds 8 1022 61 10000 6.2 300 09:41 09.02.2020
2909 Clouds 8 1022 61 10000 6.2 300 09:22 09.02.2020
2910 Clouds 9 1022 57 10000 6.7 300 08:45 09.02.2020
2911 Clouds 9 1022 57 10000 6.7 300 08:45 09.02.2020
2912 Clouds 9 1022 57 10000 6.7 300 08:26 09.02.2020
2913 Clouds 8 1022 57 10000 5.1 300 07:58 09.02.2020
2914 Clouds 9 1022 57 10000 5.1 300 07:34 09.02.2020
2915 Rain 9 1022 81 4000 9.8 290 06:45 09.02.2020
2916 Clouds 9 1023 53 10000 6.2 310 05:57 09.02.2020
2917 Clouds 9 1023 53 10000 6.2 310 05:35 09.02.2020
2918 Clouds 9 1023 46 10000 2.6 350 04:54 09.02.2020
2919 Clouds 9 1024 46 10000 3.1 310 03:51 09.02.2020
2920 Clouds 7 1024 65 10000 1.5 60 02:44 09.02.2020
2921 Clouds 7 1024 70 10000 1 140 01:55 09.02.2020
2922 Clouds 7 1024 70 10000 1 140 01:34 09.02.2020
2923 Clouds 4 1024 60 10000 1.5 110 00:41 09.02.2020
2924 Clouds 4 1024 60 10000 1.5 110 00:18 09.02.2020
2925 Clouds 4 1023 60 10000 1 0 23:42 08.02.2020
2926 Clouds 4 1023 60 10000 1 0 23:19 08.02.2020
2927 Clouds 4 1023 65 10000 0.5 0 22:41 08.02.2020
2928 Clouds 4 1023 65 10000 0.5 0 22:21 08.02.2020
2929 Clear 8 1023 60 0 6.71 340 21:58 08.02.2020
2930 Clear 8 1023 60 0 6.71 340 21:39 08.02.2020
2931 Clear 8 1023 60 0 6.71 340 21:19 08.02.2020
2932 Clear 8 1023 60 0 6.71 340 20:55 08.02.2020
2933 Clear 8 1023 60 0 6.71 340 20:55 08.02.2020
2934 Clear 8 1023 60 0 6.71 340 20:37 08.02.2020
2935 Clouds 8 1023 59 0 6.71 340 20:18 08.02.2020
2936 Clouds 8 1023 59 0 6.71 340 20:18 08.02.2020
2937 Clouds 8 1023 59 0 6.71 340 19:41 08.02.2020
2938 Clouds 8 1022 59 0 6.71 340 19:20 08.02.2020
2939 Clouds 8 1023 59 0 6.71 340 18:59 08.02.2020
2940 Clouds 8 1023 59 0 6.71 340 18:41 08.02.2020
2941 Clouds 8 1022 59 0 6.71 340 18:22 08.02.2020
2942 Clouds 8 1023 59 0 6.71 340 17:43 08.02.2020
2943 Clouds 8 1023 57 0 6.71 340 17:21 08.02.2020
2944 Clouds 8 1023 57 0 6.71 340 16:57 08.02.2020
2945 Clouds 8 1023 57 0 6.71 340 16:38 08.02.2020
2946 Clouds 7 1023 70 10000 2.6 270 16:19 08.02.2020
2947 Clouds 7 1023 70 10000 2.6 270 15:41 08.02.2020
2948 Clouds 7 1023 70 10000 2.6 270 15:19 08.02.2020
2949 Clouds 7 1023 70 10000 1 340 14:55 08.02.2020
2950 Clouds 7 1023 70 10000 1 340 14:36 08.02.2020
2951 Clouds 7 1023 70 10000 1 340 14:18 08.02.2020
2952 Clouds 8 1023 63 10000 6.7 340 13:41 08.02.2020
2953 Clouds 8 1023 61 10000 6.7 340 13:23 08.02.2020
2954 Clouds 8 1023 61 10000 6.2 340 12:49 08.02.2020
2955 Clouds 8 1023 61 10000 6.2 340 12:49 08.02.2020
2956 Clouds 8 1023 61 10000 6.2 340 12:24 08.02.2020
2957 Clouds 8 1022 61 10000 7.2 330 11:59 08.02.2020
2958 Clouds 8 1022 61 10000 7.2 330 11:40 08.02.2020
2959 Clouds 8 1022 61 10000 7.2 330 11:20 08.02.2020
2960 Clouds 8 1022 61 10000 7.2 310 10:43 08.02.2020
2961 Clouds 8 1022 61 10000 7.2 310 10:43 08.02.2020
2962 Clouds 8 1022 61 10000 7.2 310 10:23 08.02.2020
2963 Clouds 9 1021 61 10000 7.7 310 09:53 08.02.2020
2964 Clouds 9 1021 61 10000 7.7 310 09:29 08.02.2020
2965 Clouds 10 1021 61 10000 8.2 310 08:57 08.02.2020
2966 Clouds 10 1021 61 10000 8.2 310 08:38 08.02.2020
2967 Clouds 10 1021 62 10000 8.2 310 08:20 08.02.2020
2968 Clouds 10 1021 61 10000 8.2 310 07:50 08.02.2020
2969 Clouds 10 1021 61 10000 8.2 310 07:31 08.02.2020
2970 Clouds 11 1021 40 10000 8.2 320 06:33 08.02.2020
2971 Clouds 11 1021 40 10000 8.2 320 06:33 08.02.2020
2972 Clouds 10 1022 46 10000 7.2 310 05:50 08.02.2020
2973 Clouds 10 1022 46 10000 7.2 310 05:30 08.02.2020
2974 Clouds 10 1023 58 10000 7.2 320 04:51 08.02.2020
2975 Clouds 9 1023 57 10000 8.2 310 03:55 08.02.2020
2976 Clouds 9 1023 57 10000 8.2 330 02:57 08.02.2020
2977 Clouds 9 1023 57 10000 8.2 330 02:20 08.02.2020
2978 Clouds 7 1023 70 10000 5.1 330 01:26 08.02.2020
2979 Clouds 5 1023 70 10000 4.1 360 00:45 08.02.2020
2980 Clouds 5 1023 70 10000 4.1 360 00:22 08.02.2020
2981 Clouds 3 1022 80 10000 1.5 100 23:55 07.02.2020
2982 Clouds 3 1022 80 10000 1.5 100 23:37 07.02.2020
2983 Clouds 3 1022 80 10000 1.5 100 23:19 07.02.2020
2984 Clouds 4 1022 93 10000 1 0 22:40 07.02.2020
2985 Clouds 3 1022 93 10000 1 0 22:19 07.02.2020
2986 Clouds 7 1024 87 0 2.24 140 21:44 07.02.2020
2987 Clouds 7 1024 87 0 2.24 140 21:23 07.02.2020
2988 Clouds 7 1024 87 0 2.24 140 20:58 07.02.2020
2989 Clouds 7 1024 87 0 2.24 140 20:38 07.02.2020
2990 Clouds 7 1024 87 0 2.24 140 20:18 07.02.2020
2991 Clouds 7 1024 87 0 2.24 140 20:18 07.02.2020
2992 Clouds 7 1024 87 0 2.24 140 19:42 07.02.2020
2993 Clouds 7 1021 87 0 2.24 140 19:22 07.02.2020
2994 Clouds 7 1021 87 0 2.24 140 18:58 07.02.2020
2995 Clouds 7 1021 87 0 2.24 140 18:58 07.02.2020
2996 Clouds 7 1021 87 0 2.24 140 18:40 07.02.2020
2997 Clouds 7 1021 87 0 2.24 140 18:20 07.02.2020
2998 Clouds 7 1021 87 0 2.24 140 17:43 07.02.2020
2999 Clouds 7 1021 87 0 2.24 140 17:22 07.02.2020
3000 Rain 7 1021 87 0 2.24 140 16:57 07.02.2020
3001 Rain 7 1021 87 0 2.24 140 16:38 07.02.2020
3002 Clouds 6 1023 93 10000 1.5 20 16:19 07.02.2020
3003 Clouds 6 1023 93 10000 1.5 20 15:47 07.02.2020
3004 Clouds 6 1023 93 10000 1.5 20 15:22 07.02.2020
3005 Clouds 6 1024 93 10000 1.5 330 14:44 07.02.2020
3006 Clouds 7 1024 93 10000 1.5 330 14:26 07.02.2020
3007 Clouds 7 1024 87 10000 2.6 140 13:58 07.02.2020
3008 Clouds 7 1024 87 10000 2.6 140 13:39 07.02.2020
3009 Clouds 7 1024 87 10000 2.6 140 13:21 07.02.2020
3010 Clouds 7 1024 87 10000 2.6 140 13:21 07.02.2020
3011 Clouds 7 1024 81 10000 3.6 140 12:55 07.02.2020
3012 Clouds 7 1024 81 10000 3.6 140 12:37 07.02.2020
3013 Clouds 7 1024 81 10000 3.6 140 12:19 07.02.2020
3014 Clouds 7 1024 87 10000 4.1 140 11:42 07.02.2020
3015 Clouds 7 1024 87 10000 4.1 140 11:20 07.02.2020
3016 Clouds 7 1024 87 10000 4.1 150 10:42 07.02.2020
3017 Clouds 7 1024 87 10000 4.1 150 10:24 07.02.2020
3018 Rain 7 1024 81 10000 3.6 130 09:56 07.02.2020
3019 Rain 7 1024 81 10000 3.6 130 09:37 07.02.2020
3020 Rain 7 1024 81 10000 3.6 130 09:19 07.02.2020
3021 Rain 7 1024 81 10000 4.6 130 08:42 07.02.2020
3022 Rain 7 1024 81 10000 4.6 130 08:21 07.02.2020
3023 Rain 7 1024 81 10000 4.6 130 07:45 07.02.2020
3024 Rain 7 1024 81 10000 4.6 130 07:26 07.02.2020
3025 Clouds 8 1024 81 10000 5.7 140 06:46 07.02.2020
3026 Clouds 8 1024 81 10000 5.7 140 06:26 07.02.2020
3027 Rain 8 1025 75 10000 4.6 120 05:45 07.02.2020
3028 Clouds 7 1027 75 10000 5.7 130 04:42 07.02.2020
3029 Rain 7 1028 81 10000 5.1 120 02:50 07.02.2020
3030 Rain 7 1028 65 10000 6.7 140 01:42 07.02.2020
3031 Clouds 6 1027 65 10000 2.1 0 00:48 07.02.2020
3032 Clouds 6 1027 65 10000 2.1 0 00:20 07.02.2020
3033 Clouds 6 1027 65 10000 2.1 0 00:20 07.02.2020
3034 Clouds 6 1027 65 10000 3.6 360 23:37 06.02.2020
3035 Clouds 6 1027 65 10000 3.6 360 23:19 06.02.2020
3036 Clouds 6 1027 66 10000 2.1 30 22:44 06.02.2020
3037 Clouds 6 1027 66 10000 2.1 30 22:25 06.02.2020
3038 Clouds 7 1028 52 0 2.24 10 21:38 06.02.2020
3039 Clouds 7 1028 52 0 2.24 10 21:20 06.02.2020
3040 Clouds 7 1028 52 0 2.24 10 20:58 06.02.2020
3041 Clouds 7 1028 52 0 2.24 10 20:39 06.02.2020
3042 Clouds 7 1028 52 0 2.24 10 20:19 06.02.2020
3043 Clouds 7 1028 52 0 2.24 10 19:59 06.02.2020
3044 Clouds 7 1028 52 0 2.24 10 19:40 06.02.2020
3045 Clouds 7 1028 52 0 2.24 10 19:22 06.02.2020
3046 Clouds 7 1028 52 0 2.24 10 18:58 06.02.2020
3047 Clouds 7 1028 52 0 2.24 10 18:39 06.02.2020
3048 Clouds 7 1028 52 0 2.24 10 18:20 06.02.2020
3049 Clouds 7 1028 52 0 2.24 10 17:42 06.02.2020
3050 Clouds 7 1028 52 0 2.24 10 17:21 06.02.2020
3051 Clouds 7 1028 52 0 2.24 10 16:57 06.02.2020
3052 Clouds 7 1028 52 0 2.24 10 16:39 06.02.2020
3053 Clouds 6 1028 54 10000 3.1 20 16:20 06.02.2020
3054 Clouds 6 1028 54 10000 3.1 20 15:42 06.02.2020
3055 Clouds 6 1028 54 10000 3.1 20 15:21 06.02.2020
3056 Clouds 6 1028 54 10000 3.1 40 14:48 06.02.2020
3057 Clouds 6 1028 54 10000 3.1 40 14:27 06.02.2020
3058 Clouds 7 1028 52 10000 2.6 10 13:55 06.02.2020
3059 Clouds 7 1028 52 10000 2.6 10 13:36 06.02.2020
3060 Clouds 7 1028 52 10000 2.6 10 13:18 06.02.2020
3061 Clouds 7 1028 52 10000 4.6 10 12:43 06.02.2020
3062 Clouds 7 1028 52 10000 4.6 10 12:43 06.02.2020
3063 Clouds 7 1028 52 10000 4.6 10 12:18 06.02.2020
3064 Clouds 7 1028 42 10000 3.6 40 11:56 06.02.2020
3065 Clouds 7 1028 42 10000 3.6 40 11:37 06.02.2020
3066 Clouds 7 1028 42 10000 3.6 40 11:18 06.02.2020
3067 Clouds 7 1028 42 10000 3.6 40 11:18 06.02.2020
3068 Clouds 8 1028 49 10000 1 0 10:54 06.02.2020
3069 Clouds 8 1028 49 10000 1 0 10:36 06.02.2020
3070 Clouds 8 1028 49 10000 1 0 10:18 06.02.2020
3071 Clouds 9 1027 39 10000 2.6 160 09:42 06.02.2020
3072 Clouds 9 1027 39 10000 2.6 160 09:20 06.02.2020
3073 Clouds 9 1027 39 10000 1.5 0 08:47 06.02.2020
3074 Clouds 9 1027 39 10000 1.5 0 08:25 06.02.2020
3075 Clouds 8 1027 45 10000 1.5 140 07:57 06.02.2020
3076 Clouds 9 1027 45 10000 1.5 140 07:33 06.02.2020
3077 Clouds 10 1027 39 10000 3.6 340 06:54 06.02.2020
3078 Clouds 10 1027 39 10000 3.6 340 06:19 06.02.2020
3079 Clouds 9 1028 39 10000 2.6 340 05:40 06.02.2020
3080 Clouds 8 1029 39 10000 3.6 340 04:18 06.02.2020
3081 Clouds 7 1029 45 10000 4.6 350 03:18 06.02.2020
3082 Clouds 4 1030 48 10000 2.1 20 01:57 06.02.2020
3083 Clouds 4 1030 48 10000 2.1 20 01:24 06.02.2020
3084 Clouds 2 1029 59 10000 3.1 40 00:38 06.02.2020
3085 Clouds 2 1029 59 10000 3.1 40 00:19 06.02.2020
3086 Clouds 1 1029 64 10000 2.6 30 23:40 05.02.2020
3087 Clouds 1 1029 64 10000 2.6 30 23:22 05.02.2020
3088 Clouds 1 1029 64 10000 0.5 0 22:41 05.02.2020
3089 Clouds 1 1029 64 10000 0.5 0 22:23 05.02.2020
3090 Clear 4 1027 48 0 4.02 20 21:58 05.02.2020
3091 Clear 4 1027 48 0 4.02 20 21:40 05.02.2020
3092 Clear 4 1027 48 0 4.02 20 21:22 05.02.2020
3093 Clear 4 1027 48 0 4.02 20 20:54 05.02.2020
3094 Clear 4 1027 48 0 4.02 20 20:36 05.02.2020
3095 Clear 4 1027 48 0 4.02 20 20:18 05.02.2020
3096 Clear 4 1027 48 0 4.02 20 19:54 05.02.2020
3097 Clear 4 1027 48 0 4.02 20 19:36 05.02.2020
3098 Clear 4 1027 48 0 4.02 20 19:18 05.02.2020
3099 Clear 4 1027 48 0 4.02 20 18:42 05.02.2020
3100 Clear 4 1027 48 0 4.02 20 18:19 05.02.2020
3101 Clear 4 1027 48 0 4.02 20 17:40 05.02.2020
3102 Clear 4 1027 48 0 4.02 20 17:20 05.02.2020
3103 Clear 4 1027 48 0 4.02 20 16:59 05.02.2020
3104 Clear 4 1027 48 0 4.02 20 16:41 05.02.2020
3105 Clear 3 1028 64 10000 3.1 310 16:23 05.02.2020
3106 Clear 3 1028 64 10000 3.1 310 15:56 05.02.2020
3107 Clear 3 1028 64 10000 3.1 310 15:38 05.02.2020
3108 Clear 2 1028 64 10000 3.1 310 15:18 05.02.2020
3109 Clear 3 1028 69 10000 3.1 320 14:42 05.02.2020
3110 Clear 3 1028 69 10000 3.1 320 14:22 05.02.2020
3111 Clear 4 1027 48 10000 4.1 20 13:44 05.02.2020
3112 Clear 4 1027 48 10000 4.1 20 13:24 05.02.2020
3113 Clouds 4 1027 44 10000 6.2 350 12:59 05.02.2020
3114 Clouds 4 1027 44 10000 6.2 350 12:39 05.02.2020
3115 Clouds 4 1027 44 10000 6.2 350 12:21 05.02.2020
3116 Clouds 5 1025 41 10000 9.3 340 11:41 05.02.2020
3117 Clouds 5 1025 41 10000 9.3 340 11:23 05.02.2020
3118 Clouds 7 1024 42 10000 7.7 340 10:58 05.02.2020
3119 Clouds 7 1024 42 10000 7.7 340 10:39 05.02.2020
3120 Clouds 7 1024 42 10000 7.7 340 10:18 05.02.2020
3121 Clouds 8 1024 45 10000 7.7 340 09:43 05.02.2020
3122 Clouds 8 1024 45 10000 7.7 340 09:22 05.02.2020
3123 Clouds 9 1023 49 10000 8.2 330 08:56 05.02.2020
3124 Clouds 9 1023 49 10000 8.2 330 08:37 05.02.2020
3125 Clouds 9 1023 49 10000 8.2 330 08:19 05.02.2020
3126 Clouds 10 1023 46 10000 6.7 310 07:42 05.02.2020
3127 Clouds 10 1023 46 10000 6.7 310 07:19 05.02.2020
3128 Clouds 10 1023 37 10000 6.2 300 06:39 05.02.2020
3129 Clouds 10 1023 37 10000 6.2 300 06:21 05.02.2020
3130 Clouds 10 1024 37 10000 7.7 310 05:20 05.02.2020
3131 Clouds 11 1025 43 10000 9.3 320 04:58 05.02.2020
3132 Clouds 11 1025 43 10000 9.3 320 04:25 05.02.2020
3133 Clouds 9 1025 61 9000 7.7 320 02:52 05.02.2020
3134 Clouds 8 1025 61 9000 7.7 320 02:21 05.02.2020
3135 Rain 6 1025 81 10000 5.7 300 01:28 05.02.2020
3136 Clouds 5 1024 75 10000 0.5 0 00:22 05.02.2020
3137 Clouds 4 1024 80 10000 0.5 0 23:40 04.02.2020
3138 Clouds 3 1024 80 10000 0.5 0 23:20 04.02.2020
3139 Clouds 4 1023 80 10000 1 120 22:57 04.02.2020
3140 Clouds 4 1023 80 10000 1 120 22:39 04.02.2020
3141 Clouds 3 1023 80 10000 1 120 22:20 04.02.2020
3142 Clear 7 1023 75 0 8.29 351 21:54 04.02.2020
3143 Clear 7 1023 75 0 8.29 351 21:36 04.02.2020
3144 Clear 7 1023 75 0 8.29 351 21:18 04.02.2020
3145 Clear 7 1023 75 0 8.29 351 20:44 04.02.2020
3146 Clear 7 1023 75 0 8.55 349 20:22 04.02.2020
3147 Clear 7 1023 75 0 7.37 348 19:59 04.02.2020
3148 Clear 7 1023 75 0 7.37 348 19:40 04.02.2020
3149 Clear 7 1023 75 0 7.37 348 19:22 04.02.2020
3150 Clear 7 1023 75 0 7.37 348 18:57 04.02.2020
3151 Clear 7 1023 75 0 7.37 348 18:38 04.02.2020
3152 Clear 7 1023 75 0 7.37 348 18:19 04.02.2020
3153 Clear 7 1023 75 0 7.37 348 17:43 04.02.2020
3154 Clear 7 1023 75 0 7.37 348 17:22 04.02.2020
3155 Clear 7 1023 75 0 6.6 342 16:57 04.02.2020
3156 Clear 7 1023 75 0 6.6 342 16:38 04.02.2020
3157 Clouds 6 1023 80 10000 2.1 60 16:19 04.02.2020
3158 Clouds 6 1023 80 10000 2.1 60 15:56 04.02.2020
3159 Clouds 5 1023 80 10000 2.1 60 15:38 04.02.2020
3160 Clouds 5 1023 80 10000 2.1 60 15:19 04.02.2020
3161 Clouds 5 1023 80 10000 2.6 310 14:42 04.02.2020
3162 Clouds 6 1023 80 10000 2.6 310 14:23 04.02.2020
3163 Clouds 6 1023 75 10000 0.5 0 13:57 04.02.2020
3164 Clouds 6 1023 75 10000 0.5 0 13:39 04.02.2020
3165 Clouds 6 1023 75 10000 0.5 0 13:20 04.02.2020
3166 Clouds 7 1023 75 10000 2.6 320 12:44 04.02.2020
3167 Clouds 7 1023 75 10000 2.6 320 12:26 04.02.2020
3168 Clouds 9 1023 57 10000 3.6 300 11:58 04.02.2020
3169 Clouds 9 1023 57 10000 3.6 300 11:39 04.02.2020
3170 Clouds 9 1023 57 10000 3.6 300 11:21 04.02.2020
3171 Clouds 10 1022 53 10000 5.1 310 10:55 04.02.2020
3172 Clouds 10 1022 53 10000 5.1 310 10:36 04.02.2020
3173 Clouds 10 1022 53 10000 5.1 310 10:36 04.02.2020
3174 Clouds 10 1022 53 10000 5.1 310 10:18 04.02.2020
3175 Clouds 11 1022 50 10000 3.6 310 09:40 04.02.2020
3176 Clouds 11 1022 50 10000 3.6 310 09:22 04.02.2020
3177 Clouds 12 1022 40 10000 2.1 300 08:50 04.02.2020
3178 Clouds 12 1022 40 10000 2.1 300 08:28 04.02.2020
3179 Clouds 12 1022 40 10000 2.1 300 08:28 04.02.2020
3180 Clouds 11 1022 37 10000 2.1 270 07:57 04.02.2020
3181 Clouds 11 1022 37 10000 2.1 270 07:39 04.02.2020
3182 Clouds 11 1022 37 10000 2.1 270 07:39 04.02.2020
3183 Clouds 11 1022 37 10000 2.1 270 07:21 04.02.2020
3184 Clouds 11 1022 50 10000 2.6 170 06:42 04.02.2020
3185 Clouds 11 1023 55 10000 2.1 60 05:40 04.02.2020
3186 Clouds 10 1024 53 10000 2.6 160 04:55 04.02.2020
3187 Clouds 8 1025 61 10000 2.6 130 03:49 04.02.2020
3188 Clouds 8 1025 61 10000 2.6 130 03:31 04.02.2020
3189 Clouds 7 1025 75 10000 4.1 140 02:51 04.02.2020
3190 Clouds 7 1025 75 10000 4.1 140 02:28 04.02.2020
3191 Clouds 5 1025 81 10000 2.6 130 01:48 04.02.2020
3192 Clouds 5 1025 81 10000 2.6 130 01:21 04.02.2020
3193 Clouds 3 1025 86 10000 2.6 130 00:25 04.02.2020
3194 Clouds 3 1025 86 10000 2.6 130 00:25 04.02.2020
3195 Clouds 3 1024 80 10000 2.6 130 23:56 03.02.2020
3196 Clouds 3 1024 80 10000 2.6 130 23:38 03.02.2020
3197 Clouds 3 1024 80 10000 2.6 130 23:18 03.02.2020
3198 Clouds 2 1025 93 10000 2.6 140 22:39 03.02.2020
3199 Clouds 2 1025 93 10000 2.6 140 22:19 03.02.2020
3200 Clouds 9 1025 55 0 2.8 14 21:42 03.02.2020
3201 Clouds 9 1025 55 0 2.8 14 21:42 03.02.2020
3202 Clouds 9 1025 61 0 1.34 50 21:20 03.02.2020
3203 Clouds 9 1025 61 0 1.34 50 20:57 03.02.2020
3204 Clouds 9 1025 61 0 1.34 50 20:57 03.02.2020
3205 Clouds 9 1025 61 0 1.34 50 20:39 03.02.2020
3206 Clouds 9 1025 61 0 1.34 50 20:18 03.02.2020
3207 Clouds 9 1025 61 0 1.34 50 19:42 03.02.2020
3208 Clouds 9 1025 61 0 1.34 50 19:23 03.02.2020
3209 Clouds 9 1025 61 0 1.34 50 18:59 03.02.2020
3210 Clouds 9 1025 61 0 1.34 50 18:41 03.02.2020
3211 Clouds 9 1025 61 0 1.34 50 18:22 03.02.2020
3212 Clouds 9 1025 61 0 1.34 50 17:57 03.02.2020
3213 Clouds 9 1025 61 0 1.34 50 17:39 03.02.2020
3214 Clouds 9 1025 61 0 1.34 50 17:19 03.02.2020
3215 Clouds 9 1025 61 0 1.34 50 16:40 03.02.2020
3216 Clouds 6 1025 93 10000 1.5 280 16:22 03.02.2020
3217 Clouds 7 1025 93 10000 1.5 280 15:58 03.02.2020
3218 Clouds 7 1025 93 10000 1.5 280 15:39 03.02.2020
3219 Clouds 7 1025 93 10000 1.5 280 15:20 03.02.2020
3220 Clouds 8 1025 81 10000 1.5 310 14:57 03.02.2020
3221 Clouds 8 1025 81 10000 1.5 310 14:39 03.02.2020
3222 Clouds 8 1025 81 10000 1.5 310 14:21 03.02.2020
3223 Clouds 8 1025 61 10000 1.5 50 13:43 03.02.2020
3224 Clouds 8 1025 61 10000 1.5 50 13:21 03.02.2020
3225 Clouds 8 1025 61 10000 4.6 330 12:58 03.02.2020
3226 Clouds 8 1025 61 10000 4.6 330 12:39 03.02.2020
3227 Clouds 8 1025 61 10000 4.6 330 12:21 03.02.2020
3228 Clouds 8 1024 61 10000 4.6 320 11:55 03.02.2020
3229 Clouds 8 1024 61 10000 4.6 320 11:36 03.02.2020
3230 Clouds 8 1024 61 10000 4.6 320 11:18 03.02.2020
3231 Clouds 9 1024 61 10000 4.1 310 10:40 03.02.2020
3232 Clouds 9 1024 61 10000 4.1 310 10:21 03.02.2020
3233 Clouds 10 1024 57 10000 5.7 320 09:44 03.02.2020
3234 Clouds 10 1024 57 10000 5.7 320 09:21 03.02.2020
3235 Clouds 12 1023 50 10000 6.2 310 08:42 03.02.2020
3236 Clouds 12 1023 50 10000 6.2 310 08:23 03.02.2020
3237 Clouds 12 1023 54 10000 6.2 300 07:59 03.02.2020
3238 Clouds 12 1023 54 10000 6.2 300 07:40 03.02.2020
3239 Clouds 12 1023 54 10000 6.2 300 07:21 03.02.2020
3240 Clouds 12 1023 50 10000 7.2 310 06:49 03.02.2020
3241 Clouds 12 1023 50 10000 7.2 310 06:27 03.02.2020
3242 Clouds 12 1023 47 10000 7.2 310 05:37 03.02.2020
3243 Clouds 11 1023 54 10000 6.2 310 04:59 03.02.2020
3244 Clouds 8 1024 87 10000 0.5 0 02:58 03.02.2020
3245 Clouds 8 1024 87 10000 0.5 0 02:34 03.02.2020
3246 Clouds 7 1024 87 10000 1 150 01:41 03.02.2020
3247 Clouds 5 1024 93 10000 2.1 140 00:46 03.02.2020
3248 Clouds 5 1024 93 10000 2.1 140 00:23 03.02.2020
3249 Clouds 3 1023 93 10000 1.5 150 23:38 02.02.2020
3250 Clouds 3 1023 93 10000 1.5 150 23:20 02.02.2020
3251 Clouds 3 1023 93 10000 1.5 150 23:20 02.02.2020
3252 Clouds 4 1023 86 10000 0.5 0 22:57 02.02.2020
3253 Clouds 4 1023 86 10000 0.5 0 22:37 02.02.2020
3254 Clouds 4 1023 86 10000 0.5 0 22:19 02.02.2020
3255 Clouds 8 1023 81 0 7.28 300 21:43 02.02.2020
3256 Clouds 8 1023 81 0 7.28 300 21:24 02.02.2020
3257 Clouds 8 1023 81 0 7.28 300 20:58 02.02.2020
3258 Clouds 8 1023 81 0 7.28 300 20:39 02.02.2020
3259 Clouds 8 1023 81 0 6.22 289 20:21 02.02.2020
3260 Clouds 8 1023 81 0 6.22 289 19:59 02.02.2020
3261 Clouds 8 1023 81 0 6.22 289 19:41 02.02.2020
3262 Clouds 8 1023 81 0 6.22 289 19:23 02.02.2020
3263 Clouds 8 1023 81 0 6.22 289 18:57 02.02.2020
3264 Clouds 8 1023 81 0 6.22 289 18:38 02.02.2020
3265 Clouds 8 1023 81 0 6.22 289 18:20 02.02.2020
3266 Clouds 8 1023 81 0 6.22 289 17:58 02.02.2020
3267 Clouds 8 1023 81 0 6.22 289 17:38 02.02.2020
3268 Clear 8 1023 81 0 4.09 308 17:18 02.02.2020
3269 Clear 8 1023 81 0 4.09 308 16:58 02.02.2020
3270 Clear 8 1023 81 0 4.09 308 16:38 02.02.2020
3271 Clear 7 1023 93 8000 2.1 300 16:19 02.02.2020
3272 Clear 7 1023 93 8000 2.1 300 16:19 02.02.2020
3273 Clear 6 1023 93 8000 2.1 300 15:57 02.02.2020
3274 Clear 6 1023 93 8000 2.1 300 15:37 02.02.2020
3275 Clear 6 1023 93 8000 2.1 300 15:19 02.02.2020
3276 Clear 7 1023 81 8000 2.6 310 14:44 02.02.2020
3277 Clouds 8 1023 81 8000 2.6 310 14:19 02.02.2020
3278 Clouds 8 1023 81 10000 0.5 0 13:59 02.02.2020
3279 Clouds 8 1023 81 10000 0.5 0 13:41 02.02.2020
3280 Clouds 8 1023 81 10000 0.5 0 13:21 02.02.2020
3281 Clouds 8 1023 65 10000 1 300 12:57 02.02.2020
3282 Clouds 8 1023 65 10000 1 300 12:57 02.02.2020
3283 Clouds 8 1023 65 10000 1 300 12:38 02.02.2020
3284 Clouds 8 1023 65 10000 1 300 12:20 02.02.2020
3285 Clouds 10 1023 57 10000 4.1 300 11:43 02.02.2020
3286 Clouds 10 1023 57 10000 4.1 300 11:20 02.02.2020
3287 Clouds 11 1023 57 10000 4.6 310 10:58 02.02.2020
3288 Clouds 11 1023 57 10000 4.6 310 10:39 02.02.2020
3289 Clouds 11 1023 57 10000 4.6 310 10:39 02.02.2020
3290 Clouds 11 1023 57 10000 4.6 310 10:21 02.02.2020
3291 Clouds 12 1023 54 10000 2.6 360 09:59 02.02.2020
3292 Clouds 12 1023 54 10000 2.6 360 09:39 02.02.2020
3293 Clouds 12 1023 54 10000 2.6 360 09:20 02.02.2020
3294 Clouds 12 1023 54 10000 2.6 360 09:20 02.02.2020
3295 Clouds 12 1022 50 10000 2.1 350 08:46 02.02.2020
3296 Clouds 12 1022 50 10000 2.1 350 08:26 02.02.2020
3297 Clouds 12 1022 47 10000 2.6 20 07:48 02.02.2020
3298 Clouds 12 1022 47 10000 2.6 20 07:30 02.02.2020
3299 Clouds 12 1022 46 10000 2.6 340 06:56 02.02.2020
3300 Clouds 12 1022 46 10000 2.6 340 06:37 02.02.2020
3301 Clouds 12 1022 46 10000 2.6 340 06:18 02.02.2020
3302 Clouds 11 1023 46 10000 1.5 10 05:18 02.02.2020
3303 Clouds 10 1025 53 10000 1.5 170 03:41 02.02.2020
3304 Clouds 10 1025 53 10000 1.5 170 03:21 02.02.2020
3305 Clouds 8 1025 70 8000 2.6 140 02:19 02.02.2020
3306 Clouds 7 1025 81 8000 2.6 130 01:36 02.02.2020
3307 Clouds 6 1025 81 8000 3.1 130 00:49 02.02.2020
3308 Clouds 6 1025 81 8000 3.1 130 00:24 02.02.2020
3309 Clouds 6 1025 81 10000 3.1 130 23:55 01.02.2020
3310 Clouds 6 1025 81 10000 3.1 130 23:36 01.02.2020
3311 Clouds 6 1025 81 10000 3.1 130 23:18 01.02.2020
3312 Clouds 6 1024 81 10000 3.6 140 22:42 01.02.2020
3313 Clouds 6 1024 81 10000 3.6 140 22:18 01.02.2020
3314 Clouds 7 1024 70 0 3.98 7 21:40 01.02.2020
3315 Clouds 7 1024 70 0 3.98 7 21:19 01.02.2020
3316 Clouds 7 1024 70 0 3.98 7 20:43 01.02.2020
3317 Clear 7 1024 70 0 4.42 7 20:21 01.02.2020
3318 Clear 7 1024 70 0 4.42 7 20:21 01.02.2020
3319 Clear 7 1024 70 0 4.42 7 19:58 01.02.2020
3320 Clear 7 1024 70 0 4.42 7 19:39 01.02.2020
3321 Clear 7 1024 70 0 4.42 7 19:20 01.02.2020
3322 Clear 7 1024 70 0 4.42 7 18:59 01.02.2020
3323 Clear 7 1024 70 0 4.42 7 18:40 01.02.2020
3324 Clear 7 1024 70 0 4.42 7 18:22 01.02.2020
3325 Clear 7 1024 70 0 4.42 7 17:58 01.02.2020
3326 Clear 7 1024 70 0 4.42 7 17:39 01.02.2020
3327 Clear 7 1024 70 0 5.45 356 17:20 01.02.2020
3328 Clear 7 1024 70 0 5.45 356 16:44 01.02.2020
3329 Clear 6 1024 93 10000 1.5 320 16:25 01.02.2020
3330 Clear 6 1024 93 10000 1.5 320 15:59 01.02.2020
3331 Clear 5 1024 93 10000 1.5 320 15:40 01.02.2020
3332 Clear 5 1024 93 10000 1.5 320 15:22 01.02.2020
3333 Clear 6 1024 86 10000 1.5 300 14:41 01.02.2020
3334 Clear 6 1024 86 10000 1.5 300 14:22 01.02.2020
3335 Clear 7 1024 70 10000 0.5 0 13:59 01.02.2020
3336 Clear 7 1024 70 10000 0.5 0 13:41 01.02.2020
3337 Clear 7 1024 70 10000 0.5 0 13:18 01.02.2020
3338 Clear 7 1023 65 10000 2.6 360 12:42 01.02.2020
3339 Clear 7 1023 65 10000 2.6 360 12:24 01.02.2020
3340 Clouds 9 1023 66 10000 4.6 350 11:45 01.02.2020
3341 Clouds 9 1023 66 10000 4.6 350 11:24 01.02.2020
3342 Clouds 9 1022 57 10000 5.1 310 10:59 01.02.2020
3343 Clouds 9 1022 57 10000 5.1 310 10:41 01.02.2020
3344 Clouds 9 1022 57 10000 5.1 310 10:22 01.02.2020
3345 Clouds 11 1022 57 10000 5.7 310 09:59 01.02.2020
3346 Clouds 11 1022 57 10000 5.7 310 09:40 01.02.2020
3347 Clouds 11 1022 57 10000 5.7 310 09:21 01.02.2020
3348 Clouds 12 1021 54 10000 5.1 310 08:52 01.02.2020
3349 Clouds 12 1021 54 10000 5.1 310 07:56 01.02.2020
3350 Clouds 12 1021 54 10000 5.1 310 07:38 01.02.2020
3351 Clouds 12 1021 54 10000 5.1 310 07:19 01.02.2020
3352 Clouds 12 1021 47 10000 6.7 320 06:42 01.02.2020
3353 Clouds 12 1022 47 10000 3.6 350 05:54 01.02.2020
3354 Clouds 11 1022 50 10000 2.6 10 04:22 01.02.2020
3355 Clouds 11 1022 50 10000 2.6 10 04:22 01.02.2020
3356 Clouds 10 1023 53 10000 2.1 190 03:25 01.02.2020
3357 Clouds 7 1023 81 10000 2.1 160 02:50 01.02.2020
3358 Clouds 7 1023 81 10000 2.1 160 02:30 01.02.2020
3359 Clouds 6 1023 87 10000 2.1 120 01:56 01.02.2020
3360 Clouds 6 1023 87 10000 2.1 120 01:37 01.02.2020
3361 Clouds 4 1022 93 10000 1.5 130 00:38 01.02.2020
3362 Clouds 4 1022 93 10000 1.5 130 00:19 01.02.2020
3363 Clouds 4 1021 93 10000 2.6 140 23:38 31.01.2020
3364 Clouds 4 1021 93 10000 2.6 140 23:18 31.01.2020
3365 Clouds 4 1021 93 10000 3.1 130 22:55 31.01.2020
3366 Clouds 4 1021 93 10000 3.1 130 22:36 31.01.2020
3367 Clouds 4 1021 93 10000 3.1 130 22:18 31.01.2020
3368 Clouds 8 1019 75 0 2.24 10 21:39 31.01.2020
3369 Clouds 8 1019 75 0 2.24 10 21:20 31.01.2020
3370 Clouds 8 1019 75 0 2.24 10 21:20 31.01.2020
3371 Clouds 8 1019 75 0 2.24 10 21:20 31.01.2020
3372 Clouds 8 1019 75 0 2.24 10 20:57 31.01.2020
3373 Clouds 8 1019 75 0 2.24 10 20:57 31.01.2020
3374 Clouds 8 1019 75 0 2.24 10 20:39 31.01.2020
3375 Clouds 8 1019 75 0 2.24 10 20:20 31.01.2020
3376 Clouds 8 1019 75 0 2.24 10 19:56 31.01.2020
3377 Clouds 8 1019 75 0 2.24 10 19:38 31.01.2020
3378 Clouds 8 1019 75 0 2.24 10 19:19 31.01.2020
3379 Clouds 8 1019 75 0 2.24 10 18:45 31.01.2020
3380 Clouds 8 1019 75 0 2.24 10 18:27 31.01.2020
3381 Clouds 8 1019 75 0 2.24 10 17:56 31.01.2020
3382 Clouds 8 1019 75 0 2.24 10 17:38 31.01.2020
3383 Clouds 8 1019 75 0 2.24 10 17:19 31.01.2020
3384 Clouds 8 1019 75 0 2.24 10 16:56 31.01.2020
3385 Clouds 8 1019 75 0 2.24 10 16:37 31.01.2020
3386 Clouds 7 1020 93 10000 1.5 20 16:18 31.01.2020
3387 Clouds 7 1020 93 10000 1.5 20 15:41 31.01.2020
3388 Clouds 6 1020 93 10000 1.5 20 15:21 31.01.2020
3389 Clouds 7 1020 87 10000 1.5 360 14:58 31.01.2020
3390 Clouds 7 1020 87 10000 1.5 360 14:40 31.01.2020
3391 Rain 7 1020 87 10000 1.5 360 14:20 31.01.2020
3392 Clouds 7 1019 75 10000 2.6 10 13:44 31.01.2020
3393 Clouds 7 1019 75 10000 2.6 10 13:25 31.01.2020
3394 Clouds 7 1019 70 10000 2.6 360 12:46 31.01.2020
3395 Clouds 7 1019 70 10000 2.6 360 12:26 31.01.2020
3396 Clouds 7 1018 70 10000 4.6 360 11:59 31.01.2020
3397 Clouds 7 1018 70 10000 4.6 360 11:40 31.01.2020
3398 Clouds 7 1018 70 10000 4.6 360 11:22 31.01.2020
3399 Clouds 8 1018 66 10000 3.6 20 10:57 31.01.2020
3400 Clouds 8 1018 66 10000 3.6 20 10:37 31.01.2020
3401 Clouds 8 1018 66 10000 3.6 20 10:19 31.01.2020
3402 Clouds 9 1017 66 10000 2.6 330 09:42 31.01.2020
3403 Clouds 9 1017 66 10000 2.6 330 09:22 31.01.2020
3404 Clouds 9 1017 61 10000 4.6 330 08:57 31.01.2020
3405 Clouds 9 1017 61 10000 4.6 330 08:39 31.01.2020
3406 Clouds 9 1017 61 10000 4.6 330 08:20 31.01.2020
3407 Rain 9 1017 66 10000 5.7 320 07:49 31.01.2020
3408 Rain 9 1017 66 10000 5.7 320 07:19 31.01.2020
3409 Clouds 8 1016 66 10000 4.1 320 06:37 31.01.2020
3410 Clouds 9 1017 70 10000 4.6 320 05:55 31.01.2020
3411 Clouds 9 1017 70 10000 4.6 320 05:25 31.01.2020
3412 Clouds 9 1017 70 10000 2.6 280 04:20 31.01.2020
3413 Clouds 8 1018 75 10000 2.6 320 02:49 31.01.2020
3414 Clouds 6 1017 81 10000 1.5 30 01:30 31.01.2020
3415 Rain 6 1017 87 10000 2.6 40 00:39 31.01.2020
3416 Rain 6 1017 87 10000 2.6 40 00:39 31.01.2020
3417 Rain 6 1017 87 10000 2.6 40 00:20 31.01.2020
3418 Clouds 5 1016 93 10000 1.5 330 23:40 30.01.2020
3419 Clouds 5 1016 93 10000 1.5 330 23:40 30.01.2020
3420 Clouds 5 1016 93 10000 1.5 330 23:40 30.01.2020
3421 Clouds 5 1016 93 10000 1.5 330 23:21 30.01.2020
3422 Clouds 5 1016 93 10000 1 0 22:38 30.01.2020
3423 Clouds 5 1016 93 10000 1 0 22:20 30.01.2020
3424 Clouds 7 1013 87 0 4.92 310 21:58 30.01.2020
3425 Clouds 7 1013 87 0 4.92 310 21:40 30.01.2020
3426 Clouds 7 1013 87 0 4.92 310 21:18 30.01.2020
3427 Clouds 7 1013 87 0 4.92 310 20:56 30.01.2020
3428 Clouds 7 1013 87 0 4.92 310 20:37 30.01.2020
3429 Clouds 7 1013 87 0 4.92 310 20:19 30.01.2020
3430 Clouds 7 1013 87 0 4.92 310 19:42 30.01.2020
3431 Clouds 7 1013 87 0 4.92 310 19:19 30.01.2020
3432 Clouds 7 1013 87 0 4.92 310 18:58 30.01.2020
3433 Clouds 7 1013 87 0 4.92 310 18:58 30.01.2020
3434 Clouds 7 1013 87 0 4.92 310 18:36 30.01.2020
3435 Clouds 7 1012 87 0 4.92 310 18:18 30.01.2020
3436 Clouds 7 1013 87 0 4.92 310 17:41 30.01.2020
3437 Clouds 7 1012 87 0 4.92 310 17:19 30.01.2020
3438 Clouds 7 1013 87 0 4.92 310 16:58 30.01.2020
3439 Clouds 7 1013 87 0 4.92 310 16:39 30.01.2020
3440 Clouds 7 1014 81 10000 3.1 310 16:21 30.01.2020
3441 Clouds 7 1014 81 10000 3.1 310 15:44 30.01.2020
3442 Clouds 7 1014 81 10000 3.1 310 15:21 30.01.2020
3443 Clouds 7 1013 75 10000 3.6 330 14:57 30.01.2020
3444 Clouds 7 1013 75 10000 3.6 330 14:37 30.01.2020
3445 Clouds 7 1013 75 10000 3.6 330 14:19 30.01.2020
3446 Clouds 7 1013 87 10000 5.1 310 13:41 30.01.2020
3447 Clouds 7 1013 87 10000 5.1 310 13:23 30.01.2020
3448 Clouds 8 1013 75 10000 8.2 340 12:55 30.01.2020
3449 Clouds 8 1013 75 10000 8.2 340 12:37 30.01.2020
3450 Clouds 8 1013 75 10000 8.2 340 12:18 30.01.2020
3451 Clouds 7 1012 81 10000 4.6 320 11:40 30.01.2020
3452 Clouds 7 1012 81 10000 4.6 320 11:22 30.01.2020
3453 Clouds 8 1011 75 10000 9.3 330 10:58 30.01.2020
3454 Clouds 8 1011 75 10000 9.3 330 10:38 30.01.2020
3455 Clouds 8 1011 75 10000 9.3 330 10:19 30.01.2020
3456 Rain 9 1010 70 10000 9.8 350 09:44 30.01.2020
3457 Rain 9 1010 70 10000 9.8 350 09:24 30.01.2020
3458 Clouds 10 1009 61 10000 8.2 350 08:42 30.01.2020
3459 Clouds 10 1009 61 10000 8.2 350 08:22 30.01.2020
3460 Clouds 10 1009 66 10000 3.1 40 07:57 30.01.2020
3461 Clouds 10 1009 66 10000 3.1 40 07:39 30.01.2020
3462 Rain 10 1009 66 10000 5.7 40 06:57 30.01.2020
3463 Rain 11 1008 66 10000 7.2 340 06:36 30.01.2020
3464 Clouds 11 1009 71 10000 6.7 340 05:59 30.01.2020
3465 Rain 12 1009 66 10000 6.7 350 05:28 30.01.2020
3466 Clouds 12 1009 58 10000 4.6 360 04:49 30.01.2020
3467 Clouds 10 1009 66 10000 4.1 20 03:47 30.01.2020
3468 Clouds 10 1010 61 10000 2.6 40 02:55 30.01.2020
3469 Rain 8 1009 81 10000 4.6 360 00:57 30.01.2020
3470 Rain 8 1009 81 10000 4.6 360 00:27 30.01.2020
3471 Rain 8 1008 81 10000 3.1 350 23:55 29.01.2020
3472 Rain 8 1008 81 10000 3.1 350 23:37 29.01.2020
3473 Rain 8 1008 81 10000 3.1 350 23:19 29.01.2020
3474 Clouds 8 1009 87 10000 1 0 22:54 29.01.2020
3475 Clouds 8 1009 87 10000 1 0 22:36 29.01.2020
3476 Clouds 8 1009 87 10000 1 0 22:18 29.01.2020
3477 Rain 9 1011 81 0 2.68 20 21:54 29.01.2020
3478 Rain 9 1011 81 0 2.68 20 21:36 29.01.2020
3479 Rain 9 1011 81 0 2.68 20 21:18 29.01.2020
3480 Rain 9 1011 81 0 2.68 20 20:40 29.01.2020
3481 Rain 9 1011 81 0 2.68 20 20:21 29.01.2020
3482 Rain 9 1011 81 0 2.68 20 20:21 29.01.2020
3483 Rain 9 1011 81 0 2.68 20 19:57 29.01.2020
3484 Rain 9 1011 81 0 2.68 20 19:38 29.01.2020
3485 Rain 9 1011 81 0 2.68 20 19:20 29.01.2020
3486 Rain 9 1011 81 0 2.68 20 18:56 29.01.2020
3487 Rain 9 1011 81 0 2.68 20 18:37 29.01.2020
3488 Rain 9 1011 81 0 2.68 20 18:18 29.01.2020
3489 Rain 9 1011 81 0 2.68 20 18:18 29.01.2020
3490 Rain 9 1011 81 0 2.68 20 17:40 29.01.2020
3491 Rain 9 1011 81 0 2.68 20 17:22 29.01.2020
3492 Rain 9 1011 81 0 2.68 20 17:22 29.01.2020
3493 Rain 9 1011 81 0 2.68 20 17:22 29.01.2020
3494 Rain 9 1011 81 0 2.68 20 16:42 29.01.2020
3495 Clouds 9 1011 93 10000 1.5 340 16:23 29.01.2020
3496 Clouds 9 1011 93 10000 1.5 340 15:56 29.01.2020
3497 Clouds 9 1011 93 10000 1.5 340 15:56 29.01.2020
3498 Clouds 8 1011 93 10000 1.5 340 15:37 29.01.2020
3499 Clouds 8 1011 93 10000 1.5 340 15:19 29.01.2020
3500 Clouds 8 1011 93 10000 2.6 360 14:43 29.01.2020
3501 Clouds 9 1011 93 10000 2.6 360 14:21 29.01.2020
3502 Clouds 9 1011 93 10000 2.6 360 14:21 29.01.2020
3503 Clouds 9 1011 81 10000 3.1 20 13:55 29.01.2020
3504 Clouds 9 1011 81 10000 3.1 20 13:37 29.01.2020
3505 Clouds 9 1011 81 10000 3.1 20 13:19 29.01.2020
3506 Clouds 10 1011 76 10000 4.1 360 12:55 29.01.2020
3507 Clouds 10 1011 76 10000 4.1 360 12:37 29.01.2020
3508 Clouds 10 1011 76 10000 4.1 360 12:18 29.01.2020
3509 Rain 10 1011 81 10000 7.2 330 11:45 29.01.2020
3510 Rain 10 1011 81 10000 7.2 330 11:21 29.01.2020
3511 Clouds 11 1011 76 10000 3.6 10 10:46 29.01.2020
3512 Clouds 11 1011 71 10000 4.1 340 10:25 29.01.2020
3513 Clouds 11 1011 71 10000 4.1 340 09:58 29.01.2020
3514 Clouds 11 1011 71 10000 4.1 340 09:39 29.01.2020
3515 Clouds 11 1011 71 10000 4.1 340 09:19 29.01.2020
3516 Clouds 11 1011 66 10000 2.6 300 08:46 29.01.2020
3517 Clouds 11 1011 66 10000 2.6 300 08:27 29.01.2020
3518 Clouds 12 1011 62 10000 2.1 270 07:46 29.01.2020
3519 Clouds 12 1011 62 10000 2.1 270 07:27 29.01.2020
3520 Clouds 12 1011 66 10000 1.5 180 06:56 29.01.2020
3521 Clouds 12 1011 66 10000 1.5 180 06:38 29.01.2020
3522 Clouds 12 1011 66 10000 1.5 180 06:19 29.01.2020
3523 Rain 11 1012 81 10000 2.1 20 05:50 29.01.2020
3524 Rain 11 1012 81 10000 2.1 20 05:32 29.01.2020
3525 Rain 11 1013 76 10000 5.7 360 04:39 29.01.2020
3526 Rain 11 1014 76 10000 5.1 320 03:59 29.01.2020
3527 Clouds 11 1014 76 0 1.79 270 02:38 29.01.2020
3528 Clouds 9 1014 93 10000 0.5 0 01:18 29.01.2020
3529 Clouds 9 1014 93 10000 0.5 0 01:18 29.01.2020
3530 Clouds 8 1013 87 10000 1 0 00:39 29.01.2020
3531 Clouds 8 1013 87 10000 1 0 00:20 29.01.2020
3532 Clouds 7 1013 93 10000 2.1 90 23:40 28.01.2020
3533 Clouds 7 1013 93 10000 2.1 90 23:19 28.01.2020
3534 Clouds 8 1013 87 10000 0.5 120 22:49 28.01.2020
3535 Clouds 8 1013 93 10000 0.5 0 22:27 28.01.2020
3536 Clouds 10 1014 87 0 4.02 330 21:57 28.01.2020
3537 Clouds 10 1014 87 0 4.02 330 21:38 28.01.2020
3538 Clouds 10 1014 87 0 4.02 330 21:19 28.01.2020
3539 Clouds 10 1014 87 0 4.02 330 21:19 28.01.2020
3540 Clouds 10 1014 87 0 4.02 330 20:46 28.01.2020
3541 Clear 10 1014 87 0 4.02 330 20:26 28.01.2020
3542 Clear 10 1014 87 0 4.02 330 19:55 28.01.2020
3543 Clear 10 1014 87 0 4.02 330 19:37 28.01.2020
3544 Clear 10 1014 87 0 4.02 330 19:19 28.01.2020
3545 Clear 10 1014 87 0 4.02 330 18:42 28.01.2020
3546 Clear 10 1014 87 0 4.02 330 18:23 28.01.2020
3547 Clear 10 1014 87 0 4.02 330 17:59 28.01.2020
3548 Clear 10 1014 87 0 4.02 330 17:40 28.01.2020
3549 Clear 10 1014 87 0 4.02 330 17:21 28.01.2020
3550 Clear 10 1014 87 0 4.02 330 16:58 28.01.2020
3551 Clear 10 1014 87 0 4.02 330 16:40 28.01.2020
3552 Clouds 10 1014 87 10000 2.1 300 16:21 28.01.2020
3553 Clouds 10 1014 87 10000 2.1 300 15:47 28.01.2020
3554 Clouds 10 1014 87 10000 2.1 300 15:19 28.01.2020
3555 Rain 10 1014 87 10000 2.6 320 14:58 28.01.2020
3556 Rain 10 1014 87 10000 2.6 320 14:39 28.01.2020
3557 Rain 10 1014 87 10000 2.6 320 14:18 28.01.2020
3558 Clouds 10 1014 87 10000 4.1 330 13:41 28.01.2020
3559 Clouds 10 1014 87 10000 4.1 330 13:23 28.01.2020
3560 Clouds 11 1014 81 10000 4.1 310 12:43 28.01.2020
3561 Clouds 11 1014 81 10000 4.1 310 12:24 28.01.2020
3562 Clouds 10 1013 87 10000 5.1 320 11:56 28.01.2020
3563 Clouds 10 1013 87 10000 5.1 320 11:38 28.01.2020
3564 Clouds 10 1013 87 10000 5.1 320 11:19 28.01.2020
3565 Clouds 11 1012 81 10000 5.7 340 10:41 28.01.2020
3566 Clouds 11 1012 81 10000 5.7 340 10:23 28.01.2020
3567 Clouds 12 1012 76 10000 6.7 340 09:58 28.01.2020
3568 Clouds 12 1012 76 10000 6.7 340 09:38 28.01.2020
3569 Clouds 12 1012 76 10000 6.7 340 09:19 28.01.2020
3570 Clouds 13 1012 71 10000 3.6 330 08:42 28.01.2020
3571 Clouds 13 1012 71 10000 3.6 330 08:21 28.01.2020
3572 Rain 13 1012 76 10000 6.2 350 07:39 28.01.2020
3573 Rain 14 1011 71 10000 5.7 360 06:52 28.01.2020
3574 Rain 14 1011 71 10000 5.7 360 06:29 28.01.2020
3575 Rain 14 1011 71 10000 5.7 360 06:29 28.01.2020
3576 Clouds 14 1011 71 10000 6.2 350 05:56 28.01.2020
3577 Clouds 14 1011 71 10000 6.2 350 05:34 28.01.2020
3578 Clouds 14 1011 71 10000 5.7 340 04:39 28.01.2020
3579 Rain 12 1012 87 10000 7.2 340 03:36 28.01.2020
3580 Rain 12 1012 82 10000 7.2 330 02:32 28.01.2020
3581 Rain 11 1011 87 10000 5.1 340 01:58 28.01.2020
3582 Rain 11 1011 87 10000 5.1 340 01:40 28.01.2020
3583 Rain 11 1011 87 10000 5.1 340 01:40 28.01.2020
3584 Rain 10 1011 87 10000 4.1 310 00:51 28.01.2020
3585 Rain 10 1011 87 10000 4.1 310 00:29 28.01.2020
3586 Rain 9 1010 93 10000 3.6 320 23:53 27.01.2020
3587 Rain 9 1010 93 10000 3.6 320 23:30 27.01.2020
3588 Rain 8 1010 100 10000 9.72 337 22:59 27.01.2020
3589 Rain 8 1010 100 10000 9.72 337 22:41 27.01.2020
3590 Rain 8 1010 100 10000 9.72 337 22:20 27.01.2020
3591 Clear 9 1005 93 0 5.36 320 21:56 27.01.2020
3592 Clear 9 1005 93 0 5.36 320 21:37 27.01.2020
3593 Clear 9 1005 93 0 5.36 320 21:18 27.01.2020
3594 Clear 9 1005 93 0 5.36 320 20:54 27.01.2020
3595 Clear 9 1005 93 0 5.36 320 20:36 27.01.2020
3596 Clouds 9 1005 93 0 5.36 320 20:18 27.01.2020
3597 Clouds 9 1005 93 0 5.36 320 19:41 27.01.2020
3598 Clouds 9 1005 93 0 5.36 320 19:23 27.01.2020
3599 Clouds 9 1005 93 0 5.36 320 18:56 27.01.2020
3600 Clouds 9 1005 93 0 5.36 320 18:38 27.01.2020
3601 Clouds 9 1005 93 0 5.36 320 18:19 27.01.2020
3602 Clouds 9 1005 93 0 5.36 320 17:39 27.01.2020
3603 Clear 9 1005 93 0 5.36 320 17:21 27.01.2020
3604 Clear 9 1005 93 0 5.36 320 16:59 27.01.2020
3605 Clear 9 1005 93 0 5.36 320 16:41 27.01.2020
3606 Clouds 9 1006 93 10000 2.6 280 16:23 27.01.2020
3607 Clouds 9 1006 93 10000 2.6 280 15:55 27.01.2020
3608 Clouds 9 1006 93 10000 2.6 280 15:37 27.01.2020
3609 Clouds 9 1006 93 10000 2.6 280 15:37 27.01.2020
3610 Clouds 9 1006 93 10000 2.6 280 15:18 27.01.2020
3611 Clouds 9 1006 93 10000 1.5 310 14:42 27.01.2020
3612 Clouds 9 1006 93 10000 1.5 310 14:22 27.01.2020
3613 Clouds 9 1006 93 10000 1.5 310 14:22 27.01.2020
3614 Clouds 9 1005 93 10000 5.7 320 13:58 27.01.2020
3615 Clouds 9 1005 93 10000 5.7 320 13:39 27.01.2020
3616 Clouds 9 1005 93 10000 5.7 320 13:19 27.01.2020
3617 Clouds 10 1005 87 10000 5.7 340 12:45 27.01.2020
3618 Clouds 10 1005 87 10000 5.7 340 12:23 27.01.2020
3619 Rain 10 1003 87 9000 7.2 350 11:58 27.01.2020
3620 Rain 10 1003 87 9000 7.2 350 11:40 27.01.2020
3621 Rain 10 1003 87 9000 7.2 350 11:20 27.01.2020
3622 Clouds 10 1001 87 10000 11.3 350 10:43 27.01.2020
3623 Clouds 10 1001 87 10000 11.3 350 10:24 27.01.2020
3624 Rain 9 1001 93 10000 10.3 10 09:54 27.01.2020
3625 Rain 9 1001 93 8000 11.8 10 09:36 27.01.2020
3626 Rain 9 1001 93 8000 11.8 10 09:18 27.01.2020
3627 Thunderstorm 10 1004 93 2500 10.3 300 08:42 27.01.2020
3628 Rain 10 1002 93 3000 12.9 320 08:20 27.01.2020
3629 Rain 11 998 87 10000 12.3 350 07:53 27.01.2020
3630 Rain 11 998 87 10000 12.3 350 07:33 27.01.2020
3631 Clouds 11 998 87 10000 8.2 10 06:51 27.01.2020
3632 Rain 10 1001 81 10000 8.7 340 05:59 27.01.2020
3633 Thunderstorm 11 1000 87 5000 4.6 70 05:18 27.01.2020
3634 Clouds 10 1004 76 10000 6.2 10 03:37 27.01.2020
3635 Thunderstorm 10 1004 81 8000 6.7 30 02:32 27.01.2020
3636 Rain 9 1005 81 10000 8.2 10 01:29 27.01.2020
3637 Rain 9 1005 81 10000 7.7 30 00:43 27.01.2020
3638 Rain 9 1006 81 10000 7.7 20 00:22 27.01.2020
3639 Rain 10 1006 81 10000 7.7 30 23:59 26.01.2020
3640 Rain 9 1007 81 10000 6.2 20 23:41 26.01.2020
3641 Rain 9 1007 81 10000 6.2 20 23:18 26.01.2020
3642 Rain 9 1006 81 10000 6.2 30 22:39 26.01.2020
3643 Rain 9 1006 81 10000 6.2 30 22:20 26.01.2020
3644 Rain 11 1020 71 0 3.58 60 21:59 26.01.2020
3645 Rain 11 1021 71 0 3.58 60 21:40 26.01.2020
3646 Rain 11 1021 71 0 3.58 60 21:22 26.01.2020
3647 Rain 11 1021 71 0 3.58 60 21:22 26.01.2020
3648 Rain 11 1017 71 0 3.58 60 20:58 26.01.2020
3649 Rain 11 1017 71 0 3.58 60 20:40 26.01.2020
3650 Rain 11 1020 71 0 3.58 60 20:20 26.01.2020
3651 Rain 11 1017 71 0 3.58 60 19:59 26.01.2020
3652 Rain 11 1017 71 0 3.58 60 19:39 26.01.2020
3653 Rain 11 1017 71 0 3.58 60 19:21 26.01.2020
3654 Rain 11 1017 71 0 3.58 60 18:59 26.01.2020
3655 Rain 11 1017 71 0 3.58 60 18:39 26.01.2020
3656 Rain 11 1020 71 0 3.58 60 18:21 26.01.2020
3657 Rain 11 1017 71 0 3.58 60 17:57 26.01.2020
3658 Rain 11 1017 71 0 3.58 60 17:38 26.01.2020
3659 Rain 11 1019 71 0 3.58 60 17:18 26.01.2020
3660 Rain 11 1019 71 0 3.58 60 17:18 26.01.2020
3661 Rain 11 1019 71 0 3.58 60 17:18 26.01.2020
3662 Rain 11 1017 71 0 3.58 60 16:57 26.01.2020
3663 Rain 11 1017 71 0 3.58 60 16:57 26.01.2020
3664 Rain 11 1017 71 0 3.58 60 16:39 26.01.2020
3665 Rain 10 1018 81 10000 6.7 50 16:19 26.01.2020
3666 Rain 11 1017 71 0 3.58 60 15:45 26.01.2020
3667 Rain 11 1017 71 0 3.58 60 15:22 26.01.2020
3668 Rain 11 1017 71 0 3.58 60 14:58 26.01.2020
3669 Rain 11 1017 71 0 3.58 60 14:39 26.01.2020
3670 Rain 11 1017 71 0 3.58 60 14:19 26.01.2020
3671 Rain 11 1017 71 0 3.58 60 13:41 26.01.2020
3672 Rain 11 1019 71 0 3.58 60 13:20 26.01.2020
3673 Rain 11 1018 66 0 4.47 40 12:56 26.01.2020
3674 Rain 11 1018 66 0 4.47 40 12:37 26.01.2020
3675 Rain 11 1018 66 0 4.47 40 12:19 26.01.2020
3676 Rain 11 1018 66 0 4.47 40 12:19 26.01.2020
3677 Rain 12 1020 58 0 4.92 50 11:57 26.01.2020
3678 Rain 12 1018 58 0 4.92 50 11:37 26.01.2020
3679 Rain 12 1018 66 10000 5.7 40 11:18 26.01.2020
3680 Rain 12 1018 66 10000 5.7 40 10:55 26.01.2020
3681 Rain 12 1018 66 10000 5.7 40 10:37 26.01.2020
3682 Rain 12 1018 66 10000 5.7 40 10:19 26.01.2020
3683 Rain 12 1018 66 10000 5.7 40 10:19 26.01.2020
3684 Rain 11 1019 87 10000 3.1 130 09:42 26.01.2020
3685 Rain 11 1019 87 10000 3.1 130 09:23 26.01.2020
3686 Rain 12 1019 66 10000 5.1 50 08:57 26.01.2020
3687 Rain 12 1019 66 10000 5.1 50 08:39 26.01.2020
3688 Rain 12 1019 66 10000 5.1 50 08:21 26.01.2020
3689 Clouds 13 1019 66 10000 4.6 60 07:50 26.01.2020
3690 Clouds 13 1019 66 10000 4.6 60 07:25 26.01.2020
3691 Clouds 13 1019 66 10000 1 0 06:38 26.01.2020
3692 Clouds 13 1019 66 10000 1 0 06:18 26.01.2020
3693 Rain 13 1019 62 10000 1 0 05:26 26.01.2020
3694 Rain 11 1021 81 10000 2.6 140 03:23 26.01.2020
3695 Clouds 11 1022 81 10000 1.5 210 02:23 26.01.2020
3696 Clouds 10 1022 93 10000 1 0 01:40 26.01.2020
3697 Clouds 10 1022 93 10000 1 0 01:20 26.01.2020
3698 Clouds 10 1022 93 10000 3.1 130 00:40 26.01.2020
3699 Clouds 10 1022 93 10000 3.1 130 00:20 26.01.2020
3700 Clouds 10 1021 93 0 1.79 150 23:38 25.01.2020
3701 Rain 10 1021 93 0 1.79 150 23:20 25.01.2020
3702 Rain 10 1021 81 0 6.21 41 22:43 25.01.2020
3703 Rain 10 1021 81 0 6.21 41 22:21 25.01.2020
3704 Rain 10 1024 93 0 2.68 150 21:59 25.01.2020
3705 Rain 10 1024 93 0 2.68 150 21:41 25.01.2020
3706 Rain 10 1024 93 0 2.68 150 21:22 25.01.2020
3707 Rain 10 1025 93 0 2.68 150 20:54 25.01.2020
3708 Rain 10 1025 93 0 2.68 150 20:36 25.01.2020
3709 Rain 10 1024 93 0 2.68 150 20:18 25.01.2020
3710 Rain 10 1024 93 0 2.68 150 19:41 25.01.2020
3711 Rain 10 1024 93 0 2.68 150 19:19 25.01.2020
3712 Rain 10 1025 93 0 2.68 150 18:56 25.01.2020
3713 Rain 10 1025 93 0 2.68 150 18:37 25.01.2020
3714 Rain 10 1025 93 0 2.68 150 18:19 25.01.2020
3715 Rain 10 1024 93 0 2.68 150 17:39 25.01.2020
3716 Rain 10 1025 93 0 2.68 150 17:19 25.01.2020
3717 Rain 10 1024 93 0 2.68 150 16:56 25.01.2020
3718 Rain 10 1024 93 0 2.68 150 16:38 25.01.2020
3719 Rain 10 1024 93 0 2.68 150 16:19 25.01.2020
3720 Rain 10 1024 93 0 2.68 150 15:42 25.01.2020
3721 Rain 10 1025 93 0 2.68 150 15:24 25.01.2020
3722 Rain 10 1025 93 0 2.68 150 14:47 25.01.2020
3723 Rain 10 1025 93 0 2.68 150 14:20 25.01.2020
3724 Rain 10 1025 93 0 2.68 150 13:58 25.01.2020
3725 Rain 10 1025 93 0 2.68 150 13:39 25.01.2020
3726 Rain 10 1025 93 0 1.79 190 13:20 25.01.2020
3727 Rain 10 1024 81 7000 5.1 10 12:43 25.01.2020
3728 Rain 10 1024 81 7000 5.1 10 12:21 25.01.2020
3729 Rain 10 1024 81 7000 5.1 10 11:45 25.01.2020
3730 Rain 10 1023 87 10000 4.6 20 11:21 25.01.2020
3731 Rain 10 1024 93 8000 7.2 340 10:56 25.01.2020
3732 Rain 10 1024 81 10000 6.2 330 10:38 25.01.2020
3733 Rain 10 1024 81 10000 6.2 330 10:19 25.01.2020
3734 Rain 11 1022 81 10000 5.1 360 09:40 25.01.2020
3735 Rain 11 1022 81 10000 5.1 360 09:21 25.01.2020
3736 Rain 12 1022 76 10000 2.6 190 08:43 25.01.2020
3737 Rain 12 1022 76 10000 2.6 190 08:21 25.01.2020
3738 Rain 12 1022 76 10000 2.6 170 07:42 25.01.2020
3739 Clouds 12 1023 71 10000 1 0 06:44 25.01.2020
3740 Clouds 12 1023 71 10000 1 0 06:24 25.01.2020
3741 Clouds 12 1023 71 10000 1 0 06:24 25.01.2020
3742 Clouds 13 1023 71 10000 1.5 270 05:44 25.01.2020
3743 Clouds 13 1024 71 10000 1 0 04:26 25.01.2020
3744 Clouds 13 1024 71 10000 2.6 180 03:50 25.01.2020
3745 Clouds 12 1024 76 10000 3.6 140 02:48 25.01.2020
3746 Rain 12 1025 81 10000 1.5 150 01:59 25.01.2020
3747 Rain 12 1025 81 10000 1.5 150 01:35 25.01.2020
3748 Rain 11 1025 87 10000 1 0 00:42 25.01.2020
3749 Rain 11 1025 87 10000 1 0 00:23 25.01.2020
3750 Clouds 11 1024 87 10000 2.6 140 23:42 24.01.2020
3751 Clouds 11 1024 87 10000 2.6 140 23:42 24.01.2020
3752 Clouds 11 1024 87 10000 2.6 140 23:24 24.01.2020
3753 Rain 11 1024 87 10000 0.5 0 22:56 24.01.2020
3754 Rain 11 1024 87 10000 0.5 0 22:37 24.01.2020
3755 Rain 11 1024 87 10000 0.5 0 22:19 24.01.2020
3756 Clouds 13 1025 76 0 2.68 360 21:41 24.01.2020
3757 Clouds 13 1025 76 0 2.68 360 21:19 24.01.2020
3758 Clouds 13 1025 76 0 2.68 360 20:44 24.01.2020
3759 Clouds 13 1024 76 0 2.68 360 20:23 24.01.2020
3760 Clouds 13 1025 76 0 2.68 360 19:59 24.01.2020
3761 Clouds 13 1025 76 0 2.68 360 19:41 24.01.2020
3762 Clouds 13 1024 75 0 4.52 57 19:22 24.01.2020
3763 Clouds 13 1024 75 0 4.52 57 18:57 24.01.2020
3764 Clouds 13 1024 75 0 4.52 57 18:39 24.01.2020
3765 Clouds 13 1024 75 0 4.52 57 18:21 24.01.2020
3766 Clouds 13 1024 75 0 4.52 57 18:21 24.01.2020
3767 Clouds 13 1024 75 0 4.52 57 17:42 24.01.2020
3768 Clouds 13 1025 74 0 4.91 47 17:21 24.01.2020
3769 Clouds 13 1025 74 0 4.91 47 16:55 24.01.2020
3770 Clouds 13 1025 74 0 4.91 47 16:36 24.01.2020
3771 Clouds 12 1025 71 10000 7.2 30 16:18 24.01.2020
3772 Clouds 12 1025 71 10000 7.2 30 16:18 24.01.2020
3773 Clouds 12 1025 71 10000 7.2 30 15:40 24.01.2020
3774 Clouds 12 1025 71 10000 7.2 30 15:20 24.01.2020
3775 Clouds 12 1026 71 10000 6.7 30 14:42 24.01.2020
3776 Clouds 13 1026 71 10000 6.7 30 14:23 24.01.2020
3777 Clouds 13 1025 76 10000 3.1 360 13:57 24.01.2020
3778 Clouds 13 1025 76 10000 3.1 360 13:39 24.01.2020
3779 Clouds 13 1025 76 10000 3.1 360 13:19 24.01.2020
3780 Clouds 13 1025 76 10000 3.1 360 13:19 24.01.2020
3781 Clouds 13 1024 76 10000 6.7 350 12:41 24.01.2020
3782 Clouds 13 1024 76 10000 6.7 350 12:18 24.01.2020
3783 Clouds 13 1024 76 10000 7.2 350 11:43 24.01.2020
3784 Clouds 13 1024 76 10000 7.2 350 11:19 24.01.2020
3785 Clouds 14 1023 71 10000 6.7 350 10:43 24.01.2020
3786 Clouds 14 1023 71 10000 6.7 350 10:22 24.01.2020
3787 Clouds 15 1023 72 10000 5.7 350 09:57 24.01.2020
3788 Clouds 15 1023 72 10000 5.7 350 09:39 24.01.2020
3789 Clouds 15 1023 72 10000 5.7 350 09:21 24.01.2020
3790 Clouds 16 1022 67 10000 6.2 350 08:40 24.01.2020
3791 Clouds 16 1022 67 10000 6.2 350 08:20 24.01.2020
3792 Clouds 17 1022 67 10000 4.6 340 07:51 24.01.2020
3793 Clouds 17 1022 67 10000 4.6 340 07:32 24.01.2020
3794 Clouds 16 1023 72 10000 5.1 330 06:48 24.01.2020
3795 Clouds 17 1022 67 10000 5.1 340 06:29 24.01.2020
3796 Clouds 16 1022 72 10000 5.1 340 05:58 24.01.2020
3797 Clouds 15 1023 77 10000 5.1 350 04:54 24.01.2020
3798 Rain 13 1024 87 10000 3.6 360 02:53 24.01.2020
3799 Rain 13 1024 87 10000 3.6 360 02:24 24.01.2020
3800 Rain 13 1024 87 10000 1.5 330 01:42 24.01.2020
3801 Rain 13 1024 87 10000 1.5 330 01:24 24.01.2020
3802 Clouds 13 1024 87 10000 4.1 350 00:20 24.01.2020
3803 Clouds 13 1023 87 10000 4.1 340 23:48 23.01.2020
3804 Clouds 13 1023 87 10000 4.1 340 23:30 23.01.2020
3805 Clouds 13 1023 87 10000 4.1 330 22:59 23.01.2020
3806 Clouds 13 1023 87 10000 4.1 330 22:37 23.01.2020
3807 Clouds 13 1023 87 10000 4.1 330 22:19 23.01.2020
3808 Clouds 13 1021 93 0 4.92 320 21:57 23.01.2020
3809 Clouds 13 1021 93 0 4.92 320 21:38 23.01.2020
3810 Clouds 13 1020 93 0 4.92 320 21:20 23.01.2020
3811 Clouds 13 1021 93 0 4.92 320 20:57 23.01.2020
3812 Clouds 13 1021 93 0 4.92 320 20:38 23.01.2020
3813 Clouds 13 1021 93 0 4.92 320 20:19 23.01.2020
3814 Clouds 13 1021 93 0 4.92 320 19:44 23.01.2020
3815 Clouds 13 1021 93 0 4.92 320 19:44 23.01.2020
3816 Clouds 13 1021 93 0 4.92 320 19:24 23.01.2020
3817 Clouds 13 1020 93 0 4.92 320 18:59 23.01.2020
3818 Clouds 13 1020 93 0 4.92 320 18:40 23.01.2020
3819 Clouds 13 1020 93 0 4.92 320 18:20 23.01.2020
3820 Clouds 13 1021 93 0 4.92 320 17:57 23.01.2020
3821 Clouds 13 1021 93 0 4.92 320 17:39 23.01.2020
3822 Clouds 13 1021 93 0 4.92 320 17:19 23.01.2020
3823 Clouds 13 1021 93 0 4.92 320 16:39 23.01.2020
3824 Clouds 13 1021 93 10000 1.5 260 16:20 23.01.2020
3825 Clouds 13 1021 93 10000 1.5 260 15:58 23.01.2020
3826 Clouds 13 1021 93 10000 1.5 260 15:40 23.01.2020
3827 Clouds 13 1021 93 10000 1.5 260 15:19 23.01.2020
3828 Clouds 13 1021 93 10000 1.5 260 15:19 23.01.2020
3829 Clouds 13 1021 93 10000 1 0 14:59 23.01.2020
3830 Clouds 13 1021 93 10000 1 0 14:41 23.01.2020
3831 Clouds 13 1021 93 10000 1 0 14:23 23.01.2020
3832 Clouds 13 1021 93 10000 5.1 320 13:59 23.01.2020
3833 Clouds 13 1021 93 10000 5.1 320 13:38 23.01.2020
3834 Clouds 13 1021 93 10000 5.1 320 13:19 23.01.2020
3835 Clouds 14 1020 93 10000 3.1 310 12:46 23.01.2020
3836 Clouds 14 1020 93 10000 3.1 310 12:25 23.01.2020
3837 Clouds 15 1019 87 10000 4.1 310 11:57 23.01.2020
3838 Clouds 15 1019 87 10000 4.1 310 11:38 23.01.2020
3839 Clouds 15 1019 87 10000 4.1 310 11:19 23.01.2020
3840 Clouds 15 1019 87 10000 2.6 320 10:44 23.01.2020
3841 Clouds 15 1019 87 10000 2.6 320 10:22 23.01.2020
3842 Clouds 15 1018 87 10000 2.6 310 09:43 23.01.2020
3843 Clouds 15 1018 87 10000 2.6 310 09:25 23.01.2020
3844 Rain 16 1018 88 10000 3.6 350 08:59 23.01.2020
3845 Rain 16 1018 88 10000 3.6 350 08:40 23.01.2020
3846 Rain 16 1018 88 10000 3.6 350 08:21 23.01.2020
3847 Clouds 17 1018 82 10000 5.1 320 07:44 23.01.2020
3848 Clouds 17 1018 82 10000 5.1 320 07:24 23.01.2020
3849 Clouds 17 1017 77 10000 3.1 280 06:51 23.01.2020
3850 Clouds 17 1017 77 10000 3.1 280 06:22 23.01.2020
3851 Clouds 16 1018 77 10000 1 0 05:37 23.01.2020
3852 Clouds 16 1019 88 10000 1 0 04:24 23.01.2020
3853 Fog 13 1019 100 6000 0.5 0 02:33 23.01.2020
3854 Fog 12 1019 100 800 1.5 240 00:58 23.01.2020
3855 Mist 11 1018 100 2000 2.01 131 00:27 23.01.2020
3856 Fog 12 1018 100 900 2.01 131 23:47 22.01.2020
3857 Clouds 11 1018 100 10000 0.5 0 23:29 22.01.2020
3858 Fog 12 1018 100 800 1.5 10 22:58 22.01.2020
3859 Clouds 12 1017 100 10000 0.5 0 22:39 22.01.2020
3860 Clouds 12 1017 100 10000 0.5 0 22:21 22.01.2020
3861 Rain 10 1021 99 0 7.6 140 21:40 22.01.2020
3862 Rain 10 1020 99 0 7.6 140 21:22 22.01.2020
3863 Rain 10 1021 99 0 7.6 140 20:57 22.01.2020
3864 Rain 10 1021 99 0 7.6 140 20:37 22.01.2020
3865 Rain 17 1019 87 0 14.12 201 20:18 22.01.2020
3866 Rain 17 1019 87 0 14.12 201 19:55 22.01.2020
3867 Rain 17 1019 87 0 14.12 201 19:37 22.01.2020
3868 Rain 17 1019 87 0 14.12 201 19:18 22.01.2020
3869 Rain 17 1019 87 0 14.12 201 18:56 22.01.2020
3870 Rain 17 1019 87 0 14.12 201 18:37 22.01.2020
3871 Rain 17 1019 87 0 14.12 201 18:18 22.01.2020
3872 Rain 17 1019 87 0 14.12 201 17:40 22.01.2020
3873 Rain 10 1021 99 0 7.6 140 17:21 22.01.2020
3874 Rain 10 1020 99 0 7.6 140 16:58 22.01.2020
3875 Rain 10 1020 99 0 7.6 140 16:58 22.01.2020
3876 Rain 10 1020 99 0 7.6 140 16:39 22.01.2020
3877 Rain 10 1019 100 1000 1.5 40 16:21 22.01.2020
3878 Rain 10 1019 100 1000 1.5 40 15:55 22.01.2020
3879 Rain 9 1019 100 1000 1.5 40 15:37 22.01.2020
3880 Rain 9 1019 100 1000 1.5 40 15:18 22.01.2020
3881 Rain 10 1020 100 1000 1.5 70 14:39 22.01.2020
3882 Rain 10 1020 100 1000 1.5 70 14:20 22.01.2020
3883 Rain 10 1020 100 1000 1.5 70 14:20 22.01.2020
3884 Clouds 10 1020 100 9000 7.7 140 13:58 22.01.2020
3885 Rain 10 1020 100 6000 6.2 140 13:37 22.01.2020
3886 Rain 10 1020 100 6000 6.2 140 13:19 22.01.2020
3887 Rain 10 1022 93 1000 1.5 60 12:57 22.01.2020
3888 Rain 9 1021 100 7000 6.7 150 12:38 22.01.2020
3889 Rain 9 1021 100 7000 6.7 150 12:19 22.01.2020
3890 Rain 10 1021 93 5000 6.7 150 11:57 22.01.2020
3891 Rain 9 1021 93 7000 7.2 150 11:39 22.01.2020
3892 Rain 9 1021 93 7000 7.2 150 11:19 22.01.2020
3893 Rain 9 1022 93 4000 7.2 150 10:45 22.01.2020
3894 Rain 9 1022 93 4000 7.2 150 10:45 22.01.2020
3895 Rain 9 1022 93 4000 7.2 150 10:21 22.01.2020
3896 Rain 9 1022 100 3000 6.7 150 09:58 22.01.2020
3897 Rain 9 1022 100 4000 6.7 150 09:40 22.01.2020
3898 Rain 9 1022 100 4000 6.7 150 09:21 22.01.2020
3899 Rain 9 1022 93 7000 7.2 150 08:55 22.01.2020
3900 Rain 9 1022 93 7000 7.2 150 08:36 22.01.2020
3901 Rain 9 1022 93 7000 7.2 150 08:18 22.01.2020
3902 Clouds 9 1022 93 9000 6.2 150 07:42 22.01.2020
3903 Clouds 9 1022 93 9000 6.2 150 07:23 22.01.2020
3904 Rain 9 1023 93 7000 5.1 140 06:34 22.01.2020
3905 Rain 9 1023 87 9000 8.2 140 05:45 22.01.2020
3906 Clouds 9 1025 76 10000 1 0 04:25 22.01.2020
3907 Clouds 9 1025 76 10000 1 0 03:26 22.01.2020
3908 Clouds 8 1026 81 10000 3.6 120 02:39 22.01.2020
3909 Clouds 7 1025 75 10000 5.1 140 00:47 22.01.2020
3910 Clouds 7 1025 75 10000 5.1 140 00:47 22.01.2020
3911 Clouds 7 1025 75 10000 5.1 140 00:27 22.01.2020
3912 Clouds 6 1025 81 10000 2.1 120 23:55 21.01.2020
3913 Clouds 6 1025 81 10000 2.1 120 23:37 21.01.2020
3914 Clouds 6 1025 81 10000 2.1 120 23:18 21.01.2020
3915 Clouds 7 1026 70 10000 4.1 140 22:40 21.01.2020
3916 Clouds 7 1026 70 10000 4.1 140 22:21 21.01.2020
3917 Clouds 6 1027 81 0 1.79 130 21:58 21.01.2020
3918 Clouds 6 1027 81 0 1.79 130 21:38 21.01.2020
3919 Clouds 6 1027 81 0 1.79 130 21:20 21.01.2020
3920 Clouds 6 1027 81 0 1.79 130 20:57 21.01.2020
3921 Clouds 6 1027 81 0 1.79 130 20:38 21.01.2020
3922 Clouds 6 1027 81 0 1.79 130 20:19 21.01.2020
3923 Clouds 6 1027 81 0 1.79 130 19:56 21.01.2020
3924 Clouds 6 1027 81 0 1.79 130 19:56 21.01.2020
3925 Clouds 6 1027 81 0 1.79 130 19:38 21.01.2020
3926 Clouds 6 1027 81 0 1.79 130 19:20 21.01.2020
3927 Clouds 6 1027 81 0 1.79 130 18:55 21.01.2020
3928 Clouds 6 1027 81 0 1.79 130 18:55 21.01.2020
3929 Clouds 6 1027 81 0 1.79 130 18:37 21.01.2020
3930 Clouds 6 1027 81 0 1.79 130 18:18 21.01.2020
3931 Clouds 6 1027 81 0 1.79 130 17:45 21.01.2020
3932 Clear 6 1027 81 0 1.79 130 17:20 21.01.2020
3933 Clear 6 1027 81 0 1.79 130 16:59 21.01.2020
3934 Clear 6 1027 81 0 1.79 130 16:59 21.01.2020
3935 Clear 6 1027 81 0 1.79 130 16:37 21.01.2020
3936 Clouds 5 1027 86 10000 2.1 340 16:19 21.01.2020
3937 Clouds 4 1027 86 10000 2.1 340 15:42 21.01.2020
3938 Clouds 4 1027 86 10000 2.1 340 15:22 21.01.2020
3939 Clouds 5 1027 75 10000 2.1 330 14:59 21.01.2020
3940 Clouds 5 1027 75 10000 2.1 330 14:38 21.01.2020
3941 Clouds 5 1027 75 10000 2.1 330 14:38 21.01.2020
3942 Clouds 5 1027 75 10000 2.1 330 14:19 21.01.2020
3943 Clear 5 1027 81 10000 2.1 130 13:40 21.01.2020
3944 Clear 5 1027 81 10000 2.1 130 13:19 21.01.2020
3945 Clear 7 1027 81 10000 2.1 140 12:44 21.01.2020
3946 Clear 7 1027 81 10000 2.1 140 12:25 21.01.2020
3947 Clear 7 1027 75 10000 2.1 140 11:57 21.01.2020
3948 Clear 7 1027 75 10000 2.1 140 11:39 21.01.2020
3949 Clear 7 1027 75 10000 2.1 140 11:21 21.01.2020
3950 Clear 9 1026 61 10000 1 0 10:55 21.01.2020
3951 Clear 9 1026 61 10000 1 0 10:37 21.01.2020
3952 Clear 9 1026 61 10000 1 0 10:18 21.01.2020
3953 Clear 11 1026 43 10000 2.6 150 09:41 21.01.2020
3954 Clear 11 1026 43 10000 2.6 150 09:22 21.01.2020
3955 Clear 12 1026 46 10000 2.1 200 08:49 21.01.2020
3956 Clear 12 1026 46 10000 2.1 200 08:29 21.01.2020
3957 Clear 12 1026 46 10000 2.1 250 07:59 21.01.2020
3958 Clear 12 1026 46 10000 2.1 250 07:39 21.01.2020
3959 Clear 12 1026 46 10000 2.1 250 07:21 21.01.2020
3960 Clouds 11 1026 50 10000 4.1 160 06:48 21.01.2020
3961 Clouds 11 1026 50 10000 4.1 160 06:25 21.01.2020
3962 Clouds 11 1026 50 10000 1.5 0 05:42 21.01.2020
3963 Clouds 11 1027 54 10000 3.1 20 04:39 21.01.2020
3964 Clouds 9 1028 46 10000 5.1 360 02:56 21.01.2020
3965 Clouds 6 1028 55 10000 1 0 01:51 21.01.2020
3966 Clouds 4 1027 75 10000 1.5 80 00:57 21.01.2020
3967 Clouds 4 1027 75 10000 1.5 80 00:35 21.01.2020
3968 Clouds 4 1026 75 10000 0.5 0 23:57 20.01.2020
3969 Clouds 4 1026 75 10000 0.5 0 23:37 20.01.2020
3970 Clouds 4 1026 75 10000 0.5 0 23:18 20.01.2020
3971 Clouds 4 1026 75 10000 0.5 0 23:18 20.01.2020
3972 Clouds 4 1026 75 10000 1.5 70 22:56 20.01.2020
3973 Clouds 4 1026 75 10000 1.5 70 22:37 20.01.2020
3974 Clouds 4 1026 75 10000 1.5 70 22:18 20.01.2020
3975 Clear 10 1022 53 0 3.58 290 21:57 20.01.2020
3976 Clear 10 1022 53 0 3.58 290 21:36 20.01.2020
3977 Clear 10 1022 53 0 3.58 290 21:18 20.01.2020
3978 Clear 10 1022 53 0 3.58 290 20:55 20.01.2020
3979 Clear 10 1022 53 0 3.58 290 20:36 20.01.2020
3980 Clouds 9 1025 67 0 7.28 347 20:18 20.01.2020
3981 Clouds 9 1025 67 0 7.28 347 20:18 20.01.2020
3982 Clouds 9 1025 67 0 7.28 347 20:18 20.01.2020
3983 -273 0 0 0 0 0 19:54 20.01.2020
3984 Clouds 10 1022 53 0 3.58 290 19:54 20.01.2020
3985 Clouds 10 1022 53 0 3.58 290 19:36 20.01.2020
3986 Clouds 10 1022 53 0 3.58 290 19:18 20.01.2020
3987 Clouds 10 1022 53 0 3.58 290 18:42 20.01.2020
3988 Clouds 10 1022 53 0 3.58 290 18:21 20.01.2020
3989 Clouds 10 1022 53 0 3.58 290 17:39 20.01.2020
3990 Clear 10 1022 53 0 3.58 290 17:19 20.01.2020
3991 Clear 10 1025 61 0 7.32 341 16:48 20.01.2020
3992 Clouds 7 1024 65 10000 3.1 290 16:26 20.01.2020
3993 Clouds 7 1024 65 10000 3.1 290 15:59 20.01.2020
3994 Clouds 7 1024 65 10000 3.1 290 15:40 20.01.2020
3995 Clouds 7 1024 65 10000 3.1 290 15:22 20.01.2020
3996 Clouds 7 1023 75 10000 2.1 300 14:59 20.01.2020
3997 Clouds 7 1023 75 10000 2.1 300 14:40 20.01.2020
3998 Clouds 7 1023 75 10000 2.1 300 14:40 20.01.2020
3999 Clouds 8 1023 75 10000 2.1 300 14:21 20.01.2020
4000 Clouds 9 1022 53 10000 3.6 290 13:56 20.01.2020
4001 Clouds 9 1022 53 10000 3.6 290 13:38 20.01.2020
4002 Clouds 9 1022 53 10000 3.6 290 13:38 20.01.2020
4003 Clouds 8 1022 53 10000 3.6 290 13:18 20.01.2020
4004 Clouds 8 1022 57 10000 5.1 300 12:42 20.01.2020
4005 Clouds 8 1022 57 10000 5.1 300 12:23 20.01.2020
4006 Clouds 9 1022 57 10000 4.1 310 11:55 20.01.2020
4007 Clouds 9 1022 57 10000 4.1 310 11:36 20.01.2020
4008 Clouds 9 1022 57 10000 4.1 310 11:18 20.01.2020
4009 Clouds 10 1021 53 10000 5.7 310 10:41 20.01.2020
4010 Clouds 10 1021 53 10000 5.7 310 10:20 20.01.2020
4011 Clouds 10 1021 53 10000 6.2 310 09:42 20.01.2020
4012 Clouds 10 1021 53 10000 6.2 310 09:42 20.01.2020
4013 Clouds 10 1021 53 10000 6.2 310 09:24 20.01.2020
4014 Clouds 11 1020 53 10000 5.1 310 08:55 20.01.2020
4015 Clouds 11 1020 53 10000 5.1 310 08:34 20.01.2020
4016 Clouds 11 1020 53 10000 6.2 320 07:56 20.01.2020
4017 Clouds 11 1020 53 10000 6.2 320 07:38 20.01.2020
4018 Clouds 11 1020 53 10000 6.2 320 07:38 20.01.2020
4019 Clouds 11 1020 53 10000 6.2 320 07:19 20.01.2020
4020 Clouds 11 1020 53 10000 7.2 330 06:42 20.01.2020
4021 Clouds 11 1020 53 10000 7.2 330 06:21 20.01.2020
4022 Clouds 11 1021 50 10000 7.7 330 05:38 20.01.2020
4023 Clouds 11 1021 50 10000 7.7 330 05:19 20.01.2020
4024 Clouds 10 1022 57 10000 6.7 330 03:55 20.01.2020
4025 Clouds 9 1021 61 10000 6.2 350 01:58 20.01.2020
4026 Clouds 9 1021 61 10000 6.2 350 01:39 20.01.2020
4027 Clouds 8 1021 61 10000 6.7 350 00:56 20.01.2020
4028 Clouds 8 1021 61 10000 6.7 350 00:37 20.01.2020
4029 Clouds 8 1021 61 10000 6.7 350 00:19 20.01.2020
4030 Clouds 9 1020 61 10000 6.2 340 23:37 19.01.2020
4031 Clouds 9 1020 61 10000 6.2 340 23:18 19.01.2020
4032 Clouds 9 1020 57 10000 7.2 340 22:55 19.01.2020
4033 Clouds 9 1020 57 10000 7.2 340 22:37 19.01.2020
4034 Clouds 9 1020 57 10000 7.2 340 22:18 19.01.2020
4035 Rain 9 1019 70 0 1.79 160 21:56 19.01.2020
4036 Rain 9 1019 70 0 1.79 160 21:37 19.01.2020
4037 Rain 9 1019 70 0 1.79 160 21:19 19.01.2020
4038 Rain 9 1019 70 0 1.79 160 20:56 19.01.2020
4039 Rain 9 1019 70 0 1.79 160 20:37 19.01.2020
4040 Rain 9 1019 70 0 1.79 160 20:19 19.01.2020
4041 Clouds 9 1019 70 0 1.79 160 19:55 19.01.2020
4042 Clouds 9 1019 70 0 1.79 160 19:37 19.01.2020
4043 Clouds 9 1019 70 0 1.79 160 19:19 19.01.2020
4044 Clouds 9 1019 70 0 1.79 160 18:55 19.01.2020
4045 Clouds 9 1019 70 0 1.79 160 18:37 19.01.2020
4046 Clouds 9 1019 70 0 1.79 160 18:18 19.01.2020
4047 Clouds 9 1019 70 0 1.79 160 18:18 19.01.2020
4048 Clouds 9 1019 70 0 1.79 160 17:57 19.01.2020
4049 Clouds 9 1019 70 0 1.79 160 17:38 19.01.2020
4050 Rain 9 1019 70 0 1.79 160 17:19 19.01.2020
4051 Rain 9 1019 70 0 1.79 160 16:55 19.01.2020
4052 Rain 9 1019 70 0 1.79 160 16:36 19.01.2020
4053 Clouds 9 1019 81 8000 2.6 340 16:18 19.01.2020
4054 Clouds 9 1019 81 8000 2.6 340 15:54 19.01.2020
4055 Clouds 8 1019 81 8000 2.6 340 15:36 19.01.2020
4056 Clouds 8 1019 81 8000 2.6 340 15:18 19.01.2020
4057 Clouds 8 1019 81 8000 2.6 340 15:18 19.01.2020
4058 Clouds 8 1019 81 8000 2.6 340 15:18 19.01.2020
4059 Clouds 9 1019 70 9000 2.1 190 14:40 19.01.2020
4060 Clouds 9 1019 70 9000 2.1 190 14:20 19.01.2020
4061 Clouds 9 1019 70 8000 2.1 160 13:59 19.01.2020
4062 Clouds 9 1019 70 8000 2.1 160 13:40 19.01.2020
4063 Clouds 9 1019 70 8000 2.1 160 13:21 19.01.2020
4064 Clouds 10 1019 57 8000 1.5 60 12:59 19.01.2020
4065 Clouds 10 1019 57 8000 1.5 60 12:40 19.01.2020
4066 Clouds 10 1019 57 8000 1.5 60 12:21 19.01.2020
4067 Clouds 9 1019 61 9000 2.1 20 11:57 19.01.2020
4068 Clouds 9 1019 61 9000 2.1 20 11:37 19.01.2020
4069 Clouds 9 1019 61 9000 2.1 20 11:18 19.01.2020
4070 Clouds 10 1019 61 10000 5.7 340 10:40 19.01.2020
4071 Clouds 10 1019 61 10000 5.7 340 10:20 19.01.2020
4072 Clouds 10 1018 61 10000 4.1 340 09:57 19.01.2020
4073 Clouds 10 1018 61 10000 4.1 340 09:38 19.01.2020
4074 Clouds 10 1018 61 10000 4.1 340 09:19 19.01.2020
4075 Clouds 10 1018 66 10000 4.1 340 08:55 19.01.2020
4076 Clouds 10 1018 66 10000 4.1 340 08:32 19.01.2020
4077 Rain 10 1018 66 10000 6.7 330 07:54 19.01.2020
4078 Rain 10 1018 66 10000 6.7 330 07:28 19.01.2020
4079 Clouds 10 1018 61 10000 6.2 330 06:55 19.01.2020
4080 Clouds 10 1018 61 10000 6.2 330 06:22 19.01.2020
4081 Clouds 9 1020 66 10000 5.7 310 03:55 19.01.2020
4082 Clouds 8 1019 87 10000 0.5 0 02:33 19.01.2020
4083 Rain 7 1019 87 10000 1.5 130 01:39 19.01.2020
4084 Rain 7 1019 87 10000 1.5 130 01:19 19.01.2020
4085 Clouds 6 1019 93 10000 1 0 00:44 19.01.2020
4086 Mist 6 1019 100 3500 1 0 00:20 19.01.2020
4087 Mist 5 1019 100 3500 1 0 23:45 18.01.2020
4088 Clouds 5 1018 93 10000 0.5 120 23:25 18.01.2020
4089 Rain 5 1018 93 10000 1.5 110 22:58 18.01.2020
4090 Rain 5 1018 93 10000 1.5 110 22:40 18.01.2020
4091 Rain 5 1018 93 10000 1.5 110 22:21 18.01.2020
4092 Clouds 7 1017 87 0 1.34 120 21:58 18.01.2020
4093 Clouds 7 1017 87 0 1.34 120 21:38 18.01.2020
4094 Clouds 7 1017 87 0 1.34 120 21:20 18.01.2020
4095 Clouds 7 1017 87 0 1.34 120 21:20 18.01.2020
4096 Clouds 7 1017 87 0 1.34 120 20:55 18.01.2020
4097 Clouds 7 1017 87 0 1.34 120 20:36 18.01.2020
4098 Clouds 7 1017 87 0 1.34 120 20:18 18.01.2020
4099 Clouds 7 1017 87 0 1.34 120 19:42 18.01.2020
4100 Clouds 7 1017 87 0 1.34 120 19:24 18.01.2020
4101 Clouds 7 1017 87 0 1.34 120 18:43 18.01.2020
4102 Clouds 7 1017 87 0 1.34 120 18:24 18.01.2020
4103 Clouds 7 1017 87 0 1.34 120 17:56 18.01.2020
4104 Clouds 7 1017 87 0 1.34 120 17:38 18.01.2020
4105 Clouds 7 1017 87 0 1.34 120 17:19 18.01.2020
4106 Clouds 7 1017 87 0 1.34 120 16:55 18.01.2020
4107 Clouds 7 1017 87 0 1.34 120 16:37 18.01.2020
4108 Clouds 6 1018 93 10000 2.1 20 16:19 18.01.2020
4109 Clouds 5 1018 93 10000 2.1 20 15:42 18.01.2020
4110 Clouds 5 1018 93 10000 2.1 20 15:24 18.01.2020
4111 Clouds 6 1017 93 10000 2.1 20 14:57 18.01.2020
4112 Clouds 6 1017 93 10000 2.1 20 14:39 18.01.2020
4113 Clouds 7 1017 93 10000 2.1 20 14:18 18.01.2020
4114 Clouds 7 1017 87 10000 1.5 120 13:44 18.01.2020
4115 Clouds 7 1017 87 10000 1.5 120 13:26 18.01.2020
4116 Clouds 9 1017 81 10000 4.1 350 12:58 18.01.2020
4117 Clouds 9 1017 81 10000 4.1 350 12:39 18.01.2020
4118 Clouds 9 1017 81 10000 4.1 350 12:20 18.01.2020
4119 Clouds 7 1017 93 10000 3.1 320 11:44 18.01.2020
4120 Clouds 8 1017 93 10000 3.1 320 11:21 18.01.2020
4121 Clouds 9 1016 81 10000 2.6 320 10:57 18.01.2020
4122 Clouds 9 1016 81 10000 2.6 320 10:38 18.01.2020
4123 Clouds 9 1016 81 10000 2.6 320 10:19 18.01.2020
4124 Rain 9 1016 87 10000 5.1 360 09:42 18.01.2020
4125 Rain 10 1014 76 10000 3.6 300 09:24 18.01.2020
4126 Rain 10 1015 81 10000 4.1 300 08:55 18.01.2020
4127 Rain 10 1015 81 10000 4.1 300 08:37 18.01.2020
4128 Rain 10 1015 81 10000 4.1 300 08:18 18.01.2020
4129 Rain 9 1015 87 10000 4.1 290 07:40 18.01.2020
4130 Rain 9 1015 87 10000 4.1 290 07:21 18.01.2020
4131 Rain 9 1015 81 10000 4.6 300 06:45 18.01.2020
4132 Rain 10 1014 66 10000 7.7 320 05:55 18.01.2020
4133 Clouds 13 1015 37 10000 5.7 310 04:29 18.01.2020
4134 Clouds 11 1017 53 10000 5.1 330 02:49 18.01.2020
4135 Clouds 8 1016 75 10000 1 0 01:47 18.01.2020
4136 Clouds 5 1016 87 10000 0.5 0 00:40 18.01.2020
4137 Clouds 5 1016 87 10000 0.5 0 00:21 18.01.2020
4138 Clouds 6 1015 81 10000 0.5 210 23:59 17.01.2020
4139 Clouds 6 1015 81 10000 0.5 210 23:40 17.01.2020
4140 Clouds 6 1015 81 10000 0.5 210 23:40 17.01.2020
4141 Clouds 6 1015 81 10000 0.5 210 23:18 17.01.2020
4142 Clouds 6 1016 87 10000 1.5 40 22:42 17.01.2020
4143 Clouds 6 1016 87 10000 1.5 40 22:20 17.01.2020
4144 Clouds 9 1016 76 0 7.6 360 21:57 17.01.2020
4145 Clouds 9 1016 76 0 7.6 360 21:38 17.01.2020
4146 Clouds 9 1016 76 0 7.6 360 21:38 17.01.2020
4147 Clouds 9 1016 76 0 7.6 360 21:20 17.01.2020
4148 Clouds 9 1016 76 0 7.6 360 20:55 17.01.2020
4149 Clouds 9 1016 76 0 7.6 360 20:36 17.01.2020
4150 Rain 9 1016 76 0 7.6 360 20:18 17.01.2020
4151 Rain 9 1016 76 0 7.6 360 19:54 17.01.2020
4152 Rain 9 1016 76 0 7.6 360 19:36 17.01.2020
4153 Rain 9 1014 76 0 7.6 360 19:18 17.01.2020
4154 Rain 9 1016 76 0 7.6 360 18:41 17.01.2020
4155 Rain 9 1016 76 0 7.6 360 18:23 17.01.2020
4156 Rain 9 1016 76 0 7.6 360 17:54 17.01.2020
4157 Rain 9 1016 76 0 7.6 360 17:36 17.01.2020
4158 Rain 9 1016 76 0 7.6 360 17:18 17.01.2020
4159 Rain 9 1016 76 0 7.6 360 16:41 17.01.2020
4160 Clouds 8 1016 87 10000 3.6 290 16:19 17.01.2020
4161 Clouds 8 1016 87 10000 3.6 290 15:45 17.01.2020
4162 Clouds 8 1016 87 10000 3.6 290 15:26 17.01.2020
4163 Clouds 8 1016 87 10000 5.1 300 14:46 17.01.2020
4164 Clouds 8 1016 87 10000 5.1 300 14:27 17.01.2020
4165 Rain 9 1016 76 10000 7.7 360 13:58 17.01.2020
4166 Rain 9 1016 76 10000 7.7 360 13:58 17.01.2020
4167 Rain 9 1016 76 10000 7.7 360 13:38 17.01.2020
4168 Rain 9 1016 76 10000 7.7 360 13:19 17.01.2020
4169 Clouds 9 1016 70 10000 6.7 350 12:44 17.01.2020
4170 Clouds 9 1016 70 10000 6.7 350 12:22 17.01.2020
4171 Clouds 9 1016 70 10000 7.2 350 11:40 17.01.2020
4172 Clouds 9 1016 70 10000 7.2 350 11:19 17.01.2020
4173 Clouds 11 1015 53 10000 7.2 360 10:44 17.01.2020
4174 Clouds 11 1015 53 10000 7.2 360 10:23 17.01.2020
4175 Clouds 11 1015 57 10000 6.7 340 09:58 17.01.2020
4176 Clouds 11 1015 57 10000 6.7 340 09:39 17.01.2020
4177 Clouds 11 1015 57 10000 6.7 340 09:39 17.01.2020
4178 Clouds 11 1015 57 10000 6.7 340 09:19 17.01.2020
4179 Clouds 12 1015 50 10000 6.2 340 08:43 17.01.2020
4180 Clouds 12 1015 50 10000 6.2 340 08:25 17.01.2020
4181 Clouds 13 1015 47 10000 5.7 340 07:54 17.01.2020
4182 Clouds 12 1015 46 10000 2.6 270 07:31 17.01.2020
4183 Clouds 12 1015 40 10000 7.2 330 06:58 17.01.2020
4184 Clouds 12 1015 40 10000 7.2 330 06:40 17.01.2020
4185 Clouds 12 1016 51 10000 6.7 330 05:53 17.01.2020
4186 Clouds 10 1018 57 0 5.36 10 03:39 17.01.2020
4187 Clouds 9 1018 66 0 5.36 10 02:47 17.01.2020
4188 Clouds 7 1018 75 0 0.89 90 01:47 17.01.2020
4189 Clouds 7 1019 81 0 2.24 140 01:28 17.01.2020
4190 Clouds 7 1019 81 0 2.24 140 00:46 17.01.2020
4191 Clouds 6 1019 87 10000 2.1 140 00:21 17.01.2020
4192 Clouds 6 1019 87 10000 2.1 140 23:43 16.01.2020
4193 Clouds 6 1019 87 10000 2.1 140 23:25 16.01.2020
4194 Clouds 5 1019 81 10000 1.5 130 22:55 16.01.2020
4195 Clouds 5 1019 81 10000 1.5 130 22:37 16.01.2020
4196 Clouds 5 1019 81 10000 1.5 130 22:18 16.01.2020
4197 Clouds 8 1021 65 0 1.79 120 21:54 16.01.2020
4198 Clouds 8 1021 65 0 1.79 120 21:36 16.01.2020
4199 Clouds 8 1021 65 0 1.79 120 21:18 16.01.2020
4200 Clouds 8 1021 65 0 1.79 120 20:40 16.01.2020
4201 Clouds 8 1021 65 0 1.79 120 20:21 16.01.2020
4202 Clouds 8 1021 65 0 1.79 120 19:57 16.01.2020
4203 Clouds 8 1021 65 0 1.79 120 19:39 16.01.2020
4204 Clouds 8 1021 65 0 1.79 120 19:20 16.01.2020
4205 Clouds 8 1021 65 0 1.79 120 18:57 16.01.2020
4206 Clouds 8 1021 65 0 1.79 120 18:37 16.01.2020
4207 Clouds 8 1021 65 0 1.79 120 18:18 16.01.2020
4208 Clouds 8 1021 65 0 1.79 120 18:18 16.01.2020
4209 Clouds 8 1021 65 0 1.79 120 17:56 16.01.2020
4210 Clouds 8 1021 65 0 1.79 120 17:56 16.01.2020
4211 Clouds 8 1021 65 0 1.79 120 17:38 16.01.2020
4212 Rain 8 1021 65 0 1.79 120 17:20 16.01.2020
4213 Rain 8 1021 65 0 1.79 120 16:40 16.01.2020
4214 Clouds 7 1021 87 10000 1.5 350 16:21 16.01.2020
4215 Clouds 7 1021 87 10000 1.5 350 15:56 16.01.2020
4216 Clouds 7 1021 87 10000 1.5 350 15:38 16.01.2020
4217 Clouds 7 1021 87 10000 1.5 350 15:38 16.01.2020
4218 Clouds 7 1021 87 10000 1.5 350 15:19 16.01.2020
4219 Clouds 7 1022 87 10000 2.1 330 14:42 16.01.2020
4220 Clouds 7 1022 87 10000 2.1 330 14:23 16.01.2020
4221 Clouds 7 1021 65 10000 2.1 120 13:47 16.01.2020
4222 Clouds 7 1021 65 10000 2.1 120 13:29 16.01.2020
4223 Clouds 8 1022 65 10000 2.1 140 12:57 16.01.2020
4224 Clouds 8 1022 65 10000 2.1 140 12:39 16.01.2020
4225 Clouds 8 1022 65 10000 2.1 140 12:20 16.01.2020
4226 Clouds 8 1022 61 10000 2.6 150 11:42 16.01.2020
4227 Clouds 8 1022 61 10000 2.6 150 11:42 16.01.2020
4228 Clouds 8 1022 61 10000 2.6 150 11:24 16.01.2020
4229 Rain 9 1021 57 10000 3.1 150 10:56 16.01.2020
4230 Rain 9 1021 57 10000 3.1 150 10:37 16.01.2020
4231 Rain 9 1021 57 10000 3.1 150 10:19 16.01.2020
4232 Clouds 9 1021 57 10000 2.1 180 09:43 16.01.2020
4233 Clouds 9 1021 57 10000 2.1 180 09:24 16.01.2020
4234 Clouds 9 1021 80 10000 1 0 08:58 16.01.2020
4235 Clouds 9 1021 80 10000 1 0 08:40 16.01.2020
4236 Clouds 9 1021 73 10000 1 0 08:19 16.01.2020
4237 Rain 9 1021 49 10000 1 0 07:42 16.01.2020
4238 Rain 9 1021 49 10000 1 0 07:23 16.01.2020
4239 Rain 9 1022 73 10000 1 0 06:52 16.01.2020
4240 Rain 9 1022 73 10000 1 0 06:34 16.01.2020
4241 Rain 8 1022 73 10000 1.5 160 05:49 16.01.2020
4242 Clouds 8 1023 61 10000 1.5 130 04:50 16.01.2020
4243 Clouds 7 1024 65 10000 2.1 150 03:56 16.01.2020
4244 Clouds 6 1024 70 10000 4.1 140 02:46 16.01.2020
4245 Clouds 5 1024 75 10000 3.1 150 01:32 16.01.2020
4246 Clouds 5 1024 75 10000 3.1 140 00:43 16.01.2020
4247 Clouds 5 1024 75 10000 3.1 140 00:43 16.01.2020
4248 Clouds 5 1024 75 10000 3.1 140 00:23 16.01.2020
4249 Clouds 5 1024 75 10000 1.5 130 23:44 15.01.2020
4250 Clouds 5 1024 75 10000 1.5 130 23:44 15.01.2020
4251 Clouds 5 1024 75 10000 1.5 130 23:22 15.01.2020
4252 Clouds 5 1024 75 10000 1.5 130 23:22 15.01.2020
4253 Clouds 5 1024 75 10000 1.5 130 23:21 15.01.2020
4254 Clouds 5 1024 60 10000 0.5 0 22:56 15.01.2020
4255 Clouds 5 1024 60 10000 0.5 0 22:37 15.01.2020
4256 Clouds 5 1024 60 10000 0.5 0 22:18 15.01.2020
4257 Clouds 5 1024 60 10000 0.5 0 22:18 15.01.2020
4258 Clouds 6 1025 60 0 2.68 10 21:55 15.01.2020
4259 Clouds 6 1025 60 0 2.68 10 21:36 15.01.2020
4260 Clouds 6 1025 60 0 2.68 10 21:18 15.01.2020
4261 Clouds 6 1025 60 0 2.68 10 20:54 15.01.2020
4262 Clouds 6 1025 60 0 2.68 10 20:36 15.01.2020
4263 Clouds 6 1025 55 0 2.68 10 20:18 15.01.2020
4264 Clouds 6 1025 56 0 2.68 10 19:54 15.01.2020
4265 Clouds 6 1025 56 0 2.68 10 19:36 15.01.2020
4266 Clouds 6 1025 56 0 2.68 10 19:36 15.01.2020
4267 Clouds 8 1024 56 0 3 12 19:18 15.01.2020
4268 Clouds 8 1024 56 0 3 12 19:18 15.01.2020
4269 Clouds 8 1024 56 0 3 12 18:54 15.01.2020
4270 Clouds 8 1024 56 0 3 12 18:36 15.01.2020
4271 Clouds 6 1025 56 0 2.68 10 18:18 15.01.2020
4272 Clouds 6 1025 56 0 2.68 10 17:40 15.01.2020
4273 Clouds 6 1025 56 0 2.68 10 17:40 15.01.2020
4274 Clouds 6 1025 57 0 2.68 10 17:21 15.01.2020
4275 Clouds 6 1025 57 0 2.68 10 16:56 15.01.2020
4276 Clouds 6 1025 57 0 2.68 10 16:38 15.01.2020
4277 Clouds 5 1025 57 10000 1.5 350 16:20 15.01.2020
4278 Clouds 5 1025 57 10000 1.5 350 15:43 15.01.2020
4279 Clouds 5 1025 57 10000 1.5 350 15:21 15.01.2020
4280 Clouds 5 1025 57 10000 1.5 30 14:55 15.01.2020
4281 Clouds 4 1025 57 10000 1.5 30 14:37 15.01.2020
4282 Clouds 5 1025 59 10000 1.5 30 14:18 15.01.2020
4283 Clouds 4 1025 59 10000 3.1 10 13:41 15.01.2020
4284 Clouds 4 1025 57 10000 3.1 10 13:23 15.01.2020
4285 Clouds 5 1025 60 10000 2.6 40 12:55 15.01.2020
4286 Clouds 5 1025 60 10000 2.6 40 12:55 15.01.2020
4287 Clouds 5 1025 60 10000 2.6 40 12:36 15.01.2020
4288 Clouds 5 1025 60 10000 2.6 40 12:18 15.01.2020
4289 Clouds 6 1025 60 10000 2.1 10 11:38 15.01.2020
4290 Clouds 6 1025 60 10000 2.1 10 11:20 15.01.2020
4291 Clouds 7 1025 56 10000 2.6 290 10:47 15.01.2020
4292 Clouds 7 1025 56 10000 2.6 290 10:28 15.01.2020
4293 Clouds 8 1024 52 10000 4.6 310 09:58 15.01.2020
4294 Clouds 8 1024 52 10000 4.6 310 09:39 15.01.2020
4295 Clouds 8 1024 52 10000 4.6 310 09:19 15.01.2020
4296 Clouds 8 1024 58 10000 5.1 320 08:44 15.01.2020
4297 Clouds 9 1024 57 10000 5.1 320 08:24 15.01.2020
4298 Clouds 9 1023 49 10000 4.6 330 07:54 15.01.2020
4299 Clouds 9 1023 49 10000 4.6 330 07:33 15.01.2020
4300 Clouds 9 1023 45 10000 5.1 330 06:52 15.01.2020
4301 Clouds 9 1023 45 10000 5.1 330 06:28 15.01.2020
4302 Clouds 8 1025 49 10000 6.7 320 04:56 15.01.2020
4303 Clouds 6 1026 56 10000 1.5 90 02:48 15.01.2020
4304 Clouds 4 1026 75 10000 1.5 130 01:48 15.01.2020
4305 Clouds 4 1026 75 10000 1.5 130 01:20 15.01.2020
4306 Clouds 3 1025 56 10000 2.1 140 00:37 15.01.2020
4307 Clouds 3 1025 56 10000 2.1 140 00:19 15.01.2020
4308 Clouds 3 1024 56 10000 1 120 23:46 14.01.2020
4309 Clouds 3 1024 56 10000 1 120 23:24 14.01.2020
4310 Clouds 2 1024 86 10000 2.6 130 22:55 14.01.2020
4311 Clouds 2 1024 86 10000 2.6 130 22:36 14.01.2020
4312 Clouds 2 1024 86 10000 2.6 130 22:18 14.01.2020
4313 Clouds 2 1024 86 10000 2.6 130 22:18 14.01.2020
4314 Clouds 6 1023 75 0 2.24 20 21:55 14.01.2020
4315 Clouds 6 1023 75 0 2.24 20 21:36 14.01.2020
4316 Clouds 6 1023 75 0 2.24 20 21:18 14.01.2020
4317 Clouds 6 1023 75 0 2.24 20 21:18 14.01.2020
4318 Clouds 6 1023 75 0 2.24 20 20:42 14.01.2020
4319 Clouds 6 1023 75 0 2.24 20 20:22 14.01.2020
4320 Clouds 6 1023 75 0 2.24 20 19:56 14.01.2020
4321 Clouds 6 1023 75 0 2.24 20 19:38 14.01.2020
4322 Clouds 6 1023 75 0 2.24 20 19:19 14.01.2020
4323 Clouds 6 1023 75 0 2.24 20 18:56 14.01.2020
4324 Clouds 6 1023 75 0 2.24 20 18:38 14.01.2020
4325 Clouds 6 1023 75 0 2.24 20 18:19 14.01.2020
4326 Clouds 6 1023 75 0 2.24 20 18:19 14.01.2020
4327 Clouds 6 1023 75 0 2.24 20 17:39 14.01.2020
4328 Clouds 6 1023 75 0 2.24 20 17:19 14.01.2020
4329 Clouds 6 1023 75 0 2.24 20 16:56 14.01.2020
4330 Clouds 6 1023 75 0 2.24 20 16:38 14.01.2020
4331 Clouds 5 1024 93 10000 1 90 16:19 14.01.2020
4332 Clouds 5 1024 93 10000 1 90 15:43 14.01.2020
4333 Clouds 5 1024 93 10000 1 90 15:19 14.01.2020
4334 Clouds 4 1024 93 10000 0.5 80 14:59 14.01.2020
4335 Clouds 4 1024 93 10000 0.5 80 14:41 14.01.2020
4336 Clouds 5 1024 93 10000 0.5 80 14:19 14.01.2020
4337 Clouds 6 1023 75 10000 2.6 20 13:42 14.01.2020
4338 Clouds 6 1023 75 10000 2.6 20 13:20 14.01.2020
4339 Clouds 6 1023 75 10000 8.7 340 12:56 14.01.2020
4340 Clouds 6 1023 75 10000 8.7 340 12:56 14.01.2020
4341 Clouds 6 1023 75 10000 8.7 340 12:38 14.01.2020
4342 Clouds 6 1023 75 10000 8.7 340 12:20 14.01.2020
4343 Clouds 6 1022 75 10000 5.7 10 11:41 14.01.2020
4344 Clouds 6 1022 75 10000 5.7 10 11:22 14.01.2020
4345 Clouds 7 1022 70 10000 7.2 360 10:56 14.01.2020
4346 Clouds 7 1022 70 10000 7.2 360 10:38 14.01.2020
4347 Clouds 7 1022 70 10000 7.2 360 10:19 14.01.2020
4348 Clouds 8 1021 70 10000 5.1 360 09:55 14.01.2020
4349 Clouds 8 1021 70 10000 5.1 360 09:37 14.01.2020
4350 Clouds 8 1021 70 10000 5.1 360 09:19 14.01.2020
4351 Clouds 8 1020 75 10000 2.6 160 08:41 14.01.2020
4352 Clouds 8 1020 75 10000 2.6 160 08:41 14.01.2020
4353 Clouds 8 1020 75 10000 2.6 160 08:41 14.01.2020
4354 Clouds 8 1020 75 10000 2.6 160 08:22 14.01.2020
4355 Rain 8 1020 75 10000 4.6 130 07:51 14.01.2020
4356 Rain 8 1020 75 10000 4.6 130 07:25 14.01.2020
4357 Rain 8 1020 70 10000 5.7 130 06:43 14.01.2020
4358 Rain 8 1020 75 10000 5.1 130 05:59 14.01.2020
4359 Rain 8 1021 66 10000 5.1 120 04:51 14.01.2020
4360 Rain 8 1022 66 10000 3.1 340 03:47 14.01.2020
4361 Clouds 7 1022 70 10000 3.1 320 02:39 14.01.2020
4362 Clouds 7 1022 70 10000 1.5 320 01:21 14.01.2020
4363 Clouds 6 1021 65 10000 1.5 210 00:48 14.01.2020
4364 Clouds 6 1021 65 10000 1.5 210 00:21 14.01.2020
4365 Clouds 5 1021 70 10000 2.6 110 23:44 13.01.2020
4366 Clouds 6 1021 70 10000 2.6 110 23:19 13.01.2020
4367 Clouds 5 1022 75 10000 2.1 120 22:57 13.01.2020
4368 Clouds 5 1022 75 10000 2.1 120 22:39 13.01.2020
4369 Clouds 5 1022 75 10000 2.1 120 22:19 13.01.2020
4370 Clouds 7 1022 65 0 1.79 40 21:55 13.01.2020
4371 Clouds 7 1022 65 0 1.79 40 21:36 13.01.2020
4372 Clouds 7 1022 65 0 1.79 40 21:18 13.01.2020
4373 Clouds 7 1022 65 0 1.79 40 20:55 13.01.2020
4374 Clouds 7 1022 65 0 1.79 40 20:37 13.01.2020
4375 Clouds 7 1022 65 0 1.79 40 20:37 13.01.2020
4376 Clouds 7 1022 65 0 1.79 40 20:18 13.01.2020
4377 Clouds 7 1022 65 0 1.79 40 19:41 13.01.2020
4378 Clouds 7 1022 65 0 1.79 40 19:20 13.01.2020
4379 Clouds 7 1022 65 0 1.79 40 18:58 13.01.2020
4380 Clouds 7 1022 65 0 1.79 40 18:38 13.01.2020
4381 Clouds 7 1022 65 0 1.79 40 18:38 13.01.2020
4382 Clouds 7 1022 65 0 1.79 40 18:19 13.01.2020
4383 Clouds 7 1022 65 0 1.79 40 18:19 13.01.2020
4384 Clouds 7 1022 65 0 1.79 40 17:58 13.01.2020
4385 Clouds 7 1022 65 0 1.79 40 17:38 13.01.2020
4386 Clouds 7 1022 65 0 1.79 40 17:20 13.01.2020
4387 Clouds 7 1022 65 0 1.79 40 17:20 13.01.2020
4388 Clouds 7 1022 65 0 1.79 40 16:41 13.01.2020
4389 Clouds 7 1022 65 0 1.79 40 16:22 13.01.2020
4390 Clouds 7 1022 65 0 1.79 40 15:56 13.01.2020
4391 Clouds 7 1022 65 0 1.79 40 15:38 13.01.2020
4392 Clouds 7 1022 65 0 1.79 40 15:19 13.01.2020
4393 Clouds 7 1022 65 0 1.79 40 14:42 13.01.2020
4394 Clouds 7 1022 65 0 1.79 40 14:23 13.01.2020
4395 Clouds 7 1022 65 0 1.79 40 13:58 13.01.2020
4396 Clouds 7 1022 65 0 1.79 40 13:39 13.01.2020
4397 Clouds 7 1022 65 0 1.79 40 13:21 13.01.2020
4398 Clouds 7 1022 61 0 1.79 50 12:43 13.01.2020
4399 Clouds 7 1022 61 10000 3.1 20 12:23 13.01.2020
4400 Clouds 7 1022 61 10000 3.1 20 11:59 13.01.2020
4401 Clouds 7 1022 61 10000 3.1 20 11:39 13.01.2020
4402 Clouds 7 1022 62 10000 3.1 20 11:19 13.01.2020
4403 Clouds 8 1021 62 10000 4.1 330 10:57 13.01.2020
4404 Clouds 8 1021 62 10000 4.1 330 10:38 13.01.2020
4405 Clouds 8 1021 62 10000 4.1 330 10:20 13.01.2020
4406 Clouds 8 1021 62 10000 4.1 330 10:20 13.01.2020
4407 Clouds 8 1021 62 10000 5.7 310 09:55 13.01.2020
4408 Clouds 8 1021 62 10000 5.7 310 09:37 13.01.2020
4409 Clouds 8 1021 62 10000 5.7 310 09:19 13.01.2020
4410 Clouds 9 1021 62 10000 6.7 320 08:38 13.01.2020
4411 Clouds 9 1021 63 10000 6.7 320 08:19 13.01.2020
4412 Clouds 10 1020 43 10000 7.2 330 07:45 13.01.2020
4413 Clouds 10 1020 43 10000 7.2 330 07:27 13.01.2020
4414 Clouds 10 1020 63 10000 5.7 320 06:39 13.01.2020
4415 Clouds 10 1020 63 10000 6.2 310 05:57 13.01.2020
4416 Clouds 9 1020 66 10000 6.2 310 05:19 13.01.2020
4417 Clouds 9 1022 57 10000 5.7 310 03:46 13.01.2020
4418 Clouds 9 1022 49 10000 4.6 310 02:51 13.01.2020
4419 Clouds 9 1022 49 10000 4.6 310 02:30 13.01.2020
4420 Clouds 8 1021 57 10000 6.2 320 01:33 13.01.2020
4421 Clouds 8 1020 65 10000 5.1 310 00:55 13.01.2020
4422 Clouds 8 1020 65 10000 5.1 310 00:36 13.01.2020
4423 Clouds 8 1020 65 10000 5.1 310 00:18 13.01.2020
4424 Clouds 7 1020 52 10000 4.6 310 23:40 12.01.2020
4425 Clouds 7 1020 52 10000 4.6 310 23:21 12.01.2020
4426 Clouds 7 1020 66 10000 6.2 300 22:56 12.01.2020
4427 Clouds 7 1020 66 10000 6.2 300 22:37 12.01.2020
4428 Clouds 7 1020 66 10000 6.2 300 22:19 12.01.2020
4429 Clouds 8 1017 61 0 5.36 300 21:42 12.01.2020
4430 Clouds 8 1017 61 0 5.36 300 21:20 12.01.2020
4431 Clouds 8 1017 61 0 5.36 300 20:59 12.01.2020
4432 Clouds 8 1017 61 0 5.36 300 20:59 12.01.2020
4433 Clouds 8 1017 61 0 5.36 300 20:40 12.01.2020
4434 Clouds 8 1017 61 0 5.36 300 20:21 12.01.2020
4435 Clouds 8 1017 61 0 5.36 300 19:57 12.01.2020
4436 Clouds 8 1017 61 0 5.36 300 19:39 12.01.2020
4437 Clouds 8 1017 61 0 5.36 300 19:19 12.01.2020
4438 Clouds 8 1017 61 0 5.36 300 19:19 12.01.2020
4439 Clouds 8 1017 61 0 5.36 300 19:19 12.01.2020
4440 Clouds 8 1017 61 0 5.36 300 18:58 12.01.2020
4441 Clouds 8 1017 61 0 5.36 300 18:40 12.01.2020
4442 Clouds 8 1017 61 0 5.36 300 18:22 12.01.2020
4443 Clouds 8 1017 61 0 5.36 300 17:59 12.01.2020
4444 Clouds 8 1017 61 0 5.36 300 17:40 12.01.2020
4445 Clouds 8 1017 61 0 5.36 300 17:19 12.01.2020
4446 Clouds 8 1017 61 0 5.36 300 16:56 12.01.2020
4447 Clouds 8 1017 61 0 5.36 300 16:37 12.01.2020
4448 Clouds 8 1018 61 10000 6.2 270 16:19 12.01.2020
4449 Clouds 8 1018 61 10000 6.2 270 15:43 12.01.2020
4450 Clouds 8 1018 61 10000 6.2 270 15:24 12.01.2020
4451 Clouds 8 1017 61 10000 5.7 270 14:57 12.01.2020
4452 Clouds 8 1017 61 10000 5.7 270 14:38 12.01.2020
4453 Clouds 8 1017 61 10000 5.7 270 14:19 12.01.2020
4454 Clouds 8 1017 61 10000 5.7 300 13:44 12.01.2020
4455 Clouds 8 1017 61 10000 5.7 300 13:25 12.01.2020
4456 Clouds 8 1017 61 10000 5.7 300 12:59 12.01.2020
4457 Clouds 8 1017 61 10000 5.7 300 12:39 12.01.2020
4458 Clouds 8 1017 61 10000 5.7 300 12:20 12.01.2020
4459 Clouds 9 1016 66 10000 6.7 310 11:58 12.01.2020
4460 Clouds 9 1016 66 10000 6.7 310 11:38 12.01.2020
4461 Clouds 9 1016 68 10000 6.7 310 11:19 12.01.2020
4462 Clouds 9 1016 68 10000 7.7 310 10:41 12.01.2020
4463 Clouds 9 1016 68 10000 7.7 310 10:41 12.01.2020
4464 Clouds 9 1016 68 10000 7.7 310 10:22 12.01.2020
4465 Clouds 9 1015 57 10000 7.2 310 09:57 12.01.2020
4466 Clouds 9 1015 57 10000 7.2 310 09:38 12.01.2020
4467 Clouds 9 1015 57 10000 7.2 310 09:18 12.01.2020
4468 Clouds 9 1015 57 10000 7.2 310 08:44 12.01.2020
4469 Clouds 9 1015 57 10000 7.2 310 08:20 12.01.2020
4470 Clouds 9 1014 57 10000 7.7 310 07:40 12.01.2020
4471 Clouds 9 1014 57 10000 7.7 310 07:22 12.01.2020
4472 Clouds 9 1014 61 10000 6.2 310 06:43 12.01.2020
4473 Clouds 9 1014 61 10000 6.2 310 06:24 12.01.2020
4474 Clouds 9 1014 61 10000 6.7 300 05:24 12.01.2020
4475 Clouds 9 1016 66 10000 6.7 300 03:55 12.01.2020
4476 Clouds 9 1016 66 10000 6.7 300 03:22 12.01.2020
4477 Clouds 10 1015 61 10000 6.7 300 02:33 12.01.2020
4478 Clouds 10 1014 71 10000 5.1 290 01:43 12.01.2020
4479 Clouds 10 1014 71 10000 5.1 290 01:22 12.01.2020
4480 Clouds 9 1014 66 10000 3.6 310 00:40 12.01.2020
4481 Clouds 9 1014 66 10000 3.6 310 00:20 12.01.2020
4482 Clouds 9 1014 81 10000 2.6 0 23:42 11.01.2020
4483 Clouds 9 1014 81 10000 2.6 0 23:19 11.01.2020
4484 Rain 9 1014 87 10000 3.13 0 22:58 11.01.2020
4485 Rain 9 1014 87 10000 3.13 0 22:39 11.01.2020
4486 Rain 9 1014 87 10000 3.13 0 22:20 11.01.2020
4487 Rain 11 1015 66 0 3.13 0 21:58 11.01.2020
4488 Rain 11 1015 66 0 3.13 0 21:39 11.01.2020
4489 Rain 11 1015 66 0 3.13 0 21:18 11.01.2020
4490 Rain 11 1015 66 0 3.13 0 20:40 11.01.2020
4491 Rain 11 1015 66 0 6.7 327 20:22 11.01.2020
4492 Rain 11 1015 66 0 6.7 327 19:58 11.01.2020
4493 Rain 11 1015 66 0 6.7 327 19:38 11.01.2020
4494 Rain 11 1015 66 0 6.7 327 19:20 11.01.2020
4495 Rain 11 1015 66 0 6.7 327 18:58 11.01.2020
4496 Rain 11 1015 66 0 6.7 327 18:38 11.01.2020
4497 Rain 11 1015 66 0 6.7 327 18:19 11.01.2020
4498 Rain 11 1015 66 0 6.7 327 17:57 11.01.2020
4499 Rain 11 1015 66 0 6.7 327 17:39 11.01.2020
4500 Clouds 11 1015 66 0 6.05 322 17:19 11.01.2020
4501 Clouds 11 1015 66 0 6.05 322 16:44 11.01.2020
4502 Clouds 9 1014 76 10000 1.5 350 16:26 11.01.2020
4503 Clouds 10 1014 76 10000 1.5 350 15:58 11.01.2020
4504 Clouds 10 1014 76 10000 1.5 350 15:40 11.01.2020
4505 Clouds 10 1014 76 10000 1.5 350 15:20 11.01.2020
4506 Clouds 10 1015 71 10000 1.5 300 14:56 11.01.2020
4507 Clouds 10 1015 71 10000 1.5 300 14:37 11.01.2020
4508 Clouds 11 1015 71 10000 1.5 300 14:19 11.01.2020
4509 Clouds 11 1015 66 10000 0.5 0 13:38 11.01.2020
4510 Clouds 11 1015 66 10000 0.5 0 13:20 11.01.2020
4511 Clouds 11 1015 62 10000 1.5 10 12:56 11.01.2020
4512 Clouds 11 1015 62 10000 1.5 10 12:37 11.01.2020
4513 Clouds 11 1015 62 10000 1.5 10 12:19 11.01.2020
4514 Clouds 12 1015 54 10000 4.1 340 11:45 11.01.2020
4515 Clouds 12 1015 54 10000 4.1 340 11:24 11.01.2020
4516 Clouds 12 1015 54 10000 4.1 310 10:50 11.01.2020
4517 Clouds 12 1015 54 10000 4.1 310 10:30 11.01.2020
4518 Clouds 12 1015 58 10000 1.5 300 09:44 11.01.2020
4519 Clouds 12 1015 58 10000 1.5 300 09:21 11.01.2020
4520 Clouds 12 1015 58 10000 1.5 300 09:21 11.01.2020
4521 Clouds 12 1015 58 10000 1.5 300 09:21 11.01.2020
4522 Clouds 12 1015 58 10000 1.5 300 09:21 11.01.2020
4523 Clouds 13 1014 47 10000 2.1 320 08:59 11.01.2020
4524 Clouds 13 1014 47 10000 2.1 320 08:40 11.01.2020
4525 Clouds 13 1014 47 10000 2.1 320 08:19 11.01.2020
4526 Clouds 13 1014 44 10000 2.6 340 07:43 11.01.2020
4527 Clouds 13 1014 44 10000 2.6 340 07:24 11.01.2020
4528 Clouds 13 1015 41 10000 3.6 340 06:43 11.01.2020
4529 Clouds 12 1016 54 10000 1.5 0 05:30 11.01.2020
4530 Clouds 11 1017 58 10000 1 0 04:42 11.01.2020
4531 Clouds 11 1017 58 10000 1 0 04:24 11.01.2020
4532 Clouds 9 1018 71 10000 4.1 140 02:48 11.01.2020
4533 Clouds 8 1018 76 10000 0.5 0 01:47 11.01.2020
4534 Clouds 8 1018 76 10000 0.5 0 01:28 11.01.2020
4535 Clouds 7 1018 81 10000 1.5 110 00:54 11.01.2020
4536 Clouds 7 1018 81 10000 1.5 110 00:29 11.01.2020
4537 Clouds 7 1018 87 10000 1.5 130 23:59 10.01.2020
4538 Clouds 7 1018 87 10000 1.5 130 23:39 10.01.2020
4539 Clouds 7 1018 87 10000 1.5 130 23:20 10.01.2020
4540 Clouds 7 1018 87 10000 0.5 0 22:41 10.01.2020
4541 Clouds 7 1018 87 10000 0.5 0 22:22 10.01.2020
4542 Clouds 7 1019 75 0 1.34 360 21:59 10.01.2020
4543 Clouds 7 1019 75 0 1.34 360 21:41 10.01.2020
4544 Clouds 7 1019 75 0 1.34 360 21:20 10.01.2020
4545 Clouds 7 1019 75 0 1.34 360 20:57 10.01.2020
4546 Clouds 7 1019 75 0 1.34 360 20:38 10.01.2020
4547 Clouds 7 1019 75 0 1.34 360 20:38 10.01.2020
4548 Clouds 7 1019 75 0 1.34 360 20:20 10.01.2020
4549 Clouds 7 1019 75 0 1.34 360 19:41 10.01.2020
4550 Clouds 7 1019 75 0 1.34 360 19:21 10.01.2020
4551 Clouds 7 1019 75 0 1.34 360 18:56 10.01.2020
4552 Clouds 7 1019 75 0 1.34 360 18:37 10.01.2020
4553 Clouds 7 1019 75 0 1.34 360 18:18 10.01.2020
4554 Clouds 7 1019 75 0 1.34 360 17:56 10.01.2020
4555 Clouds 7 1019 75 0 1.34 360 17:38 10.01.2020
4556 Clouds 7 1019 75 0 1.34 360 17:19 10.01.2020
4557 Clouds 7 1019 75 0 1.34 360 17:19 10.01.2020
4558 Clouds 7 1019 75 0 1.34 360 16:42 10.01.2020
4559 Clouds 6 1018 86 10000 2.6 330 16:21 10.01.2020
4560 Clouds 6 1018 86 10000 2.6 330 16:21 10.01.2020
4561 Clouds 6 1018 86 10000 2.6 330 15:57 10.01.2020
4562 Clouds 6 1018 86 10000 2.6 330 15:38 10.01.2020
4563 Clouds 6 1018 86 10000 2.6 330 15:19 10.01.2020
4564 Clouds 7 1018 75 10000 1 330 14:58 10.01.2020
4565 Clouds 7 1018 75 10000 1 330 14:40 10.01.2020
4566 Clouds 7 1018 75 10000 1 330 14:19 10.01.2020
4567 Clouds 7 1019 75 10000 1.5 360 13:56 10.01.2020
4568 Clouds 7 1019 75 10000 1.5 360 13:37 10.01.2020
4569 Clouds 7 1019 75 10000 1.5 360 13:18 10.01.2020
4570 Clouds 9 1019 70 10000 1.5 40 12:56 10.01.2020
4571 Clouds 9 1019 70 10000 1.5 40 12:38 10.01.2020
4572 Clouds 9 1019 70 10000 1.5 40 12:18 10.01.2020
4573 Clouds 9 1019 61 10000 3.1 20 11:42 10.01.2020
4574 Clouds 9 1019 61 10000 3.1 20 11:42 10.01.2020
4575 Clouds 9 1019 61 10000 3.1 20 11:22 10.01.2020
4576 Clear 11 1018 62 10000 4.6 350 10:59 10.01.2020
4577 Clear 11 1018 62 10000 4.6 350 10:38 10.01.2020
4578 Clear 11 1018 62 10000 4.6 350 10:19 10.01.2020
4579 Clear 12 1018 54 10000 3.1 310 09:46 10.01.2020
4580 Clear 12 1018 54 10000 3.1 310 09:26 10.01.2020
4581 Clear 13 1018 47 10000 3.6 310 08:58 10.01.2020
4582 Clear 13 1018 47 10000 3.6 310 08:38 10.01.2020
4583 Clear 13 1018 47 10000 3.6 310 08:20 10.01.2020
4584 Clear 13 1017 50 10000 4.6 310 07:41 10.01.2020
4585 Clear 13 1017 50 10000 4.6 310 07:21 10.01.2020
4586 Clear 13 1017 47 10000 5.1 330 06:41 10.01.2020
4587 Clear 13 1017 47 10000 5.1 330 06:23 10.01.2020
4588 Clear 13 1018 47 10000 6.2 320 05:25 10.01.2020
4589 Clouds 11 1021 50 10000 2.1 340 03:32 10.01.2020
4590 Clear 9 1021 57 10000 2.1 350 02:53 10.01.2020
4591 Clear 9 1021 57 10000 2.1 350 02:33 10.01.2020
4592 Clouds 7 1021 65 10000 0.5 0 01:32 10.01.2020
4593 Clouds 5 1020 81 10000 6.24 33 00:51 10.01.2020
4594 Clouds 5 1020 81 10000 6.24 33 00:33 10.01.2020
4595 Clouds 5 1020 75 10000 1.5 90 23:57 09.01.2020
4596 Clouds 5 1020 75 10000 1.5 90 23:57 09.01.2020
4597 Clouds 5 1020 75 10000 1.5 90 23:36 09.01.2020
4598 Clouds 5 1020 75 10000 1.5 90 23:18 09.01.2020
4599 Clouds 6 1020 75 10000 1 0 22:56 09.01.2020
4600 Clouds 6 1020 75 10000 1 0 22:37 09.01.2020
4601 Clouds 6 1020 75 10000 1 0 22:18 09.01.2020
4602 Clouds 10 1020 66 0 2.24 350 21:55 09.01.2020
4603 Clouds 10 1020 66 0 2.24 350 21:37 09.01.2020
4604 Clouds 10 1020 66 0 2.24 350 21:18 09.01.2020
4605 Clouds 10 1020 66 0 2.24 350 20:54 09.01.2020
4606 Clouds 10 1020 66 0 2.24 350 20:36 09.01.2020
4607 Clouds 10 1020 66 0 2.24 350 20:18 09.01.2020
4608 Clouds 10 1020 66 0 2.24 350 19:39 09.01.2020
4609 Clouds 10 1020 66 0 2.24 350 19:20 09.01.2020
4610 Clouds 10 1020 66 0 2.24 350 18:57 09.01.2020
4611 Clouds 10 1020 66 0 2.24 350 18:39 09.01.2020
4612 Clouds 10 1020 66 0 2.24 350 18:20 09.01.2020
4613 Clouds 10 1020 66 0 2.24 350 17:41 09.01.2020
4614 Clouds 10 1020 66 0 2.24 350 17:41 09.01.2020
4615 Clouds 10 1020 66 0 2.24 350 17:19 09.01.2020
4616 Clouds 10 1020 66 0 2.24 350 16:58 09.01.2020
4617 Clouds 10 1020 66 0 2.24 350 16:39 09.01.2020
4618 Clouds 9 1019 87 10000 2.1 320 16:20 09.01.2020
4619 Clouds 9 1019 87 10000 2.1 320 15:43 09.01.2020
4620 Clouds 9 1019 87 10000 2.1 320 15:22 09.01.2020
4621 Clouds 9 1020 76 10000 1.5 280 14:58 09.01.2020
4622 Clouds 9 1020 76 10000 1.5 280 14:39 09.01.2020
4623 Clouds 10 1020 76 10000 1.5 280 14:19 09.01.2020
4624 Clouds 10 1020 66 10000 2.6 350 13:55 09.01.2020
4625 Clouds 10 1020 66 10000 2.6 350 13:37 09.01.2020
4626 Clouds 10 1020 66 10000 2.6 350 13:18 09.01.2020
4627 Clouds 10 1020 66 10000 3.1 360 12:42 09.01.2020
4628 Clouds 10 1020 66 10000 3.1 360 12:24 09.01.2020
4629 Clouds 10 1020 61 10000 5.7 340 11:59 09.01.2020
4630 Clouds 10 1020 61 10000 5.7 340 11:41 09.01.2020
4631 Clouds 10 1020 61 10000 5.7 340 11:23 09.01.2020
4632 Clouds 10 1020 66 10000 5.1 320 10:57 09.01.2020
4633 Clouds 10 1020 66 10000 5.1 320 10:39 09.01.2020
4634 Clouds 10 1020 66 10000 5.1 320 10:20 09.01.2020
4635 Clouds 11 1019 62 10000 4.6 300 09:41 09.01.2020
4636 Clouds 11 1019 62 10000 4.6 300 09:41 09.01.2020
4637 Clouds 11 1019 62 10000 4.6 300 09:41 09.01.2020
4638 Clouds 11 1019 62 10000 4.6 300 09:23 09.01.2020
4639 Clouds 11 1019 66 10000 4.1 300 08:57 09.01.2020
4640 Clouds 11 1019 66 10000 4.1 300 08:38 09.01.2020
4641 Clouds 12 1019 66 10000 4.1 300 08:19 09.01.2020
4642 Clouds 12 1019 62 10000 5.1 320 07:45 09.01.2020
4643 Clouds 12 1019 62 10000 5.1 320 07:27 09.01.2020
4644 Clouds 12 1019 58 10000 4.6 320 06:39 09.01.2020
4645 Clouds 12 1019 58 10000 4.6 320 06:21 09.01.2020
4646 Clouds 12 1019 62 10000 3.1 340 05:50 09.01.2020
4647 Clouds 11 1020 62 10000 3.6 330 04:46 09.01.2020
4648 Clouds 10 1021 66 10000 4.1 330 03:55 09.01.2020
4649 Clouds 10 1021 66 10000 4.1 330 03:26 09.01.2020
4650 Clouds 10 1021 66 10000 4.6 330 02:33 09.01.2020
4651 Clouds 10 1020 66 10000 3.6 350 01:41 09.01.2020
4652 Clouds 10 1020 66 10000 4.6 340 00:44 09.01.2020
4653 Clouds 10 1020 66 10000 4.6 340 00:23 09.01.2020
4654 Clouds 10 1020 66 10000 3.6 340 23:58 08.01.2020
4655 Clouds 10 1020 66 10000 3.6 340 23:38 08.01.2020
4656 Clouds 10 1020 66 10000 3.6 340 23:19 08.01.2020
4657 Clouds 10 1020 66 10000 5.1 320 22:40 08.01.2020
4658 Clouds 10 1019 76 10000 3.6 280 22:21 08.01.2020
4659 Clouds 10 1019 61 0 4.47 320 21:58 08.01.2020
4660 Clouds 10 1019 61 0 4.47 320 21:39 08.01.2020
4661 Clouds 10 1019 61 0 4.47 320 21:20 08.01.2020
4662 Clouds 10 1019 61 0 4.47 320 20:58 08.01.2020
4663 Clouds 10 1019 61 0 4.47 320 20:40 08.01.2020
4664 Clouds 10 1019 61 0 4.47 320 20:20 08.01.2020
4665 Clouds 10 1019 61 0 4.47 320 20:20 08.01.2020
4666 Clouds 10 1019 61 0 4.47 320 19:57 08.01.2020
4667 Clouds 10 1019 61 0 4.47 320 19:37 08.01.2020
4668 Clouds 10 1019 61 0 4.47 320 19:19 08.01.2020
4669 Clouds 10 1019 61 0 4.47 320 18:56 08.01.2020
4670 Clouds 10 1019 61 0 4.47 320 18:37 08.01.2020
4671 Clouds 10 1019 61 0 4.47 320 18:18 08.01.2020
4672 Clouds 10 1019 61 0 4.47 320 17:55 08.01.2020
4673 Clouds 10 1019 61 0 4.47 320 17:36 08.01.2020
4674 Clouds 10 1019 61 0 4.47 320 17:18 08.01.2020
4675 Clouds 10 1019 61 0 4.47 320 17:18 08.01.2020
4676 Clouds 10 1019 61 0 4.47 320 16:54 08.01.2020
4677 Clouds 10 1019 61 0 4.47 320 16:36 08.01.2020
4678 Clouds 9 1019 76 10000 6.2 270 16:18 08.01.2020
4679 Clouds 9 1019 76 10000 6.2 270 15:40 08.01.2020
4680 Clouds 10 1019 76 10000 6.2 270 15:20 08.01.2020
4681 Clouds 9 1019 70 10000 5.7 260 14:56 08.01.2020
4682 Clouds 9 1019 70 10000 5.7 260 14:38 08.01.2020
4683 Clouds 10 1019 70 10000 5.7 260 14:19 08.01.2020
4684 Clouds 10 1019 61 10000 4.6 320 13:40 08.01.2020
4685 Clouds 10 1019 61 10000 4.6 320 13:19 08.01.2020
4686 Clouds 10 1019 61 10000 6.2 310 12:42 08.01.2020
4687 Clouds 10 1019 61 10000 6.2 310 12:19 08.01.2020
4688 Clouds 10 1018 61 10000 7.7 310 11:55 08.01.2020
4689 Clouds 10 1018 61 10000 7.7 310 11:37 08.01.2020
4690 Clouds 10 1018 61 10000 7.7 310 11:18 08.01.2020
4691 Clouds 10 1018 61 10000 4.6 300 10:54 08.01.2020
4692 Clouds 10 1018 61 10000 4.6 300 10:36 08.01.2020
4693 Clouds 10 1018 61 10000 4.6 300 10:18 08.01.2020
4694 Clouds 10 1017 66 10000 8.2 310 09:41 08.01.2020
4695 Clouds 10 1017 66 10000 8.2 310 09:19 08.01.2020
4696 Clouds 11 1017 62 10000 9.3 300 08:56 08.01.2020
4697 Clouds 11 1017 62 10000 9.3 300 08:37 08.01.2020
4698 Clouds 11 1017 62 10000 9.3 300 08:18 08.01.2020
4699 Clouds 12 1016 66 10000 8.7 300 07:47 08.01.2020
4700 Clouds 12 1016 66 10000 8.7 300 07:29 08.01.2020
4701 Clouds 13 1016 54 10000 8.7 300 06:44 08.01.2020
4702 Clouds 13 1015 71 10000 6.2 290 05:59 08.01.2020
4703 Clouds 13 1015 71 10000 6.2 290 05:38 08.01.2020
4704 Rain 12 1015 76 10000 5.7 280 04:54 08.01.2020
4705 Rain 13 1016 66 10000 6.7 300 03:33 08.01.2020
4706 Rain 13 1015 66 10000 6.2 300 02:44 08.01.2020
4707 Rain 13 1015 66 10000 6.2 300 02:19 08.01.2020
4708 Rain 12 1014 76 10000 7.2 300 01:40 08.01.2020
4709 Clouds 13 1013 71 10000 7.7 260 00:54 08.01.2020
4710 Rain 13 1013 71 10000 6.7 300 00:26 08.01.2020
4711 Rain 13 1012 76 10000 8.2 280 23:47 07.01.2020
4712 Rain 13 1012 76 10000 8.2 280 23:22 07.01.2020
4713 Rain 14 1011 67 10000 6.2 270 22:58 07.01.2020
4714 Rain 14 1011 67 10000 6.2 270 22:39 07.01.2020
4715 Clouds 13 1010 82 10000 8.2 270 22:19 07.01.2020
4716 Rain 15 1012 70 0 15.5 271 21:54 07.01.2020
4717 Rain 15 1012 70 0 15.5 271 21:36 07.01.2020
4718 Rain 15 1012 70 0 15.5 271 21:36 07.01.2020
4719 Rain 15 1012 70 0 15.5 271 21:18 07.01.2020
4720 Rain 15 1012 70 0 15.5 271 20:41 07.01.2020
4721 Rain 18 1011 88 0 10.28 180 20:23 07.01.2020
4722 Rain 18 1011 88 0 10.28 180 19:59 07.01.2020
4723 Rain 18 1011 88 0 10.28 180 19:38 07.01.2020
4724 Rain 18 1011 88 0 10.28 180 19:19 07.01.2020
4725 Rain 18 1011 88 0 10.28 180 18:57 07.01.2020
4726 Rain 18 1011 88 0 10.28 180 18:38 07.01.2020
4727 Rain 18 1011 88 0 10.28 180 18:18 07.01.2020
4728 Rain 18 1011 88 0 10.28 180 17:57 07.01.2020
4729 Rain 18 1011 88 0 10.28 180 17:37 07.01.2020
4730 Rain 18 1011 88 0 10.28 180 17:19 07.01.2020
4731 Rain 18 1011 88 0 10.28 180 16:55 07.01.2020
4732 Rain 18 1011 88 0 10.28 180 16:37 07.01.2020
4733 Rain 17 1009 87 10000 9.8 140 16:18 07.01.2020
4734 Rain 17 1009 87 10000 9.8 140 15:43 07.01.2020
4735 Rain 17 1009 87 10000 9.8 140 15:24 07.01.2020
4736 Rain 17 1011 88 6000 10.3 180 14:58 07.01.2020
4737 Rain 17 1011 88 6000 10.3 180 14:40 07.01.2020
4738 Rain 17 1011 88 6000 10.3 180 14:21 07.01.2020
4739 Clouds 18 1012 77 10000 7.7 180 13:46 07.01.2020
4740 Rain 18 1012 77 10000 8.2 170 13:21 07.01.2020
4741 Clouds 17 1013 77 10000 9.3 170 12:56 07.01.2020
4742 Clouds 17 1013 77 10000 9.3 170 12:38 07.01.2020
4743 Clouds 17 1013 77 10000 8.7 160 12:19 07.01.2020
4744 Clouds 17 1014 77 10000 8.7 170 11:41 07.01.2020
4745 Clouds 17 1014 77 10000 8.7 170 11:23 07.01.2020
4746 Clouds 17 1015 72 10000 7.7 170 10:57 07.01.2020
4747 Clouds 17 1015 72 10000 7.7 170 10:39 07.01.2020
4748 Clouds 17 1015 72 10000 7.7 170 10:39 07.01.2020
4749 Clouds 17 1015 72 10000 7.7 170 10:39 07.01.2020
4750 Clouds 17 1015 72 10000 7.7 170 10:39 07.01.2020
4751 Clouds 17 1015 77 10000 7.7 170 10:21 07.01.2020
4752 Clouds 18 1015 72 10000 7.2 170 09:39 07.01.2020
4753 Clouds 18 1015 72 10000 7.2 170 09:21 07.01.2020
4754 Clouds 18 1015 72 10000 5.7 180 08:59 07.01.2020
4755 Clouds 18 1015 72 10000 5.7 180 08:41 07.01.2020
4756 Clouds 18 1015 72 10000 5.7 180 08:18 07.01.2020
4757 Clouds 17 1016 82 10000 3.6 160 07:47 07.01.2020
4758 Clouds 17 1016 82 10000 3.6 160 07:20 07.01.2020
4759 Rain 16 1016 82 10000 4.1 160 06:49 07.01.2020
4760 Rain 16 1016 82 10000 4.1 160 06:29 07.01.2020
4761 Rain 16 1017 82 10000 3.1 170 05:41 07.01.2020
4762 Rain 15 1019 93 8000 5.1 130 03:47 07.01.2020
4763 Rain 14 1019 93 8000 5.1 130 03:25 07.01.2020
4764 Rain 14 1020 93 10000 6.2 120 02:19 07.01.2020
4765 Rain 14 1020 93 6000 4.6 120 01:40 07.01.2020
4766 Rain 13 1019 93 10000 5.1 130 00:58 07.01.2020
4767 Rain 13 1019 93 10000 5.1 130 00:21 07.01.2020
4768 Rain 13 1019 93 10000 5.1 130 00:21 07.01.2020
4769 Rain 13 1019 93 10000 5.1 130 00:21 07.01.2020
4770 Rain 13 1020 87 10000 3.6 120 23:57 06.01.2020
4771 Rain 13 1020 87 10000 3.6 120 23:37 06.01.2020
4772 Rain 13 1020 87 10000 3.6 120 23:19 06.01.2020
4773 Rain 13 1020 87 9000 4.1 110 22:44 06.01.2020
4774 Rain 13 1020 87 9000 4.1 110 22:44 06.01.2020
4775 Clouds 12 1020 87 10000 1 60 22:25 06.01.2020
4776 Clouds 12 1023 71 0 7.15 150 21:58 06.01.2020
4777 Clouds 12 1023 71 0 7.15 150 21:39 06.01.2020
4778 Clouds 12 1023 71 0 7.15 150 21:20 06.01.2020
4779 Clouds 12 1023 71 0 7.15 150 21:20 06.01.2020
4780 Clouds 12 1023 71 0 7.15 150 20:57 06.01.2020
4781 Clouds 12 1023 71 0 7.15 150 20:39 06.01.2020
4782 Clouds 12 1023 71 0 7.15 150 20:20 06.01.2020
4783 Clouds 12 1023 71 0 7.15 150 19:57 06.01.2020
4784 Clouds 12 1023 71 0 7.15 150 19:38 06.01.2020
4785 Clouds 12 1023 71 0 7.15 150 19:20 06.01.2020
4786 Clouds 12 1023 71 0 7.15 150 18:48 06.01.2020
4787 Clouds 12 1023 71 0 7.15 150 18:48 06.01.2020
4788 Clouds 12 1023 71 0 7.15 150 18:23 06.01.2020
4789 Clouds 12 1023 71 0 7.15 150 17:59 06.01.2020
4790 Clouds 12 1023 71 0 7.15 150 17:38 06.01.2020
4791 Clouds 12 1023 71 0 7.15 150 17:18 06.01.2020
4792 Clouds 12 1023 71 0 7.15 150 16:46 06.01.2020
4793 Clouds 12 1023 71 0 7.15 150 16:46 06.01.2020
4794 Clouds 10 1023 87 8000 1.5 50 16:27 06.01.2020
4795 Clouds 11 1023 87 8000 1.5 50 15:59 06.01.2020
4796 Clouds 10 1023 87 8000 1.5 50 15:39 06.01.2020
4797 Clouds 11 1023 87 8000 1.5 50 15:20 06.01.2020
4798 Clouds 11 1023 87 8000 1.5 40 14:58 06.01.2020
4799 Clouds 11 1023 87 8000 1.5 40 14:40 06.01.2020
4800 Clouds 11 1023 87 8000 1.5 40 14:20 06.01.2020
4801 Clouds 11 1023 71 10000 7.2 150 13:55 06.01.2020
4802 Clouds 11 1023 71 10000 7.2 150 13:55 06.01.2020
4803 Clouds 11 1023 71 10000 7.2 150 13:37 06.01.2020
4804 Clouds 11 1023 71 10000 7.2 150 13:19 06.01.2020
4805 Clouds 11 1023 71 10000 6.7 150 12:42 06.01.2020
4806 Clouds 11 1023 71 10000 6.7 150 12:20 06.01.2020
4807 Clouds 12 1024 66 10000 6.7 150 11:57 06.01.2020
4808 Clouds 12 1024 66 10000 6.7 150 11:38 06.01.2020
4809 Clouds 12 1024 66 10000 6.7 150 11:20 06.01.2020
4810 Clouds 11 1024 66 10000 6.7 150 10:45 06.01.2020
4811 Clouds 11 1024 66 10000 6.7 150 10:45 06.01.2020
4812 Clouds 11 1024 66 10000 6.7 150 10:27 06.01.2020
4813 Rain 11 1024 71 10000 6.2 150 09:59 06.01.2020
4814 Rain 11 1024 71 10000 6.2 150 09:37 06.01.2020
4815 Rain 11 1024 71 10000 6.2 150 09:19 06.01.2020
4816 Clouds 11 1024 71 10000 5.7 150 08:42 06.01.2020
4817 Clouds 11 1024 71 10000 5.7 150 08:23 06.01.2020
4818 Clouds 12 1024 66 10000 5.1 140 07:48 06.01.2020
4819 Clouds 12 1024 66 10000 5.1 140 07:23 06.01.2020
4820 Clouds 11 1024 66 10000 4.6 140 06:44 06.01.2020
4821 Clouds 11 1024 62 10000 6.7 150 05:52 06.01.2020
4822 Clouds 11 1024 62 10000 6.7 150 05:33 06.01.2020
4823 Clouds 11 1026 66 10000 6.2 150 04:26 06.01.2020
4824 Clouds 10 1028 71 10000 3.6 140 03:53 06.01.2020
4825 Clouds 9 1028 71 10000 4.6 140 02:32 06.01.2020
4826 Clouds 8 1028 76 10000 5.1 150 01:56 06.01.2020
4827 Clouds 8 1028 76 10000 5.1 150 01:32 06.01.2020
4828 Clouds 7 1028 75 10000 3.6 140 00:57 06.01.2020
4829 Clouds 7 1028 75 10000 3.6 140 00:39 06.01.2020
4830 Clouds 7 1028 75 10000 3.6 140 00:18 06.01.2020
4831 Clouds 7 1028 70 10000 3.1 140 23:40 05.01.2020
4832 Clouds 7 1028 70 10000 3.1 140 23:21 05.01.2020
4833 Clouds 7 1027 75 10000 3.1 140 22:54 05.01.2020
4834 Clouds 7 1027 75 10000 3.1 140 22:36 05.01.2020
4835 Clear 6 1028 80 10000 0.5 0 22:18 05.01.2020
4836 Clear 8 1029 81 0 2.68 150 21:41 05.01.2020
4837 Clear 8 1029 81 0 2.68 150 21:20 05.01.2020
4838 Clear 8 1029 81 0 2.68 150 20:58 05.01.2020
4839 Clear 8 1029 81 0 2.68 150 20:39 05.01.2020
4840 Clouds 8 1029 81 0 2.68 150 20:19 05.01.2020
4841 Clouds 8 1029 81 0 2.68 150 19:59 05.01.2020
4842 Clouds 8 1029 81 0 2.68 150 19:39 05.01.2020
4843 Clouds 8 1029 81 0 2.68 150 19:20 05.01.2020
4844 Clouds 8 1029 81 0 2.68 150 18:56 05.01.2020
4845 Clouds 8 1029 81 0 2.68 150 18:38 05.01.2020
4846 Clouds 8 1029 81 0 2.68 150 18:19 05.01.2020
4847 Clouds 8 1029 81 0 2.68 150 17:58 05.01.2020
4848 Clouds 8 1029 81 0 2.68 150 17:39 05.01.2020
4849 Clear 8 1029 81 0 2.68 150 17:20 05.01.2020
4850 Clear 8 1029 81 0 2.68 150 16:57 05.01.2020
4851 Clear 8 1029 81 0 2.68 150 16:38 05.01.2020
4852 Clear 5 1029 86 10000 2.1 340 16:19 05.01.2020
4853 Clear 5 1029 86 10000 2.1 340 15:39 05.01.2020
4854 Clear 5 1029 86 10000 2.1 340 15:39 05.01.2020
4855 Clear 5 1029 86 10000 2.1 340 15:20 05.01.2020
4856 Clear 7 1029 75 10000 3.1 20 14:56 05.01.2020
4857 Clear 7 1029 75 10000 3.1 20 14:38 05.01.2020
4858 Clouds 7 1029 75 10000 3.1 20 14:20 05.01.2020
4859 Clouds 7 1029 81 10000 3.1 150 13:56 05.01.2020
4860 Clouds 7 1029 81 10000 3.1 150 13:38 05.01.2020
4861 Clouds 7 1029 81 10000 3.1 150 13:19 05.01.2020
4862 Clouds 7 1029 81 10000 3.1 150 13:19 05.01.2020
4863 Clear 8 1029 75 10000 0.5 0 12:55 05.01.2020
4864 Clear 8 1029 75 10000 0.5 0 12:55 05.01.2020
4865 Clear 8 1029 75 10000 0.5 0 12:37 05.01.2020
4866 Clear 8 1029 75 10000 0.5 0 12:18 05.01.2020
4867 Clear 8 1029 75 10000 0.5 0 12:18 05.01.2020
4868 Clear 9 1028 70 10000 0.5 0 11:43 05.01.2020
4869 Clear 9 1028 70 10000 0.5 0 11:20 05.01.2020
4870 Clouds 11 1028 62 10000 1 0 10:58 05.01.2020
4871 Clouds 11 1028 62 10000 1 0 10:39 05.01.2020
4872 Clouds 11 1028 62 10000 1 0 10:39 05.01.2020
4873 Clouds 11 1028 62 10000 1 0 10:39 05.01.2020
4874 Clouds 11 1028 62 10000 1 0 10:19 05.01.2020
4875 Clouds 12 1027 54 10000 2.1 170 09:42 05.01.2020
4876 Clouds 12 1027 54 10000 2.1 170 09:22 05.01.2020
4877 Clouds 13 1027 50 10000 3.6 170 08:50 05.01.2020
4878 Clouds 13 1027 50 10000 3.6 170 08:30 05.01.2020
4879 Clouds 14 1026 50 10000 2.6 0 07:56 05.01.2020
4880 Clouds 14 1026 50 10000 2.6 0 07:37 05.01.2020
4881 Clouds 14 1026 50 10000 2.6 0 07:19 05.01.2020
4882 Clouds 13 1026 54 10000 3.1 210 06:20 05.01.2020
4883 Clouds 12 1026 54 10000 2.6 260 05:33 05.01.2020
4884 Clouds 12 1026 54 10000 2.6 260 05:33 05.01.2020
4885 Clouds 11 1027 58 10000 2.1 240 04:44 05.01.2020
4886 Clouds 11 1027 58 10000 2.1 240 04:18 05.01.2020
4887 Clouds 9 1028 71 10000 1.5 270 02:46 05.01.2020
4888 Clouds 8 1028 71 10000 1.5 270 02:24 05.01.2020
4889 Clouds 6 1028 75 10000 1 0 01:48 05.01.2020
4890 Clouds 6 1028 75 10000 1 0 01:19 05.01.2020
4891 Clouds 4 1027 80 10000 1 0 00:41 05.01.2020
4892 Clouds 4 1027 80 10000 1 0 00:23 05.01.2020
4893 Clouds 2 1027 86 10000 1.5 100 23:59 04.01.2020
4894 Clouds 2 1027 86 10000 1.5 100 23:59 04.01.2020
4895 Clouds 3 1027 86 10000 1.5 100 23:39 04.01.2020
4896 Clouds 3 1027 86 10000 1.5 100 23:19 04.01.2020
4897 Clear 4 1027 80 10000 1 0 22:40 04.01.2020
4898 Clear 4 1027 80 10000 1 0 22:40 04.01.2020
4899 Clouds 3 1026 100 10000 2.1 50 22:21 04.01.2020
4900 Clear 7 1024 75 0 5.51 29 21:57 04.01.2020
4901 Clear 7 1024 75 0 5.51 29 21:57 04.01.2020
4902 Clear 7 1024 75 0 5.51 29 21:39 04.01.2020
4903 Clear 7 1024 75 0 5.51 29 21:20 04.01.2020
4904 Clear 7 1024 75 0 5.51 29 21:20 04.01.2020
4905 Clear 7 1024 75 0 5.51 29 20:58 04.01.2020
4906 Clear 7 1024 75 0 5.51 29 20:39 04.01.2020
4907 Clear 7 1024 75 0 5.51 29 20:39 04.01.2020
4908 Clear 7 1024 75 0 5.48 18 20:21 04.01.2020
4909 Clear 7 1024 75 0 5.48 18 19:56 04.01.2020
4910 Clear 7 1024 75 0 5.48 18 19:37 04.01.2020
4911 Clear 7 1024 75 0 5.48 18 19:18 04.01.2020
4912 Clear 7 1024 75 0 5.48 18 18:54 04.01.2020
4913 Clear 7 1024 75 0 5.48 18 18:36 04.01.2020
4914 Clear 7 1024 75 0 5.48 18 18:18 04.01.2020
4915 Clear 7 1024 75 0 5.48 18 17:41 04.01.2020
4916 Clear 7 1024 75 0 5.48 18 17:22 04.01.2020
4917 Clear 7 1024 75 0 7.8 357 16:55 04.01.2020
4918 Clear 7 1024 75 0 7.8 357 16:55 04.01.2020
4919 Clear 7 1024 75 0 7.8 357 16:36 04.01.2020
4920 Clear 7 1024 75 0 7.8 357 16:36 04.01.2020
4921 Clear 7 1024 70 10000 1.5 280 16:18 04.01.2020
4922 Clear 7 1024 70 10000 1.5 280 15:42 04.01.2020
4923 Clear 7 1024 70 10000 1.5 280 15:20 04.01.2020
4924 Clear 5 1024 80 10000 2.6 280 14:59 04.01.2020
4925 Clear 5 1024 80 10000 2.6 280 14:59 04.01.2020
4926 Clear 6 1024 80 10000 2.6 280 14:40 04.01.2020
4927 Clear 6 1024 80 10000 2.6 280 14:20 04.01.2020
4928 Clouds 7 1024 75 10000 1 0 13:58 04.01.2020
4929 Clouds 7 1024 75 10000 1 0 13:37 04.01.2020
4930 Clouds 7 1024 75 10000 1 0 13:37 04.01.2020
4931 Clouds 7 1024 75 10000 1 0 13:19 04.01.2020
4932 Clouds 8 1023 66 10000 3.1 360 12:56 04.01.2020
4933 Clouds 8 1023 66 10000 3.1 360 12:38 04.01.2020
4934 Clouds 8 1023 66 10000 3.1 360 12:18 04.01.2020
4935 Clouds 8 1023 61 10000 6.2 320 11:55 04.01.2020
4936 Clouds 8 1023 61 10000 6.2 320 11:36 04.01.2020
4937 Clouds 8 1023 61 10000 6.2 320 11:18 04.01.2020
4938 Clouds 10 1022 53 10000 5.7 310 10:40 04.01.2020
4939 Clouds 10 1022 53 10000 5.7 310 10:21 04.01.2020
4940 Clouds 11 1021 53 10000 6.2 300 09:44 04.01.2020
4941 Clouds 11 1021 53 10000 6.2 300 09:25 04.01.2020
4942 Clouds 13 1021 50 10000 6.2 310 08:49 04.01.2020
4943 Clouds 13 1021 50 10000 6.2 310 08:29 04.01.2020
4944 Clouds 13 1021 54 10000 6.7 310 07:55 04.01.2020
4945 Clouds 13 1021 54 10000 6.7 310 07:55 04.01.2020
4946 Clouds 13 1021 54 10000 6.7 310 07:37 04.01.2020
4947 Clouds 13 1020 47 10000 6.7 330 06:43 04.01.2020
4948 Clouds 11 1021 50 10000 3.6 340 05:57 04.01.2020
4949 Clouds 10 1022 46 10000 2.1 340 04:50 04.01.2020
4950 Clouds 10 1022 46 10000 2.1 340 04:29 04.01.2020
4951 Clouds 9 1023 71 10000 0.5 0 03:20 04.01.2020
4952 Clouds 6 1023 75 10000 0.5 0 02:38 04.01.2020
4953 Clouds 7 1023 75 10000 0.5 0 02:18 04.01.2020
4954 Clear 5 1023 81 10000 1.5 100 01:32 04.01.2020
4955 Clear 5 1023 81 10000 1.5 100 01:32 04.01.2020
4956 Clouds 2 1022 93 10000 2.6 140 00:58 04.01.2020
4957 Clouds 3 1022 93 10000 2.6 140 00:29 04.01.2020
4958 Clear 3 1022 93 10000 2.1 130 23:53 03.01.2020
4959 Clear 3 1022 93 10000 2.1 130 23:28 03.01.2020
4960 Clear 4 1022 86 10000 1.5 120 22:55 03.01.2020
4961 Clear 4 1022 86 10000 1.5 120 22:37 03.01.2020
4962 Clear 3 1022 53 7000 2.1 30 22:18 03.01.2020
4963 Clear 8 1023 75 0 1.34 10 21:56 03.01.2020
4964 Clear 8 1023 75 0 1.34 10 21:37 03.01.2020
4965 Clear 8 1023 75 0 1.34 10 21:18 03.01.2020
4966 Clear 8 1023 75 0 1.34 10 20:54 03.01.2020
4967 Clear 8 1023 75 0 1.34 10 20:36 03.01.2020
4968 Clear 8 1023 75 0 1.34 10 20:18 03.01.2020
4969 Clear 8 1023 75 0 1.34 10 19:41 03.01.2020
4970 Clear 11 1022 55 0 3.87 3 19:23 03.01.2020
4971 Clear 8 1024 75 0 1.34 10 18:47 03.01.2020
4972 Clear 8 1024 75 0 1.34 10 18:27 03.01.2020
4973 Clear 8 1024 75 0 1.34 10 17:58 03.01.2020
4974 Clear 8 1024 75 0 1.34 10 17:40 03.01.2020
4975 Clear 8 1023 75 0 1.34 10 17:21 03.01.2020
4976 Clear 8 1023 75 0 1.34 10 17:21 03.01.2020
4977 Clear 8 1023 75 0 1.34 10 16:44 03.01.2020
4978 Clear 7 1023 87 10000 1.5 220 16:25 03.01.2020
4979 Clear 7 1023 87 10000 1.5 220 15:59 03.01.2020
4980 Clear 6 1023 87 10000 1.5 220 15:41 03.01.2020
4981 Clear 7 1023 87 10000 1.5 220 15:19 03.01.2020
4982 Clear 7 1023 86 10000 0.5 0 14:40 03.01.2020
4983 Clouds 7 1023 86 10000 0.5 0 14:20 03.01.2020
4984 Clouds 8 1024 75 10000 1.5 10 13:57 03.01.2020
4985 Clouds 8 1024 75 10000 1.5 10 13:39 03.01.2020
4986 Clouds 8 1024 75 10000 1.5 10 13:20 03.01.2020
4987 Clouds 9 1023 70 10000 2.6 360 12:41 03.01.2020
4988 Clouds 9 1023 70 10000 2.6 360 12:22 03.01.2020
4989 Clouds 9 1023 71 10000 3.6 310 11:53 03.01.2020
4990 Clouds 9 1023 71 10000 3.6 310 11:34 03.01.2020
4991 Clouds 10 1023 66 10000 4.6 300 10:58 03.01.2020
4992 Clouds 10 1023 66 10000 4.6 300 10:39 03.01.2020
4993 Clouds 10 1023 66 10000 4.6 300 10:21 03.01.2020
4994 Clouds 11 1023 62 10000 4.1 300 09:54 03.01.2020
4995 Clouds 11 1023 62 10000 4.1 300 09:36 03.01.2020
4996 Clouds 11 1023 62 10000 4.1 300 09:18 03.01.2020
4997 Clouds 12 1022 58 10000 5.7 320 08:44 03.01.2020
4998 Clouds 12 1022 58 10000 5.7 320 08:21 03.01.2020
4999 Clouds 13 1023 54 10000 5.7 310 07:43 03.01.2020
5000 Clouds 12 1023 54 10000 5.7 310 07:19 03.01.2020
5001 Clouds 12 1023 54 10000 5.7 310 07:19 03.01.2020
5002 Clouds 12 1023 54 10000 5.7 320 06:57 03.01.2020
5003 Clouds 12 1023 54 10000 5.7 320 06:39 03.01.2020
5004 Clouds 12 1023 54 10000 5.7 320 06:20 03.01.2020
5005 Clouds 10 1024 66 10000 1 0 04:43 03.01.2020
5006 Clouds 9 1025 76 10000 1 0 03:37 03.01.2020
5007 Clouds 8 1026 87 10000 2.1 150 02:50 03.01.2020
5008 Clouds 6 1025 93 10000 1.5 120 01:47 03.01.2020
5009 Clouds 6 1025 87 10000 1.5 140 00:57 03.01.2020
5010 Clouds 6 1025 87 10000 1.5 140 00:33 03.01.2020
5011 Clouds 5 1025 93 10000 2.1 150 23:58 02.01.2020
5012 Clouds 5 1025 93 10000 2.1 150 23:39 02.01.2020
5013 Clouds 5 1025 93 10000 2.1 150 23:19 02.01.2020
5014 Clouds 4 1025 93 10000 1.5 130 22:58 02.01.2020
5015 Clouds 4 1025 93 10000 1.5 130 22:39 02.01.2020
5016 Fog 4 1025 93 6000 2.6 340 22:19 02.01.2020
5017 Clear 10 1026 71 0 1.79 30 21:55 02.01.2020
5018 Clear 10 1026 71 0 1.79 30 21:36 02.01.2020
5019 Clear 10 1026 71 0 1.79 30 21:18 02.01.2020
5020 Clear 10 1026 71 0 1.79 30 20:40 02.01.2020
5021 Clear 10 1026 71 0 1.79 30 20:21 02.01.2020
5022 Clear 10 1026 71 0 1.79 30 19:56 02.01.2020
5023 Clear 10 1026 71 0 1.79 30 19:38 02.01.2020
5024 Clear 10 1026 71 0 1.79 30 19:19 02.01.2020
5025 Clear 10 1026 71 0 1.79 30 18:59 02.01.2020
5026 Clear 10 1026 71 0 1.79 30 18:40 02.01.2020
5027 Clear 10 1026 71 0 1.79 30 18:22 02.01.2020
5028 Clear 10 1026 71 0 1.79 30 17:57 02.01.2020
5029 Clear 10 1026 71 0 1.79 30 17:38 02.01.2020
5030 Clear 10 1026 71 0 1.79 30 17:19 02.01.2020
5031 Clear 10 1026 71 0 1.79 30 16:57 02.01.2020
5032 Clear 10 1026 71 0 1.79 30 16:38 02.01.2020
5033 Clear 10 1026 71 0 1.79 30 16:38 02.01.2020
5034 Clouds 7 1027 86 10000 2.1 220 16:20 02.01.2020
5035 Clouds 7 1027 86 10000 2.1 220 15:56 02.01.2020
5036 Clouds 7 1027 86 10000 2.1 220 15:56 02.01.2020
5037 Clouds 7 1027 86 10000 2.1 220 15:37 02.01.2020
5038 Clouds 8 1027 86 10000 2.1 220 15:19 02.01.2020
5039 Clouds 8 1027 81 10000 0.5 0 14:55 02.01.2020
5040 Clouds 8 1027 81 10000 0.5 0 14:36 02.01.2020
5041 Clouds 9 1027 81 10000 0.5 0 14:18 02.01.2020
5042 Clouds 9 1026 71 10000 2.1 30 13:47 02.01.2020
5043 Clouds 9 1026 71 10000 2.1 30 13:29 02.01.2020
5044 Clouds 9 1027 76 10000 2.6 310 12:44 02.01.2020
5045 Clouds 9 1027 71 10000 2.6 310 12:25 02.01.2020
5046 Clouds 10 1027 71 10000 2.6 310 11:43 02.01.2020
5047 Clouds 10 1027 71 10000 2.6 310 11:25 02.01.2020
5048 Clouds 10 1026 66 10000 2.6 300 10:57 02.01.2020
5049 Clouds 10 1026 66 10000 2.6 300 10:37 02.01.2020
5050 Clouds 10 1026 66 10000 2.6 300 10:18 02.01.2020
5051 Clouds 10 1026 66 10000 3.6 300 09:41 02.01.2020
5052 Clouds 10 1026 66 10000 3.6 300 09:22 02.01.2020
5053 Clouds 11 1026 66 10000 2.6 290 08:44 02.01.2020
5054 Clouds 11 1026 66 10000 2.6 290 08:25 02.01.2020
5055 Clouds 11 1026 58 10000 2.6 350 07:48 02.01.2020
5056 Clouds 11 1026 58 10000 2.6 350 07:28 02.01.2020
5057 Clouds 11 1026 54 10000 2.6 350 06:43 02.01.2020
5058 Clouds 10 1026 57 10000 1 0 05:58 02.01.2020
5059 Clouds 9 1027 61 10000 1.5 100 04:38 02.01.2020
5060 Clouds 9 1027 61 10000 1.5 100 04:19 02.01.2020
5061 Clouds 7 1029 81 10000 2.6 130 02:25 02.01.2020
5062 Clouds 6 1029 81 10000 3.1 130 01:57 02.01.2020
5063 Clouds 6 1029 81 10000 3.1 130 01:30 02.01.2020
5064 Clouds 5 1028 75 10000 4.6 140 00:52 02.01.2020
5065 Clouds 5 1028 75 10000 4.6 140 00:28 02.01.2020
5066 Clouds 4 1028 81 10000 2.6 120 23:47 01.01.2020
5067 Clouds 4 1028 81 10000 2.6 120 23:24 01.01.2020
5068 Clouds 5 1028 75 10000 3.6 140 22:39 01.01.2020
5069 Clouds 5 1028 93 10000 1.5 60 22:21 01.01.2020
5070 Clear 7 1029 70 0 1.79 50 21:59 01.01.2020
5071 Clear 7 1029 70 0 1.79 50 21:41 01.01.2020
5072 Clear 7 1029 70 0 1.79 50 21:21 01.01.2020
5073 Clear 7 1029 70 0 1.79 50 20:58 01.01.2020
5074 Clear 7 1029 70 0 1.79 50 20:39 01.01.2020
5075 Clear 7 1029 70 0 1.79 50 20:20 01.01.2020
5076 Clear 7 1029 70 0 1.79 50 19:57 01.01.2020
5077 Clear 7 1029 70 0 1.79 50 19:38 01.01.2020
5078 Clear 7 1029 70 0 1.79 50 19:20 01.01.2020
5079 Clear 7 1029 70 0 1.79 50 18:57 01.01.2020
5080 Clear 7 1029 70 0 1.79 50 18:38 01.01.2020
5081 Clear 7 1029 70 0 1.79 50 18:20 01.01.2020
5082 Clear 7 1029 70 0 1.79 50 17:58 01.01.2020
5083 Clear 7 1029 70 0 1.79 50 17:39 01.01.2020
5084 Clear 7 1029 70 0 1.79 50 17:19 01.01.2020
5085 Clear 7 1029 70 0 1.79 50 16:57 01.01.2020
5086 Clear 7 1029 70 0 1.79 50 16:37 01.01.2020
5087 Clouds 5 1029 93 10000 2.6 10 16:19 01.01.2020
5088 Clouds 5 1029 93 10000 2.6 10 15:54 01.01.2020
5089 Clouds 5 1029 93 10000 2.6 10 15:36 01.01.2020
5090 Clouds 5 1029 93 10000 2.6 10 15:18 01.01.2020
5091 Clouds 5 1029 86 10000 2.6 50 14:41 01.01.2020
5092 Clouds 6 1029 86 10000 2.6 50 14:23 01.01.2020
5093 Clouds 6 1029 70 10000 2.1 50 13:57 01.01.2020
5094 Clouds 6 1029 70 10000 2.1 50 13:38 01.01.2020
5095 Clouds 5 1029 70 10000 2.1 50 13:19 01.01.2020
5096 Clouds 6 1029 75 10000 2.6 50 12:57 01.01.2020
5097 Clouds 6 1029 75 10000 2.6 50 12:39 01.01.2020
5098 Clouds 6 1029 75 10000 2.6 50 12:19 01.01.2020
5099 Clouds 6 1029 75 10000 2.6 50 12:19 01.01.2020
5100 Clouds 6 1029 70 10000 5.7 340 11:56 01.01.2020
5101 Clouds 6 1029 70 10000 5.7 340 11:37 01.01.2020
5102 Clouds 6 1029 70 10000 5.7 340 11:18 01.01.2020
5103 Clouds 7 1029 70 10000 5.1 310 10:41 01.01.2020
5104 Clouds 7 1029 70 10000 5.1 310 10:21 01.01.2020
5105 Clouds 8 1029 65 10000 5.1 310 09:59 01.01.2020
5106 Clouds 8 1029 65 10000 5.1 310 09:38 01.01.2020
5107 Clouds 8 1029 65 10000 5.1 310 09:19 01.01.2020
5108 Clouds 9 1028 53 10000 4.1 310 08:56 01.01.2020
5109 Clouds 9 1028 53 10000 4.1 310 08:37 01.01.2020
5110 Clouds 9 1028 53 10000 4.1 310 08:19 01.01.2020
5111 Clouds 9 1028 51 10000 4.1 330 07:54 01.01.2020
5112 Clouds 9 1028 51 10000 4.1 330 07:36 01.01.2020
5113 Clouds 8 1028 49 10000 3.6 350 06:45 01.01.2020
5114 Clouds 8 1028 49 10000 3.6 350 06:21 01.01.2020
5115 Clouds 8 1028 51 10000 3.6 340 05:23 01.01.2020
5116 Clouds 6 1031 65 10000 1.5 40 03:47 01.01.2020
5117 Clouds 6 1031 65 10000 1.5 40 03:23 01.01.2020
5118 Clouds 6 1031 65 10000 1.5 40 03:23 01.01.2020
5119 Clouds 5 1031 53 10000 1 0 02:57 01.01.2020
5120 Clouds 5 1031 53 10000 1 0 02:36 01.01.2020
5121 Clouds 2 1031 80 10000 2.1 150 01:57 01.01.2020
5122 Clouds 3 1031 80 10000 2.1 150 01:38 01.01.2020
5123 Clouds 3 1031 80 10000 2.1 150 01:20 01.01.2020
5124 Clouds 0 1030 52 10000 2.6 130 00:44 01.01.2020
5125 Clouds 0 1030 52 10000 2.6 130 00:44 01.01.2020
5126 Clouds 0 1030 52 10000 2.6 130 00:25 01.01.2020
5127 Clouds 0 1029 86 10000 2.1 90 23:41 31.12.2019
5128 Clouds 0 1029 86 10000 2.1 90 23:21 31.12.2019
5129 Clouds 0 1030 86 10000 2.6 90 22:57 31.12.2019
5130 Clouds 0 1030 86 10000 2.6 90 22:39 31.12.2019
5131 Clouds 0 1030 86 10000 2.6 90 22:39 31.12.2019
5132 Clouds -1 1030 92 10000 2.1 330 22:20 31.12.2019
5133 Clear 4 1029 55 0 4.02 30 21:57 31.12.2019
5134 Clear 4 1029 55 0 4.02 30 21:39 31.12.2019
5135 Clear 4 1029 55 0 4.02 30 21:39 31.12.2019
5136 Clear 4 1029 55 0 4.02 30 21:20 31.12.2019
5137 Clear 4 1029 55 0 4.02 30 20:55 31.12.2019
5138 Clear 4 1029 55 0 4.02 30 20:37 31.12.2019
5139 Clear 4 1029 55 0 4.02 30 20:18 31.12.2019
5140 Clear 4 1029 55 0 4.02 30 19:43 31.12.2019
5141 Clear 4 1029 55 0 4.02 30 19:24 31.12.2019
5142 Clear 4 1029 55 0 4.02 30 18:59 31.12.2019
5143 Clear 4 1029 55 0 4.02 30 18:40 31.12.2019
5144 Clear 4 1029 55 0 4.02 30 18:21 31.12.2019
5145 Clear 4 1029 55 0 4.02 30 17:57 31.12.2019
5146 Clear 4 1029 55 0 4.02 30 17:38 31.12.2019
5147 Clear 4 1029 55 0 4.02 30 17:19 31.12.2019
5148 Clear 4 1029 55 0 4.02 30 17:19 31.12.2019
5149 Clear 4 1029 55 0 4.02 30 16:57 31.12.2019
5150 Clear 4 1029 55 0 4.02 30 16:57 31.12.2019
5151 Clear 4 1029 55 0 4.02 30 16:38 31.12.2019
5152 Clouds 3 1029 74 10000 2.1 330 16:19 31.12.2019
5153 Clouds 3 1029 74 10000 2.1 330 15:57 31.12.2019
5154 Clouds 3 1029 74 10000 2.1 330 15:39 31.12.2019
5155 Clouds 3 1029 74 10000 2.1 330 15:21 31.12.2019
5156 Clouds 3 1029 74 10000 1.5 360 14:58 31.12.2019
5157 Clouds 3 1029 74 10000 1.5 360 14:38 31.12.2019
5158 Clouds 3 1029 74 10000 1.5 360 14:19 31.12.2019
5159 Clouds 4 1029 55 10000 4.1 30 13:57 31.12.2019
5160 Clouds 4 1029 55 10000 4.1 30 13:39 31.12.2019
5161 Clouds 4 1029 55 10000 4.1 30 13:21 31.12.2019
5162 Clouds 4 1029 55 10000 4.1 30 13:21 31.12.2019
5163 Clouds 4 1029 55 10000 7.2 340 12:58 31.12.2019
5164 Clouds 4 1029 55 10000 7.2 340 12:58 31.12.2019
5165 Clouds 4 1029 55 10000 7.2 340 12:39 31.12.2019
5166 Clouds 4 1029 55 10000 7.2 340 12:20 31.12.2019
5167 Clouds 4 1029 55 10000 7.7 350 11:56 31.12.2019
5168 Clouds 4 1029 55 10000 7.7 350 11:38 31.12.2019
5169 Clouds 4 1029 55 10000 7.7 350 11:20 31.12.2019
5170 Clouds 4 1028 55 10000 7.2 350 10:57 31.12.2019
5171 Clouds 4 1028 55 10000 7.2 350 10:38 31.12.2019
5172 Clouds 4 1028 55 10000 7.2 350 10:20 31.12.2019
5173 Clouds 4 1028 48 10000 6.7 360 09:58 31.12.2019
5174 Clouds 4 1028 48 10000 6.7 360 09:39 31.12.2019
5175 Clouds 4 1028 48 10000 6.7 360 09:39 31.12.2019
5176 Clouds 4 1028 48 10000 6.7 360 09:20 31.12.2019
5177 Clouds 5 1027 45 10000 9.8 330 08:57 31.12.2019
5178 Clouds 5 1027 45 10000 9.8 330 08:37 31.12.2019
5179 Clouds 5 1027 45 10000 9.8 330 08:18 31.12.2019
5180 Clouds 6 1027 39 10000 8.7 330 07:41 31.12.2019
5181 Clouds 6 1027 39 10000 8.7 330 07:19 31.12.2019
5182 Clouds 7 1027 45 10000 9.3 340 06:49 31.12.2019
5183 Clouds 8 1027 36 10000 8.7 340 05:55 31.12.2019
5184 Clouds 8 1028 45 10000 8.7 350 04:27 31.12.2019
5185 Clouds 7 1028 64 10000 9.3 350 03:27 31.12.2019
5186 Clouds 7 1028 56 10000 7.7 320 02:49 31.12.2019
5187 Clouds 7 1028 71 10000 10.8 320 01:55 31.12.2019
5188 Clouds 7 1028 71 10000 10.8 320 01:34 31.12.2019
5189 Clouds 7 1028 65 10000 9.3 310 00:58 31.12.2019
5190 Clouds 7 1028 65 10000 9.3 310 00:39 31.12.2019
5191 Clouds 7 1028 65 10000 9.3 310 00:21 31.12.2019
5192 Clouds 7 1027 72 10000 10.3 310 23:56 30.12.2019
5193 Clouds 7 1027 72 10000 10.3 310 23:37 30.12.2019
5194 Clouds 7 1027 76 10000 10.3 310 23:19 30.12.2019
5195 Clouds 8 1026 65 10000 10.3 310 22:56 30.12.2019
5196 Clouds 8 1026 65 10000 10.3 310 22:56 30.12.2019
5197 Clouds 8 1026 65 10000 10.3 310 22:37 30.12.2019
5198 Clouds 7 1025 75 10000 7.2 270 22:18 30.12.2019
5199 Clouds 9 1025 76 0 12.72 327 21:55 30.12.2019
5200 Clouds 9 1025 76 0 12.72 327 21:37 30.12.2019
5201 Clouds 9 1025 76 0 12.72 327 21:18 30.12.2019
5202 Clouds 9 1025 76 0 12.72 327 20:55 30.12.2019
5203 Clouds 9 1025 76 0 12.72 327 20:55 30.12.2019
5204 Clouds 9 1025 76 0 12.72 327 20:55 30.12.2019
5205 Clouds 9 1025 76 0 12.72 327 20:37 30.12.2019
5206 Clouds 13 1021 87 0 2.68 340 20:18 30.12.2019
5207 Clouds 13 1021 87 0 2.68 340 19:55 30.12.2019
5208 Clouds 13 1021 87 0 2.68 340 19:36 30.12.2019
5209 Clouds 13 1021 87 0 2.68 340 19:18 30.12.2019
5210 Clouds 13 1021 87 0 2.68 340 18:41 30.12.2019
5211 Clouds 13 1021 87 0 2.68 340 18:21 30.12.2019
5212 Clouds 13 1021 87 0 2.68 340 17:59 30.12.2019
5213 Clouds 13 1021 87 0 2.68 340 17:41 30.12.2019
5214 Clouds 13 1021 87 0 2.68 340 17:20 30.12.2019
5215 Clouds 13 1021 87 0 2.68 340 16:59 30.12.2019
5216 Clouds 13 1021 87 0 2.68 340 16:40 30.12.2019
5217 Clouds 12 1021 87 10000 3.6 280 16:20 30.12.2019
5218 Clouds 12 1021 87 10000 3.6 280 15:57 30.12.2019
5219 Clouds 12 1021 87 10000 3.6 280 15:38 30.12.2019
5220 Clouds 12 1021 87 10000 3.6 280 15:19 30.12.2019
5221 Clouds 12 1021 87 10000 3.6 280 15:19 30.12.2019
5222 Clouds 12 1020 93 10000 3.1 270 14:54 30.12.2019
5223 Clouds 12 1020 93 10000 3.1 270 14:36 30.12.2019
5224 Clouds 13 1020 93 10000 3.1 270 14:18 30.12.2019
5225 Clouds 13 1021 87 10000 3.1 340 13:41 30.12.2019
5226 Clouds 13 1021 87 10000 3.1 340 13:23 30.12.2019
5227 Clouds 13 1021 87 10000 3.1 340 13:23 30.12.2019
5228 Clouds 13 1021 87 10000 2.6 320 12:58 30.12.2019
5229 Clouds 13 1021 87 10000 2.6 320 12:39 30.12.2019
5230 Clouds 13 1021 87 10000 2.6 320 12:19 30.12.2019
5231 Clouds 13 1020 87 10000 4.6 320 11:56 30.12.2019
5232 Clouds 13 1020 87 10000 4.6 320 11:37 30.12.2019
5233 Clouds 13 1020 87 10000 4.6 320 11:18 30.12.2019
5234 Clouds 13 1020 87 10000 5.7 310 10:40 30.12.2019
5235 Clouds 13 1020 87 10000 5.7 310 10:19 30.12.2019
5236 Clouds 14 1019 87 10000 3.6 310 09:43 30.12.2019
5237 Clouds 14 1019 87 10000 3.6 310 09:21 30.12.2019
5238 Clouds 14 1018 93 10000 1.5 340 08:57 30.12.2019
5239 Clouds 14 1018 93 10000 1.5 340 08:38 30.12.2019
5240 Clouds 14 1018 93 10000 1.5 340 08:19 30.12.2019
5241 Mist 15 1019 93 3000 1.5 240 07:44 30.12.2019
5242 Clouds 15 1019 93 9000 1.5 290 07:18 30.12.2019
5243 Clouds 15 1019 93 6000 1 350 06:29 30.12.2019
5244 Clouds 13 1020 93 7000 1.5 160 04:29 30.12.2019
5245 Clouds 13 1021 93 7000 2.6 150 03:43 30.12.2019
5246 Rain 13 1021 100 6000 3.6 150 02:41 30.12.2019
5247 Rain 13 1021 100 6000 3.6 150 02:21 30.12.2019
5248 Rain 13 1021 100 8000 2.1 170 01:27 30.12.2019
5249 Rain 14 1020 93 10000 3.1 40 00:51 30.12.2019
5250 Rain 13 1020 93 10000 3.1 40 00:28 30.12.2019
5251 Rain 13 1021 100 6000 4.6 360 23:40 29.12.2019
5252 Rain 14 1021 93 8000 5.1 340 23:22 29.12.2019
5253 Rain 14 1020 100 7000 2.6 360 22:57 29.12.2019
5254 Rain 14 1020 100 7000 2.6 360 22:38 29.12.2019
5255 Rain 14 1020 100 7000 2.6 360 22:38 29.12.2019
5256 Rain 11 1020 100 3000 1.5 360 22:20 29.12.2019
5257 Rain 16 1021 92 0 3.84 174 21:54 29.12.2019
5258 Rain 16 1021 92 0 3.84 174 21:36 29.12.2019
5259 Rain 16 1021 92 0 3.84 174 21:18 29.12.2019
5260 Rain 16 1021 92 0 3.84 174 20:55 29.12.2019
5261 Rain 16 1021 92 0 3.84 174 20:36 29.12.2019
5262 Rain 11 1023 81 0 6.71 150 20:18 29.12.2019
5263 Rain 11 1023 81 0 6.71 150 19:40 29.12.2019
5264 Rain 11 1023 81 0 6.71 150 19:22 29.12.2019
5265 Rain 15 1021 90 0 4.81 159 18:59 29.12.2019
5266 Rain 15 1021 90 0 4.81 159 18:59 29.12.2019
5267 Rain 15 1021 90 0 4.81 159 18:40 29.12.2019
5268 Rain 15 1021 90 0 4.81 159 18:21 29.12.2019
5269 Rain 15 1021 90 0 4.81 159 17:58 29.12.2019
5270 Rain 15 1021 90 0 4.81 159 17:39 29.12.2019
5271 Rain 11 1023 81 0 6.71 150 17:20 29.12.2019
5272 Rain 11 1023 81 0 6.71 150 16:57 29.12.2019
5273 Rain 11 1023 81 0 6.71 150 16:57 29.12.2019
5274 Rain 11 1023 81 0 6.71 150 16:39 29.12.2019
5275 Clouds 10 1022 87 8000 1 60 16:21 29.12.2019
5276 Clouds 10 1022 87 8000 1 60 15:58 29.12.2019
5277 Clouds 10 1022 87 8000 1 60 15:39 29.12.2019
5278 Clouds 10 1022 87 8000 1 60 15:20 29.12.2019
5279 Clouds 10 1022 87 8000 1 60 15:20 29.12.2019
5280 Clouds 10 1023 81 6000 2.1 360 14:58 29.12.2019
5281 Clouds 10 1023 81 6000 2.1 360 14:39 29.12.2019
5282 Clouds 10 1023 81 6000 2.1 360 14:18 29.12.2019
5283 Clouds 10 1023 81 10000 6.7 150 13:58 29.12.2019
5284 Clouds 10 1023 81 10000 6.7 150 13:39 29.12.2019
5285 Clouds 10 1023 81 10000 6.7 150 13:21 29.12.2019
5286 Clouds 10 1023 76 10000 8.2 140 12:56 29.12.2019
5287 Clouds 10 1023 76 10000 8.2 140 12:37 29.12.2019
5288 Clouds 10 1023 76 10000 8.2 140 12:19 29.12.2019
5289 Clouds 10 1024 76 10000 8.2 150 11:40 29.12.2019
5290 Clouds 10 1024 76 10000 8.2 150 11:20 29.12.2019
5291 Clouds 10 1024 76 10000 6.7 150 10:55 29.12.2019
5292 Clouds 10 1024 76 10000 6.7 150 10:37 29.12.2019
5293 Clouds 9 1024 76 10000 6.7 150 10:18 29.12.2019
5294 Clouds 10 1024 71 10000 6.2 150 09:43 29.12.2019
5295 Clouds 10 1024 71 10000 6.2 150 09:25 29.12.2019
5296 Rain 10 1024 76 10000 6.2 150 08:50 29.12.2019
5297 Rain 10 1024 76 10000 6.2 150 08:29 29.12.2019
5298 Clouds 10 1024 71 10000 1 0 07:59 29.12.2019
5299 Clouds 10 1024 71 10000 1 0 07:32 29.12.2019
5300 Clouds 10 1024 71 10000 1 0 06:57 29.12.2019
5301 Clouds 10 1024 71 10000 1 0 06:27 29.12.2019
5302 Clouds 9 1025 71 10000 1.5 340 05:54 29.12.2019
5303 Clouds 9 1026 71 10000 1 0 04:42 29.12.2019
5304 Clouds 9 1026 71 10000 1 0 04:21 29.12.2019
5305 Clouds 8 1027 76 10000 1.5 130 03:21 29.12.2019
5306 Clouds 7 1027 75 10000 0.5 0 02:22 29.12.2019
5307 Clouds 7 1027 75 10000 1.5 150 01:42 29.12.2019
5308 Clouds 7 1027 75 10000 1.5 150 01:22 29.12.2019
5309 Clouds 6 1026 81 10000 3.1 130 00:42 29.12.2019
5310 Clouds 6 1026 81 10000 3.1 130 00:23 29.12.2019
5311 Clouds 6 1026 81 10000 2.6 130 23:44 28.12.2019
5312 Clouds 6 1026 81 10000 2.6 130 23:18 28.12.2019
5313 Clouds 6 1027 81 10000 2.6 130 22:40 28.12.2019
5314 Clouds 5 1027 86 10000 1.5 50 22:21 28.12.2019
5315 Clouds 7 1028 81 0 1.34 130 21:58 28.12.2019
5316 Clouds 7 1028 81 0 1.34 130 21:40 28.12.2019
5317 Clouds 7 1028 81 0 1.34 130 21:22 28.12.2019
5318 Clouds 7 1028 81 0 1.34 130 20:59 28.12.2019
5319 Clouds 7 1028 81 0 1.34 130 20:38 28.12.2019
5320 Clouds 7 1028 81 0 1.34 130 20:20 28.12.2019
5321 Clouds 7 1028 81 0 1.34 130 19:58 28.12.2019
5322 Clouds 7 1028 81 0 1.34 130 19:58 28.12.2019
5323 Clouds 7 1028 81 0 1.34 130 19:39 28.12.2019
5324 Clouds 7 1028 81 0 1.34 130 19:21 28.12.2019
5325 Clouds 7 1028 81 0 1.34 130 18:58 28.12.2019
5326 Clouds 7 1028 81 0 1.34 130 18:40 28.12.2019
5327 Clouds 7 1028 81 0 1.34 130 18:19 28.12.2019
5328 Clouds 7 1028 81 0 1.34 130 17:55 28.12.2019
5329 Clouds 7 1028 81 0 1.34 130 17:36 28.12.2019
5330 Clouds 7 1028 81 0 1.34 130 17:18 28.12.2019
5331 Clouds 7 1028 81 0 1.34 130 16:46 28.12.2019
5332 Clouds 4 1028 93 10000 2.1 10 16:26 28.12.2019
5333 Clouds 5 1028 93 10000 2.1 10 15:46 28.12.2019
5334 Clouds 5 1028 93 10000 2.1 10 15:24 28.12.2019
5335 Clouds 6 1028 86 10000 1 20 14:58 28.12.2019
5336 Clouds 6 1028 86 10000 1 20 14:38 28.12.2019
5337 Clear 6 1028 86 10000 1 20 14:20 28.12.2019
5338 Clouds 6 1028 81 10000 1.5 130 13:43 28.12.2019
5339 Clear 7 1028 86 10000 1 350 13:23 28.12.2019
5340 Clouds 7 1027 65 10000 2.1 120 12:59 28.12.2019
5341 Clouds 7 1027 65 10000 2.1 120 12:41 28.12.2019
5342 Clouds 7 1027 65 10000 2.1 120 12:23 28.12.2019
5343 Clouds 8 1027 65 10000 1.5 90 11:55 28.12.2019
5344 Clouds 8 1027 65 10000 1.5 90 11:37 28.12.2019
5345 Clouds 8 1027 65 10000 1.5 90 11:18 28.12.2019
5346 Clouds 7 1027 70 10000 2.1 330 10:43 28.12.2019
5347 Clouds 8 1027 70 10000 2.1 330 10:20 28.12.2019
5348 Clouds 10 1026 53 10000 1.5 310 09:56 28.12.2019
5349 Clouds 10 1026 53 10000 1.5 310 09:38 28.12.2019
5350 Clouds 10 1026 53 10000 1.5 310 09:18 28.12.2019
5351 Clouds 10 1026 53 10000 1.5 310 09:18 28.12.2019
5352 Clouds 10 1026 57 10000 3.1 310 08:43 28.12.2019
5353 Clouds 10 1026 57 10000 3.1 310 08:25 28.12.2019
5354 Clouds 10 1026 50 10000 2.1 280 07:49 28.12.2019
5355 Clouds 10 1026 50 10000 2.1 280 07:25 28.12.2019
5356 Clouds 9 1026 50 10000 1.5 20 05:52 28.12.2019
5357 Clouds 8 1027 66 10000 2.6 140 03:49 28.12.2019
5358 Clouds 7 1027 75 10000 2.1 130 02:52 28.12.2019
5359 Clouds 7 1027 75 10000 2.1 130 02:31 28.12.2019
5360 Clouds 5 1027 81 10000 4.1 140 01:56 28.12.2019
5361 Clouds 5 1027 81 10000 4.1 140 01:56 28.12.2019
5362 Clouds 5 1027 81 10000 4.1 140 01:24 28.12.2019
5363 Clouds 4 1026 86 10000 5.1 140 00:51 28.12.2019
5364 Clouds 4 1026 86 10000 5.1 140 00:32 28.12.2019
5365 Clouds 4 1026 80 10000 4.6 130 23:58 27.12.2019
5366 Clouds 4 1026 80 10000 4.6 130 23:39 27.12.2019
5367 Clouds 4 1026 80 10000 4.6 130 23:19 27.12.2019
5368 Clouds 4 1025 80 10000 4.6 140 22:57 27.12.2019
5369 Clouds 4 1025 80 10000 4.6 140 22:38 27.12.2019
5370 Clouds 4 1025 80 10000 4.6 140 22:38 27.12.2019
5371 Clouds 3 1025 55 10000 1 0 22:19 27.12.2019
5372 Clear 5 1025 55 0 1.79 130 21:43 27.12.2019
5373 Clear 5 1025 55 0 1.79 130 21:43 27.12.2019
5374 Clear 5 1025 55 0 1.79 130 21:25 27.12.2019
5375 Clear 5 1025 55 0 1.79 130 20:58 27.12.2019
5376 Clear 5 1025 55 0 1.79 130 20:40 27.12.2019
5377 Clear 5 1025 51 0 1.79 130 20:21 27.12.2019
5378 Clear 5 1025 51 0 1.79 130 19:41 27.12.2019
5379 Clear 5 1025 51 0 1.79 130 19:20 27.12.2019
5380 Clear 5 1025 51 0 1.79 130 18:57 27.12.2019
5381 Clear 5 1025 51 0 1.79 130 18:37 27.12.2019
5382 Clear 5 1025 51 0 1.79 130 18:19 27.12.2019
5383 Clear 5 1025 51 0 1.79 130 17:55 27.12.2019
5384 Clear 5 1025 51 0 1.79 130 17:37 27.12.2019
5385 Clear 5 1025 52 0 1.79 130 17:18 27.12.2019
5386 Clear 5 1025 52 0 1.79 130 16:44 27.12.2019
5387 Clouds 4 1026 52 10000 2.1 10 16:26 27.12.2019
5388 Clouds 4 1026 52 10000 2.1 10 15:58 27.12.2019
5389 Clouds 4 1026 52 10000 2.1 10 15:40 27.12.2019
5390 Clouds 4 1026 52 10000 2.1 10 15:19 27.12.2019
5391 Clouds 4 1025 86 10000 2.1 330 14:56 27.12.2019
5392 Clouds 4 1025 86 10000 2.1 330 14:38 27.12.2019
5393 Clouds 4 1025 86 10000 2.1 330 14:20 27.12.2019
5394 Clouds 5 1025 52 10000 2.1 130 13:47 27.12.2019
5395 Clouds 5 1025 52 10000 2.1 130 13:24 27.12.2019
5396 Clouds 6 1024 51 10000 1.5 50 12:56 27.12.2019
5397 Clouds 6 1024 51 10000 1.5 50 12:37 27.12.2019
5398 Clouds 6 1024 51 10000 1.5 50 12:18 27.12.2019
5399 Clouds 6 1024 51 10000 1.5 50 12:18 27.12.2019
5400 Clouds 6 1023 60 10000 1 0 11:42 27.12.2019
5401 Clouds 6 1023 60 10000 1 0 11:20 27.12.2019
5402 Clouds 7 1022 52 10000 4.1 320 10:47 27.12.2019
5403 Clouds 7 1022 52 10000 4.1 320 10:24 27.12.2019
5404 Clouds 8 1022 49 10000 5.7 310 09:59 27.12.2019
5405 Clouds 8 1022 49 10000 5.7 310 09:39 27.12.2019
5406 Clouds 8 1022 49 10000 5.7 310 09:21 27.12.2019
5407 Clouds 9 1021 42 10000 6.7 310 08:49 27.12.2019
5408 Clouds 9 1021 42 10000 6.7 310 08:30 27.12.2019
5409 Clouds 10 1021 43 10000 7.7 310 07:48 27.12.2019
5410 Clouds 10 1021 43 10000 7.7 310 07:26 27.12.2019
5411 Clouds 10 1020 39 10000 7.7 330 06:33 27.12.2019
5412 Clouds 10 1020 40 10000 7.7 330 04:51 27.12.2019
5413 Clouds 9 1021 42 10000 9.8 320 02:35 27.12.2019
5414 Clouds 8 1020 52 10000 8.2 320 01:48 27.12.2019
5415 Clouds 8 1020 52 10000 8.2 320 01:23 27.12.2019
5416 Clouds 7 1020 72 10000 8.7 310 00:52 27.12.2019
5417 Clouds 7 1019 72 10000 8.7 320 00:34 27.12.2019
5418 Clouds 7 1019 72 10000 8.7 320 00:34 27.12.2019
5419 Clouds 7 1019 52 10000 10.8 310 23:57 26.12.2019
5420 Clouds 7 1019 52 10000 10.8 310 23:38 26.12.2019
5421 Clouds 7 1018 52 10000 9.8 310 23:20 26.12.2019
5422 Clouds 8 1018 49 10000 11.8 310 22:42 26.12.2019
5423 Clouds 7 1017 65 10000 5.7 300 22:21 26.12.2019
5424 Rain 9 1018 71 0 13.24 328 21:55 26.12.2019
5425 Rain 9 1018 71 0 13.24 328 21:55 26.12.2019
5426 Rain 9 1018 71 0 13.24 328 21:37 26.12.2019
5427 Rain 9 1018 71 0 13.24 328 21:19 26.12.2019
5428 Rain 9 1018 71 0 13.24 328 20:44 26.12.2019
5429 Rain 9 1018 71 0 13.24 328 20:44 26.12.2019
5430 Rain 13 1011 87 0 10.28 320 20:22 26.12.2019
5431 Rain 10 1017 73 0 13.78 323 19:58 26.12.2019
5432 Rain 10 1017 73 0 13.78 323 19:38 26.12.2019
5433 Rain 10 1017 73 0 13.78 323 19:20 26.12.2019
5434 Rain 10 1017 73 0 13.78 323 18:57 26.12.2019
5435 Rain 10 1017 73 0 13.78 323 18:37 26.12.2019
5436 Rain 10 1017 73 0 13.78 323 18:19 26.12.2019
5437 Rain 10 1017 73 0 13.78 323 17:42 26.12.2019
5438 Rain 13 1009 87 0 10.28 320 17:22 26.12.2019
5439 Rain 13 1011 87 0 10.28 320 16:54 26.12.2019
5440 Rain 13 1009 87 0 10.28 320 16:36 26.12.2019
5441 Clouds 12 1012 76 10000 12.9 300 16:36 26.12.2019
5442 Clouds 12 1012 76 10000 12.9 300 16:18 26.12.2019
5443 Clouds 11 1012 76 10000 12.9 300 15:40 26.12.2019
5444 Clouds 11 1012 76 10000 12.9 300 15:19 26.12.2019
5445 Rain 11 1012 81 10000 10.3 290 14:43 26.12.2019
5446 Clouds 12 1011 87 10000 8.2 290 14:24 26.12.2019
5447 Clouds 12 1011 87 10000 8.2 290 14:24 26.12.2019
5448 Clouds 12 1011 87 10000 8.2 290 14:24 26.12.2019
5449 Clouds 12 1011 87 10000 8.2 290 14:24 26.12.2019
5450 Rain 12 1011 87 10000 10.3 320 13:58 26.12.2019
5451 Rain 12 1011 87 10000 10.3 320 13:40 26.12.2019
5452 Rain 12 1011 87 10000 9.8 320 13:18 26.12.2019
5453 Rain 12 1010 93 10000 10.3 310 12:56 26.12.2019
5454 Rain 12 1010 93 10000 10.3 310 12:36 26.12.2019
5455 Rain 13 1010 93 10000 10.3 310 12:18 26.12.2019
5456 Clouds 14 1008 93 10000 6.7 330 11:42 26.12.2019
5457 Clouds 14 1008 93 10000 6.7 330 11:42 26.12.2019
5458 Clouds 14 1008 93 10000 6.7 330 11:23 26.12.2019
5459 Rain 14 1007 93 4000 6.7 330 10:54 26.12.2019
5460 Rain 14 1007 93 4000 6.7 330 10:36 26.12.2019
5461 Rain 14 1006 93 8000 4.6 140 10:18 26.12.2019
5462 Mist 14 1007 93 4000 1 0 09:42 26.12.2019
5463 Rain 14 1006 93 10000 2.1 130 09:24 26.12.2019
5464 Rain 14 1007 93 5000 12 281 08:40 26.12.2019
5465 Rain 14 1007 93 4500 0.5 0 08:21 26.12.2019
5466 Rain 14 1008 93 3000 2.1 340 07:46 26.12.2019
5467 Rain 14 1008 93 6000 0.5 0 07:26 26.12.2019
5468 Rain 15 1008 87 10000 3.1 140 06:39 26.12.2019
5469 Rain 15 1008 87 10000 3.1 140 06:20 26.12.2019
5470 Clouds 14 1009 87 10000 2.6 140 05:43 26.12.2019
5471 Clouds 13 1010 93 10000 5.1 140 04:36 26.12.2019
5472 Clouds 13 1011 87 10000 4.6 130 03:32 26.12.2019
5473 Rain 12 1013 93 9000 4.6 140 02:46 26.12.2019
5474 Rain 12 1013 93 9000 4.6 140 02:27 26.12.2019
5475 Rain 12 1013 93 6000 5.1 140 01:44 26.12.2019
5476 Rain 11 1013 93 6000 5.1 140 01:25 26.12.2019
5477 Rain 11 1013 100 8000 4.1 140 00:44 26.12.2019
5478 Rain 11 1013 100 8000 4.1 140 00:23 26.12.2019
5479 Rain 11 1013 100 6000 1.5 140 23:57 25.12.2019
5480 Rain 11 1013 100 6000 1.5 140 23:37 25.12.2019
5481 Rain 11 1013 100 6000 1.5 140 23:19 25.12.2019
5482 Rain 10 1014 93 6000 1 0 22:56 25.12.2019
5483 Rain 10 1014 93 6000 1 0 22:37 25.12.2019
5484 Rain 10 1013 100 3500 2.6 290 22:18 25.12.2019
5485 Rain 10 1013 100 3500 2.6 290 22:18 25.12.2019
5486 Rain 10 1016 99 0 1.79 130 21:55 25.12.2019
5487 Rain 10 1016 99 0 1.79 130 21:55 25.12.2019
5488 Rain 10 1016 99 0 1.79 130 21:37 25.12.2019
5489 Rain 10 1016 99 0 1.79 130 21:18 25.12.2019
5490 Rain 10 1016 99 0 1.79 130 20:40 25.12.2019
5491 Rain 10 1016 99 0 1.79 130 20:21 25.12.2019
5492 Rain 10 1016 99 0 1.79 130 19:59 25.12.2019
5493 Rain 10 1016 99 0 1.79 130 19:40 25.12.2019
5494 Rain 10 1016 99 0 1.79 130 19:21 25.12.2019
5495 Rain 10 1016 99 0 1.79 130 18:40 25.12.2019
5496 Rain 14 1013 88 0 4.86 58 18:20 25.12.2019
5497 Rain 14 1013 88 0 4.86 58 17:57 25.12.2019
5498 Rain 14 1013 88 0 4.86 58 17:39 25.12.2019
5499 Rain 14 1015 90 0 6.56 37 17:18 25.12.2019
5500 Rain 14 1015 90 0 6.56 37 16:39 25.12.2019
5501 Rain 10 1016 93 3000 2.6 340 16:20 25.12.2019
5502 Rain 10 1016 93 3000 2.6 340 15:58 25.12.2019
5503 Rain 10 1016 93 3000 2.6 340 15:40 25.12.2019
5504 Rain 10 1016 93 3000 2.6 340 15:21 25.12.2019
5505 Rain 10 1017 100 3000 2.1 330 14:59 25.12.2019
5506 Rain 10 1017 100 3000 2.1 330 14:40 25.12.2019
5507 Rain 10 1017 100 3000 2.1 330 14:21 25.12.2019
5508 Rain 10 1016 100 4000 2.1 130 13:57 25.12.2019
5509 Rain 10 1016 100 4000 2.1 130 13:38 25.12.2019
5510 Rain 10 1016 100 4000 2.1 130 13:19 25.12.2019
5511 Rain 11 1017 93 4500 2.6 150 12:42 25.12.2019
5512 Rain 10 1017 93 4500 2.6 150 12:20 25.12.2019
5513 Rain 10 1017 93 8000 3.6 130 11:56 25.12.2019
5514 Rain 10 1017 93 8000 3.6 130 11:56 25.12.2019
5515 Rain 10 1017 93 8000 3.6 130 11:38 25.12.2019
5516 Rain 10 1017 93 8000 3.6 130 11:18 25.12.2019
5517 Rain 10 1018 93 8000 1 0 10:38 25.12.2019
5518 Rain 10 1018 93 8000 1 0 10:20 25.12.2019
5519 Clouds 10 1018 87 8000 1 0 09:51 25.12.2019
5520 Clouds 10 1018 87 8000 1 0 09:32 25.12.2019
5521 Clouds 10 1018 93 6000 3.83 72 08:51 25.12.2019
5522 Clouds 10 1018 93 6000 3.83 72 08:51 25.12.2019
5523 Clouds 10 1018 93 6000 3.83 72 08:31 25.12.2019
5524 Rain 10 1018 87 8000 3.6 130 07:52 25.12.2019
5525 Rain 10 1018 87 8000 3.6 130 07:34 25.12.2019
5526 Clouds 10 1019 93 8000 2.1 120 06:52 25.12.2019
5527 Clouds 9 1019 93 8000 2.1 120 06:23 25.12.2019
5528 Clouds 10 1020 93 7000 0.5 0 05:18 25.12.2019
5529 Rain 9 1021 93 6000 2.1 140 04:39 25.12.2019
5530 Rain 9 1021 93 6000 2.1 140 04:20 25.12.2019
5531 Rain 9 1023 81 6000 0.5 0 03:42 25.12.2019
5532 Rain 9 1024 76 8000 2.6 100 02:54 25.12.2019
5533 Rain 9 1024 76 8000 2.6 100 02:27 25.12.2019
5534 Clouds 9 1023 76 10000 2.6 130 01:25 25.12.2019
5535 Clouds 8 1023 81 10000 4.1 140 00:54 25.12.2019
5536 Clouds 8 1023 81 10000 4.1 140 00:32 25.12.2019
5537 Clouds 6 1023 87 10000 3.1 130 23:57 24.12.2019
5538 Clouds 7 1023 87 10000 3.1 130 23:38 24.12.2019
5539 Clouds 7 1023 87 10000 3.1 130 23:20 24.12.2019
5540 Clouds 6 1023 87 10000 3.1 130 22:41 24.12.2019
5541 Clouds 5 1023 93 10000 3.1 360 22:21 24.12.2019
5542 Clouds 9 1024 87 0 1.79 130 21:44 24.12.2019
5543 Clouds 9 1024 87 0 1.79 130 21:23 24.12.2019
5544 Clouds 9 1024 87 0 1.79 130 20:57 24.12.2019
5545 Clouds 9 1024 87 0 1.79 130 20:39 24.12.2019
5546 Clear 9 1024 87 0 1.79 130 20:18 24.12.2019
5547 Clear 9 1024 87 0 1.79 130 19:44 24.12.2019
5548 Clear 9 1024 87 0 1.79 130 19:20 24.12.2019
5549 Clear 9 1024 87 0 1.79 130 18:43 24.12.2019
5550 Clear 9 1024 87 0 1.79 130 18:24 24.12.2019
5551 Clear 9 1024 87 0 1.79 130 17:58 24.12.2019
5552 Clear 9 1024 87 0 1.79 130 17:38 24.12.2019
5553 Clear 9 1024 87 0 1.79 130 17:20 24.12.2019
5554 Clear 9 1024 87 0 1.79 130 16:55 24.12.2019
5555 Clear 9 1024 87 0 1.79 130 16:37 24.12.2019
5556 Clouds 8 1025 87 10000 2.1 320 16:19 24.12.2019
5557 Clouds 8 1025 87 10000 2.1 320 16:19 24.12.2019
5558 Clouds 8 1025 87 10000 2.1 320 15:54 24.12.2019
5559 Clouds 8 1025 87 10000 2.1 320 15:36 24.12.2019
5560 Clouds 8 1025 87 10000 2.1 320 15:18 24.12.2019
5561 Clouds 8 1025 81 10000 2.6 320 14:54 24.12.2019
5562 Clouds 8 1025 81 10000 2.6 320 14:36 24.12.2019
5563 Clouds 9 1025 81 10000 2.6 320 14:18 24.12.2019
5564 Clouds 9 1024 87 10000 2.1 130 13:54 24.12.2019
5565 Clouds 9 1024 87 10000 2.1 130 13:36 24.12.2019
5566 Clouds 9 1024 87 10000 2.1 130 13:18 24.12.2019
5567 Clouds 9 1023 87 10000 1 0 12:54 24.12.2019
5568 Clouds 9 1023 87 10000 1 0 12:36 24.12.2019
5569 Clouds 9 1023 87 10000 1 0 12:18 24.12.2019
5570 Clouds 10 1023 81 10000 1.5 350 11:54 24.12.2019
5571 Clouds 10 1023 81 10000 1.5 350 11:36 24.12.2019
5572 Clouds 10 1023 81 10000 1.5 350 11:18 24.12.2019
5573 Clouds 11 1023 76 10000 3.1 150 10:54 24.12.2019
5574 Clouds 11 1023 76 10000 3.1 150 10:54 24.12.2019
5575 Clouds 11 1023 76 10000 3.1 150 10:36 24.12.2019
5576 Clouds 11 1023 76 10000 3.1 150 10:18 24.12.2019
5577 Clouds 11 1023 66 10000 3.1 130 09:54 24.12.2019
5578 Clouds 11 1023 66 10000 3.1 130 09:36 24.12.2019
5579 Clouds 12 1023 66 10000 3.1 130 09:18 24.12.2019
5580 Clouds 13 1022 62 10000 2.1 170 08:42 24.12.2019
5581 Clouds 13 1022 62 10000 2.1 170 08:19 24.12.2019
5582 Clouds 13 1022 62 8000 2.1 170 07:44 24.12.2019
5583 Clouds 13 1022 62 8000 2.1 170 07:22 24.12.2019
5584 Clouds 12 1022 66 8000 1 0 06:41 24.12.2019
5585 Clouds 12 1022 66 8000 1 0 06:22 24.12.2019
5586 Clouds 12 1023 71 8000 1.5 160 05:56 24.12.2019
5587 Clouds 12 1023 71 8000 1.5 160 05:56 24.12.2019
5588 Clouds 12 1023 71 8000 1.5 160 05:20 24.12.2019
5589 Clouds 11 1024 71 8000 2.1 350 04:22 24.12.2019
5590 Clouds 10 1025 71 8000 1 0 03:50 24.12.2019
5591 Clouds 9 1025 81 8000 1 0 02:37 24.12.2019
5592 Clouds 9 1025 81 8000 1 0 02:18 24.12.2019
5593 Clouds 8 1024 87 8000 2.6 140 01:42 24.12.2019
5594 Clouds 8 1024 87 8000 2.6 140 01:42 24.12.2019
5595 Clouds 8 1024 87 8000 2.6 140 01:19 24.12.2019
5596 Clouds 7 1024 87 8000 3.1 130 00:40 24.12.2019
5597 Clouds 7 1024 87 8000 3.1 130 00:20 24.12.2019
5598 Clouds 7 1023 87 8000 3.1 130 23:43 23.12.2019
5599 Clouds 7 1023 87 8000 3.1 130 23:24 23.12.2019
5600 Clouds 7 1023 87 8000 2.1 100 22:57 23.12.2019
5601 Clouds 7 1023 87 8000 2.1 100 22:38 23.12.2019
5602 Clouds 6 1023 93 6000 2.1 330 22:20 23.12.2019
5603 Clouds 9 1022 87 0 1.79 130 21:57 23.12.2019
5604 Clouds 9 1022 87 0 1.79 130 21:37 23.12.2019
5605 Clouds 9 1022 87 0 1.79 130 21:19 23.12.2019
5606 Clouds 9 1022 87 0 1.79 130 20:59 23.12.2019
5607 Clouds 9 1022 87 0 1.79 130 20:41 23.12.2019
5608 Clouds 9 1022 87 0 1.79 130 20:19 23.12.2019
5609 Clouds 9 1022 87 0 1.79 130 19:58 23.12.2019
5610 Clouds 9 1022 87 0 1.79 130 19:40 23.12.2019
5611 Clouds 9 1022 87 0 1.79 130 19:21 23.12.2019
5612 Clouds 9 1022 87 0 1.79 130 18:58 23.12.2019
5613 Clouds 9 1022 87 0 1.79 130 18:58 23.12.2019
5614 Clouds 9 1022 87 0 1.79 130 18:39 23.12.2019
5615 Clouds 9 1022 87 0 1.79 130 18:20 23.12.2019
5616 Clouds 9 1022 87 0 1.79 130 17:59 23.12.2019
5617 Clouds 9 1022 87 0 1.79 130 17:40 23.12.2019
5618 Clouds 9 1022 87 0 1.79 130 17:19 23.12.2019
5619 Clouds 9 1022 87 0 1.79 130 16:57 23.12.2019
5620 Clouds 9 1022 87 0 1.79 130 16:39 23.12.2019
5621 Clouds 8 1022 100 10000 0.5 0 16:18 23.12.2019
5622 Clouds 8 1022 100 10000 0.5 0 15:57 23.12.2019
5623 Clouds 8 1022 100 10000 0.5 0 15:37 23.12.2019
5624 Clouds 8 1022 100 10000 0.5 0 15:19 23.12.2019
5625 Clouds 8 1022 93 10000 1.5 50 14:56 23.12.2019
5626 Clouds 8 1022 93 10000 1.5 50 14:56 23.12.2019
5627 Clouds 8 1022 93 10000 1.5 50 14:37 23.12.2019
5628 Clouds 8 1022 93 10000 1.5 50 14:18 23.12.2019
5629 Clouds 9 1022 87 10000 2.1 130 13:55 23.12.2019
5630 Clouds 9 1022 87 10000 2.1 130 13:37 23.12.2019
5631 Clouds 9 1022 87 10000 2.1 130 13:19 23.12.2019
5632 Clouds 9 1021 76 10000 1 0 12:41 23.12.2019
5633 Clouds 9 1021 76 10000 1 0 12:21 23.12.2019
5634 Clouds 11 1021 76 10000 2.1 350 11:57 23.12.2019
5635 Clouds 11 1021 76 10000 2.1 350 11:38 23.12.2019
5636 Clear 11 1021 76 10000 2.1 350 11:20 23.12.2019
5637 Clouds 12 1020 62 10000 3.1 310 10:55 23.12.2019
5638 Clouds 12 1020 62 10000 3.1 310 10:55 23.12.2019
5639 Clouds 12 1020 62 10000 3.1 310 10:37 23.12.2019
5640 Clouds 12 1020 62 10000 3.1 310 10:18 23.12.2019
5641 Clouds 12 1020 62 10000 3.1 310 09:54 23.12.2019
5642 Clouds 12 1020 62 10000 3.1 310 09:36 23.12.2019
5643 Clouds 12 1020 62 10000 3.1 310 09:18 23.12.2019
5644 Clouds 13 1020 50 10000 5.1 310 08:41 23.12.2019
5645 Clouds 13 1020 50 10000 5.1 310 08:22 23.12.2019
5646 Clouds 14 1019 44 10000 5.7 310 07:49 23.12.2019
5647 Clouds 14 1019 44 10000 5.7 310 07:22 23.12.2019
5648 Clouds 13 1019 58 10000 2.6 270 06:57 23.12.2019
5649 Clouds 13 1019 58 10000 2.6 270 06:30 23.12.2019
5650 Clouds 12 1019 66 10000 0.5 0 05:56 23.12.2019
5651 Clouds 12 1019 66 10000 0.5 0 05:30 23.12.2019
5652 Clouds 11 1020 71 10000 1 0 04:39 23.12.2019
5653 Clouds 10 1020 71 10000 1 0 03:28 23.12.2019
5654 Clouds 9 1021 81 10000 3.1 140 02:43 23.12.2019
5655 Clouds 9 1021 81 10000 3.1 140 02:19 23.12.2019
5656 Clouds 7 1020 93 10000 3.1 140 01:44 23.12.2019
5657 Clouds 7 1020 93 10000 3.1 140 01:26 23.12.2019
5658 Clouds 5 1019 93 10000 4.1 140 00:44 23.12.2019
5659 Clouds 5 1019 93 10000 4.1 140 00:44 23.12.2019
5660 Clouds 5 1019 93 10000 4.1 140 00:23 23.12.2019
5661 Clouds 4 1019 100 10000 2.1 130 23:40 22.12.2019
5662 Clouds 4 1019 100 10000 2.1 130 23:22 22.12.2019
5663 Clouds 4 1019 100 10000 2.1 130 23:22 22.12.2019
5664 Clouds 4 1019 93 10000 3.1 130 22:58 22.12.2019
5665 Clouds 4 1019 93 10000 3.1 130 22:40 22.12.2019
5666 Fog 3 1019 100 6000 2.1 340 22:22 22.12.2019
5667 Clear 8 1016 87 0 4.47 330 21:58 22.12.2019
5668 Clear 8 1016 87 0 4.47 330 21:40 22.12.2019
5669 Clear 8 1016 87 0 4.47 330 21:21 22.12.2019
5670 Clear 8 1016 87 0 4.47 330 20:58 22.12.2019
5671 Clear 8 1016 87 0 4.47 330 20:39 22.12.2019
5672 Clear 8 1016 87 0 4.47 330 20:19 22.12.2019
5673 Clear 8 1016 87 0 4.47 330 19:56 22.12.2019
5674 Clear 8 1016 87 0 4.47 330 19:37 22.12.2019
5675 Clear 8 1016 87 0 4.47 330 19:19 22.12.2019
5676 Clear 8 1016 87 0 4.47 330 18:41 22.12.2019
5677 Clear 8 1016 87 0 4.47 330 18:23 22.12.2019
5678 Clear 8 1016 87 0 4.47 330 17:56 22.12.2019
5679 Clear 8 1016 87 0 4.47 330 17:37 22.12.2019
5680 Clear 8 1016 87 0 4.47 330 17:18 22.12.2019
5681 Clear 8 1016 87 0 4.47 330 16:57 22.12.2019
5682 Clear 8 1016 87 0 4.47 330 16:38 22.12.2019
5683 Clouds 5 1017 93 10000 3.1 340 16:19 22.12.2019
5684 Clouds 6 1017 93 10000 3.1 340 15:56 22.12.2019
5685 Clouds 6 1017 93 10000 3.1 340 15:37 22.12.2019
5686 Clouds 6 1017 93 10000 3.1 340 15:19 22.12.2019
5687 Clouds 6 1017 93 10000 1.5 350 14:54 22.12.2019
5688 Clouds 6 1017 93 10000 1.5 350 14:36 22.12.2019
5689 Clouds 7 1017 93 10000 1.5 350 14:18 22.12.2019
5690 Clouds 7 1016 87 10000 4.6 330 13:55 22.12.2019
5691 Clouds 7 1016 87 10000 4.6 330 13:36 22.12.2019
5692 Clouds 7 1016 87 10000 4.6 330 13:18 22.12.2019
5693 Clouds 7 1016 87 10000 4.6 330 13:18 22.12.2019
5694 Clouds 7 1016 75 10000 6.7 10 12:54 22.12.2019
5695 Clouds 7 1016 75 10000 6.7 10 12:54 22.12.2019
5696 Clouds 7 1016 75 10000 6.7 10 12:54 22.12.2019
5697 Clouds 7 1016 75 10000 6.7 10 12:36 22.12.2019
5698 Clouds 7 1016 75 10000 6.7 10 12:18 22.12.2019
5699 Clouds 8 1014 70 10000 3.6 40 11:39 22.12.2019
5700 Clouds 8 1014 70 10000 3.6 40 11:20 22.12.2019
5701 Clouds 8 1014 76 10000 4.1 70 10:58 22.12.2019
5702 Clouds 8 1014 76 10000 4.1 70 10:40 22.12.2019
5703 Clouds 8 1014 76 10000 4.1 70 10:21 22.12.2019
5704 Rain 7 1013 87 10000 3.1 100 09:58 22.12.2019
5705 Rain 7 1013 87 10000 3.1 100 09:40 22.12.2019
5706 Rain 7 1013 87 10000 3.1 100 09:21 22.12.2019
5707 Rain 7 1013 81 10000 2.6 340 08:55 22.12.2019
5708 Rain 7 1013 81 10000 2.6 340 08:37 22.12.2019
5709 Rain 7 1013 81 10000 2.6 340 08:18 22.12.2019
5710 Rain 7 1013 81 10000 1 0 07:36 22.12.2019
5711 Rain 7 1013 81 10000 1 0 07:18 22.12.2019
5712 Rain 7 1012 81 10000 4.1 50 06:40 22.12.2019
5713 Rain 7 1013 81 6000 1.5 40 05:49 22.12.2019
5714 Rain 7 1012 81 10000 3.6 40 05:21 22.12.2019
5715 Rain 8 1015 81 8000 5.7 70 04:28 22.12.2019
5716 Rain 8 1016 81 10000 5.1 50 03:45 22.12.2019
5717 Rain 9 1018 76 10000 3.6 30 02:38 22.12.2019
5718 Rain 9 1018 76 9000 3.1 40 01:37 22.12.2019
5719 Rain 9 1018 76 9000 3.1 40 01:18 22.12.2019
5720 Rain 9 1019 81 8000 2.1 10 00:45 22.12.2019
5721 Rain 9 1018 76 10000 2.6 20 00:21 22.12.2019
5722 Rain 10 1018 71 10000 4.1 20 23:42 21.12.2019
5723 Rain 10 1018 71 10000 4.1 20 23:24 21.12.2019
5724 Rain 10 1018 53 10000 1.5 0 22:59 21.12.2019
5725 Rain 10 1018 53 10000 1.5 0 22:40 21.12.2019
5726 Clouds 10 1018 71 10000 5.7 40 22:19 21.12.2019
5727 Rain 11 1022 62 0 5.61 55 21:56 21.12.2019
5728 Rain 11 1022 62 0 5.61 55 21:37 21.12.2019
5729 Rain 11 1022 62 0 5.61 55 21:19 21.12.2019
5730 Rain 11 1022 62 0 5.61 55 20:57 21.12.2019
5731 Rain 11 1022 62 0 5.61 55 20:38 21.12.2019
5732 Rain 11 1022 62 0 3.73 34 20:20 21.12.2019
5733 Rain 11 1022 62 0 3.73 34 19:57 21.12.2019
5734 Rain 11 1022 62 0 3.73 34 19:57 21.12.2019
5735 Rain 11 1022 62 0 3.73 34 19:57 21.12.2019
5736 Rain 11 1022 62 0 3.73 34 19:39 21.12.2019
5737 Rain 11 1022 62 0 3.73 34 19:19 21.12.2019
5738 Rain 11 1022 62 0 3.73 34 18:42 21.12.2019
5739 Rain 11 1022 62 0 3.73 34 18:23 21.12.2019
5740 Rain 11 1022 62 0 3.73 34 17:57 21.12.2019
5741 Rain 11 1022 62 0 3.73 34 17:39 21.12.2019
5742 Clouds 11 1022 62 0 5.64 42 17:20 21.12.2019
5743 Clouds 11 1022 62 0 5.64 42 16:57 21.12.2019
5744 Clouds 11 1022 62 0 5.64 42 16:57 21.12.2019
5745 Clouds 11 1022 62 0 5.64 42 16:39 21.12.2019
5746 Clouds 10 1021 76 10000 5.7 30 16:18 21.12.2019
5747 Clouds 10 1021 76 10000 5.7 30 15:56 21.12.2019
5748 Clouds 10 1021 76 10000 5.7 30 15:37 21.12.2019
5749 Clouds 10 1021 76 10000 5.7 30 15:18 21.12.2019
5750 Clouds 10 1022 71 10000 6.7 40 14:43 21.12.2019
5751 Clouds 11 1022 71 10000 6.7 40 14:24 21.12.2019
5752 Rain 11 1022 62 10000 1 0 13:58 21.12.2019
5753 Rain 11 1022 62 10000 1 0 13:40 21.12.2019
5754 Rain 11 1022 62 10000 1 0 13:20 21.12.2019
5755 Rain 11 1022 62 10000 1 0 13:20 21.12.2019
5756 Rain 11 1023 62 10000 2.6 140 12:57 21.12.2019
5757 Rain 11 1023 62 10000 2.6 140 12:39 21.12.2019
5758 Rain 11 1023 62 10000 2.6 140 12:20 21.12.2019
5759 Clouds 11 1024 62 10000 0.5 0 11:55 21.12.2019
5760 Clouds 11 1024 62 10000 0.5 0 11:37 21.12.2019
5761 Clouds 11 1024 62 10000 0.5 0 11:19 21.12.2019
5762 Rain 10 1024 71 10000 4.1 140 10:41 21.12.2019
5763 Rain 10 1024 71 10000 4.1 140 10:22 21.12.2019
5764 Clouds 10 1024 71 10000 4.1 120 09:58 21.12.2019
5765 Clouds 10 1024 71 10000 4.1 120 09:39 21.12.2019
5766 Clouds 10 1024 71 10000 4.1 120 09:19 21.12.2019
5767 Clouds 11 1024 62 10000 1.5 360 08:51 21.12.2019
5768 Clouds 11 1024 62 10000 1.5 360 08:27 21.12.2019
5769 Clouds 11 1024 62 10000 6.7 350 07:58 21.12.2019
5770 Clouds 11 1024 62 10000 6.7 350 07:58 21.12.2019
5771 Clouds 11 1024 62 10000 6.7 350 07:39 21.12.2019
5772 Clouds 11 1024 62 10000 6.7 350 07:20 21.12.2019
5773 Clouds 11 1023 66 10000 4.6 350 06:40 21.12.2019
5774 Clouds 11 1023 66 10000 4.6 350 06:22 21.12.2019
5775 Clouds 10 1024 66 10000 5.82 26 05:25 21.12.2019
5776 Clouds 9 1025 70 10000 2.1 150 04:34 21.12.2019
5777 Clouds 8 1025 76 10000 3.6 150 03:56 21.12.2019
5778 Clouds 8 1025 76 10000 2.6 120 02:25 21.12.2019
5779 Clouds 8 1025 76 10000 2.6 120 02:25 21.12.2019
5780 Clouds 7 1026 87 10000 4.1 140 01:43 21.12.2019
5781 Clouds 7 1026 87 10000 4.1 140 01:24 21.12.2019
5782 Clouds 6 1026 87 10000 4.1 130 00:40 21.12.2019
5783 Clouds 6 1026 87 10000 4.1 130 00:21 21.12.2019
5784 Clouds 5 1025 87 10000 1.5 130 23:39 20.12.2019
5785 Clouds 5 1025 87 10000 1.5 130 23:39 20.12.2019
5786 Clouds 5 1025 87 10000 1.5 130 23:20 20.12.2019
5787 Clouds 5 1026 81 10000 1.5 90 22:57 20.12.2019
5788 Clouds 5 1026 81 10000 1.5 90 22:38 20.12.2019
5789 Clouds 5 1027 93 10000 1.5 350 22:18 20.12.2019
5790 Clouds 9 1028 66 0 4.92 360 21:41 20.12.2019
5791 Clouds 9 1028 66 0 4.92 360 21:21 20.12.2019
5792 Clouds 9 1028 66 0 4.92 360 20:57 20.12.2019
5793 Clouds 9 1028 66 0 4.92 360 20:38 20.12.2019
5794 Clouds 9 1028 66 0 4.92 360 20:19 20.12.2019
5795 Clouds 9 1028 66 0 4.92 360 19:43 20.12.2019
5796 Clouds 9 1028 66 0 4.92 360 19:21 20.12.2019
5797 Clouds 9 1028 66 0 4.92 360 18:58 20.12.2019
5798 Clouds 9 1028 66 0 4.92 360 18:39 20.12.2019
5799 Clouds 9 1028 66 0 4.92 360 18:21 20.12.2019
5800 Clouds 9 1028 66 0 4.92 360 18:21 20.12.2019
5801 Clouds 9 1028 66 0 4.92 360 17:56 20.12.2019
5802 Clouds 9 1028 66 0 4.92 360 17:56 20.12.2019
5803 Clouds 9 1028 66 0 4.92 360 17:38 20.12.2019
5804 Clouds 9 1028 66 0 4.92 360 17:20 20.12.2019
5805 Clouds 9 1028 66 0 4.92 360 16:41 20.12.2019
5806 Clouds 8 1029 75 10000 1.5 360 16:21 20.12.2019
5807 Clouds 8 1029 75 10000 1.5 360 15:57 20.12.2019
5808 Clouds 8 1029 75 10000 1.5 360 15:39 20.12.2019
5809 Clouds 8 1029 75 10000 1.5 360 15:20 20.12.2019
5810 Clouds 8 1028 66 10000 5.1 360 14:59 20.12.2019
5811 Clouds 8 1028 66 10000 5.1 360 14:59 20.12.2019
5812 Clouds 8 1028 66 10000 5.1 360 14:40 20.12.2019
5813 Clouds 8 1028 66 10000 5.1 360 14:22 20.12.2019
5814 Clouds 9 1028 61 10000 2.1 80 13:56 20.12.2019
5815 Clouds 9 1028 61 10000 2.1 80 13:56 20.12.2019
5816 Clouds 9 1028 61 10000 2.1 80 13:36 20.12.2019
5817 Clouds 9 1028 61 10000 2.1 80 13:18 20.12.2019
5818 Clouds 8 1028 65 10000 4.21 1 12:42 20.12.2019
5819 Clouds 8 1028 65 10000 4.21 1 12:20 20.12.2019
5820 Clouds 9 1026 61 10000 2.1 70 11:59 20.12.2019
5821 Clouds 9 1026 61 10000 2.1 70 11:40 20.12.2019
5822 Clouds 9 1026 61 10000 2.1 70 11:21 20.12.2019
5823 Clouds 9 1025 53 10000 2.6 30 10:59 20.12.2019
5824 Clouds 9 1025 53 10000 2.6 30 10:41 20.12.2019
5825 Clouds 8 1025 53 10000 2.6 30 10:22 20.12.2019
5826 Clouds 10 1025 53 10000 4.1 10 09:58 20.12.2019
5827 Clouds 10 1025 53 10000 4.1 10 09:40 20.12.2019
5828 Clouds 10 1025 53 10000 4.1 10 09:20 20.12.2019
5829 Clouds 11 1025 53 10000 4.1 360 08:44 20.12.2019
5830 Clouds 11 1025 53 10000 4.1 360 08:26 20.12.2019
5831 Clouds 11 1025 43 10000 5.7 350 07:59 20.12.2019
5832 Clouds 11 1025 43 10000 5.7 350 07:41 20.12.2019
5833 Clouds 11 1025 43 10000 5.7 350 07:20 20.12.2019
5834 Clouds 12 1025 45 10000 6.7 340 06:52 20.12.2019
5835 Clouds 12 1025 45 10000 6.7 340 06:33 20.12.2019
5836 Clouds 12 1025 45 10000 6.2 330 05:55 20.12.2019
5837 Clouds 12 1025 45 10000 6.2 330 05:36 20.12.2019
5838 Clouds 11 1026 40 10000 3.6 10 04:33 20.12.2019
5839 Clouds 11 1027 48 10000 5.7 360 03:30 20.12.2019
5840 Clouds 11 1027 48 10000 5.7 360 03:30 20.12.2019
5841 Clouds 10 1027 48 10000 5.7 340 02:43 20.12.2019
5842 Clouds 9 1028 57 10000 2.6 10 01:49 20.12.2019
5843 Clouds 9 1028 57 10000 2.6 10 01:49 20.12.2019
5844 Clouds 8 1028 56 10000 2.6 10 01:30 20.12.2019
5845 Clouds 7 1027 61 10000 2.6 30 00:43 20.12.2019
5846 Clouds 7 1027 61 10000 2.6 30 00:23 20.12.2019
5847 Clouds 7 1026 56 10000 3.1 30 23:44 19.12.2019
5848 Clouds 7 1026 56 10000 3.1 30 23:25 19.12.2019
5849 Clouds 7 1026 61 10000 4.1 20 22:59 19.12.2019
5850 Clouds 7 1026 61 10000 4.1 20 22:37 19.12.2019
5851 Clouds 7 1026 61 10000 4.1 20 22:18 19.12.2019
5852 Clear 11 1022 57 0 2.24 360 21:55 19.12.2019
5853 Clear 11 1022 57 0 2.24 360 21:37 19.12.2019
5854 Clear 11 1022 57 0 2.24 360 21:18 19.12.2019
5855 Clear 11 1022 57 0 2.24 360 20:55 19.12.2019
5856 Clear 11 1022 57 0 2.24 360 20:36 19.12.2019
5857 Clouds 11 1022 57 0 2.24 360 20:18 19.12.2019
5858 Clouds 11 1021 57 0 2.24 360 19:54 19.12.2019
5859 Clouds 11 1021 57 0 2.24 360 19:54 19.12.2019
5860 Clouds 11 1021 57 0 2.24 360 19:36 19.12.2019
5861 Clouds 11 1022 57 0 2.24 360 19:18 19.12.2019
5862 Clouds 11 1022 57 0 2.24 360 18:41 19.12.2019
5863 Clouds 11 1022 57 0 2.24 360 18:21 19.12.2019
5864 Clouds 11 1021 57 0 2.24 360 17:57 19.12.2019
5865 Clouds 11 1021 57 0 2.24 360 17:39 19.12.2019
5866 Clouds 11 1022 57 0 2.24 360 17:19 19.12.2019
5867 Clouds 11 1022 57 0 2.24 360 16:57 19.12.2019
5868 Clouds 11 1022 57 0 2.24 360 16:38 19.12.2019
5869 Clouds 10 1023 70 10000 3.1 300 16:20 19.12.2019
5870 Clouds 10 1023 70 10000 3.1 300 15:58 19.12.2019
5871 Clouds 10 1023 70 10000 3.1 300 15:39 19.12.2019
5872 Clouds 10 1023 70 10000 3.1 300 15:19 19.12.2019
5873 Clouds 10 1023 66 10000 3.1 270 14:57 19.12.2019
5874 Clouds 10 1023 66 10000 3.1 270 14:39 19.12.2019
5875 Clouds 11 1023 66 10000 3.1 270 14:18 19.12.2019
5876 Clouds 11 1022 57 10000 2.6 360 13:54 19.12.2019
5877 Clouds 11 1022 57 10000 2.6 360 13:36 19.12.2019
5878 Clouds 11 1022 57 10000 2.6 360 13:18 19.12.2019
5879 Clouds 11 1021 53 10000 4.1 340 12:54 19.12.2019
5880 Clouds 11 1021 53 10000 4.1 340 12:36 19.12.2019
5881 Clouds 11 1021 53 10000 4.1 340 12:18 19.12.2019
5882 Clouds 11 1021 53 10000 4.1 340 12:18 19.12.2019
5883 Clouds 11 1021 53 10000 6.2 330 11:42 19.12.2019
5884 Clouds 11 1021 53 10000 6.2 330 11:20 19.12.2019
5885 Clouds 11 1021 53 10000 6.2 330 11:20 19.12.2019
5886 Clouds 11 1021 53 10000 6.2 330 11:20 19.12.2019
5887 Clouds 12 1021 46 10000 6.7 330 10:59 19.12.2019
5888 Clouds 12 1021 46 10000 6.7 330 10:38 19.12.2019
5889 Clouds 12 1021 46 10000 6.7 330 10:20 19.12.2019
5890 Clouds 11 1020 66 10000 4.1 300 09:57 19.12.2019
5891 Clouds 11 1020 66 10000 4.1 300 09:38 19.12.2019
5892 Clouds 11 1020 66 10000 4.1 300 09:19 19.12.2019
5893 Clouds 11 1020 66 10000 4.1 300 09:19 19.12.2019
5894 Clouds 12 1020 54 10000 4.6 300 08:55 19.12.2019
5895 Clouds 12 1020 54 10000 4.6 300 08:37 19.12.2019
5896 Clouds 12 1020 54 10000 4.6 300 08:18 19.12.2019
5897 Clouds 13 1019 54 10000 6.2 310 07:54 19.12.2019
5898 Clouds 13 1019 54 10000 6.2 310 07:36 19.12.2019
5899 Clouds 13 1019 54 10000 6.2 310 07:18 19.12.2019
5900 Clouds 14 1019 54 10000 4.1 280 06:42 19.12.2019
5901 Clouds 14 1019 54 10000 4.1 280 06:23 19.12.2019
5902 Clouds 13 1019 58 10000 5.1 320 05:42 19.12.2019
5903 Clouds 13 1019 58 10000 5.1 320 05:19 19.12.2019
5904 Clouds 13 1021 62 10000 2.6 300 03:53 19.12.2019
5905 Clouds 13 1021 62 10000 3.1 300 02:28 19.12.2019
5906 Clouds 13 1021 62 10000 2.6 300 01:25 19.12.2019
5907 Clouds 11 1020 71 10000 2.6 310 00:57 19.12.2019
5908 Clouds 11 1020 71 10000 2.6 310 00:38 19.12.2019
5909 Clouds 11 1020 71 10000 2.6 310 00:19 19.12.2019
5910 Clouds 11 1019 71 10000 2.6 300 23:44 18.12.2019
5911 Clouds 11 1019 71 10000 2.6 300 23:19 18.12.2019
5912 Clouds 11 1019 76 10000 3.1 300 22:56 18.12.2019
5913 Clouds 11 1019 76 10000 3.1 300 22:56 18.12.2019
5914 Clouds 11 1019 76 10000 3.1 300 22:38 18.12.2019
5915 Clouds 11 1019 76 10000 3.1 300 22:20 18.12.2019
5916 Clear 12 1019 81 0 1.34 20 21:58 18.12.2019
5917 Clear 12 1019 81 0 1.34 20 21:58 18.12.2019
5918 Clear 12 1019 81 0 1.34 20 21:39 18.12.2019
5919 Clear 12 1020 81 0 1.34 20 21:20 18.12.2019
5920 Clear 12 1019 81 0 1.34 20 20:56 18.12.2019
5921 Clear 12 1019 81 0 1.34 20 20:38 18.12.2019
5922 Clear 12 1019 81 0 1.34 20 20:19 18.12.2019
5923 Clear 12 1020 81 0 1.34 20 19:56 18.12.2019
5924 Clear 12 1020 81 0 1.34 20 19:37 18.12.2019
5925 Clear 12 1020 81 0 1.34 20 19:18 18.12.2019
5926 Clear 12 1019 81 0 1.34 20 18:45 18.12.2019
5927 Clear 12 1019 81 0 1.34 20 18:25 18.12.2019
5928 Clear 12 1019 81 0 1.34 20 17:57 18.12.2019
5929 Clear 12 1019 81 0 1.34 20 17:39 18.12.2019
5930 Clear 12 1019 81 0 1.34 20 17:39 18.12.2019
5931 Clear 12 1019 81 0 1.34 20 17:20 18.12.2019
5932 Clear 12 1019 81 0 1.34 20 16:58 18.12.2019
5933 Clear 12 1019 81 0 1.34 20 16:39 18.12.2019
5934 Clouds 11 1019 87 10000 2.6 290 16:20 18.12.2019
5935 Clouds 11 1019 87 10000 2.6 290 15:56 18.12.2019
5936 Clouds 11 1019 87 10000 2.6 290 15:37 18.12.2019
5937 Clouds 11 1019 87 10000 2.6 290 15:19 18.12.2019
5938 Clouds 11 1019 93 8000 1 0 14:43 18.12.2019
5939 Clouds 11 1019 93 8000 1 0 14:22 18.12.2019
5940 Clouds 12 1020 81 10000 1.5 20 13:57 18.12.2019
5941 Clouds 12 1020 81 10000 1.5 20 13:39 18.12.2019
5942 Clouds 12 1020 81 10000 1.5 20 13:20 18.12.2019
5943 Clouds 12 1019 81 10000 3.6 310 12:59 18.12.2019
5944 Clouds 12 1019 81 10000 3.6 310 12:59 18.12.2019
5945 Clouds 12 1019 81 10000 3.6 310 12:39 18.12.2019
5946 Clouds 12 1019 81 10000 3.6 310 12:20 18.12.2019
5947 Clouds 12 1019 76 10000 3.6 310 11:56 18.12.2019
5948 Clouds 12 1019 76 10000 3.6 310 11:38 18.12.2019
5949 Clouds 12 1019 76 10000 3.6 310 11:19 18.12.2019
5950 Clouds 12 1018 76 10000 5.1 310 10:55 18.12.2019
5951 Clouds 12 1018 76 10000 5.1 310 10:37 18.12.2019
5952 Clouds 12 1018 76 10000 5.1 310 10:19 18.12.2019
5953 Clouds 13 1018 71 10000 5.1 300 09:50 18.12.2019
5954 Clouds 13 1018 71 10000 5.1 300 09:50 18.12.2019
5955 Clouds 13 1018 71 10000 5.1 300 09:50 18.12.2019
5956 Clouds 14 1018 71 10000 5.1 300 09:18 18.12.2019
5957 Clouds 15 1017 67 10000 4.6 310 08:41 18.12.2019
5958 Clouds 15 1017 67 10000 4.6 310 08:22 18.12.2019
5959 Clouds 16 1017 59 10000 4.6 300 07:45 18.12.2019
5960 Clouds 16 1017 59 10000 4.6 300 07:24 18.12.2019
5961 Clouds 16 1017 55 10000 4.1 300 06:57 18.12.2019
5962 Clouds 16 1017 55 10000 4.1 300 06:28 18.12.2019
5963 Clouds 16 1018 63 10000 5.7 320 05:57 18.12.2019
5964 Clouds 16 1018 72 10000 2.6 280 04:59 18.12.2019
5965 Clouds 15 1019 72 10000 1.5 270 02:55 18.12.2019
5966 Clouds 15 1019 72 10000 1.5 270 02:37 18.12.2019
5967 Clouds 15 1019 72 10000 1.5 270 02:18 18.12.2019
5968 Clouds 14 1019 76 10000 1 0 01:41 18.12.2019
5969 Clouds 14 1019 76 10000 1 0 01:22 18.12.2019
5970 Clouds 14 1019 76 10000 1 0 01:22 18.12.2019
5971 Clouds 13 1018 76 10000 4.6 300 00:41 18.12.2019
5972 Clouds 13 1018 76 10000 4.6 300 00:23 18.12.2019
5973 Clouds 13 1018 76 10000 4.6 300 00:23 18.12.2019
5974 Clouds 13 1017 82 10000 3.6 320 23:56 17.12.2019
5975 Clouds 13 1017 82 10000 3.6 320 23:38 17.12.2019
5976 Clouds 13 1017 82 10000 3.6 320 23:18 17.12.2019
5977 Rain 14 1018 76 10000 4.6 300 22:56 17.12.2019
5978 Rain 14 1018 76 10000 4.6 300 22:37 17.12.2019
5979 Clouds 14 1017 82 10000 3.1 270 22:18 17.12.2019
5980 Rain 16 1019 100 0 8.36 310 21:55 17.12.2019
5981 Rain 16 1019 100 0 8.36 310 21:37 17.12.2019
5982 Rain 16 1015 100 0 8.36 310 21:18 17.12.2019
5983 Rain 16 1019 100 0 8.36 310 20:55 17.12.2019
5984 Rain 16 1019 100 0 8.36 310 20:37 17.12.2019
5985 Clouds 16 1019 100 0 10.3 307 20:18 17.12.2019
5986 Clouds 16 1015 100 0 9.43 298 19:41 17.12.2019
5987 Clouds 16 1015 100 0 9.43 298 19:20 17.12.2019
5988 Clouds 16 1015 100 0 9.43 298 18:58 17.12.2019
5989 Clouds 16 1015 100 0 9.43 298 18:40 17.12.2019
5990 Clouds 16 1017 100 0 9.43 298 18:21 17.12.2019
5991 Clouds 16 1017 100 0 9.43 298 17:58 17.12.2019
5992 Clouds 16 1017 100 0 9.43 298 17:40 17.12.2019
5993 Rain 16 1017 100 0 9.03 302 17:19 17.12.2019
5994 Rain 16 1015 100 0 9.03 302 16:56 17.12.2019
5995 Rain 16 1015 100 0 9.03 302 16:37 17.12.2019
5996 Rain 16 1015 100 0 9.03 302 16:37 17.12.2019
5997 Mist 15 1014 100 1600 0.5 0 16:18 17.12.2019
5998 Mist 15 1014 100 1600 0.5 0 15:55 17.12.2019
5999 Mist 15 1014 100 1600 0.5 0 15:36 17.12.2019
6000 Mist 15 1014 100 1600 0.5 0 15:18 17.12.2019
6001 Mist 15 1014 100 1200 2.1 180 14:54 17.12.2019
6002 Mist 15 1014 100 1200 2.1 180 14:36 17.12.2019
6003 Mist 15 1014 100 1200 2.1 180 14:36 17.12.2019
6004 Mist 15 1014 100 1200 2.1 180 14:18 17.12.2019
6005 Clouds 15 1015 100 8000 0.5 0 13:54 17.12.2019
6006 Clouds 15 1015 100 8000 0.5 0 13:36 17.12.2019
6007 Clouds 15 1015 100 8000 0.5 0 13:18 17.12.2019
6008 Clouds 15 1015 100 7000 2.1 150 12:40 17.12.2019
6009 Clouds 15 1015 100 7000 2.1 150 12:19 17.12.2019
6010 Clouds 15 1015 100 8000 2.1 160 11:59 17.12.2019
6011 Clouds 16 1015 100 8000 2.1 160 11:37 17.12.2019
6012 Clouds 16 1015 100 8000 2.1 160 11:37 17.12.2019
6013 Clouds 16 1015 100 8000 2.1 160 11:19 17.12.2019
6014 Clouds 16 1015 93 9000 2.1 160 10:59 17.12.2019
6015 Clouds 16 1015 93 9000 2.1 160 10:40 17.12.2019
6016 Clouds 16 1015 93 9000 2.1 160 10:21 17.12.2019
6017 Clouds 16 1014 93 10000 2.1 150 09:59 17.12.2019
6018 Clouds 16 1014 93 10000 2.1 150 09:40 17.12.2019
6019 Clouds 16 1014 93 10000 2.1 150 09:19 17.12.2019
6020 Clouds 17 1014 88 10000 2.6 170 08:55 17.12.2019
6021 Clouds 17 1014 88 10000 2.6 170 08:37 17.12.2019
6022 Clouds 17 1014 88 10000 2.6 170 08:19 17.12.2019
6023 Clouds 17 1014 82 10000 1 0 07:45 17.12.2019
6024 Clouds 18 1014 82 10000 1 0 07:24 17.12.2019
6025 Rain 16 1014 93 10000 1.5 330 06:55 17.12.2019
6026 Rain 16 1014 93 10000 1.5 330 06:32 17.12.2019
6027 Rain 16 1014 93 9000 0.5 0 05:52 17.12.2019
6028 Thunderstorm 16 1014 93 10000 2.1 340 05:32 17.12.2019
6029 Rain 15 1014 93 6000 3.6 150 04:19 17.12.2019
6030 Rain 13 1017 93 4000 4.1 160 02:27 17.12.2019
6031 Clouds 13 1016 93 6000 5.1 140 01:34 17.12.2019
6032 Clouds 13 1016 93 6000 4.6 130 00:49 17.12.2019
6033 Clouds 13 1016 93 6000 4.6 130 00:22 17.12.2019
6034 Mist 12 1018 100 1200 1 0 23:59 16.12.2019
6035 Mist 12 1018 100 1200 1 0 23:40 16.12.2019
6036 Clouds 12 1017 100 8000 5.1 120 23:18 16.12.2019
6037 Mist 12 1017 100 5000 3.1 150 22:55 16.12.2019
6038 Mist 12 1017 100 5000 3.1 150 22:36 16.12.2019
6039 Mist 12 1017 100 5000 3.1 150 22:18 16.12.2019
6040 Clouds 13 1020 87 0 4.47 150 21:54 16.12.2019
6041 Clouds 13 1020 87 0 4.47 150 21:36 16.12.2019
6042 Clouds 13 1020 87 0 4.47 150 21:18 16.12.2019
6043 Clouds 13 1020 87 0 4.47 150 20:56 16.12.2019
6044 Clouds 13 1020 87 0 4.47 150 20:37 16.12.2019
6045 Rain 13 1020 87 0 4.47 150 20:18 16.12.2019
6046 Rain 13 1020 87 0 4.47 150 20:18 16.12.2019
6047 Rain 13 1020 87 0 4.47 150 19:54 16.12.2019
6048 Rain 13 1020 87 0 4.47 150 19:36 16.12.2019
6049 Rain 13 1020 87 0 4.47 150 19:18 16.12.2019
6050 Rain 13 1020 87 0 4.47 150 19:18 16.12.2019
6051 Rain 13 1020 87 0 4.47 150 18:42 16.12.2019
6052 Rain 13 1020 87 0 4.47 150 18:20 16.12.2019
6053 Rain 13 1020 87 0 4.47 150 17:59 16.12.2019
6054 Rain 13 1020 87 0 4.47 150 17:41 16.12.2019
6055 Rain 13 1020 87 0 4.47 150 17:22 16.12.2019
6056 Rain 13 1020 87 0 4.47 150 16:59 16.12.2019
6057 Rain 13 1020 87 0 4.47 150 16:39 16.12.2019
6058 Rain 13 1020 87 0 4.47 150 16:39 16.12.2019
6059 Mist 12 1019 93 4000 2.1 90 16:20 16.12.2019
6060 Mist 12 1019 93 4000 2.1 90 15:59 16.12.2019
6061 Mist 12 1019 93 4000 2.1 90 15:39 16.12.2019
6062 Mist 12 1019 93 4000 2.1 90 15:21 16.12.2019
6063 Mist 12 1020 93 5000 1 110 14:58 16.12.2019
6064 Mist 12 1020 93 5000 1 110 14:38 16.12.2019
6065 Mist 12 1020 93 5000 1 110 14:20 16.12.2019
6066 Clouds 12 1020 87 8000 4.6 150 13:58 16.12.2019
6067 Clouds 12 1020 87 8000 4.6 150 13:38 16.12.2019
6068 Clouds 12 1020 87 8000 4.6 150 13:20 16.12.2019
6069 Clouds 12 1020 93 7000 4.1 120 12:58 16.12.2019
6070 Clouds 12 1020 93 7000 4.1 120 12:39 16.12.2019
6071 Clouds 12 1020 93 7000 4.1 120 12:19 16.12.2019
6072 Clouds 12 1020 87 8000 5.7 150 11:59 16.12.2019
6073 Clouds 12 1020 87 8000 5.7 150 11:40 16.12.2019
6074 Clouds 12 1020 87 8000 5.7 150 11:21 16.12.2019
6075 Clouds 12 1020 87 8000 6.7 140 10:58 16.12.2019
6076 Clouds 12 1020 87 8000 6.7 140 10:40 16.12.2019
6077 Clouds 12 1020 87 8000 6.7 140 10:20 16.12.2019
6078 Clouds 12 1020 87 8000 5.7 150 09:45 16.12.2019
6079 Clouds 12 1020 87 8000 5.7 150 09:27 16.12.2019
6080 Clouds 13 1020 87 9000 4.6 160 08:57 16.12.2019
6081 Clouds 13 1020 87 9000 4.6 160 08:38 16.12.2019
6082 Clouds 13 1020 87 9000 4.6 160 08:18 16.12.2019
6083 Rain 12 1020 87 8000 5.7 140 07:47 16.12.2019
6084 Rain 12 1020 87 8000 5.7 140 07:28 16.12.2019
6085 Clouds 11 1021 87 10000 5.7 140 06:45 16.12.2019
6086 Clouds 11 1021 87 10000 5.7 140 06:26 16.12.2019
6087 Rain 13 1022 76 10000 5.1 140 05:52 16.12.2019
6088 Rain 13 1022 76 10000 5.1 140 05:33 16.12.2019
6089 Clouds 13 1023 76 10000 1 0 04:22 16.12.2019
6090 Clouds 10 1024 76 10000 2.1 140 02:31 16.12.2019
6091 Clouds 9 1024 81 10000 3.1 130 01:45 16.12.2019
6092 Clouds 9 1024 81 10000 3.1 130 01:45 16.12.2019
6093 Clouds 8 1024 87 10000 2.6 130 00:43 16.12.2019
6094 Clouds 8 1024 87 10000 2.6 130 00:25 16.12.2019
6095 Clouds 6 1024 87 10000 3.1 130 23:59 15.12.2019
6096 Clouds 7 1024 87 10000 3.1 130 23:39 15.12.2019
6097 Clouds 7 1024 87 10000 3.1 130 23:20 15.12.2019
6098 Clouds 8 1025 81 10000 5.7 140 22:56 15.12.2019
6099 Clouds 8 1025 81 10000 5.7 140 22:37 15.12.2019
6100 Clouds 7 1025 81 10000 5.7 140 22:18 15.12.2019
6101 Clouds 10 1025 81 0 2.68 150 21:56 15.12.2019
6102 Clouds 10 1025 81 0 2.68 150 21:56 15.12.2019
6103 Clouds 10 1025 81 0 2.68 150 21:37 15.12.2019
6104 Clouds 10 1025 81 0 2.68 150 21:37 15.12.2019
6105 Clouds 10 1025 81 0 2.68 150 21:19 15.12.2019
6106 Clouds 10 1025 81 0 2.68 150 20:56 15.12.2019
6107 Clouds 10 1025 81 0 2.68 150 20:37 15.12.2019
6108 Clouds 10 1025 81 0 2.68 150 20:18 15.12.2019
6109 Clouds 10 1025 81 0 2.68 150 19:56 15.12.2019
6110 Clouds 10 1025 81 0 2.68 150 19:38 15.12.2019
6111 Clouds 10 1025 81 0 2.68 150 19:18 15.12.2019
6112 Clouds 10 1025 81 0 2.68 150 18:55 15.12.2019
6113 Clouds 10 1025 81 0 2.68 150 18:37 15.12.2019
6114 Clouds 10 1025 81 0 2.68 150 18:18 15.12.2019
6115 Clouds 10 1025 81 0 2.68 150 17:55 15.12.2019
6116 Clouds 10 1025 81 0 2.68 150 17:36 15.12.2019
6117 Clouds 10 1025 81 0 2.68 150 17:18 15.12.2019
6118 Clouds 10 1025 81 0 2.68 150 16:43 15.12.2019
6119 Clouds 8 1025 81 10000 3.1 360 16:23 15.12.2019
6120 Clouds 8 1025 81 10000 3.1 360 15:57 15.12.2019
6121 Clouds 8 1025 81 10000 3.1 360 15:39 15.12.2019
6122 Clouds 9 1025 81 10000 3.1 360 15:19 15.12.2019
6123 Clouds 9 1025 70 10000 3.6 360 14:56 15.12.2019
6124 Clouds 9 1025 70 10000 3.6 360 14:38 15.12.2019
6125 Clouds 9 1025 70 10000 3.6 360 14:19 15.12.2019
6126 Clear 9 1025 81 10000 3.1 150 13:58 15.12.2019
6127 Clear 9 1025 81 10000 3.1 150 13:39 15.12.2019
6128 Clear 9 1025 81 10000 3.1 150 13:20 15.12.2019
6129 Clear 10 1025 71 10000 0.5 0 12:57 15.12.2019
6130 Clear 10 1025 71 10000 0.5 0 12:39 15.12.2019
6131 Clear 10 1025 71 10000 0.5 0 12:21 15.12.2019
6132 Clear 9 1025 76 10000 0.5 0 11:58 15.12.2019
6133 Clear 9 1025 76 10000 0.5 0 11:37 15.12.2019
6134 Clear 10 1025 76 10000 0.5 0 11:19 15.12.2019
6135 Clear 10 1025 76 10000 0.5 0 11:19 15.12.2019
6136 Clear 11 1025 58 10000 4.6 10 10:55 15.12.2019
6137 Clear 11 1025 58 10000 4.6 10 10:37 15.12.2019
6138 Clear 11 1025 58 10000 4.6 10 10:19 15.12.2019
6139 Clear 12 1025 58 10000 1.5 280 09:41 15.12.2019
6140 Clear 12 1025 58 10000 1.5 280 09:20 15.12.2019
6141 Clear 14 1024 44 10000 1.5 360 08:59 15.12.2019
6142 Clear 15 1024 44 10000 1.5 360 08:41 15.12.2019
6143 Clear 15 1024 44 10000 1.5 360 08:22 15.12.2019
6144 Clear 15 1025 44 10000 2.1 270 07:56 15.12.2019
6145 Clear 15 1025 44 10000 2.1 270 07:35 15.12.2019
6146 Clouds 15 1025 44 10000 2.1 320 06:52 15.12.2019
6147 Clouds 15 1025 44 10000 2.1 320 06:20 15.12.2019
6148 Clouds 15 1025 41 10000 2.1 280 05:26 15.12.2019
6149 Clouds 14 1025 47 10000 2.6 280 04:47 15.12.2019
6150 Clouds 14 1026 41 10000 1.5 220 03:31 15.12.2019
6151 Clear 12 1027 50 10000 1.5 160 02:34 15.12.2019
6152 Clouds 11 1027 50 10000 4.6 60 01:47 15.12.2019
6153 Clouds 11 1027 50 10000 4.6 60 01:28 15.12.2019
6154 Clouds 10 1026 57 10000 2.1 70 00:58 15.12.2019
6155 Clouds 10 1026 57 10000 2.1 70 00:40 15.12.2019
6156 Clouds 10 1026 57 10000 2.1 70 00:21 15.12.2019
6157 Clouds 10 1026 50 10000 4.6 40 23:40 14.12.2019
6158 Clouds 10 1026 50 10000 4.6 40 23:21 14.12.2019
6159 Clouds 9 1026 57 10000 1.5 70 22:58 14.12.2019
6160 Clouds 9 1026 57 10000 1.5 70 22:40 14.12.2019
6161 Clouds 9 1026 57 10000 1.5 70 22:21 14.12.2019
6162 Clouds 10 1024 71 0 2.24 360 21:56 14.12.2019
6163 Clouds 10 1024 71 0 2.24 360 21:56 14.12.2019
6164 Clouds 10 1024 71 0 2.24 360 21:37 14.12.2019
6165 Clouds 10 1024 71 0 2.24 360 21:18 14.12.2019
6166 Clouds 10 1024 71 0 2.24 360 20:56 14.12.2019
6167 Clouds 10 1024 71 0 2.24 360 20:37 14.12.2019
6168 Clouds 10 1024 71 0 2.24 360 20:19 14.12.2019
6169 Clouds 10 1024 71 0 2.24 360 20:19 14.12.2019
6170 Clouds 10 1024 71 0 2.24 360 19:54 14.12.2019
6171 Clouds 10 1024 71 0 2.24 360 19:36 14.12.2019
6172 Clouds 10 1024 71 0 2.24 360 19:18 14.12.2019
6173 Clouds 10 1024 71 0 2.24 360 18:55 14.12.2019
6174 Clouds 10 1024 71 0 2.24 360 18:36 14.12.2019
6175 Clouds 10 1024 71 0 2.24 360 18:18 14.12.2019
6176 Clouds 10 1024 71 0 2.24 360 17:42 14.12.2019
6177 Clouds 10 1024 71 0 2.24 360 17:22 14.12.2019
6178 Clouds 10 1024 71 0 2.24 360 16:42 14.12.2019
6179 Clouds 9 1026 65 10000 2.6 20 16:20 14.12.2019
6180 Clouds 9 1026 65 10000 2.6 20 15:58 14.12.2019
6181 Clouds 9 1026 65 10000 2.6 20 15:39 14.12.2019
6182 Clouds 9 1026 65 10000 2.6 20 15:20 14.12.2019
6183 Clouds 10 1025 57 10000 4.6 20 14:57 14.12.2019
6184 Clouds 10 1025 57 10000 4.6 20 14:38 14.12.2019
6185 Clouds 10 1025 57 10000 4.6 20 14:38 14.12.2019
6186 Clouds 10 1025 57 10000 4.6 20 14:19 14.12.2019
6187 Clouds 10 1024 71 10000 2.6 360 13:45 14.12.2019
6188 Clouds 10 1024 71 10000 2.6 360 13:20 14.12.2019
6189 Clouds 10 1025 66 10000 2.1 30 12:58 14.12.2019
6190 Clouds 10 1025 66 10000 2.1 30 12:58 14.12.2019
6191 Clouds 10 1025 66 10000 2.1 30 12:40 14.12.2019
6192 Clouds 10 1025 66 10000 2.1 30 12:20 14.12.2019
6193 Clouds 11 1024 66 10000 3.1 20 11:58 14.12.2019
6194 Clouds 11 1024 66 10000 3.1 20 11:58 14.12.2019
6195 Clouds 11 1024 66 10000 3.1 20 11:39 14.12.2019
6196 Clouds 11 1024 66 10000 3.1 20 11:19 14.12.2019
6197 Clouds 11 1024 66 10000 3.1 20 11:19 14.12.2019
6198 Clouds 12 1024 62 10000 5.1 330 10:57 14.12.2019
6199 Clouds 12 1024 62 10000 5.1 330 10:39 14.12.2019
6200 Clouds 12 1024 62 10000 5.1 330 10:20 14.12.2019
6201 Clouds 13 1024 58 10000 5.1 310 09:55 14.12.2019
6202 Clouds 13 1024 58 10000 5.1 310 09:55 14.12.2019
6203 Clouds 13 1024 58 10000 5.1 310 09:36 14.12.2019
6204 Clouds 13 1024 58 10000 5.1 310 09:18 14.12.2019
6205 Clouds 14 1023 62 10000 6.2 310 08:41 14.12.2019
6206 Clouds 14 1023 62 10000 6.2 310 08:19 14.12.2019
6207 Clouds 15 1023 59 10000 5.7 310 07:41 14.12.2019
6208 Clouds 15 1023 59 10000 5.7 310 07:22 14.12.2019
6209 Clouds 15 1023 51 10000 4.1 320 06:55 14.12.2019
6210 Clouds 15 1023 51 10000 4.1 320 06:36 14.12.2019
6211 Clouds 15 1024 48 10000 3.1 340 05:56 14.12.2019
6212 Clouds 13 1025 67 10000 1 0 04:35 14.12.2019
6213 Clouds 12 1026 71 10000 2.1 340 02:25 14.12.2019
6214 Clouds 10 1025 76 10000 1 0 01:44 14.12.2019
6215 Clouds 10 1025 76 10000 1 0 01:44 14.12.2019
6216 Clouds 10 1025 76 10000 1 0 01:44 14.12.2019
6217 Clouds 11 1025 76 10000 1 0 01:22 14.12.2019
6218 Rain 9 1025 81 10000 2.6 0 00:43 14.12.2019
6219 Rain 9 1025 81 10000 2.6 0 00:24 14.12.2019
6220 Clouds 8 1024 81 10000 4.1 140 23:42 13.12.2019
6221 Clouds 8 1024 81 10000 4.1 140 23:20 13.12.2019
6222 Clouds 7 1025 81 10000 2.6 140 22:59 13.12.2019
6223 Clouds 8 1025 81 10000 2.6 140 22:40 13.12.2019
6224 Clouds 8 1025 81 10000 2.6 140 22:19 13.12.2019
6225 Clouds 8 1024 75 0 1.34 120 21:55 13.12.2019
6226 Clouds 8 1024 75 0 1.34 120 21:36 13.12.2019
6227 Clouds 8 1024 75 0 1.34 120 21:18 13.12.2019
6228 Clouds 8 1024 75 0 1.34 120 20:40 13.12.2019
6229 Clouds 8 1024 75 0 1.34 120 20:21 13.12.2019
6230 Clouds 8 1024 75 0 1.34 120 19:57 13.12.2019
6231 Clouds 8 1024 75 0 1.34 120 19:39 13.12.2019
6232 Clouds 8 1024 75 0 1.34 120 19:20 13.12.2019
6233 Clouds 8 1024 75 0 1.34 120 18:56 13.12.2019
6234 Clouds 8 1024 75 0 1.34 120 18:38 13.12.2019
6235 Clouds 8 1024 75 0 1.34 120 18:38 13.12.2019
6236 Clouds 8 1024 75 0 1.34 120 18:18 13.12.2019
6237 Clouds 8 1024 75 0 1.34 120 17:40 13.12.2019
6238 Clouds 8 1024 75 0 1.34 120 17:19 13.12.2019
6239 Clouds 8 1024 75 0 1.34 120 17:19 13.12.2019
6240 Clouds 8 1024 75 0 1.34 120 16:58 13.12.2019
6241 Clouds 8 1024 75 0 1.34 120 16:39 13.12.2019
6242 Clouds 7 1024 75 10000 2.1 40 16:20 13.12.2019
6243 Clouds 7 1024 75 10000 2.1 40 15:43 13.12.2019
6244 Clouds 7 1024 75 10000 2.1 40 15:22 13.12.2019
6245 Clouds 6 1025 86 10000 1.5 310 14:57 13.12.2019
6246 Clouds 6 1025 86 10000 1.5 310 14:57 13.12.2019
6247 Clouds 6 1025 86 10000 1.5 310 14:39 13.12.2019
6248 Clouds 7 1025 86 10000 1.5 310 14:19 13.12.2019
6249 Clouds 7 1024 75 10000 1.5 120 13:44 13.12.2019
6250 Clouds 7 1024 75 10000 1.5 120 13:26 13.12.2019
6251 Clouds 8 1024 70 10000 2.6 140 12:59 13.12.2019
6252 Clouds 8 1024 70 10000 2.6 140 12:41 13.12.2019
6253 Clouds 8 1024 70 10000 2.6 140 12:19 13.12.2019
6254 Clouds 9 1024 57 10000 2.6 160 11:45 13.12.2019
6255 Clouds 9 1024 57 10000 2.6 160 11:45 13.12.2019
6256 Clouds 9 1024 57 10000 2.6 160 11:26 13.12.2019
6257 Clouds 10 1024 61 10000 3.6 130 10:58 13.12.2019
6258 Clouds 10 1024 61 10000 3.6 130 10:40 13.12.2019
6259 Clouds 10 1024 61 10000 3.6 130 10:21 13.12.2019
6260 Clouds 11 1025 53 10000 2.6 310 09:43 13.12.2019
6261 Clouds 11 1025 53 10000 2.6 310 09:22 13.12.2019
6262 Clouds 12 1025 30 10000 2.1 350 08:55 13.12.2019
6263 Clouds 12 1025 30 10000 2.1 350 08:55 13.12.2019
6264 Clouds 12 1025 30 10000 2.1 350 08:36 13.12.2019
6265 Clouds 13 1025 30 10000 2.1 350 08:18 13.12.2019
6266 Clouds 13 1025 37 10000 1 0 07:42 13.12.2019
6267 Clouds 13 1025 37 10000 1 0 07:19 13.12.2019
6268 Clouds 13 1025 43 10000 1.5 340 06:39 13.12.2019
6269 Clouds 13 1025 43 10000 1.5 340 06:20 13.12.2019
6270 Clouds 12 1026 50 10000 2.1 350 05:37 13.12.2019
6271 Clear 12 1026 50 10000 2.1 350 05:19 13.12.2019
6272 Clear 9 1028 49 10000 0.5 0 03:55 13.12.2019
6273 Clouds 8 1028 57 10000 1 0 02:35 13.12.2019
6274 Clear 7 1027 61 10000 3.1 130 01:54 13.12.2019
6275 Clear 7 1027 61 10000 3.1 130 01:27 13.12.2019
6276 Clear 4 1027 80 10000 1.5 110 00:47 13.12.2019
6277 Clear 4 1027 80 10000 1.5 110 00:26 13.12.2019
6278 Clear 2 1027 86 10000 2.1 90 23:42 12.12.2019
6279 Clear 2 1027 86 10000 2.1 90 23:24 12.12.2019
6280 Clear 4 1027 75 10000 0.5 0 22:56 12.12.2019
6281 Clear 4 1027 75 10000 0.5 0 22:38 12.12.2019
6282 Clear 4 1027 75 10000 0.5 0 22:19 12.12.2019
6283 Clear 6 1027 56 0 2.24 10 21:55 12.12.2019
6284 Clear 6 1027 56 0 2.24 10 21:37 12.12.2019
6285 Clear 6 1027 56 0 2.24 10 21:19 12.12.2019
6286 Clear 6 1027 56 0 2.24 10 20:58 12.12.2019
6287 Clear 6 1027 56 0 2.24 10 20:39 12.12.2019
6288 Clear 6 1027 56 0 2.24 10 20:21 12.12.2019
6289 Clear 6 1027 56 0 2.24 10 19:55 12.12.2019
6290 Clear 6 1027 56 0 2.24 10 19:37 12.12.2019
6291 Clear 6 1027 56 0 2.24 10 19:18 12.12.2019
6292 Clear 6 1027 56 0 2.24 10 18:55 12.12.2019
6293 Clear 6 1027 56 0 2.24 10 18:37 12.12.2019
6294 Clear 6 1027 56 0 2.24 10 18:18 12.12.2019
6295 Clear 6 1027 56 0 2.24 10 17:55 12.12.2019
6296 Clear 6 1027 56 0 2.24 10 17:37 12.12.2019
6297 Clear 6 1027 56 0 2.24 10 17:19 12.12.2019
6298 Clear 6 1027 56 0 2.24 10 16:54 12.12.2019
6299 Clear 6 1027 56 0 2.24 10 16:36 12.12.2019
6300 Clear 3 1028 80 10000 2.1 340 16:18 12.12.2019
6301 Clear 4 1028 80 10000 2.1 340 15:42 12.12.2019
6302 Clear 5 1028 80 10000 2.1 340 15:19 12.12.2019
6303 Clear 5 1027 74 10000 2.1 360 14:57 12.12.2019
6304 Clear 5 1027 74 10000 2.1 360 14:36 12.12.2019
6305 Clouds 5 1027 74 10000 2.1 360 14:18 12.12.2019
6306 Clouds 5 1027 56 10000 2.6 10 13:54 12.12.2019
6307 Clouds 5 1027 56 10000 2.6 10 13:36 12.12.2019
6308 Clouds 5 1027 56 10000 2.6 10 13:18 12.12.2019
6309 Clouds 5 1027 56 10000 2.6 10 13:18 12.12.2019
6310 Clouds 7 1027 45 10000 2.1 30 12:42 12.12.2019
6311 Clouds 7 1027 45 10000 2.1 30 12:22 12.12.2019
6312 Clouds 8 1026 49 10000 5.1 20 11:59 12.12.2019
6313 Clouds 8 1026 49 10000 5.1 20 11:40 12.12.2019
6314 Clouds 8 1026 49 10000 5.1 20 11:21 12.12.2019
6315 Clouds 8 1026 45 10000 6.7 360 10:58 12.12.2019
6316 Clouds 8 1026 45 10000 6.7 360 10:40 12.12.2019
6317 Clouds 8 1026 45 10000 6.7 360 10:22 12.12.2019
6318 Clouds 10 1025 39 10000 5.7 10 09:56 12.12.2019
6319 Clouds 10 1025 39 10000 5.7 10 09:38 12.12.2019
6320 Clouds 10 1025 39 10000 5.7 10 09:19 12.12.2019
6321 Clouds 11 1024 37 10000 5.7 350 08:47 12.12.2019
6322 Clouds 11 1024 37 10000 5.7 350 08:28 12.12.2019
6323 Clouds 12 1024 37 10000 7.2 340 07:54 12.12.2019
6324 Clouds 12 1024 37 10000 7.2 340 07:36 12.12.2019
6325 Clouds 12 1024 37 10000 7.2 340 07:18 12.12.2019
6326 Clouds 12 1024 55 10000 5.7 360 06:41 12.12.2019
6327 Clouds 12 1024 55 10000 5.7 360 06:21 12.12.2019
6328 Clouds 13 1024 43 10000 4.6 340 05:26 12.12.2019
6329 Clouds 12 1025 43 10000 2.6 360 04:31 12.12.2019
6330 Clouds 11 1025 50 10000 5.1 350 02:41 12.12.2019
6331 Clouds 11 1025 50 10000 5.1 350 02:23 12.12.2019
6332 Clouds 10 1025 53 10000 7.2 340 01:58 12.12.2019
6333 Clouds 10 1025 53 10000 7.2 340 01:35 12.12.2019
6334 Clouds 9 1024 53 10000 6.2 310 00:49 12.12.2019
6335 Clouds 9 1024 53 10000 6.2 310 00:22 12.12.2019
6336 Clouds 9 1024 57 10000 6.2 320 23:58 11.12.2019
6337 Clouds 9 1024 57 10000 6.2 320 23:36 11.12.2019
6338 Clouds 9 1024 57 10000 6.2 320 23:18 11.12.2019
6339 Clouds 10 1023 53 10000 7.2 330 22:55 11.12.2019
6340 Clouds 10 1023 53 10000 7.2 330 22:36 11.12.2019
6341 Clouds 10 1023 53 10000 7.2 330 22:18 11.12.2019
6342 Clear 12 1017 87 0 1.34 120 21:39 11.12.2019
6343 Clear 12 1017 87 0 1.34 120 21:20 11.12.2019
6344 Clear 12 1017 87 0 1.34 120 21:20 11.12.2019
6345 Clear 12 1017 87 0 1.34 120 20:58 11.12.2019
6346 Clear 12 1017 87 0 1.34 120 20:40 11.12.2019
6347 Clouds 12 1017 87 0 1.34 120 20:19 11.12.2019
6348 Clouds 12 1017 87 0 1.34 120 19:59 11.12.2019
6349 Clouds 12 1017 87 0 1.34 120 19:40 11.12.2019
6350 Clouds 12 1017 87 0 1.34 120 19:21 11.12.2019
6351 Clouds 12 1017 87 0 1.34 120 18:57 11.12.2019
6352 Clouds 12 1017 87 0 1.34 120 18:38 11.12.2019
6353 Clouds 12 1017 87 0 1.34 120 18:18 11.12.2019
6354 Clouds 12 1017 87 0 1.34 120 17:55 11.12.2019
6355 Clouds 12 1017 87 0 1.34 120 17:36 11.12.2019
6356 Rain 12 1017 87 0 1.34 120 17:18 11.12.2019
6357 Rain 12 1017 87 0 1.34 120 16:55 11.12.2019
6358 Rain 12 1017 87 0 1.34 120 16:55 11.12.2019
6359 Rain 12 1017 87 0 1.34 120 16:36 11.12.2019
6360 Mist 11 1018 93 5000 2.1 310 16:18 11.12.2019
6361 Mist 11 1018 93 5000 2.1 310 15:41 11.12.2019
6362 Mist 11 1018 93 5000 2.1 310 15:41 11.12.2019
6363 Mist 11 1018 93 5000 2.1 310 15:23 11.12.2019
6364 Mist 11 1018 93 5000 2.1 310 15:23 11.12.2019
6365 Mist 9 1017 100 4000 1.5 340 14:57 11.12.2019
6366 Mist 9 1017 100 4000 1.5 340 14:39 11.12.2019
6367 Mist 10 1017 100 4000 1.5 340 14:20 11.12.2019
6368 Clouds 11 1017 87 10000 1.5 120 13:58 11.12.2019
6369 Clouds 11 1017 87 10000 1.5 120 13:39 11.12.2019
6370 Clouds 11 1017 87 10000 1.5 120 13:20 11.12.2019
6371 Mist 11 1017 93 3500 1 0 12:57 11.12.2019
6372 Clouds 11 1017 93 10000 1.5 150 12:38 11.12.2019
6373 Clouds 11 1017 93 10000 1.5 150 12:19 11.12.2019
6374 Mist 12 1017 93 4000 1.5 20 11:57 11.12.2019
6375 Clouds 11 1016 87 10000 3.1 150 11:38 11.12.2019
6376 Clouds 11 1016 87 10000 3.1 150 11:18 11.12.2019
6377 Clouds 11 1016 87 10000 3.1 150 11:18 11.12.2019
6378 Clouds 12 1016 82 10000 1.5 140 10:55 11.12.2019
6379 Clouds 12 1016 82 10000 1.5 140 10:37 11.12.2019
6380 Clouds 11 1016 82 10000 1.5 140 10:19 11.12.2019
6381 Clouds 14 1015 77 10000 1 0 09:40 11.12.2019
6382 Clouds 14 1015 77 10000 1 0 09:21 11.12.2019
6383 Clouds 15 1015 67 10000 3.1 140 08:57 11.12.2019
6384 Clouds 15 1015 67 10000 3.1 140 08:38 11.12.2019
6385 Clouds 15 1015 67 10000 3.1 140 08:19 11.12.2019
6386 Clouds 15 1015 67 10000 3.6 140 07:47 11.12.2019
6387 Clouds 15 1015 67 10000 3.6 140 07:29 11.12.2019
6388 Clouds 14 1016 72 10000 3.6 130 06:59 11.12.2019
6389 Clouds 14 1016 72 10000 3.6 130 06:40 11.12.2019
6390 Clouds 14 1016 72 10000 3.6 130 06:21 11.12.2019
6391 Clouds 13 1016 82 10000 6.7 140 05:41 11.12.2019
6392 Clouds 12 1016 82 10000 6.7 140 05:19 11.12.2019
6393 Clouds 13 1017 76 10000 4.1 140 04:26 11.12.2019
6394 Clouds 9 1019 87 10000 5.1 140 02:49 11.12.2019
6395 Clouds 9 1019 87 10000 4.6 140 01:25 11.12.2019
6396 Clouds 8 1019 93 10000 5.7 140 00:47 11.12.2019
6397 Clouds 8 1019 93 10000 5.7 140 00:21 11.12.2019
6398 Clouds 7 1018 87 10000 4.1 140 23:47 10.12.2019
6399 Clouds 7 1018 87 10000 4.1 140 23:28 10.12.2019
6400 Clear 7 1019 93 10000 5.7 140 22:58 10.12.2019
6401 Clear 8 1019 93 10000 5.7 140 22:39 10.12.2019
6402 Clear 8 1019 93 10000 5.7 140 22:21 10.12.2019
6403 Clear 10 1020 81 0 1.79 150 21:55 10.12.2019
6404 Clear 10 1020 81 0 1.79 150 21:55 10.12.2019
6405 Clear 10 1020 81 0 1.79 150 21:37 10.12.2019
6406 Clear 10 1020 81 0 1.79 150 21:19 10.12.2019
6407 Clear 10 1020 81 0 1.79 150 20:57 10.12.2019
6408 Clear 10 1020 81 0 1.79 150 20:37 10.12.2019
6409 Clear 10 1020 81 0 1.79 150 20:37 10.12.2019
6410 Clear 10 1020 81 0 1.79 150 20:19 10.12.2019
6411 Clear 10 1020 81 0 1.79 150 19:55 10.12.2019
6412 Clear 10 1020 81 0 1.79 150 19:37 10.12.2019
6413 Clear 10 1020 81 0 1.79 150 19:18 10.12.2019
6414 Clear 10 1020 81 0 1.79 150 18:40 10.12.2019
6415 Clear 10 1020 81 0 1.79 150 18:20 10.12.2019
6416 Clear 10 1020 81 0 1.79 150 17:58 10.12.2019
6417 Clear 10 1020 81 0 1.79 150 17:39 10.12.2019
6418 Clear 10 1020 81 0 1.79 150 17:20 10.12.2019
6419 Clear 10 1020 81 0 1.79 150 16:43 10.12.2019
6420 Clear 7 1020 93 8000 2.6 20 16:21 10.12.2019
6421 Clear 7 1020 93 8000 2.6 20 16:21 10.12.2019
6422 Clear 8 1020 93 8000 2.6 20 15:59 10.12.2019
6423 Clear 8 1020 93 8000 2.6 20 15:37 10.12.2019
6424 Clear 9 1020 93 8000 2.6 20 15:18 10.12.2019
6425 Clear 9 1020 87 10000 2.6 40 14:55 10.12.2019
6426 Clear 9 1020 87 10000 2.6 40 14:37 10.12.2019
6427 Clouds 10 1020 87 10000 2.6 40 14:19 10.12.2019
6428 Clouds 9 1020 81 10000 2.1 150 13:56 10.12.2019
6429 Clouds 9 1020 81 10000 2.1 150 13:56 10.12.2019
6430 Clouds 10 1020 81 10000 2.1 150 13:38 10.12.2019
6431 Clouds 10 1020 81 10000 2.1 150 13:18 10.12.2019
6432 Clouds 10 1020 87 10000 2.1 140 12:41 10.12.2019
6433 Clouds 10 1020 87 10000 2.1 140 12:22 10.12.2019
6434 Clouds 11 1020 76 10000 1 0 11:44 10.12.2019
6435 Clouds 11 1020 76 10000 1 0 11:25 10.12.2019
6436 Clouds 12 1020 76 10000 3.1 130 10:57 10.12.2019
6437 Clouds 12 1020 76 10000 3.1 130 10:38 10.12.2019
6438 Clouds 12 1020 76 10000 3.1 130 10:38 10.12.2019
6439 Clouds 12 1020 76 10000 3.1 130 10:20 10.12.2019
6440 Clouds 12 1020 66 10000 0.5 0 09:56 10.12.2019
6441 Clouds 12 1020 66 10000 0.5 0 09:56 10.12.2019
6442 Clouds 12 1020 66 10000 0.5 0 09:56 10.12.2019
6443 Clouds 12 1020 66 10000 0.5 0 09:38 10.12.2019
6444 Clouds 12 1020 66 10000 0.5 0 09:38 10.12.2019
6445 Clouds 12 1020 66 10000 0.5 0 09:38 10.12.2019
6446 Clouds 13 1020 66 10000 0.5 0 09:19 10.12.2019
6447 Clouds 14 1020 58 10000 1 0 08:55 10.12.2019
6448 Clouds 14 1020 58 10000 1 0 08:36 10.12.2019
6449 Clouds 14 1020 58 10000 1 0 08:36 10.12.2019
6450 Clouds 15 1020 58 10000 1 0 08:18 10.12.2019
6451 Clouds 15 1020 51 10000 1.5 130 07:44 10.12.2019
6452 Clouds 15 1020 51 10000 1.5 130 07:44 10.12.2019
6453 Clouds 15 1020 51 10000 1.5 130 07:44 10.12.2019
6454 Clouds 15 1020 51 10000 1.5 130 07:25 10.12.2019
6455 Clouds 15 1020 55 10000 2.1 150 06:47 10.12.2019
6456 Clouds 15 1020 55 10000 2.1 150 06:19 10.12.2019
6457 Clouds 15 1021 55 10000 3.1 160 05:54 10.12.2019
6458 Clouds 13 1021 62 10000 4.6 150 04:55 10.12.2019
6459 Clouds 12 1022 66 10000 5.1 140 03:38 10.12.2019
6460 Clouds 9 1023 81 10000 4.6 140 02:46 10.12.2019
6461 Clouds 8 1023 87 10000 4.1 140 01:45 10.12.2019
6462 Clouds 8 1023 87 10000 4.1 140 01:21 10.12.2019
6463 Clouds 7 1023 87 10000 4.6 140 00:42 10.12.2019
6464 Clouds 7 1023 87 10000 4.6 140 00:21 10.12.2019
6465 Clouds 6 1023 87 10000 4.6 140 23:42 09.12.2019
6466 Clouds 6 1023 87 10000 4.6 140 23:42 09.12.2019
6467 Clouds 6 1023 87 10000 4.6 140 23:23 09.12.2019
6468 Clouds 6 1023 87 10000 4.6 140 23:23 09.12.2019
6469 Clouds 6 1023 93 10000 5.1 130 22:58 09.12.2019
6470 Clouds 5 1023 93 6000 2.1 350 22:40 09.12.2019
6471 Clouds 5 1023 93 6000 2.1 350 22:20 09.12.2019
6472 Clouds 9 1024 81 0 1.34 110 21:57 09.12.2019
6473 Clouds 9 1024 81 0 1.34 110 21:38 09.12.2019
6474 Clouds 9 1024 81 0 1.34 110 21:19 09.12.2019
6475 Clouds 9 1024 81 0 1.34 110 20:56 09.12.2019
6476 Clouds 9 1024 81 0 1.34 110 20:38 09.12.2019
6477 Clear 9 1024 81 0 1.34 110 20:20 09.12.2019
6478 Clear 9 1024 81 0 1.34 110 19:56 09.12.2019
6479 Clear 9 1024 81 0 1.34 110 19:37 09.12.2019
6480 Clear 9 1024 81 0 1.34 110 19:19 09.12.2019
6481 Clear 9 1024 81 0 1.34 110 18:56 09.12.2019
6482 Clear 9 1024 81 0 1.34 110 18:38 09.12.2019
6483 Clear 9 1024 81 0 1.34 110 18:19 09.12.2019
6484 Clear 9 1024 81 0 1.34 110 17:57 09.12.2019
6485 Clear 9 1024 81 0 1.34 110 17:38 09.12.2019
6486 Clear 9 1024 81 0 1.34 110 17:20 09.12.2019
6487 Clear 9 1024 81 0 1.34 110 16:56 09.12.2019
6488 Clear 9 1024 81 0 1.34 110 16:37 09.12.2019
6489 Clouds 6 1025 86 10000 2.1 350 16:19 09.12.2019
6490 Clouds 7 1025 86 10000 2.1 350 15:55 09.12.2019
6491 Clouds 7 1025 86 10000 2.1 350 15:55 09.12.2019
6492 Clouds 7 1025 86 10000 2.1 350 15:37 09.12.2019
6493 Clouds 7 1025 86 10000 2.1 350 15:37 09.12.2019
6494 Clouds 7 1025 86 10000 2.1 350 15:19 09.12.2019
6495 Clouds 8 1024 87 10000 1.5 20 14:42 09.12.2019
6496 Clouds 8 1024 87 10000 1.5 20 14:19 09.12.2019
6497 Clouds 8 1024 81 10000 1.5 110 13:58 09.12.2019
6498 Clouds 8 1024 81 10000 1.5 110 13:38 09.12.2019
6499 Clouds 8 1024 81 10000 1.5 110 13:19 09.12.2019
6500 Clouds 9 1024 87 10000 3.1 130 12:57 09.12.2019
6501 Clouds 9 1024 87 10000 3.1 130 12:38 09.12.2019
6502 Clouds 9 1024 87 10000 3.1 130 12:20 09.12.2019
6503 Clouds 10 1023 71 10000 2.1 130 11:58 09.12.2019
6504 Clouds 10 1023 71 10000 2.1 130 11:39 09.12.2019
6505 Clouds 10 1023 71 10000 2.1 130 11:21 09.12.2019
6506 Clouds 10 1023 66 10000 3.1 120 10:54 09.12.2019
6507 Clouds 11 1023 66 10000 3.1 120 10:36 09.12.2019
6508 Clouds 11 1023 66 10000 3.1 120 10:18 09.12.2019
6509 Clouds 12 1023 62 10000 3.6 120 09:41 09.12.2019
6510 Clouds 12 1023 62 10000 3.6 120 09:21 09.12.2019
6511 Clouds 12 1023 58 10000 4.6 140 08:54 09.12.2019
6512 Clouds 12 1023 58 10000 4.6 140 08:36 09.12.2019
6513 Clouds 13 1023 58 10000 4.6 140 08:18 09.12.2019
6514 Clouds 13 1023 58 10000 4.6 140 08:18 09.12.2019
6515 Clouds 13 1023 50 10000 4.1 140 07:42 09.12.2019
6516 Clouds 13 1023 50 10000 4.1 140 07:23 09.12.2019
6517 Clouds 13 1023 54 10000 5.1 140 06:47 09.12.2019
6518 Clouds 13 1023 54 10000 5.1 140 06:25 09.12.2019
6519 Clouds 13 1023 54 10000 4.1 150 05:29 09.12.2019
6520 Clouds 12 1024 50 10000 4.1 140 04:46 09.12.2019
6521 Clouds 11 1025 58 10000 5.7 140 03:21 09.12.2019
6522 Clouds 8 1025 76 10000 7.2 140 02:24 09.12.2019
6523 Clouds 7 1025 81 10000 6.2 140 01:42 09.12.2019
6524 Clouds 5 1025 81 10000 5.1 140 00:46 09.12.2019
6525 Clouds 5 1025 81 10000 5.1 140 00:27 09.12.2019
6526 Clouds 4 1025 86 10000 3.1 130 23:43 08.12.2019
6527 Clouds 4 1025 86 10000 3.1 130 23:24 08.12.2019
6528 Clouds 4 1025 93 10000 2.6 130 22:57 08.12.2019
6529 Clouds 4 1025 93 10000 2.6 130 22:39 08.12.2019
6530 Clouds 3 1025 93 10000 2.6 130 22:19 08.12.2019
6531 Clear 7 1026 70 0 1.79 360 21:58 08.12.2019
6532 Clear 7 1026 70 0 1.79 360 21:40 08.12.2019
6533 Clear 7 1026 70 0 1.79 360 21:20 08.12.2019
6534 Clear 7 1026 70 0 1.79 360 21:20 08.12.2019
6535 Clear 7 1026 70 0 1.79 360 20:57 08.12.2019
6536 Clear 7 1026 70 0 1.79 360 20:38 08.12.2019
6537 Clear 7 1026 70 0 1.79 360 20:20 08.12.2019
6538 Clear 7 1026 70 0 1.79 360 20:20 08.12.2019
6539 Clear 7 1026 70 0 1.79 360 19:58 08.12.2019
6540 Clear 7 1026 70 0 1.79 360 19:40 08.12.2019
6541 Clear 7 1026 70 0 1.79 360 19:22 08.12.2019
6542 Clear 7 1026 70 0 1.79 360 18:55 08.12.2019
6543 Clear 7 1026 70 0 1.79 360 18:37 08.12.2019
6544 Clear 7 1026 70 0 1.79 360 18:37 08.12.2019
6545 Clear 7 1026 70 0 1.79 360 18:18 08.12.2019
6546 Clear 7 1026 70 0 1.79 360 17:56 08.12.2019
6547 Clear 7 1026 70 0 1.79 360 17:56 08.12.2019
6548 Clear 7 1026 70 0 1.79 360 17:38 08.12.2019
6549 Clear 7 1026 70 0 1.79 360 17:19 08.12.2019
6550 Clear 7 1026 70 0 1.79 360 16:56 08.12.2019
6551 Clear 7 1026 70 0 1.79 360 16:38 08.12.2019
6552 Clear 6 1026 80 10000 1.5 10 16:20 08.12.2019
6553 Clear 6 1026 80 10000 1.5 10 15:54 08.12.2019
6554 Clear 6 1026 80 10000 1.5 10 15:36 08.12.2019
6555 Clear 6 1026 80 10000 1.5 10 15:18 08.12.2019
6556 Clear 6 1026 86 10000 2.6 330 14:40 08.12.2019
6557 Clear 6 1026 86 10000 2.6 330 14:40 08.12.2019
6558 Clear 6 1026 86 10000 2.6 330 14:22 08.12.2019
6559 Clear 6 1026 70 10000 2.1 360 13:57 08.12.2019
6560 Clear 6 1026 70 10000 2.1 360 13:38 08.12.2019
6561 Clear 7 1026 70 10000 2.1 360 13:20 08.12.2019
6562 Clear 7 1025 70 10000 2.1 360 12:54 08.12.2019
6563 Clear 7 1025 70 10000 2.1 360 12:36 08.12.2019
6564 Clear 7 1025 70 10000 2.1 360 12:18 08.12.2019
6565 Clouds 8 1025 61 10000 2.6 40 11:38 08.12.2019
6566 Clouds 8 1025 61 10000 2.6 40 11:38 08.12.2019
6567 Clouds 8 1025 61 10000 2.6 40 11:20 08.12.2019
6568 Clouds 9 1025 61 10000 4.1 20 10:59 08.12.2019
6569 Clouds 9 1025 61 10000 4.1 20 10:38 08.12.2019
6570 Clouds 9 1025 61 10000 4.1 20 10:20 08.12.2019
6571 Clouds 10 1025 57 10000 4.1 310 09:57 08.12.2019
6572 Clouds 10 1025 57 10000 4.1 310 09:38 08.12.2019
6573 Clouds 10 1025 57 10000 4.1 310 09:19 08.12.2019
6574 Clouds 11 1024 46 10000 4.1 330 08:57 08.12.2019
6575 Clouds 11 1024 46 10000 4.1 330 08:37 08.12.2019
6576 Clouds 11 1024 46 10000 4.1 330 08:37 08.12.2019
6577 Clouds 11 1024 46 10000 4.1 330 08:37 08.12.2019
6578 Clouds 12 1024 46 10000 4.1 330 08:18 08.12.2019
6579 Clouds 12 1024 47 10000 4.1 330 07:42 08.12.2019
6580 Clouds 12 1024 47 10000 4.1 330 07:19 08.12.2019
6581 Clouds 12 1024 43 10000 5.1 340 06:50 08.12.2019
6582 Clouds 12 1024 43 10000 5.1 340 06:22 08.12.2019
6583 Clouds 12 1025 43 10000 5.1 340 05:43 08.12.2019
6584 Clouds 12 1025 43 10000 5.7 340 04:59 08.12.2019
6585 Clouds 11 1026 46 10000 5.1 340 03:49 08.12.2019
6586 Clouds 11 1026 46 10000 5.1 340 03:21 08.12.2019
6587 Clouds 9 1027 53 10000 2.1 350 02:38 08.12.2019
6588 Clouds 7 1026 65 10000 1 0 01:54 08.12.2019
6589 Clouds 5 1026 81 10000 1 0 00:59 08.12.2019
6590 Clouds 5 1026 81 10000 1 0 00:39 08.12.2019
6591 Clouds 5 1026 81 10000 1 0 00:19 08.12.2019
6592 Clouds 5 1026 75 10000 1 0 23:40 07.12.2019
6593 Clouds 5 1026 75 10000 1 0 23:20 07.12.2019
6594 Clouds 5 1026 70 10000 1.5 100 22:56 07.12.2019
6595 Clouds 5 1026 70 10000 1.5 100 22:38 07.12.2019
6596 Clouds 5 1026 70 10000 1.5 100 22:20 07.12.2019
6597 Clear 7 1025 65 0 2.68 30 21:56 07.12.2019
6598 Clear 7 1025 65 0 2.68 30 21:56 07.12.2019
6599 Clear 7 1025 65 0 2.68 30 21:38 07.12.2019
6600 Clear 7 1025 65 0 2.68 30 21:19 07.12.2019
6601 Clear 7 1026 65 0 2.68 30 20:55 07.12.2019
6602 Clear 7 1025 65 0 2.68 30 20:36 07.12.2019
6603 Clear 7 1025 65 0 2.68 30 20:18 07.12.2019
6604 Clear 7 1026 65 0 2.68 30 19:55 07.12.2019
6605 Clear 7 1026 65 0 2.68 30 19:37 07.12.2019
6606 Clear 7 1026 65 0 2.68 30 19:18 07.12.2019
6607 Clear 7 1026 65 0 2.68 30 18:44 07.12.2019
6608 Clear 7 1026 65 0 2.68 30 18:19 07.12.2019
6609 Clear 7 1026 65 0 2.68 30 17:57 07.12.2019
6610 Clear 7 1026 65 0 2.68 30 17:39 07.12.2019
6611 Clear 7 1026 65 0 2.68 30 17:20 07.12.2019
6612 Clear 7 1026 65 0 2.68 30 16:56 07.12.2019
6613 Clear 7 1026 65 0 2.68 30 16:56 07.12.2019
6614 Clear 7 1026 65 0 2.68 30 16:37 07.12.2019
6615 Clouds 5 1026 80 10000 1.5 260 16:19 07.12.2019
6616 Clouds 5 1026 80 10000 1.5 260 15:42 07.12.2019
6617 Clouds 5 1026 80 10000 1.5 260 15:23 07.12.2019
6618 Clouds 5 1026 80 10000 1.5 260 15:23 07.12.2019
6619 Clouds 5 1026 80 10000 1.5 360 14:57 07.12.2019
6620 Clouds 6 1026 80 10000 1.5 360 14:39 07.12.2019
6621 Clouds 6 1026 80 10000 1.5 360 14:18 07.12.2019
6622 Clouds 6 1026 65 10000 3.1 30 13:41 07.12.2019
6623 Clouds 6 1026 65 10000 3.1 30 13:21 07.12.2019
6624 Clouds 6 1026 55 10000 2.6 20 12:58 07.12.2019
6625 Clouds 6 1026 55 10000 2.6 20 12:40 07.12.2019
6626 Clouds 6 1026 55 10000 2.6 20 12:22 07.12.2019
6627 Clouds 7 1025 55 10000 4.6 20 11:57 07.12.2019
6628 Clouds 7 1025 55 10000 4.6 20 11:38 07.12.2019
6629 Clouds 7 1025 58 10000 4.6 20 11:20 07.12.2019
6630 Clouds 8 1025 52 10000 5.7 10 10:38 07.12.2019
6631 Clouds 8 1025 52 10000 5.7 10 10:19 07.12.2019
6632 Clouds 8 1025 52 10000 5.7 10 10:19 07.12.2019
6633 Clouds 9 1024 49 10000 5.7 360 09:41 07.12.2019
6634 Clouds 9 1024 49 10000 5.7 360 09:22 07.12.2019
6635 Clouds 10 1024 58 10000 6.2 340 08:56 07.12.2019
6636 Clouds 10 1024 58 10000 6.2 340 08:37 07.12.2019
6637 Clouds 10 1024 47 10000 6.2 340 08:19 07.12.2019
6638 Clouds 11 1024 47 10000 6.7 330 07:44 07.12.2019
6639 Clouds 11 1024 47 10000 6.7 330 07:23 07.12.2019
6640 Clouds 12 1024 40 10000 6.2 330 06:45 07.12.2019
6641 Clouds 12 1024 40 10000 6.2 330 06:24 07.12.2019
6642 Clouds 11 1025 50 10000 4.6 330 05:19 07.12.2019
6643 Clouds 9 1027 53 10000 5.1 330 03:54 07.12.2019
6644 Clouds 9 1027 53 10000 5.7 340 02:56 07.12.2019
6645 Clouds 9 1027 53 10000 5.7 340 02:21 07.12.2019
6646 Clouds 8 1027 57 10000 4.1 360 01:31 07.12.2019
6647 Clouds 7 1027 61 10000 2.6 30 00:52 07.12.2019
6648 Clouds 7 1027 61 10000 2.6 30 00:19 07.12.2019
6649 Clouds 7 1026 61 10000 2.6 40 23:48 06.12.2019
6650 Clouds 7 1026 61 10000 2.6 40 23:24 06.12.2019
6651 Clouds 7 1026 61 10000 2.6 30 22:58 06.12.2019
6652 Clouds 7 1026 61 10000 2.6 30 22:37 06.12.2019
6653 Clouds 7 1026 61 10000 2.6 30 22:19 06.12.2019
6654 Rain 8 1029 70 0 2.68 10 21:56 06.12.2019
6655 Rain 8 1029 70 0 2.68 10 21:56 06.12.2019
6656 Rain 8 1029 70 0 2.68 10 21:38 06.12.2019
6657 Rain 8 1029 70 0 2.68 10 21:19 06.12.2019
6658 Rain 8 1029 70 0 2.68 10 20:42 06.12.2019
6659 Rain 8 1029 70 0 2.68 10 20:22 06.12.2019
6660 Rain 8 1029 70 0 2.68 10 19:57 06.12.2019
6661 Rain 8 1029 70 0 2.68 10 19:57 06.12.2019
6662 Rain 8 1029 70 0 2.68 10 19:39 06.12.2019
6663 Rain 8 1029 70 0 2.68 10 19:21 06.12.2019
6664 Rain 8 1029 70 0 2.68 10 18:45 06.12.2019
6665 Rain 8 1029 70 0 2.68 10 18:23 06.12.2019
6666 Rain 8 1029 70 0 2.68 10 17:58 06.12.2019
6667 Rain 8 1029 70 0 2.68 10 17:40 06.12.2019
6668 Clouds 8 1029 70 0 2.68 10 17:22 06.12.2019
6669 Clouds 8 1029 70 0 2.68 10 16:59 06.12.2019
6670 Clouds 8 1029 70 0 2.68 10 16:40 06.12.2019
6671 Clouds 7 1028 93 10000 1.5 340 16:21 06.12.2019
6672 Clouds 7 1028 93 10000 1.5 340 15:56 06.12.2019
6673 Clouds 7 1028 93 10000 1.5 340 15:38 06.12.2019
6674 Clouds 7 1028 93 10000 1.5 340 15:38 06.12.2019
6675 Clouds 7 1028 93 10000 1.5 340 15:18 06.12.2019
6676 Clouds 7 1028 93 10000 1.5 340 15:18 06.12.2019
6677 Clouds 7 1028 87 10000 2.1 340 14:41 06.12.2019
6678 Clouds 8 1028 87 10000 2.1 340 14:20 06.12.2019
6679 Clouds 8 1029 70 10000 3.1 10 13:58 06.12.2019
6680 Clouds 8 1029 70 10000 3.1 10 13:58 06.12.2019
6681 Clouds 8 1029 70 10000 3.1 10 13:40 06.12.2019
6682 Clouds 8 1029 70 10000 3.1 10 13:40 06.12.2019
6683 Clouds 8 1029 70 10000 3.1 10 13:21 06.12.2019
6684 Clouds 8 1029 70 10000 3.1 10 13:21 06.12.2019
6685 Clouds 8 1028 75 10000 3.6 10 12:40 06.12.2019
6686 Clouds 8 1028 75 10000 3.6 10 12:21 06.12.2019
6687 Clouds 8 1028 75 10000 4.1 10 11:43 06.12.2019
6688 Clouds 8 1028 75 10000 4.1 10 11:23 06.12.2019
6689 Clouds 8 1028 70 10000 3.1 20 10:58 06.12.2019
6690 Clouds 8 1028 70 10000 3.1 20 10:40 06.12.2019
6691 Clouds 8 1028 70 10000 3.1 20 10:20 06.12.2019
6692 Clouds 9 1028 61 10000 4.1 10 09:56 06.12.2019
6693 Clouds 9 1028 61 10000 4.1 10 09:37 06.12.2019
6694 Clouds 9 1028 61 10000 4.1 10 09:19 06.12.2019
6695 Clouds 9 1028 61 10000 4.1 10 09:19 06.12.2019
6696 Rain 9 1028 61 10000 3.6 10 08:43 06.12.2019
6697 Rain 9 1028 61 10000 3.6 10 08:25 06.12.2019
6698 Rain 9 1028 57 10000 5.1 10 07:43 06.12.2019
6699 Rain 9 1028 57 10000 5.1 10 07:23 06.12.2019
6700 Rain 9 1028 57 10000 5.1 10 07:23 06.12.2019
6701 Rain 9 1028 57 10000 5.1 10 07:23 06.12.2019
6702 Clouds 9 1028 63 10000 3.1 30 06:53 06.12.2019
6703 Clouds 9 1028 63 10000 3.1 30 06:26 06.12.2019
6704 Clouds 9 1029 46 10000 4.1 360 05:51 06.12.2019
6705 Clouds 8 1031 49 10000 4.1 10 03:50 06.12.2019
6706 Clouds 7 1031 71 10000 8.2 350 01:46 06.12.2019
6707 Clouds 6 1030 71 10000 6.2 10 00:56 06.12.2019
6708 Clouds 6 1030 71 10000 6.2 10 00:24 06.12.2019
6709 Clouds 6 1030 71 10000 6.2 20 23:56 05.12.2019
6710 Clouds 7 1030 67 10000 6.2 20 23:21 05.12.2019
6711 Clouds 8 1030 61 10000 5.7 20 22:59 05.12.2019
6712 Clouds 8 1030 61 10000 5.7 20 22:39 05.12.2019
6713 Clouds 8 1030 61 10000 5.7 20 22:39 05.12.2019
6714 Clouds 8 1030 61 10000 5.7 20 22:20 05.12.2019
6715 Clouds 10 1031 46 0 1.79 50 21:58 05.12.2019
6716 Clouds 10 1031 46 0 1.79 50 21:58 05.12.2019
6717 Clouds 10 1031 46 0 1.79 50 21:40 05.12.2019
6718 Clouds 10 1031 46 0 1.79 50 21:22 05.12.2019
6719 Clouds 10 1031 46 0 1.79 50 20:58 05.12.2019
6720 Clouds 10 1031 46 0 1.79 50 20:39 05.12.2019
6721 Clouds 10 1031 46 0 1.79 50 20:19 05.12.2019
6722 Clouds 10 1031 46 0 1.79 50 19:43 05.12.2019
6723 Clouds 10 1031 46 0 1.79 50 19:25 05.12.2019
6724 Clouds 10 1031 46 0 1.79 50 18:59 05.12.2019
6725 Clouds 10 1031 46 0 1.79 50 18:39 05.12.2019
6726 Clouds 10 1031 46 0 1.79 50 18:20 05.12.2019
6727 Clouds 10 1031 46 0 1.79 50 17:56 05.12.2019
6728 Clouds 10 1031 46 0 1.79 50 17:37 05.12.2019
6729 Clouds 10 1031 46 0 1.79 50 17:18 05.12.2019
6730 Clouds 10 1031 46 0 1.79 50 16:40 05.12.2019
6731 Clouds 8 1030 81 10000 1 340 16:22 05.12.2019
6732 Clouds 8 1030 81 10000 1 340 15:59 05.12.2019
6733 Clouds 7 1030 81 10000 1 340 15:40 05.12.2019
6734 Clouds 7 1030 81 10000 1 340 15:21 05.12.2019
6735